<?xml version="1.0" encoding="UTF-8" standalone="no" ?>
<gpx xmlns="http://www.topografix.com/GPX/1/1" xmlns:xsi="http://www.w3.org/2001/XMLSchema-instance" xsi:schemaLocation="http://www.topografix.com/GPX/1/1 http://www.topografix.com/GPX/1/1/gpx.xsd" version="1.1" creator="VisuGPX - https://www.visugpx.com">
  <metadata>
    <name>Ruynes en Margeride_Ambert</name>
  </metadata>
  <trk>
    <name><![CDATA[Ruynes en Margeride_Ambert]]></name>
    <extensions>
      <line xmlns="http://www.topografix.com/GPX/gpx_style/0/2">
        <color>0000FF</color>
        <width>4</width>
      </line>
    </extensions>
    <trkseg>
      <trkpt lat="45.01189" lon="3.25084">
        <ele>1055.8</ele>
        <time>2022-06-20T19:00:55.000Z</time>
        <extensions>
          <visugpx:TrkExtension xmlns:visugpx="https://www.visugpx.com/editgpx/">
            <visugpx:node>2</visugpx:node>
            </visugpx:TrkExtension>
        </extensions>
      </trkpt>
      <trkpt lat="45.01129" lon="3.25143">
        <ele>1056.8</ele>
        <time>2022-06-20T19:01:08.824Z</time>
      </trkpt>
      <trkpt lat="45.01059" lon="3.25237">
        <ele>1053.6</ele>
        <time>2022-06-20T19:01:18.901Z</time>
      </trkpt>
      <trkpt lat="45.01048" lon="3.25249">
        <ele>1052.8</ele>
        <time>2022-06-20T19:01:20.063Z</time>
      </trkpt>
      <trkpt lat="45.01038" lon="3.25257">
        <ele>1051.9</ele>
        <time>2022-06-20T19:01:21.040Z</time>
      </trkpt>
      <trkpt lat="45.01015" lon="3.25263">
        <ele>1050.4</ele>
        <time>2022-06-20T19:01:22.897Z</time>
      </trkpt>
      <trkpt lat="45.00991" lon="3.25266">
        <ele>1049</ele>
        <time>2022-06-20T19:01:24.904Z</time>
      </trkpt>
      <trkpt lat="45.00746" lon="3.25262">
        <ele>1036.8</ele>
        <time>2022-06-20T19:01:46.787Z</time>
      </trkpt>
      <trkpt lat="45.007" lon="3.2526">
        <ele>1034.8</ele>
        <time>2022-06-20T19:01:51.136Z</time>
      </trkpt>
      <trkpt lat="45.00668" lon="3.25255">
        <ele>1033.1</ele>
        <time>2022-06-20T19:01:53.938Z</time>
      </trkpt>
      <trkpt lat="45.00536" lon="3.25195">
        <ele>1028</ele>
        <time>2022-06-20T19:02:07.900Z</time>
      </trkpt>
      <trkpt lat="45.0049" lon="3.25172">
        <ele>1023.8</ele>
        <time>2022-06-20T19:02:12.048Z</time>
      </trkpt>
      <trkpt lat="45.00471" lon="3.25167">
        <ele>1022.9</ele>
        <time>2022-06-20T19:02:13.823Z</time>
      </trkpt>
      <trkpt lat="45.00458" lon="3.25169">
        <ele>1021.5</ele>
        <time>2022-06-20T19:02:14.935Z</time>
      </trkpt>
      <trkpt lat="45.00436" lon="3.25175">
        <ele>1019.7</ele>
        <time>2022-06-20T19:02:16.840Z</time>
      </trkpt>
      <trkpt lat="45.00401" lon="3.25188">
        <ele>1017.1</ele>
        <time>2022-06-20T19:02:19.917Z</time>
      </trkpt>
      <trkpt lat="45.00383" lon="3.25192">
        <ele>1015.3</ele>
        <time>2022-06-20T19:02:21.466Z</time>
      </trkpt>
      <trkpt lat="45.00334" lon="3.25195">
        <ele>1010.1</ele>
        <time>2022-06-20T19:02:25.636Z</time>
      </trkpt>
      <trkpt lat="45.0031" lon="3.252">
        <ele>1008.4</ele>
        <time>2022-06-20T19:02:27.698Z</time>
      </trkpt>
      <trkpt lat="45.00238" lon="3.25221">
        <ele>1001.8</ele>
        <time>2022-06-20T19:02:33.949Z</time>
      </trkpt>
      <trkpt lat="45.0022" lon="3.25223">
        <ele>999.7</ele>
        <time>2022-06-20T19:02:35.484Z</time>
      </trkpt>
      <trkpt lat="45.00175" lon="3.25218">
        <ele>995.4</ele>
        <time>2022-06-20T19:02:39.322Z</time>
      </trkpt>
      <trkpt lat="45.00166" lon="3.2522">
        <ele>994.8</ele>
        <time>2022-06-20T19:02:40.036Z</time>
      </trkpt>
      <trkpt lat="45.00161" lon="3.25195">
        <ele>992.9</ele>
        <time>2022-06-20T19:02:41.597Z</time>
      </trkpt>
      <trkpt lat="45.00159" lon="3.25129">
        <ele>987.7</ele>
        <time>2022-06-20T19:02:45.569Z</time>
      </trkpt>
      <trkpt lat="45.00162" lon="3.25093">
        <ele>985.4</ele>
        <time>2022-06-20T19:02:47.748Z</time>
      </trkpt>
      <trkpt lat="45.0017" lon="3.24956">
        <ele>977.6</ele>
        <time>2022-06-20T19:02:56.012Z</time>
      </trkpt>
      <trkpt lat="45.00173" lon="3.24933">
        <ele>975.9</ele>
        <time>2022-06-20T19:02:57.418Z</time>
      </trkpt>
      <trkpt lat="45.0018" lon="3.24908">
        <ele>974.4</ele>
        <time>2022-06-20T19:02:59.035Z</time>
        <extensions>
          <visugpx:TrkExtension xmlns:visugpx="https://www.visugpx.com/editgpx/">
            <visugpx:node>1</visugpx:node>
            </visugpx:TrkExtension>
        </extensions>
      </trkpt>
      <trkpt lat="45.0019" lon="3.24868">
        <ele>971.8</ele>
        <time>2022-06-20T19:03:01.585Z</time>
      </trkpt>
      <trkpt lat="45.00194" lon="3.24841">
        <ele>970.5</ele>
        <time>2022-06-20T19:03:03.105Z</time>
      </trkpt>
      <trkpt lat="45.00199" lon="3.24797">
        <ele>968.9</ele>
        <time>2022-06-20T19:03:05.895Z</time>
      </trkpt>
      <trkpt lat="45.00223" lon="3.24656">
        <ele>964.6</ele>
        <time>2022-06-20T19:03:15.725Z</time>
      </trkpt>
      <trkpt lat="45.00227" lon="3.24625">
        <ele>963.2</ele>
        <time>2022-06-20T19:03:17.512Z</time>
      </trkpt>
      <trkpt lat="45.00229" lon="3.24603">
        <ele>962.5</ele>
        <time>2022-06-20T19:03:18.979Z</time>
      </trkpt>
      <trkpt lat="45.00224" lon="3.24565">
        <ele>962.2</ele>
        <time>2022-06-20T19:03:22.662Z</time>
      </trkpt>
      <trkpt lat="45.00218" lon="3.24534">
        <ele>962</ele>
        <time>2022-06-20T19:03:25.815Z</time>
      </trkpt>
      <trkpt lat="45.00211" lon="3.2449">
        <ele>963</ele>
        <time>2022-06-20T19:03:33.218Z</time>
      </trkpt>
      <trkpt lat="45.00197" lon="3.24377">
        <ele>964.1</ele>
        <time>2022-06-20T19:03:48.543Z</time>
      </trkpt>
      <trkpt lat="45.00191" lon="3.2436">
        <ele>963.9</ele>
        <time>2022-06-20T19:03:50.266Z</time>
      </trkpt>
      <trkpt lat="45.00179" lon="3.24343">
        <ele>963.5</ele>
        <time>2022-06-20T19:03:52.231Z</time>
      </trkpt>
      <trkpt lat="45.00166" lon="3.24333">
        <ele>963</ele>
        <time>2022-06-20T19:03:53.766Z</time>
      </trkpt>
      <trkpt lat="45.00124" lon="3.24303">
        <ele>959.9</ele>
        <time>2022-06-20T19:03:57.453Z</time>
      </trkpt>
      <trkpt lat="45.00034" lon="3.24247">
        <ele>955.1</ele>
        <time>2022-06-20T19:04:06.309Z</time>
      </trkpt>
      <trkpt lat="45" lon="3.2422">
        <ele>952</ele>
        <time>2022-06-20T19:04:09.625Z</time>
      </trkpt>
      <trkpt lat="44.99983" lon="3.24209">
        <ele>950.8</ele>
        <time>2022-06-20T19:04:11.109Z</time>
      </trkpt>
      <trkpt lat="44.99943" lon="3.2419">
        <ele>946.9</ele>
        <time>2022-06-20T19:04:14.696Z</time>
      </trkpt>
      <trkpt lat="44.99922" lon="3.24188">
        <ele>945.4</ele>
        <time>2022-06-20T19:04:16.486Z</time>
      </trkpt>
      <trkpt lat="44.99898" lon="3.24194">
        <ele>943.7</ele>
        <time>2022-06-20T19:04:18.558Z</time>
      </trkpt>
      <trkpt lat="44.99885" lon="3.24193">
        <ele>942.7</ele>
        <time>2022-06-20T19:04:19.665Z</time>
      </trkpt>
      <trkpt lat="44.99856" lon="3.2418">
        <ele>940.7</ele>
        <time>2022-06-20T19:04:22.051Z</time>
      </trkpt>
      <trkpt lat="44.99814" lon="3.24153">
        <ele>938</ele>
        <time>2022-06-20T19:04:25.881Z</time>
      </trkpt>
      <trkpt lat="44.9981" lon="3.24147">
        <ele>937.6</ele>
        <time>2022-06-20T19:04:26.377Z</time>
      </trkpt>
      <trkpt lat="44.99804" lon="3.24133">
        <ele>936.5</ele>
        <time>2022-06-20T19:04:27.361Z</time>
      </trkpt>
      <trkpt lat="44.99778" lon="3.24066">
        <ele>932.4</ele>
        <time>2022-06-20T19:04:31.956Z</time>
      </trkpt>
      <trkpt lat="44.99772" lon="3.24046">
        <ele>931.1</ele>
        <time>2022-06-20T19:04:33.262Z</time>
      </trkpt>
      <trkpt lat="44.99769" lon="3.24029">
        <ele>929.8</ele>
        <time>2022-06-20T19:04:34.315Z</time>
      </trkpt>
      <trkpt lat="44.99772" lon="3.2387">
        <ele>929.5</ele>
        <time>2022-06-20T19:04:52.195Z</time>
      </trkpt>
      <trkpt lat="44.99778" lon="3.23817">
        <ele>929.4</ele>
        <time>2022-06-20T19:04:58.231Z</time>
      </trkpt>
      <trkpt lat="44.99789" lon="3.23775">
        <ele>928.2</ele>
        <time>2022-06-20T19:05:01.386Z</time>
      </trkpt>
      <trkpt lat="44.99803" lon="3.23739">
        <ele>925.8</ele>
        <time>2022-06-20T19:05:03.856Z</time>
      </trkpt>
      <trkpt lat="44.99827" lon="3.23666">
        <ele>920.8</ele>
        <time>2022-06-20T19:05:08.696Z</time>
      </trkpt>
      <trkpt lat="44.99842" lon="3.23592">
        <ele>913.6</ele>
        <time>2022-06-20T19:05:13.324Z</time>
      </trkpt>
      <trkpt lat="44.99853" lon="3.23523">
        <ele>908</ele>
        <time>2022-06-20T19:05:17.577Z</time>
      </trkpt>
      <trkpt lat="44.99853" lon="3.23492">
        <ele>906.4</ele>
        <time>2022-06-20T19:05:19.440Z</time>
      </trkpt>
      <trkpt lat="44.99847" lon="3.23444">
        <ele>902.9</ele>
        <time>2022-06-20T19:05:22.371Z</time>
      </trkpt>
      <trkpt lat="44.99848" lon="3.23417">
        <ele>901.5</ele>
        <time>2022-06-20T19:05:23.996Z</time>
      </trkpt>
      <trkpt lat="44.99855" lon="3.23386">
        <ele>900.3</ele>
        <time>2022-06-20T19:05:26.010Z</time>
      </trkpt>
      <trkpt lat="44.99864" lon="3.23366">
        <ele>898.5</ele>
        <time>2022-06-20T19:05:27.435Z</time>
      </trkpt>
      <trkpt lat="44.99902" lon="3.233">
        <ele>892.1</ele>
        <time>2022-06-20T19:05:32.552Z</time>
      </trkpt>
      <trkpt lat="44.99914" lon="3.23275">
        <ele>889.6</ele>
        <time>2022-06-20T19:05:34.369Z</time>
      </trkpt>
      <trkpt lat="44.99917" lon="3.23264">
        <ele>889.3</ele>
        <time>2022-06-20T19:05:35.215Z</time>
      </trkpt>
      <trkpt lat="44.99919" lon="3.23206">
        <ele>884.4</ele>
        <time>2022-06-20T19:05:38.706Z</time>
      </trkpt>
      <trkpt lat="44.99917" lon="3.23161">
        <ele>880.8</ele>
        <time>2022-06-20T19:05:41.417Z</time>
      </trkpt>
      <trkpt lat="44.99921" lon="3.23125">
        <ele>878.5</ele>
        <time>2022-06-20T19:05:43.608Z</time>
      </trkpt>
      <trkpt lat="44.99935" lon="3.23058">
        <ele>874.2</ele>
        <time>2022-06-20T19:05:47.808Z</time>
      </trkpt>
      <trkpt lat="44.99969" lon="3.22931">
        <ele>865.9</ele>
        <time>2022-06-20T19:05:55.972Z</time>
      </trkpt>
      <trkpt lat="44.99978" lon="3.22906">
        <ele>864</ele>
        <time>2022-06-20T19:05:57.658Z</time>
      </trkpt>
      <trkpt lat="44.99985" lon="3.22895">
        <ele>863.1</ele>
        <time>2022-06-20T19:05:58.548Z</time>
      </trkpt>
      <trkpt lat="44.99995" lon="3.22887">
        <ele>862.3</ele>
        <time>2022-06-20T19:05:59.525Z</time>
      </trkpt>
      <trkpt lat="45.00022" lon="3.22873">
        <ele>858.7</ele>
        <time>2022-06-20T19:06:01.970Z</time>
      </trkpt>
      <trkpt lat="45.00037" lon="3.2287">
        <ele>857.5</ele>
        <time>2022-06-20T19:06:03.258Z</time>
      </trkpt>
      <trkpt lat="45.00055" lon="3.2287">
        <ele>855.8</ele>
        <time>2022-06-20T19:06:04.788Z</time>
      </trkpt>
      <trkpt lat="45.00078" lon="3.22873">
        <ele>852.7</ele>
        <time>2022-06-20T19:06:06.752Z</time>
      </trkpt>
      <trkpt lat="45.00098" lon="3.22878">
        <ele>851.5</ele>
        <time>2022-06-20T19:06:08.430Z</time>
      </trkpt>
      <trkpt lat="45.00113" lon="3.2288">
        <ele>850.2</ele>
        <time>2022-06-20T19:06:09.711Z</time>
      </trkpt>
      <trkpt lat="45.00122" lon="3.2288">
        <ele>848.9</ele>
        <time>2022-06-20T19:06:10.477Z</time>
      </trkpt>
      <trkpt lat="45.00126" lon="3.22878">
        <ele>848.2</ele>
        <time>2022-06-20T19:06:10.837Z</time>
      </trkpt>
      <trkpt lat="45.0013" lon="3.22869">
        <ele>846.6</ele>
        <time>2022-06-20T19:06:11.476Z</time>
      </trkpt>
      <trkpt lat="45.00131" lon="3.22843">
        <ele>848.7</ele>
        <time>2022-06-20T19:06:20.656Z</time>
      </trkpt>
      <trkpt lat="45.00118" lon="3.22826">
        <ele>851.3</ele>
        <time>2022-06-20T19:06:31.956Z</time>
      </trkpt>
      <trkpt lat="45.00072" lon="3.22802">
        <ele>849.7</ele>
        <time>2022-06-20T19:06:37.103Z</time>
      </trkpt>
      <trkpt lat="45.00042" lon="3.22793">
        <ele>849</ele>
        <time>2022-06-20T19:06:40.680Z</time>
      </trkpt>
      <trkpt lat="45.00037" lon="3.2279">
        <ele>849.4</ele>
        <time>2022-06-20T19:06:42.539Z</time>
      </trkpt>
      <trkpt lat="45.00028" lon="3.22784">
        <ele>850.2</ele>
        <time>2022-06-20T19:06:46.134Z</time>
      </trkpt>
      <trkpt lat="45.00018" lon="3.22754">
        <ele>862</ele>
        <time>2022-06-20T19:07:01.101Z</time>
      </trkpt>
      <trkpt lat="45.0001" lon="3.2277">
        <ele>859</ele>
        <time>2022-06-20T19:07:02.279Z</time>
      </trkpt>
      <trkpt lat="44.99978" lon="3.22769">
        <ele>857</ele>
        <time>2022-06-20T19:07:04.854Z</time>
      </trkpt>
      <trkpt lat="44.99916" lon="3.22772">
        <ele>853</ele>
        <time>2022-06-20T19:07:09.767Z</time>
      </trkpt>
      <trkpt lat="44.9987" lon="3.22738">
        <ele>852</ele>
        <time>2022-06-20T19:07:16.077Z</time>
      </trkpt>
      <trkpt lat="44.99732" lon="3.2259">
        <ele>838</ele>
        <time>2022-06-20T19:07:30.802Z</time>
      </trkpt>
      <trkpt lat="44.99715" lon="3.22525">
        <ele>838</ele>
        <time>2022-06-20T19:07:38.911Z</time>
      </trkpt>
      <trkpt lat="44.99711" lon="3.22516">
        <ele>838</ele>
        <time>2022-06-20T19:07:40.155Z</time>
      </trkpt>
      <trkpt lat="44.99698" lon="3.22508">
        <ele>837</ele>
        <time>2022-06-20T19:07:41.360Z</time>
      </trkpt>
      <trkpt lat="44.99677" lon="3.22501">
        <ele>837</ele>
        <time>2022-06-20T19:07:44.930Z</time>
      </trkpt>
      <trkpt lat="44.99666" lon="3.22505">
        <ele>836</ele>
        <time>2022-06-20T19:07:45.896Z</time>
      </trkpt>
      <trkpt lat="44.9965" lon="3.22526">
        <ele>841</ele>
        <time>2022-06-20T19:07:59.827Z</time>
      </trkpt>
      <trkpt lat="44.99617" lon="3.22606">
        <ele>848</ele>
        <time>2022-06-20T19:08:30.033Z</time>
      </trkpt>
      <trkpt lat="44.99596" lon="3.22697">
        <ele>849</ele>
        <time>2022-06-20T19:08:42.986Z</time>
      </trkpt>
      <trkpt lat="44.99567" lon="3.22764">
        <ele>855</ele>
        <time>2022-06-20T19:09:08.912Z</time>
      </trkpt>
      <trkpt lat="44.99566" lon="3.22784">
        <ele>855</ele>
        <time>2022-06-20T19:09:11.258Z</time>
      </trkpt>
      <trkpt lat="44.99571" lon="3.22854">
        <ele>850</ele>
        <time>2022-06-20T19:09:15.488Z</time>
      </trkpt>
      <trkpt lat="44.99569" lon="3.22882">
        <ele>850</ele>
        <time>2022-06-20T19:09:18.781Z</time>
      </trkpt>
      <trkpt lat="44.99504" lon="3.23149">
        <ele>866</ele>
        <time>2022-06-20T19:10:30.762Z</time>
      </trkpt>
      <trkpt lat="44.99495" lon="3.23173">
        <ele>866</ele>
        <time>2022-06-20T19:10:33.941Z</time>
      </trkpt>
      <trkpt lat="44.99486" lon="3.23188">
        <ele>865</ele>
        <time>2022-06-20T19:10:35.124Z</time>
      </trkpt>
      <trkpt lat="44.99475" lon="3.23199">
        <ele>865</ele>
        <time>2022-06-20T19:10:37.353Z</time>
      </trkpt>
      <trkpt lat="44.99448" lon="3.23212">
        <ele>866</ele>
        <time>2022-06-20T19:10:44.305Z</time>
      </trkpt>
      <trkpt lat="44.99404" lon="3.23219">
        <ele>872</ele>
        <time>2022-06-20T19:11:12.563Z</time>
      </trkpt>
      <trkpt lat="44.99388" lon="3.23228">
        <ele>875</ele>
        <time>2022-06-20T19:11:23.552Z</time>
      </trkpt>
      <trkpt lat="44.99377" lon="3.2324">
        <ele>876</ele>
        <time>2022-06-20T19:11:28.248Z</time>
      </trkpt>
      <trkpt lat="44.99365" lon="3.23267">
        <ele>878</ele>
        <time>2022-06-20T19:11:36.988Z</time>
      </trkpt>
      <trkpt lat="44.99354" lon="3.23338">
        <ele>878</ele>
        <time>2022-06-20T19:11:45.493Z</time>
      </trkpt>
      <trkpt lat="44.9933" lon="3.2338">
        <ele>877</ele>
        <time>2022-06-20T19:11:49.784Z</time>
      </trkpt>
      <trkpt lat="44.99289" lon="3.23401">
        <ele>886</ele>
        <time>2022-06-20T19:12:17.614Z</time>
      </trkpt>
      <trkpt lat="44.99262" lon="3.23412">
        <ele>893</ele>
        <time>2022-06-20T19:12:35.546Z</time>
      </trkpt>
      <trkpt lat="44.9923" lon="3.23509">
        <ele>885</ele>
        <time>2022-06-20T19:12:41.982Z</time>
      </trkpt>
      <trkpt lat="44.99205" lon="3.23547">
        <ele>883</ele>
        <time>2022-06-20T19:12:45.132Z</time>
      </trkpt>
      <trkpt lat="44.99166" lon="3.23566">
        <ele>888</ele>
        <time>2022-06-20T19:13:07.505Z</time>
      </trkpt>
      <trkpt lat="44.99135" lon="3.23574">
        <ele>895</ele>
        <time>2022-06-20T19:13:27.617Z</time>
      </trkpt>
      <trkpt lat="44.99125" lon="3.23595">
        <ele>897</ele>
        <time>2022-06-20T19:13:36.312Z</time>
      </trkpt>
      <trkpt lat="44.99109" lon="3.23706">
        <ele>897</ele>
        <time>2022-06-20T19:13:49.568Z</time>
      </trkpt>
      <trkpt lat="44.99109" lon="3.23782">
        <ele>894</ele>
        <time>2022-06-20T19:13:54.130Z</time>
      </trkpt>
      <trkpt lat="44.99092" lon="3.2382">
        <ele>897</ele>
        <time>2022-06-20T19:14:07.097Z</time>
      </trkpt>
      <trkpt lat="44.99059" lon="3.23847">
        <ele>904</ele>
        <time>2022-06-20T19:14:31.430Z</time>
      </trkpt>
      <trkpt lat="44.99028" lon="3.23857">
        <ele>910</ele>
        <time>2022-06-20T19:14:51.723Z</time>
      </trkpt>
      <trkpt lat="44.99013" lon="3.23873">
        <ele>913</ele>
        <time>2022-06-20T19:15:03.714Z</time>
      </trkpt>
      <trkpt lat="44.99015" lon="3.23912">
        <ele>911</ele>
        <time>2022-06-20T19:15:06.065Z</time>
      </trkpt>
      <trkpt lat="44.99029" lon="3.23985">
        <ele>911</ele>
        <time>2022-06-20T19:15:14.916Z</time>
      </trkpt>
      <trkpt lat="44.99019" lon="3.2403">
        <ele>912</ele>
        <time>2022-06-20T19:15:22.525Z</time>
      </trkpt>
      <trkpt lat="44.98989" lon="3.24075">
        <ele>917</ele>
        <time>2022-06-20T19:15:44.396Z</time>
      </trkpt>
      <trkpt lat="44.98957" lon="3.241">
        <ele>921</ele>
        <time>2022-06-20T19:16:01.715Z</time>
      </trkpt>
      <trkpt lat="44.98936" lon="3.24124">
        <ele>923</ele>
        <time>2022-06-20T19:16:10.990Z</time>
      </trkpt>
      <trkpt lat="44.9893" lon="3.24164">
        <ele>920</ele>
        <time>2022-06-20T19:16:13.449Z</time>
      </trkpt>
      <trkpt lat="44.98938" lon="3.24307">
        <ele>924</ele>
        <time>2022-06-20T19:16:39.724Z</time>
      </trkpt>
      <trkpt lat="44.98928" lon="3.24344">
        <ele>930</ele>
        <time>2022-06-20T19:16:57.603Z</time>
      </trkpt>
      <trkpt lat="44.98907" lon="3.2437">
        <ele>933</ele>
        <time>2022-06-20T19:17:10.557Z</time>
      </trkpt>
      <trkpt lat="44.98833" lon="3.24425">
        <ele>939</ele>
        <time>2022-06-20T19:17:38.768Z</time>
      </trkpt>
      <trkpt lat="44.98821" lon="3.24447">
        <ele>941</ele>
        <time>2022-06-20T19:17:47.373Z</time>
      </trkpt>
      <trkpt lat="44.98828" lon="3.24482">
        <ele>942</ele>
        <time>2022-06-20T19:17:53.983Z</time>
      </trkpt>
      <trkpt lat="44.98892" lon="3.24551">
        <ele>942</ele>
        <time>2022-06-20T19:18:07.299Z</time>
      </trkpt>
      <trkpt lat="44.98906" lon="3.24587">
        <ele>944</ele>
        <time>2022-06-20T19:18:16.889Z</time>
      </trkpt>
      <trkpt lat="44.98896" lon="3.24625">
        <ele>943</ele>
        <time>2022-06-20T19:18:19.832Z</time>
      </trkpt>
      <trkpt lat="44.98867" lon="3.24666">
        <ele>946</ele>
        <time>2022-06-20T19:18:33.818Z</time>
      </trkpt>
      <trkpt lat="44.98815" lon="3.24719">
        <ele>952</ele>
        <time>2022-06-20T19:18:59.781Z</time>
      </trkpt>
      <trkpt lat="44.98811" lon="3.24773">
        <ele>953</ele>
        <time>2022-06-20T19:19:08.125Z</time>
      </trkpt>
      <trkpt lat="44.98813" lon="3.24874">
        <ele>953</ele>
        <time>2022-06-20T19:19:19.949Z</time>
      </trkpt>
      <trkpt lat="44.98829" lon="3.24901">
        <ele>952</ele>
        <time>2022-06-20T19:19:22.378Z</time>
      </trkpt>
      <trkpt lat="44.98835" lon="3.24938">
        <ele>952</ele>
        <time>2022-06-20T19:19:26.820Z</time>
      </trkpt>
      <trkpt lat="44.98824" lon="3.24982">
        <ele>954</ele>
        <time>2022-06-20T19:19:37.082Z</time>
      </trkpt>
      <trkpt lat="44.98792" lon="3.25031">
        <ele>957</ele>
        <time>2022-06-20T19:19:52.064Z</time>
      </trkpt>
      <trkpt lat="44.98753" lon="3.2507">
        <ele>959</ele>
        <time>2022-06-20T19:20:04.885Z</time>
      </trkpt>
      <trkpt lat="44.98708" lon="3.25102">
        <ele>960</ele>
        <time>2022-06-20T19:20:15.071Z</time>
      </trkpt>
      <trkpt lat="44.98672" lon="3.25111">
        <ele>960</ele>
        <time>2022-06-20T19:20:21.120Z</time>
      </trkpt>
      <trkpt lat="44.98652" lon="3.25141">
        <ele>960</ele>
        <time>2022-06-20T19:20:25.945Z</time>
      </trkpt>
      <trkpt lat="44.98637" lon="3.25195">
        <ele>960</ele>
        <time>2022-06-20T19:20:32.734Z</time>
      </trkpt>
      <trkpt lat="44.98623" lon="3.25276">
        <ele>961</ele>
        <time>2022-06-20T19:20:44.287Z</time>
      </trkpt>
      <trkpt lat="44.98622" lon="3.25339">
        <ele>963</ele>
        <time>2022-06-20T19:20:56.762Z</time>
      </trkpt>
      <trkpt lat="44.98626" lon="3.25374">
        <ele>965</ele>
        <time>2022-06-20T19:21:05.774Z</time>
      </trkpt>
      <trkpt lat="44.98713" lon="3.25512">
        <ele>973</ele>
        <time>2022-06-20T19:21:46.594Z</time>
      </trkpt>
      <trkpt lat="44.98743" lon="3.25595">
        <ele>974</ele>
        <time>2022-06-20T19:21:59.262Z</time>
      </trkpt>
      <trkpt lat="44.98785" lon="3.25674">
        <ele>976</ele>
        <time>2022-06-20T19:22:14.936Z</time>
      </trkpt>
      <trkpt lat="44.98807" lon="3.25751">
        <ele>980</ele>
        <time>2022-06-20T19:22:34.215Z</time>
      </trkpt>
      <trkpt lat="44.98836" lon="3.25824">
        <ele>980</ele>
        <time>2022-06-20T19:22:44.013Z</time>
      </trkpt>
      <trkpt lat="44.98884" lon="3.25898">
        <ele>983</ele>
        <time>2022-06-20T19:23:03.180Z</time>
      </trkpt>
      <trkpt lat="44.98909" lon="3.25925">
        <ele>984</ele>
        <time>2022-06-20T19:23:10.524Z</time>
      </trkpt>
      <trkpt lat="44.98934" lon="3.2594">
        <ele>985</ele>
        <time>2022-06-20T19:23:17.304Z</time>
      </trkpt>
      <trkpt lat="44.98957" lon="3.2595">
        <ele>985</ele>
        <time>2022-06-20T19:23:21.285Z</time>
      </trkpt>
      <trkpt lat="44.99064" lon="3.26046">
        <ele>990</ele>
        <time>2022-06-20T19:23:54.120Z</time>
      </trkpt>
      <trkpt lat="44.99085" lon="3.26095">
        <ele>993</ele>
        <time>2022-06-20T19:24:08.034Z</time>
      </trkpt>
      <trkpt lat="44.99107" lon="3.26156">
        <ele>995</ele>
        <time>2022-06-20T19:24:20.923Z</time>
      </trkpt>
      <trkpt lat="44.99141" lon="3.26233">
        <ele>999</ele>
        <time>2022-06-20T19:24:41.125Z</time>
      </trkpt>
      <trkpt lat="44.99143" lon="3.26267">
        <ele>1001</ele>
        <time>2022-06-20T19:24:50.024Z</time>
      </trkpt>
      <trkpt lat="44.99134" lon="3.26338">
        <ele>1005</ele>
        <time>2022-06-20T19:25:08.159Z</time>
      </trkpt>
      <trkpt lat="44.99115" lon="3.26401">
        <ele>1007</ele>
        <time>2022-06-20T19:25:21.048Z</time>
      </trkpt>
      <trkpt lat="44.99102" lon="3.26487">
        <ele>1011</ele>
        <time>2022-06-20T19:25:40.904Z</time>
      </trkpt>
      <trkpt lat="44.99092" lon="3.26515">
        <ele>1012</ele>
        <time>2022-06-20T19:25:47.122Z</time>
      </trkpt>
      <trkpt lat="44.99085" lon="3.26531">
        <ele>1013</ele>
        <time>2022-06-20T19:25:51.731Z</time>
      </trkpt>
      <trkpt lat="44.9908" lon="3.2654">
        <ele>1013</ele>
        <time>2022-06-20T19:25:53.070Z</time>
      </trkpt>
      <trkpt lat="44.99058" lon="3.26562">
        <ele>1013</ele>
        <time>2022-06-20T19:25:57.529Z</time>
      </trkpt>
      <trkpt lat="44.99035" lon="3.26591">
        <ele>1013</ele>
        <time>2022-06-20T19:26:02.628Z</time>
      </trkpt>
      <trkpt lat="44.99005" lon="3.26665">
        <ele>1015</ele>
        <time>2022-06-20T19:26:16.962Z</time>
      </trkpt>
      <trkpt lat="44.99003" lon="3.26717">
        <ele>1016</ele>
        <time>2022-06-20T19:26:25.073Z</time>
      </trkpt>
      <trkpt lat="44.99022" lon="3.26758">
        <ele>1019</ele>
        <time>2022-06-20T19:26:38.260Z</time>
      </trkpt>
      <trkpt lat="44.99041" lon="3.26777">
        <ele>1021</ele>
        <time>2022-06-20T19:26:47.067Z</time>
      </trkpt>
      <trkpt lat="44.99068" lon="3.26787">
        <ele>1025</ele>
        <time>2022-06-20T19:27:04.880Z</time>
      </trkpt>
      <trkpt lat="44.99079" lon="3.26809">
        <ele>1027</ele>
        <time>2022-06-20T19:27:13.495Z</time>
      </trkpt>
      <trkpt lat="44.99071" lon="3.26886">
        <ele>1028</ele>
        <time>2022-06-20T19:27:24.420Z</time>
      </trkpt>
      <trkpt lat="44.99073" lon="3.26934">
        <ele>1030</ele>
        <time>2022-06-20T19:27:34.862Z</time>
      </trkpt>
      <trkpt lat="44.99091" lon="3.26994">
        <ele>1036</ele>
        <time>2022-06-20T19:28:02.954Z</time>
      </trkpt>
      <trkpt lat="44.99086" lon="3.27027">
        <ele>1037</ele>
        <time>2022-06-20T19:28:09.363Z</time>
      </trkpt>
      <trkpt lat="44.99072" lon="3.2705">
        <ele>1039</ele>
        <time>2022-06-20T19:28:18.022Z</time>
      </trkpt>
      <trkpt lat="44.99047" lon="3.27054">
        <ele>1040</ele>
        <time>2022-06-20T19:28:24.569Z</time>
      </trkpt>
      <trkpt lat="44.99031" lon="3.27035">
        <ele>1039</ele>
        <time>2022-06-20T19:28:26.466Z</time>
      </trkpt>
      <trkpt lat="44.99005" lon="3.26996">
        <ele>1033</ele>
        <time>2022-06-20T19:28:29.689Z</time>
      </trkpt>
      <trkpt lat="44.9898" lon="3.26987">
        <ele>1032</ele>
        <time>2022-06-20T19:28:32.237Z</time>
      </trkpt>
      <trkpt lat="44.9894" lon="3.27">
        <ele>1035</ele>
        <time>2022-06-20T19:28:46.229Z</time>
      </trkpt>
      <trkpt lat="44.98899" lon="3.27025">
        <ele>1038</ele>
        <time>2022-06-20T19:29:00.787Z</time>
      </trkpt>
      <trkpt lat="44.98868" lon="3.27064">
        <ele>1041</ele>
        <time>2022-06-20T19:29:14.846Z</time>
      </trkpt>
      <trkpt lat="44.98845" lon="3.27106">
        <ele>1043</ele>
        <time>2022-06-20T19:29:25.950Z</time>
      </trkpt>
      <trkpt lat="44.98827" lon="3.27162">
        <ele>1046</ele>
        <time>2022-06-20T19:29:40.322Z</time>
      </trkpt>
      <trkpt lat="44.98806" lon="3.27259">
        <ele>1051</ele>
        <time>2022-06-20T19:30:04.154Z</time>
      </trkpt>
      <trkpt lat="44.98773" lon="3.27344">
        <ele>1054</ele>
        <time>2022-06-20T19:30:23.088Z</time>
      </trkpt>
      <trkpt lat="44.98748" lon="3.27376">
        <ele>1055</ele>
        <time>2022-06-20T19:30:30.749Z</time>
      </trkpt>
      <trkpt lat="44.98671" lon="3.27417">
        <ele>1057</ele>
        <time>2022-06-20T19:30:48.262Z</time>
      </trkpt>
      <trkpt lat="44.98581" lon="3.275">
        <ele>1061</ele>
        <time>2022-06-20T19:31:15.240Z</time>
      </trkpt>
      <trkpt lat="44.98566" lon="3.27518">
        <ele>1061</ele>
        <time>2022-06-20T19:31:18.496Z</time>
      </trkpt>
      <trkpt lat="44.98538" lon="3.27563">
        <ele>1060</ele>
        <time>2022-06-20T19:31:23.398Z</time>
      </trkpt>
      <trkpt lat="44.98525" lon="3.27597">
        <ele>1060</ele>
        <time>2022-06-20T19:31:27.921Z</time>
      </trkpt>
      <trkpt lat="44.98513" lon="3.27647">
        <ele>1060</ele>
        <time>2022-06-20T19:31:34.100Z</time>
      </trkpt>
      <trkpt lat="44.98514" lon="3.27708">
        <ele>1059</ele>
        <time>2022-06-20T19:31:39.115Z</time>
      </trkpt>
      <trkpt lat="44.98521" lon="3.27728">
        <ele>1059</ele>
        <time>2022-06-20T19:31:41.726Z</time>
      </trkpt>
      <trkpt lat="44.98537" lon="3.27745">
        <ele>1060</ele>
        <time>2022-06-20T19:31:47.515Z</time>
      </trkpt>
      <trkpt lat="44.98571" lon="3.27768">
        <ele>1062</ele>
        <time>2022-06-20T19:31:58.643Z</time>
      </trkpt>
      <trkpt lat="44.98599" lon="3.27801">
        <ele>1064</ele>
        <time>2022-06-20T19:32:09.537Z</time>
      </trkpt>
      <trkpt lat="44.98629" lon="3.27828">
        <ele>1066</ele>
        <time>2022-06-20T19:32:20.264Z</time>
      </trkpt>
      <trkpt lat="44.98639" lon="3.27844">
        <ele>1067</ele>
        <time>2022-06-20T19:32:25.153Z</time>
      </trkpt>
      <trkpt lat="44.98645" lon="3.27866">
        <ele>1067</ele>
        <time>2022-06-20T19:32:27.912Z</time>
      </trkpt>
      <trkpt lat="44.98645" lon="3.27887">
        <ele>1067</ele>
        <time>2022-06-20T19:32:30.370Z</time>
      </trkpt>
      <trkpt lat="44.98641" lon="3.27906">
        <ele>1066</ele>
        <time>2022-06-20T19:32:31.562Z</time>
      </trkpt>
      <trkpt lat="44.98631" lon="3.27927">
        <ele>1067</ele>
        <time>2022-06-20T19:32:36.949Z</time>
      </trkpt>
      <trkpt lat="44.98619" lon="3.27938">
        <ele>1067</ele>
        <time>2022-06-20T19:32:39.315Z</time>
      </trkpt>
      <trkpt lat="44.98601" lon="3.27947">
        <ele>1067</ele>
        <time>2022-06-20T19:32:42.474Z</time>
      </trkpt>
      <trkpt lat="44.98533" lon="3.27956">
        <ele>1068</ele>
        <time>2022-06-20T19:32:55.525Z</time>
      </trkpt>
      <trkpt lat="44.9846" lon="3.27979">
        <ele>1070</ele>
        <time>2022-06-20T19:33:11.915Z</time>
      </trkpt>
      <trkpt lat="44.98437" lon="3.2799">
        <ele>1071</ele>
        <time>2022-06-20T19:33:18.366Z</time>
      </trkpt>
      <trkpt lat="44.98416" lon="3.28002">
        <ele>1072</ele>
        <time>2022-06-20T19:33:24.658Z</time>
      </trkpt>
      <trkpt lat="44.98398" lon="3.28017">
        <ele>1073</ele>
        <time>2022-06-20T19:33:30.620Z</time>
      </trkpt>
      <trkpt lat="44.98367" lon="3.28062">
        <ele>1075</ele>
        <time>2022-06-20T19:33:43.067Z</time>
      </trkpt>
      <trkpt lat="44.98356" lon="3.281">
        <ele>1076</ele>
        <time>2022-06-20T19:33:50.086Z</time>
      </trkpt>
      <trkpt lat="44.98345" lon="3.28149">
        <ele>1078</ele>
        <time>2022-06-20T19:34:00.963Z</time>
      </trkpt>
      <trkpt lat="44.98335" lon="3.28274">
        <ele>1082</ele>
        <time>2022-06-20T19:34:25.882Z</time>
      </trkpt>
      <trkpt lat="44.98326" lon="3.28345">
        <ele>1083</ele>
        <time>2022-06-20T19:34:36.171Z</time>
      </trkpt>
      <trkpt lat="44.98299" lon="3.28474">
        <ele>1085</ele>
        <time>2022-06-20T19:34:55.669Z</time>
      </trkpt>
      <trkpt lat="44.98296" lon="3.2852">
        <ele>1085</ele>
        <time>2022-06-20T19:35:01.076Z</time>
      </trkpt>
      <trkpt lat="44.98308" lon="3.28547">
        <ele>1086</ele>
        <time>2022-06-20T19:35:07.360Z</time>
      </trkpt>
      <trkpt lat="44.98362" lon="3.28623">
        <ele>1086</ele>
        <time>2022-06-20T19:35:19.967Z</time>
      </trkpt>
      <trkpt lat="44.98386" lon="3.28633">
        <ele>1088</ele>
        <time>2022-06-20T19:35:28.972Z</time>
      </trkpt>
      <trkpt lat="44.98415" lon="3.28641">
        <ele>1089</ele>
        <time>2022-06-20T19:35:36.058Z</time>
      </trkpt>
      <trkpt lat="44.98428" lon="3.28667">
        <ele>1089</ele>
        <time>2022-06-20T19:35:39.784Z</time>
      </trkpt>
      <trkpt lat="44.98428" lon="3.28701">
        <ele>1090</ele>
        <time>2022-06-20T19:35:46.211Z</time>
      </trkpt>
      <trkpt lat="44.98416" lon="3.28735">
        <ele>1090</ele>
        <time>2022-06-20T19:35:50.658Z</time>
      </trkpt>
      <trkpt lat="44.98303" lon="3.28935">
        <ele>1094</ele>
        <time>2022-06-20T19:36:28.216Z</time>
      </trkpt>
      <trkpt lat="44.98286" lon="3.28981">
        <ele>1095</ele>
        <time>2022-06-20T19:36:36.309Z</time>
      </trkpt>
      <trkpt lat="44.98285" lon="3.29022">
        <ele>1097</ele>
        <time>2022-06-20T19:36:45.893Z</time>
      </trkpt>
      <trkpt lat="44.9829" lon="3.29055">
        <ele>1101</ele>
        <time>2022-06-20T19:37:01.127Z</time>
      </trkpt>
      <trkpt lat="44.98304" lon="3.29084">
        <ele>1103</ele>
        <time>2022-06-20T19:37:10.109Z</time>
      </trkpt>
      <trkpt lat="44.98356" lon="3.29142">
        <ele>1102</ele>
        <time>2022-06-20T19:37:18.578Z</time>
      </trkpt>
      <trkpt lat="44.98415" lon="3.29195">
        <ele>1104</ele>
        <time>2022-06-20T19:37:34.252Z</time>
      </trkpt>
      <trkpt lat="44.98461" lon="3.2922">
        <ele>1105</ele>
        <time>2022-06-20T19:37:44.268Z</time>
      </trkpt>
      <trkpt lat="44.98605" lon="3.29258">
        <ele>1111</ele>
        <time>2022-06-20T19:38:23.059Z</time>
      </trkpt>
      <trkpt lat="44.9871" lon="3.29406">
        <ele>1114</ele>
        <time>2022-06-20T19:38:53.172Z</time>
      </trkpt>
      <trkpt lat="44.98761" lon="3.2943">
        <ele>1117</ele>
        <time>2022-06-20T19:39:09.339Z</time>
      </trkpt>
      <trkpt lat="44.98806" lon="3.29444">
        <ele>1123</ele>
        <time>2022-06-20T19:39:37.440Z</time>
      </trkpt>
      <trkpt lat="44.98833" lon="3.29476">
        <ele>1125</ele>
        <time>2022-06-20T19:39:48.106Z</time>
      </trkpt>
      <trkpt lat="44.98868" lon="3.29537">
        <ele>1129</ele>
        <time>2022-06-20T19:40:06.886Z</time>
      </trkpt>
      <trkpt lat="44.98888" lon="3.29584">
        <ele>1131</ele>
        <time>2022-06-20T19:40:18.225Z</time>
      </trkpt>
      <trkpt lat="44.98918" lon="3.29624">
        <ele>1134</ele>
        <time>2022-06-20T19:40:32.245Z</time>
      </trkpt>
      <trkpt lat="44.98959" lon="3.29666">
        <ele>1135</ele>
        <time>2022-06-20T19:40:42.473Z</time>
      </trkpt>
      <trkpt lat="44.99013" lon="3.29716">
        <ele>1135</ele>
        <time>2022-06-20T19:40:53.153Z</time>
      </trkpt>
      <trkpt lat="44.99064" lon="3.29775">
        <ele>1135</ele>
        <time>2022-06-20T19:41:04.056Z</time>
      </trkpt>
      <trkpt lat="44.9909" lon="3.29817">
        <ele>1137</ele>
        <time>2022-06-20T19:41:15.526Z</time>
      </trkpt>
      <trkpt lat="44.99133" lon="3.29893">
        <ele>1141</ele>
        <time>2022-06-20T19:41:36.559Z</time>
      </trkpt>
      <trkpt lat="44.99145" lon="3.2995">
        <ele>1143</ele>
        <time>2022-06-20T19:41:48.535Z</time>
      </trkpt>
      <trkpt lat="44.99141" lon="3.30025">
        <ele>1143</ele>
        <time>2022-06-20T19:41:57.336Z</time>
      </trkpt>
      <trkpt lat="44.99115" lon="3.30115">
        <ele>1144</ele>
        <time>2022-06-20T19:42:10.461Z</time>
      </trkpt>
      <trkpt lat="44.99076" lon="3.30183">
        <ele>1146</ele>
        <time>2022-06-20T19:42:25.011Z</time>
      </trkpt>
      <trkpt lat="44.99039" lon="3.30227">
        <ele>1147</ele>
        <time>2022-06-20T19:42:34.880Z</time>
      </trkpt>
      <trkpt lat="44.9895" lon="3.30304">
        <ele>1145</ele>
        <time>2022-06-20T19:42:47.578Z</time>
      </trkpt>
      <trkpt lat="44.98904" lon="3.30365">
        <ele>1148</ele>
        <time>2022-06-20T19:43:05.538Z</time>
      </trkpt>
      <trkpt lat="44.98884" lon="3.30419">
        <ele>1150</ele>
        <time>2022-06-20T19:43:17.723Z</time>
      </trkpt>
      <trkpt lat="44.98867" lon="3.30508">
        <ele>1152</ele>
        <time>2022-06-20T19:43:32.727Z</time>
      </trkpt>
      <trkpt lat="44.98873" lon="3.30574">
        <ele>1152</ele>
        <time>2022-06-20T19:43:40.514Z</time>
      </trkpt>
      <trkpt lat="44.989" lon="3.30639">
        <ele>1154</ele>
        <time>2022-06-20T19:43:53.953Z</time>
      </trkpt>
      <trkpt lat="44.98933" lon="3.30708">
        <ele>1158</ele>
        <time>2022-06-20T19:44:13.261Z</time>
      </trkpt>
      <trkpt lat="44.98947" lon="3.30781">
        <ele>1160</ele>
        <time>2022-06-20T19:44:26.722Z</time>
      </trkpt>
      <trkpt lat="44.98949" lon="3.30854">
        <ele>1162</ele>
        <time>2022-06-20T19:44:39.967Z</time>
      </trkpt>
      <trkpt lat="44.9894" lon="3.30924">
        <ele>1165</ele>
        <time>2022-06-20T19:44:55.505Z</time>
      </trkpt>
      <trkpt lat="44.98899" lon="3.31053">
        <ele>1170</ele>
        <time>2022-06-20T19:45:24.441Z</time>
      </trkpt>
      <trkpt lat="44.98858" lon="3.31104">
        <ele>1170</ele>
        <time>2022-06-20T19:45:33.476Z</time>
      </trkpt>
      <trkpt lat="44.98781" lon="3.31299">
        <ele>1178</ele>
        <time>2022-06-20T19:46:19.370Z</time>
      </trkpt>
      <trkpt lat="44.98755" lon="3.31385">
        <ele>1181</ele>
        <time>2022-06-20T19:46:37.942Z</time>
      </trkpt>
      <trkpt lat="44.98751" lon="3.31433">
        <ele>1186</ele>
        <time>2022-06-20T19:46:59.758Z</time>
      </trkpt>
      <trkpt lat="44.98734" lon="3.31453">
        <ele>1186</ele>
        <time>2022-06-20T19:47:03.418Z</time>
      </trkpt>
      <trkpt lat="44.98615" lon="3.31505">
        <ele>1189</ele>
        <time>2022-06-20T19:47:29.860Z</time>
      </trkpt>
      <trkpt lat="44.98574" lon="3.3153">
        <ele>1192</ele>
        <time>2022-06-20T19:47:44.418Z</time>
      </trkpt>
      <trkpt lat="44.98547" lon="3.31552">
        <ele>1193</ele>
        <time>2022-06-20T19:47:51.721Z</time>
      </trkpt>
      <trkpt lat="44.98524" lon="3.31596">
        <ele>1197</ele>
        <time>2022-06-20T19:48:08.936Z</time>
      </trkpt>
      <trkpt lat="44.98482" lon="3.31713">
        <ele>1206</ele>
        <time>2022-06-20T19:48:47.726Z</time>
      </trkpt>
      <trkpt lat="44.9842" lon="3.31837">
        <ele>1211</ele>
        <time>2022-06-20T19:49:18.114Z</time>
      </trkpt>
      <trkpt lat="44.98367" lon="3.3195">
        <ele>1213</ele>
        <time>2022-06-20T19:49:37.729Z</time>
      </trkpt>
      <trkpt lat="44.98297" lon="3.32179">
        <ele>1228</ele>
        <time>2022-06-20T19:50:43.975Z</time>
      </trkpt>
      <trkpt lat="44.98252" lon="3.3224">
        <ele>1232</ele>
        <time>2022-06-20T19:51:03.857Z</time>
      </trkpt>
      <trkpt lat="44.98063" lon="3.32394">
        <ele>1237</ele>
        <time>2022-06-20T19:51:49.543Z</time>
      </trkpt>
      <trkpt lat="44.97982" lon="3.32531">
        <ele>1252</ele>
        <time>2022-06-20T19:52:56.048Z</time>
      </trkpt>
      <trkpt lat="44.97779" lon="3.32736">
        <ele>1264</ele>
        <time>2022-06-20T19:54:07.338Z</time>
      </trkpt>
      <trkpt lat="44.97689" lon="3.32852">
        <ele>1272</ele>
        <time>2022-06-20T19:54:46.611Z</time>
      </trkpt>
      <trkpt lat="44.97638" lon="3.32897">
        <ele>1272</ele>
        <time>2022-06-20T19:54:56.558Z</time>
      </trkpt>
      <trkpt lat="44.97614" lon="3.32983">
        <ele>1282</ele>
        <time>2022-06-20T19:55:38.297Z</time>
      </trkpt>
      <trkpt lat="44.97561" lon="3.33016">
        <ele>1283</ele>
        <time>2022-06-20T19:55:49.679Z</time>
      </trkpt>
      <trkpt lat="44.9742" lon="3.33111">
        <ele>1298</ele>
        <time>2022-06-20T19:56:54.386Z</time>
      </trkpt>
      <trkpt lat="44.97373" lon="3.33121">
        <ele>1297</ele>
        <time>2022-06-20T19:57:00.045Z</time>
      </trkpt>
      <trkpt lat="44.97322" lon="3.33162">
        <ele>1298</ele>
        <time>2022-06-20T19:57:11.549Z</time>
      </trkpt>
      <trkpt lat="44.97268" lon="3.33222">
        <ele>1298</ele>
        <time>2022-06-20T19:57:22.914Z</time>
      </trkpt>
      <trkpt lat="44.97228" lon="3.3328">
        <ele>1299</ele>
        <time>2022-06-20T19:57:34.199Z</time>
      </trkpt>
      <trkpt lat="44.97207" lon="3.33321">
        <ele>1299</ele>
        <time>2022-06-20T19:57:40.124Z</time>
      </trkpt>
      <trkpt lat="44.97203" lon="3.33358">
        <ele>1300</ele>
        <time>2022-06-20T19:57:46.823Z</time>
      </trkpt>
      <trkpt lat="44.97202" lon="3.33446">
        <ele>1303</ele>
        <time>2022-06-20T19:58:04.625Z</time>
      </trkpt>
      <trkpt lat="44.97186" lon="3.33559">
        <ele>1306</ele>
        <time>2022-06-20T19:58:24.973Z</time>
      </trkpt>
      <trkpt lat="44.97185" lon="3.33649">
        <ele>1308</ele>
        <time>2022-06-20T19:58:39.764Z</time>
      </trkpt>
      <trkpt lat="44.97165" lon="3.33692">
        <ele>1308</ele>
        <time>2022-06-20T19:58:45.788Z</time>
      </trkpt>
      <trkpt lat="44.97139" lon="3.33706">
        <ele>1309</ele>
        <time>2022-06-20T19:58:52.651Z</time>
      </trkpt>
      <trkpt lat="44.97083" lon="3.33712">
        <ele>1310</ele>
        <time>2022-06-20T19:59:03.755Z</time>
      </trkpt>
      <trkpt lat="44.97059" lon="3.33733">
        <ele>1313</ele>
        <time>2022-06-20T19:59:16.692Z</time>
      </trkpt>
      <trkpt lat="44.97026" lon="3.33778">
        <ele>1316</ele>
        <time>2022-06-20T19:59:31.450Z</time>
      </trkpt>
      <trkpt lat="44.97005" lon="3.33827">
        <ele>1319</ele>
        <time>2022-06-20T19:59:45.366Z</time>
      </trkpt>
      <trkpt lat="44.96992" lon="3.33921">
        <ele>1321</ele>
        <time>2022-06-20T20:00:00.732Z</time>
      </trkpt>
      <trkpt lat="44.96987" lon="3.34039">
        <ele>1324</ele>
        <time>2022-06-20T20:00:21.342Z</time>
      </trkpt>
      <trkpt lat="44.96993" lon="3.34145">
        <ele>1326</ele>
        <time>2022-06-20T20:00:37.797Z</time>
      </trkpt>
      <trkpt lat="44.96976" lon="3.3422">
        <ele>1327</ele>
        <time>2022-06-20T20:00:48.830Z</time>
      </trkpt>
      <trkpt lat="44.96953" lon="3.3428">
        <ele>1329</ele>
        <time>2022-06-20T20:01:01.703Z</time>
      </trkpt>
      <trkpt lat="44.96818" lon="3.34443">
        <ele>1334</ele>
        <time>2022-06-20T20:01:41.292Z</time>
      </trkpt>
      <trkpt lat="44.96762" lon="3.34515">
        <ele>1338</ele>
        <time>2022-06-20T20:02:03.609Z</time>
      </trkpt>
      <trkpt lat="44.96688" lon="3.34631">
        <ele>1343</ele>
        <time>2022-06-20T20:02:34.615Z</time>
      </trkpt>
      <trkpt lat="44.96623" lon="3.34687">
        <ele>1346</ele>
        <time>2022-06-20T20:02:54.326Z</time>
      </trkpt>
      <trkpt lat="44.96553" lon="3.34732">
        <ele>1348</ele>
        <time>2022-06-20T20:03:11.029Z</time>
      </trkpt>
      <trkpt lat="44.96451" lon="3.34748">
        <ele>1350</ele>
        <time>2022-06-20T20:03:31.700Z</time>
      </trkpt>
      <trkpt lat="44.96391" lon="3.34727">
        <ele>1352</ele>
        <time>2022-06-20T20:03:46.235Z</time>
      </trkpt>
      <trkpt lat="44.96337" lon="3.34733">
        <ele>1355</ele>
        <time>2022-06-20T20:04:02.480Z</time>
      </trkpt>
      <trkpt lat="44.96294" lon="3.34762">
        <ele>1359</ele>
        <time>2022-06-20T20:04:20.208Z</time>
      </trkpt>
      <trkpt lat="44.9627" lon="3.34817">
        <ele>1359</ele>
        <time>2022-06-20T20:04:27.773Z</time>
      </trkpt>
      <trkpt lat="44.96263" lon="3.34848">
        <ele>1359</ele>
        <time>2022-06-20T20:04:31.583Z</time>
      </trkpt>
      <trkpt lat="44.96157" lon="3.35251">
        <ele>1365</ele>
        <time>2022-06-20T20:05:33.018Z</time>
      </trkpt>
      <trkpt lat="44.96042" lon="3.35466">
        <ele>1373</ele>
        <time>2022-06-20T20:06:24.263Z</time>
      </trkpt>
      <trkpt lat="44.96022" lon="3.35513">
        <ele>1372</ele>
        <time>2022-06-20T20:06:28.643Z</time>
      </trkpt>
      <trkpt lat="44.96015" lon="3.35539">
        <ele>1371</ele>
        <time>2022-06-20T20:06:30.386Z</time>
      </trkpt>
      <trkpt lat="44.96013" lon="3.35566">
        <ele>1369</ele>
        <time>2022-06-20T20:06:32.019Z</time>
      </trkpt>
      <trkpt lat="44.96016" lon="3.35618">
        <ele>1366</ele>
        <time>2022-06-20T20:06:35.158Z</time>
      </trkpt>
      <trkpt lat="44.96031" lon="3.357">
        <ele>1361</ele>
        <time>2022-06-20T20:06:40.253Z</time>
      </trkpt>
      <trkpt lat="44.96052" lon="3.35744">
        <ele>1358</ele>
        <time>2022-06-20T20:06:43.446Z</time>
      </trkpt>
      <trkpt lat="44.96135" lon="3.35858">
        <ele>1357</ele>
        <time>2022-06-20T20:06:59.539Z</time>
      </trkpt>
      <trkpt lat="44.96159" lon="3.35899">
        <ele>1356</ele>
        <time>2022-06-20T20:07:03.752Z</time>
      </trkpt>
      <trkpt lat="44.96205" lon="3.35987">
        <ele>1351</ele>
        <time>2022-06-20T20:07:09.879Z</time>
      </trkpt>
      <trkpt lat="44.96251" lon="3.36067">
        <ele>1345</ele>
        <time>2022-06-20T20:07:16.080Z</time>
      </trkpt>
      <trkpt lat="44.96308" lon="3.36134">
        <ele>1340</ele>
        <time>2022-06-20T20:07:22.383Z</time>
      </trkpt>
      <trkpt lat="44.96358" lon="3.36173">
        <ele>1338</ele>
        <time>2022-06-20T20:07:28.235Z</time>
      </trkpt>
      <trkpt lat="44.96419" lon="3.36189">
        <ele>1340</ele>
        <time>2022-06-20T20:07:42.802Z</time>
      </trkpt>
      <trkpt lat="44.96455" lon="3.36203">
        <ele>1340</ele>
        <time>2022-06-20T20:07:48.980Z</time>
      </trkpt>
      <trkpt lat="44.96461" lon="3.36217">
        <ele>1336</ele>
        <time>2022-06-20T20:07:49.964Z</time>
      </trkpt>
      <trkpt lat="44.96457" lon="3.36226">
        <ele>1333</ele>
        <time>2022-06-20T20:07:50.604Z</time>
      </trkpt>
      <trkpt lat="44.96446" lon="3.36229">
        <ele>1331</ele>
        <time>2022-06-20T20:07:51.556Z</time>
      </trkpt>
      <trkpt lat="44.96391" lon="3.36209">
        <ele>1331</ele>
        <time>2022-06-20T20:08:00.953Z</time>
      </trkpt>
      <trkpt lat="44.9636" lon="3.36206">
        <ele>1329</ele>
        <time>2022-06-20T20:08:03.416Z</time>
      </trkpt>
      <trkpt lat="44.96308" lon="3.3619">
        <ele>1325</ele>
        <time>2022-06-20T20:08:07.941Z</time>
      </trkpt>
      <trkpt lat="44.96275" lon="3.36166">
        <ele>1324</ele>
        <time>2022-06-20T20:08:12.076Z</time>
      </trkpt>
      <trkpt lat="44.9618" lon="3.36107">
        <ele>1318</ele>
        <time>2022-06-20T20:08:20.739Z</time>
      </trkpt>
      <trkpt lat="44.96102" lon="3.36042">
        <ele>1314</ele>
        <time>2022-06-20T20:08:29.242Z</time>
      </trkpt>
      <trkpt lat="44.96012" lon="3.36006">
        <ele>1301</ele>
        <time>2022-06-20T20:08:37.194Z</time>
      </trkpt>
      <trkpt lat="44.95962" lon="3.35981">
        <ele>1298</ele>
        <time>2022-06-20T20:08:41.668Z</time>
      </trkpt>
      <trkpt lat="44.95916" lon="3.35947">
        <ele>1299</ele>
        <time>2022-06-20T20:08:52.097Z</time>
      </trkpt>
      <trkpt lat="44.95841" lon="3.3591">
        <ele>1294</ele>
        <time>2022-06-20T20:08:58.464Z</time>
      </trkpt>
      <trkpt lat="44.95788" lon="3.35888">
        <ele>1293</ele>
        <time>2022-06-20T20:09:05.273Z</time>
      </trkpt>
      <trkpt lat="44.95724" lon="3.35876">
        <ele>1285</ele>
        <time>2022-06-20T20:09:10.762Z</time>
      </trkpt>
      <trkpt lat="44.95707" lon="3.35869">
        <ele>1284</ele>
        <time>2022-06-20T20:09:12.257Z</time>
      </trkpt>
      <trkpt lat="44.95681" lon="3.35847">
        <ele>1283</ele>
        <time>2022-06-20T20:09:15.426Z</time>
      </trkpt>
      <trkpt lat="44.95663" lon="3.35838">
        <ele>1281</ele>
        <time>2022-06-20T20:09:17.049Z</time>
      </trkpt>
      <trkpt lat="44.95643" lon="3.35835">
        <ele>1281</ele>
        <time>2022-06-20T20:09:20.377Z</time>
      </trkpt>
      <trkpt lat="44.95588" lon="3.3584">
        <ele>1277</ele>
        <time>2022-06-20T20:09:25.063Z</time>
      </trkpt>
      <trkpt lat="44.95555" lon="3.35852">
        <ele>1271</ele>
        <time>2022-06-20T20:09:27.960Z</time>
      </trkpt>
      <trkpt lat="44.95473" lon="3.35886">
        <ele>1264</ele>
        <time>2022-06-20T20:09:35.225Z</time>
      </trkpt>
      <trkpt lat="44.95456" lon="3.35903">
        <ele>1263</ele>
        <time>2022-06-20T20:09:37.114Z</time>
      </trkpt>
      <trkpt lat="44.95442" lon="3.35927">
        <ele>1261</ele>
        <time>2022-06-20T20:09:38.986Z</time>
      </trkpt>
      <trkpt lat="44.95419" lon="3.3596">
        <ele>1259</ele>
        <time>2022-06-20T20:09:41.653Z</time>
      </trkpt>
      <trkpt lat="44.9541" lon="3.35998">
        <ele>1256</ele>
        <time>2022-06-20T20:09:44.064Z</time>
      </trkpt>
      <trkpt lat="44.95396" lon="3.36021">
        <ele>1255</ele>
        <time>2022-06-20T20:09:46.036Z</time>
      </trkpt>
      <trkpt lat="44.9534" lon="3.36075">
        <ele>1256</ele>
        <time>2022-06-20T20:09:59.006Z</time>
      </trkpt>
      <trkpt lat="44.95267" lon="3.36132">
        <ele>1250</ele>
        <time>2022-06-20T20:10:06.098Z</time>
      </trkpt>
      <trkpt lat="44.95258" lon="3.36151">
        <ele>1247</ele>
        <time>2022-06-20T20:10:07.473Z</time>
      </trkpt>
      <trkpt lat="44.95239" lon="3.36239">
        <ele>1242</ele>
        <time>2022-06-20T20:10:13.009Z</time>
      </trkpt>
      <trkpt lat="44.95285" lon="3.36198">
        <ele>1240</ele>
        <time>2022-06-20T20:10:18.486Z</time>
      </trkpt>
      <trkpt lat="44.95354" lon="3.36153">
        <ele>1242</ele>
        <time>2022-06-20T20:10:35.054Z</time>
      </trkpt>
      <trkpt lat="44.95397" lon="3.36134">
        <ele>1242</ele>
        <time>2022-06-20T20:10:42.509Z</time>
      </trkpt>
      <trkpt lat="44.95432" lon="3.36128">
        <ele>1240</ele>
        <time>2022-06-20T20:10:45.478Z</time>
      </trkpt>
      <trkpt lat="44.95474" lon="3.36137">
        <ele>1237</ele>
        <time>2022-06-20T20:10:49.090Z</time>
      </trkpt>
      <trkpt lat="44.95546" lon="3.36165">
        <ele>1232</ele>
        <time>2022-06-20T20:10:55.439Z</time>
      </trkpt>
      <trkpt lat="44.95624" lon="3.36211">
        <ele>1231</ele>
        <time>2022-06-20T20:11:06.704Z</time>
      </trkpt>
      <trkpt lat="44.95647" lon="3.3624">
        <ele>1231</ele>
        <time>2022-06-20T20:11:11.805Z</time>
      </trkpt>
      <trkpt lat="44.95661" lon="3.36269">
        <ele>1231</ele>
        <time>2022-06-20T20:11:15.915Z</time>
      </trkpt>
      <trkpt lat="44.95801" lon="3.36646">
        <ele>1232</ele>
        <time>2022-06-20T20:12:07.328Z</time>
      </trkpt>
      <trkpt lat="44.95807" lon="3.36669">
        <ele>1232</ele>
        <time>2022-06-20T20:12:10.198Z</time>
      </trkpt>
      <trkpt lat="44.95805" lon="3.36696">
        <ele>1232</ele>
        <time>2022-06-20T20:12:13.377Z</time>
      </trkpt>
      <trkpt lat="44.95755" lon="3.36969">
        <ele>1235</ele>
        <time>2022-06-20T20:12:51.667Z</time>
      </trkpt>
      <trkpt lat="44.95754" lon="3.36999">
        <ele>1235</ele>
        <time>2022-06-20T20:12:55.184Z</time>
      </trkpt>
      <trkpt lat="44.95757" lon="3.37024">
        <ele>1236</ele>
        <time>2022-06-20T20:13:00.578Z</time>
      </trkpt>
      <trkpt lat="44.95768" lon="3.37056">
        <ele>1236</ele>
        <time>2022-06-20T20:13:04.743Z</time>
      </trkpt>
      <trkpt lat="44.95787" lon="3.37081">
        <ele>1236</ele>
        <time>2022-06-20T20:13:09.039Z</time>
      </trkpt>
      <trkpt lat="44.95817" lon="3.37099">
        <ele>1234</ele>
        <time>2022-06-20T20:13:11.683Z</time>
      </trkpt>
      <trkpt lat="44.95842" lon="3.371">
        <ele>1234</ele>
        <time>2022-06-20T20:13:15.821Z</time>
      </trkpt>
      <trkpt lat="44.95862" lon="3.37109">
        <ele>1234</ele>
        <time>2022-06-20T20:13:19.294Z</time>
      </trkpt>
      <trkpt lat="44.95896" lon="3.37155">
        <ele>1233</ele>
        <time>2022-06-20T20:13:24.885Z</time>
      </trkpt>
      <trkpt lat="44.95909" lon="3.37186">
        <ele>1232</ele>
        <time>2022-06-20T20:13:27.393Z</time>
      </trkpt>
      <trkpt lat="44.95913" lon="3.37216">
        <ele>1232</ele>
        <time>2022-06-20T20:13:30.967Z</time>
      </trkpt>
      <trkpt lat="44.95912" lon="3.37305">
        <ele>1231</ele>
        <time>2022-06-20T20:13:38.944Z</time>
      </trkpt>
      <trkpt lat="44.95909" lon="3.37344">
        <ele>1230</ele>
        <time>2022-06-20T20:13:41.760Z</time>
      </trkpt>
      <trkpt lat="44.959" lon="3.3738">
        <ele>1230</ele>
        <time>2022-06-20T20:13:46.230Z</time>
      </trkpt>
      <trkpt lat="44.95889" lon="3.37419">
        <ele>1229</ele>
        <time>2022-06-20T20:13:49.316Z</time>
      </trkpt>
      <trkpt lat="44.95887" lon="3.37477">
        <ele>1229</ele>
        <time>2022-06-20T20:13:56.115Z</time>
      </trkpt>
      <trkpt lat="44.95893" lon="3.37504">
        <ele>1229</ele>
        <time>2022-06-20T20:13:59.429Z</time>
      </trkpt>
      <trkpt lat="44.95901" lon="3.37516">
        <ele>1228</ele>
        <time>2022-06-20T20:14:00.420Z</time>
      </trkpt>
      <trkpt lat="44.95921" lon="3.37529">
        <ele>1227</ele>
        <time>2022-06-20T20:14:02.464Z</time>
      </trkpt>
      <trkpt lat="44.9595" lon="3.37527">
        <ele>1224</ele>
        <time>2022-06-20T20:14:04.933Z</time>
      </trkpt>
      <trkpt lat="44.9599" lon="3.37506">
        <ele>1223</ele>
        <time>2022-06-20T20:14:09.876Z</time>
      </trkpt>
      <trkpt lat="44.96069" lon="3.37461">
        <ele>1222</ele>
        <time>2022-06-20T20:14:21.242Z</time>
      </trkpt>
      <trkpt lat="44.96092" lon="3.37458">
        <ele>1221</ele>
        <time>2022-06-20T20:14:23.428Z</time>
      </trkpt>
      <trkpt lat="44.96108" lon="3.37461">
        <ele>1221</ele>
        <time>2022-06-20T20:14:26.099Z</time>
      </trkpt>
      <trkpt lat="44.96127" lon="3.37472">
        <ele>1220</ele>
        <time>2022-06-20T20:14:27.950Z</time>
      </trkpt>
      <trkpt lat="44.96206" lon="3.37548">
        <ele>1218</ele>
        <time>2022-06-20T20:14:39.343Z</time>
      </trkpt>
      <trkpt lat="44.96226" lon="3.37562">
        <ele>1219</ele>
        <time>2022-06-20T20:14:45.588Z</time>
      </trkpt>
      <trkpt lat="44.96253" lon="3.37592">
        <ele>1219</ele>
        <time>2022-06-20T20:14:51.271Z</time>
      </trkpt>
      <trkpt lat="44.96273" lon="3.37624">
        <ele>1219</ele>
        <time>2022-06-20T20:14:56.270Z</time>
      </trkpt>
      <trkpt lat="44.9629" lon="3.37662">
        <ele>1220</ele>
        <time>2022-06-20T20:15:03.661Z</time>
      </trkpt>
      <trkpt lat="44.96297" lon="3.37681">
        <ele>1219</ele>
        <time>2022-06-20T20:15:04.848Z</time>
      </trkpt>
      <trkpt lat="44.96302" lon="3.37703">
        <ele>1218</ele>
        <time>2022-06-20T20:15:06.177Z</time>
      </trkpt>
      <trkpt lat="44.96313" lon="3.37767">
        <ele>1214</ele>
        <time>2022-06-20T20:15:10.139Z</time>
      </trkpt>
      <trkpt lat="44.96314" lon="3.37846">
        <ele>1211</ele>
        <time>2022-06-20T20:15:14.970Z</time>
      </trkpt>
      <trkpt lat="44.96312" lon="3.37938">
        <ele>1207</ele>
        <time>2022-06-20T20:15:20.252Z</time>
      </trkpt>
      <trkpt lat="44.96317" lon="3.37965">
        <ele>1206</ele>
        <time>2022-06-20T20:15:22.003Z</time>
      </trkpt>
      <trkpt lat="44.96328" lon="3.37993">
        <ele>1206</ele>
        <time>2022-06-20T20:15:25.753Z</time>
      </trkpt>
      <trkpt lat="44.96346" lon="3.38012">
        <ele>1205</ele>
        <time>2022-06-20T20:15:27.856Z</time>
      </trkpt>
      <trkpt lat="44.96368" lon="3.38022">
        <ele>1206</ele>
        <time>2022-06-20T20:15:34.190Z</time>
      </trkpt>
      <trkpt lat="44.96383" lon="3.38025">
        <ele>1207</ele>
        <time>2022-06-20T20:15:39.087Z</time>
      </trkpt>
      <trkpt lat="44.9641" lon="3.38042">
        <ele>1206</ele>
        <time>2022-06-20T20:15:42.152Z</time>
      </trkpt>
      <trkpt lat="44.96419" lon="3.38054">
        <ele>1206</ele>
        <time>2022-06-20T20:15:44.199Z</time>
      </trkpt>
      <trkpt lat="44.96427" lon="3.38069">
        <ele>1204</ele>
        <time>2022-06-20T20:15:45.329Z</time>
      </trkpt>
      <trkpt lat="44.96433" lon="3.38091">
        <ele>1203</ele>
        <time>2022-06-20T20:15:46.698Z</time>
      </trkpt>
      <trkpt lat="44.96435" lon="3.38112">
        <ele>1202</ele>
        <time>2022-06-20T20:15:47.866Z</time>
      </trkpt>
      <trkpt lat="44.96435" lon="3.38127">
        <ele>1202</ele>
        <time>2022-06-20T20:15:49.622Z</time>
      </trkpt>
      <trkpt lat="44.96431" lon="3.38143">
        <ele>1201</ele>
        <time>2022-06-20T20:15:50.642Z</time>
      </trkpt>
      <trkpt lat="44.96362" lon="3.38286">
        <ele>1195</ele>
        <time>2022-06-20T20:16:01.657Z</time>
      </trkpt>
      <trkpt lat="44.96343" lon="3.38333">
        <ele>1193</ele>
        <time>2022-06-20T20:16:05.007Z</time>
      </trkpt>
      <trkpt lat="44.96342" lon="3.38344">
        <ele>1192</ele>
        <time>2022-06-20T20:16:05.674Z</time>
      </trkpt>
      <trkpt lat="44.96343" lon="3.38356">
        <ele>1192</ele>
        <time>2022-06-20T20:16:07.088Z</time>
      </trkpt>
      <trkpt lat="44.96351" lon="3.38376">
        <ele>1191</ele>
        <time>2022-06-20T20:16:08.406Z</time>
      </trkpt>
      <trkpt lat="44.96426" lon="3.38445">
        <ele>1190</ele>
        <time>2022-06-20T20:16:20.436Z</time>
      </trkpt>
      <trkpt lat="44.96462" lon="3.38465">
        <ele>1190</ele>
        <time>2022-06-20T20:16:26.836Z</time>
      </trkpt>
      <trkpt lat="44.96471" lon="3.38473">
        <ele>1190</ele>
        <time>2022-06-20T20:16:28.596Z</time>
      </trkpt>
      <trkpt lat="44.96497" lon="3.38519">
        <ele>1189</ele>
        <time>2022-06-20T20:16:33.391Z</time>
      </trkpt>
      <trkpt lat="44.96516" lon="3.38581">
        <ele>1190</ele>
        <time>2022-06-20T20:16:43.175Z</time>
      </trkpt>
      <trkpt lat="44.96548" lon="3.38754">
        <ele>1187</ele>
        <time>2022-06-20T20:16:57.786Z</time>
      </trkpt>
      <trkpt lat="44.96551" lon="3.38825">
        <ele>1186</ele>
        <time>2022-06-20T20:17:03.861Z</time>
      </trkpt>
      <trkpt lat="44.96561" lon="3.38867">
        <ele>1188</ele>
        <time>2022-06-20T20:17:13.833Z</time>
      </trkpt>
      <trkpt lat="44.96595" lon="3.38973">
        <ele>1190</ele>
        <time>2022-06-20T20:17:31.356Z</time>
      </trkpt>
      <trkpt lat="44.96512" lon="3.38995">
        <ele>1176</ele>
        <time>2022-06-20T20:17:38.536Z</time>
      </trkpt>
      <trkpt lat="44.96496" lon="3.3901">
        <ele>1173</ele>
        <time>2022-06-20T20:17:40.168Z</time>
      </trkpt>
      <trkpt lat="44.96465" lon="3.39065">
        <ele>1171</ele>
        <time>2022-06-20T20:17:45.016Z</time>
      </trkpt>
      <trkpt lat="44.96437" lon="3.39102">
        <ele>1171</ele>
        <time>2022-06-20T20:17:51.358Z</time>
      </trkpt>
      <trkpt lat="44.96405" lon="3.39131">
        <ele>1169</ele>
        <time>2022-06-20T20:17:54.672Z</time>
      </trkpt>
      <trkpt lat="44.96378" lon="3.39145">
        <ele>1165</ele>
        <time>2022-06-20T20:17:57.117Z</time>
      </trkpt>
      <trkpt lat="44.96334" lon="3.39157">
        <ele>1159</ele>
        <time>2022-06-20T20:18:00.927Z</time>
      </trkpt>
      <trkpt lat="44.96316" lon="3.39173">
        <ele>1157</ele>
        <time>2022-06-20T20:18:02.735Z</time>
      </trkpt>
      <trkpt lat="44.96293" lon="3.39252">
        <ele>1155</ele>
        <time>2022-06-20T20:18:09.050Z</time>
      </trkpt>
      <trkpt lat="44.96277" lon="3.3927">
        <ele>1151</ele>
        <time>2022-06-20T20:18:10.789Z</time>
      </trkpt>
      <trkpt lat="44.96258" lon="3.39266">
        <ele>1148</ele>
        <time>2022-06-20T20:18:12.422Z</time>
      </trkpt>
      <trkpt lat="44.96204" lon="3.39216">
        <ele>1141</ele>
        <time>2022-06-20T20:18:17.911Z</time>
      </trkpt>
      <trkpt lat="44.96163" lon="3.39191">
        <ele>1136</ele>
        <time>2022-06-20T20:18:21.707Z</time>
      </trkpt>
      <trkpt lat="44.96112" lon="3.39175">
        <ele>1131</ele>
        <time>2022-06-20T20:18:26.149Z</time>
      </trkpt>
      <trkpt lat="44.96074" lon="3.39157">
        <ele>1127</ele>
        <time>2022-06-20T20:18:29.556Z</time>
      </trkpt>
      <trkpt lat="44.96025" lon="3.3912">
        <ele>1122</ele>
        <time>2022-06-20T20:18:34.280Z</time>
      </trkpt>
      <trkpt lat="44.95998" lon="3.3909">
        <ele>1119</ele>
        <time>2022-06-20T20:18:37.200Z</time>
      </trkpt>
      <trkpt lat="44.95983" lon="3.39087">
        <ele>1117</ele>
        <time>2022-06-20T20:18:38.488Z</time>
      </trkpt>
      <trkpt lat="44.9597" lon="3.39091">
        <ele>1116</ele>
        <time>2022-06-20T20:18:39.619Z</time>
      </trkpt>
      <trkpt lat="44.95958" lon="3.39102">
        <ele>1115</ele>
        <time>2022-06-20T20:18:40.835Z</time>
      </trkpt>
      <trkpt lat="44.95955" lon="3.39124">
        <ele>1115</ele>
        <time>2022-06-20T20:18:43.458Z</time>
      </trkpt>
      <trkpt lat="44.95955" lon="3.39168">
        <ele>1115</ele>
        <time>2022-06-20T20:18:48.610Z</time>
      </trkpt>
      <trkpt lat="44.95951" lon="3.39193">
        <ele>1114</ele>
        <time>2022-06-20T20:18:50.158Z</time>
      </trkpt>
      <trkpt lat="44.95963" lon="3.39266">
        <ele>1112</ele>
        <time>2022-06-20T20:18:55.449Z</time>
      </trkpt>
      <trkpt lat="44.95965" lon="3.39297">
        <ele>1111</ele>
        <time>2022-06-20T20:18:57.495Z</time>
      </trkpt>
      <trkpt lat="44.95988" lon="3.39343">
        <ele>1110</ele>
        <time>2022-06-20T20:19:02.027Z</time>
      </trkpt>
      <trkpt lat="44.96005" lon="3.3937">
        <ele>1108</ele>
        <time>2022-06-20T20:19:04.202Z</time>
      </trkpt>
      <trkpt lat="44.96065" lon="3.39413">
        <ele>1105</ele>
        <time>2022-06-20T20:19:10.494Z</time>
      </trkpt>
      <trkpt lat="44.96086" lon="3.39433">
        <ele>1104</ele>
        <time>2022-06-20T20:19:12.978Z</time>
      </trkpt>
      <trkpt lat="44.96106" lon="3.39471">
        <ele>1103</ele>
        <time>2022-06-20T20:19:16.599Z</time>
      </trkpt>
      <trkpt lat="44.96143" lon="3.39556">
        <ele>1096</ele>
        <time>2022-06-20T20:19:22.603Z</time>
      </trkpt>
      <trkpt lat="44.96174" lon="3.39598">
        <ele>1091</ele>
        <time>2022-06-20T20:19:26.254Z</time>
      </trkpt>
      <trkpt lat="44.96202" lon="3.39625">
        <ele>1087</ele>
        <time>2022-06-20T20:19:29.136Z</time>
      </trkpt>
      <trkpt lat="44.96228" lon="3.39636">
        <ele>1086</ele>
        <time>2022-06-20T20:19:31.867Z</time>
      </trkpt>
      <trkpt lat="44.96256" lon="3.39641">
        <ele>1087</ele>
        <time>2022-06-20T20:19:38.781Z</time>
      </trkpt>
      <trkpt lat="44.96283" lon="3.39661">
        <ele>1086</ele>
        <time>2022-06-20T20:19:41.975Z</time>
      </trkpt>
      <trkpt lat="44.96314" lon="3.397">
        <ele>1080</ele>
        <time>2022-06-20T20:19:45.503Z</time>
      </trkpt>
      <trkpt lat="44.96355" lon="3.39725">
        <ele>1082</ele>
        <time>2022-06-20T20:19:57.996Z</time>
      </trkpt>
      <trkpt lat="44.96413" lon="3.39811">
        <ele>1072</ele>
        <time>2022-06-20T20:20:05.143Z</time>
      </trkpt>
      <trkpt lat="44.96418" lon="3.39828">
        <ele>1069</ele>
        <time>2022-06-20T20:20:06.250Z</time>
      </trkpt>
      <trkpt lat="44.96422" lon="3.39858">
        <ele>1063</ele>
        <time>2022-06-20T20:20:08.087Z</time>
      </trkpt>
      <trkpt lat="44.96427" lon="3.39875">
        <ele>1061</ele>
        <time>2022-06-20T20:20:09.194Z</time>
      </trkpt>
      <trkpt lat="44.96451" lon="3.39933">
        <ele>1057</ele>
        <time>2022-06-20T20:20:13.236Z</time>
      </trkpt>
      <trkpt lat="44.96483" lon="3.3999">
        <ele>1052</ele>
        <time>2022-06-20T20:20:17.613Z</time>
      </trkpt>
      <trkpt lat="44.96537" lon="3.40061">
        <ele>1046</ele>
        <time>2022-06-20T20:20:23.884Z</time>
      </trkpt>
      <trkpt lat="44.96585" lon="3.40112">
        <ele>1043</ele>
        <time>2022-06-20T20:20:29.239Z</time>
      </trkpt>
      <trkpt lat="44.96649" lon="3.40192">
        <ele>1040</ele>
        <time>2022-06-20T20:20:37.986Z</time>
      </trkpt>
      <trkpt lat="44.96697" lon="3.40268">
        <ele>1037</ele>
        <time>2022-06-20T20:20:44.915Z</time>
      </trkpt>
      <trkpt lat="44.96708" lon="3.40293">
        <ele>1037</ele>
        <time>2022-06-20T20:20:48.362Z</time>
      </trkpt>
      <trkpt lat="44.96717" lon="3.40334">
        <ele>1035</ele>
        <time>2022-06-20T20:20:50.742Z</time>
      </trkpt>
      <trkpt lat="44.96725" lon="3.40406">
        <ele>1028</ele>
        <time>2022-06-20T20:20:55.126Z</time>
      </trkpt>
      <trkpt lat="44.96732" lon="3.40518">
        <ele>1027</ele>
        <time>2022-06-20T20:21:05.628Z</time>
      </trkpt>
      <trkpt lat="44.96738" lon="3.40549">
        <ele>1026</ele>
        <time>2022-06-20T20:21:07.767Z</time>
      </trkpt>
      <trkpt lat="44.96748" lon="3.40576">
        <ele>1025</ele>
        <time>2022-06-20T20:21:09.752Z</time>
      </trkpt>
      <trkpt lat="44.96769" lon="3.40613">
        <ele>1027</ele>
        <time>2022-06-20T20:21:20.113Z</time>
      </trkpt>
      <trkpt lat="44.96785" lon="3.40646">
        <ele>1028</ele>
        <time>2022-06-20T20:21:27.037Z</time>
      </trkpt>
      <trkpt lat="44.96826" lon="3.40709">
        <ele>1028</ele>
        <time>2022-06-20T20:21:37.057Z</time>
      </trkpt>
      <trkpt lat="44.96838" lon="3.4074">
        <ele>1026</ele>
        <time>2022-06-20T20:21:39.183Z</time>
      </trkpt>
      <trkpt lat="44.96844" lon="3.40786">
        <ele>1022</ele>
        <time>2022-06-20T20:21:41.996Z</time>
      </trkpt>
      <trkpt lat="44.96854" lon="3.40819">
        <ele>1021</ele>
        <time>2022-06-20T20:21:44.491Z</time>
      </trkpt>
      <trkpt lat="44.96875" lon="3.40867">
        <ele>1022</ele>
        <time>2022-06-20T20:21:53.064Z</time>
      </trkpt>
      <trkpt lat="44.96885" lon="3.40901">
        <ele>1022</ele>
        <time>2022-06-20T20:21:57.374Z</time>
      </trkpt>
      <trkpt lat="44.96912" lon="3.40949">
        <ele>1020</ele>
        <time>2022-06-20T20:22:01.377Z</time>
      </trkpt>
      <trkpt lat="44.96929" lon="3.41002">
        <ele>1014</ele>
        <time>2022-06-20T20:22:04.878Z</time>
      </trkpt>
      <trkpt lat="44.96929" lon="3.41034">
        <ele>1015</ele>
        <time>2022-06-20T20:22:11.169Z</time>
      </trkpt>
      <trkpt lat="44.96933" lon="3.41046">
        <ele>1015</ele>
        <time>2022-06-20T20:22:12.722Z</time>
      </trkpt>
      <trkpt lat="44.96993" lon="3.41073">
        <ele>1013</ele>
        <time>2022-06-20T20:22:19.391Z</time>
      </trkpt>
      <trkpt lat="44.97026" lon="3.41066">
        <ele>1013</ele>
        <time>2022-06-20T20:22:24.912Z</time>
      </trkpt>
      <trkpt lat="44.97024" lon="3.4105">
        <ele>1014</ele>
        <time>2022-06-20T20:22:29.302Z</time>
      </trkpt>
      <trkpt lat="44.97024" lon="3.4103">
        <ele>1015</ele>
        <time>2022-06-20T20:22:34.037Z</time>
      </trkpt>
      <trkpt lat="44.97026" lon="3.41018">
        <ele>1016</ele>
        <time>2022-06-20T20:22:38.415Z</time>
      </trkpt>
      <trkpt lat="44.97036" lon="3.41007">
        <ele>1018</ele>
        <time>2022-06-20T20:22:46.502Z</time>
      </trkpt>
      <trkpt lat="44.97056" lon="3.41004">
        <ele>1019</ele>
        <time>2022-06-20T20:22:52.310Z</time>
      </trkpt>
      <trkpt lat="44.97079" lon="3.41009">
        <ele>1020</ele>
        <time>2022-06-20T20:22:58.660Z</time>
      </trkpt>
      <trkpt lat="44.97106" lon="3.41021">
        <ele>1020</ele>
        <time>2022-06-20T20:23:03.343Z</time>
      </trkpt>
      <trkpt lat="44.97134" lon="3.41042">
        <ele>1019</ele>
        <time>2022-06-20T20:23:06.707Z</time>
      </trkpt>
      <trkpt lat="44.97157" lon="3.41069">
        <ele>1015</ele>
        <time>2022-06-20T20:23:09.249Z</time>
      </trkpt>
      <trkpt lat="44.97192" lon="3.41103">
        <ele>1010</ele>
        <time>2022-06-20T20:23:12.860Z</time>
      </trkpt>
      <trkpt lat="44.97202" lon="3.41103">
        <ele>1010</ele>
        <time>2022-06-20T20:23:14.514Z</time>
      </trkpt>
      <trkpt lat="44.9721" lon="3.41094">
        <ele>1010</ele>
        <time>2022-06-20T20:23:16.206Z</time>
      </trkpt>
      <trkpt lat="44.97244" lon="3.41042">
        <ele>1018</ele>
        <time>2022-06-20T20:23:48.176Z</time>
      </trkpt>
      <trkpt lat="44.97262" lon="3.41029">
        <ele>1020</ele>
        <time>2022-06-20T20:23:56.785Z</time>
      </trkpt>
      <trkpt lat="44.97289" lon="3.41027">
        <ele>1019</ele>
        <time>2022-06-20T20:23:59.502Z</time>
      </trkpt>
      <trkpt lat="44.97341" lon="3.41034">
        <ele>1016</ele>
        <time>2022-06-20T20:24:03.877Z</time>
      </trkpt>
      <trkpt lat="44.97415" lon="3.41067">
        <ele>1012</ele>
        <time>2022-06-20T20:24:10.702Z</time>
      </trkpt>
      <trkpt lat="44.97438" lon="3.41074">
        <ele>1011</ele>
        <time>2022-06-20T20:24:12.946Z</time>
      </trkpt>
      <trkpt lat="44.97472" lon="3.4107">
        <ele>1012</ele>
        <time>2022-06-20T20:24:20.663Z</time>
      </trkpt>
      <trkpt lat="44.97513" lon="3.41062">
        <ele>1012</ele>
        <time>2022-06-20T20:24:27.511Z</time>
      </trkpt>
      <trkpt lat="44.97521" lon="3.41045">
        <ele>1014</ele>
        <time>2022-06-20T20:24:36.729Z</time>
      </trkpt>
      <trkpt lat="44.97536" lon="3.41029">
        <ele>1015</ele>
        <time>2022-06-20T20:24:42.283Z</time>
      </trkpt>
      <trkpt lat="44.97552" lon="3.41001">
        <ele>1016</ele>
        <time>2022-06-20T20:24:48.863Z</time>
      </trkpt>
      <trkpt lat="44.97565" lon="3.40971">
        <ele>1016</ele>
        <time>2022-06-20T20:24:52.981Z</time>
      </trkpt>
      <trkpt lat="44.97574" lon="3.40935">
        <ele>1016</ele>
        <time>2022-06-20T20:24:57.450Z</time>
      </trkpt>
      <trkpt lat="44.97574" lon="3.40871">
        <ele>1018</ele>
        <time>2022-06-20T20:25:10.032Z</time>
      </trkpt>
      <trkpt lat="44.97576" lon="3.40848">
        <ele>1018</ele>
        <time>2022-06-20T20:25:12.745Z</time>
      </trkpt>
      <trkpt lat="44.97582" lon="3.40837">
        <ele>1017</ele>
        <time>2022-06-20T20:25:13.580Z</time>
      </trkpt>
      <trkpt lat="44.9762" lon="3.40794">
        <ele>1020</ele>
        <time>2022-06-20T20:25:28.825Z</time>
      </trkpt>
      <trkpt lat="44.97634" lon="3.40763">
        <ele>1022</ele>
        <time>2022-06-20T20:25:37.960Z</time>
      </trkpt>
      <trkpt lat="44.9765" lon="3.40714">
        <ele>1026</ele>
        <time>2022-06-20T20:25:55.189Z</time>
      </trkpt>
      <trkpt lat="44.97662" lon="3.40692">
        <ele>1026</ele>
        <time>2022-06-20T20:25:58.440Z</time>
      </trkpt>
      <trkpt lat="44.97674" lon="3.40678">
        <ele>1028</ele>
        <time>2022-06-20T20:26:07.715Z</time>
      </trkpt>
      <trkpt lat="44.97731" lon="3.40675">
        <ele>1034</ele>
        <time>2022-06-20T20:26:33.565Z</time>
      </trkpt>
      <trkpt lat="44.97813" lon="3.40654">
        <ele>1041</ele>
        <time>2022-06-20T20:27:04.586Z</time>
      </trkpt>
      <trkpt lat="44.97866" lon="3.40657">
        <ele>1041</ele>
        <time>2022-06-20T20:27:13.362Z</time>
      </trkpt>
      <trkpt lat="44.97879" lon="3.40649">
        <ele>1042</ele>
        <time>2022-06-20T20:27:18.102Z</time>
      </trkpt>
      <trkpt lat="44.97889" lon="3.40633">
        <ele>1042</ele>
        <time>2022-06-20T20:27:20.601Z</time>
      </trkpt>
      <trkpt lat="44.97893" lon="3.40615">
        <ele>1043</ele>
        <time>2022-06-20T20:27:25.216Z</time>
      </trkpt>
      <trkpt lat="44.97892" lon="3.40601">
        <ele>1044</ele>
        <time>2022-06-20T20:27:29.518Z</time>
      </trkpt>
      <trkpt lat="44.97859" lon="3.40508">
        <ele>1048</ele>
        <time>2022-06-20T20:27:51.436Z</time>
      </trkpt>
      <trkpt lat="44.97836" lon="3.40451">
        <ele>1049</ele>
        <time>2022-06-20T20:28:01.005Z</time>
      </trkpt>
      <trkpt lat="44.9781" lon="3.40401">
        <ele>1048</ele>
        <time>2022-06-20T20:28:06.128Z</time>
      </trkpt>
      <trkpt lat="44.97748" lon="3.4033">
        <ele>1057</ele>
        <time>2022-06-20T20:28:45.351Z</time>
      </trkpt>
      <trkpt lat="44.97732" lon="3.40305">
        <ele>1056</ele>
        <time>2022-06-20T20:28:47.637Z</time>
      </trkpt>
      <trkpt lat="44.97716" lon="3.40267">
        <ele>1054</ele>
        <time>2022-06-20T20:28:50.125Z</time>
      </trkpt>
      <trkpt lat="44.97698" lon="3.40242">
        <ele>1056</ele>
        <time>2022-06-20T20:28:59.157Z</time>
      </trkpt>
      <trkpt lat="44.97671" lon="3.40227">
        <ele>1060</ele>
        <time>2022-06-20T20:29:17.671Z</time>
      </trkpt>
      <trkpt lat="44.97637" lon="3.40216">
        <ele>1064</ele>
        <time>2022-06-20T20:29:35.185Z</time>
      </trkpt>
      <trkpt lat="44.97624" lon="3.40201">
        <ele>1065</ele>
        <time>2022-06-20T20:29:40.365Z</time>
      </trkpt>
      <trkpt lat="44.97621" lon="3.4019">
        <ele>1065</ele>
        <time>2022-06-20T20:29:41.745Z</time>
      </trkpt>
      <trkpt lat="44.9762" lon="3.40099">
        <ele>1063</ele>
        <time>2022-06-20T20:29:48.613Z</time>
      </trkpt>
      <trkpt lat="44.97616" lon="3.40078">
        <ele>1064</ele>
        <time>2022-06-20T20:29:53.549Z</time>
      </trkpt>
      <trkpt lat="44.97589" lon="3.40031">
        <ele>1069</ele>
        <time>2022-06-20T20:30:15.570Z</time>
      </trkpt>
      <trkpt lat="44.97584" lon="3.40012">
        <ele>1069</ele>
        <time>2022-06-20T20:30:17.943Z</time>
      </trkpt>
      <trkpt lat="44.97587" lon="3.39994">
        <ele>1069</ele>
        <time>2022-06-20T20:30:20.108Z</time>
      </trkpt>
      <trkpt lat="44.97595" lon="3.39984">
        <ele>1071</ele>
        <time>2022-06-20T20:30:26.923Z</time>
      </trkpt>
      <trkpt lat="44.97605" lon="3.39979">
        <ele>1072</ele>
        <time>2022-06-20T20:30:31.246Z</time>
      </trkpt>
      <trkpt lat="44.97661" lon="3.39985">
        <ele>1066</ele>
        <time>2022-06-20T20:30:36.021Z</time>
      </trkpt>
      <trkpt lat="44.97674" lon="3.39979">
        <ele>1066</ele>
        <time>2022-06-20T20:30:38.284Z</time>
      </trkpt>
      <trkpt lat="44.97722" lon="3.39927">
        <ele>1071</ele>
        <time>2022-06-20T20:31:00.547Z</time>
      </trkpt>
      <trkpt lat="44.97751" lon="3.399">
        <ele>1073</ele>
        <time>2022-06-20T20:31:11.120Z</time>
      </trkpt>
      <trkpt lat="44.97771" lon="3.39891">
        <ele>1078</ele>
        <time>2022-06-20T20:31:24.515Z</time>
      </trkpt>
      <trkpt lat="44.9778" lon="3.39894">
        <ele>1079</ele>
        <time>2022-06-20T20:31:28.837Z</time>
      </trkpt>
      <trkpt lat="44.97788" lon="3.39897">
        <ele>1080</ele>
        <time>2022-06-20T20:31:33.304Z</time>
      </trkpt>
      <trkpt lat="44.97795" lon="3.3991">
        <ele>1079</ele>
        <time>2022-06-20T20:31:34.287Z</time>
      </trkpt>
      <trkpt lat="44.97807" lon="3.3995">
        <ele>1076</ele>
        <time>2022-06-20T20:31:36.900Z</time>
      </trkpt>
      <trkpt lat="44.9783" lon="3.40008">
        <ele>1072</ele>
        <time>2022-06-20T20:31:40.899Z</time>
      </trkpt>
      <trkpt lat="44.97842" lon="3.40027">
        <ele>1070</ele>
        <time>2022-06-20T20:31:42.431Z</time>
      </trkpt>
      <trkpt lat="44.97857" lon="3.40037">
        <ele>1071</ele>
        <time>2022-06-20T20:31:47.576Z</time>
      </trkpt>
      <trkpt lat="44.97947" lon="3.40066">
        <ele>1074</ele>
        <time>2022-06-20T20:32:09.324Z</time>
      </trkpt>
      <trkpt lat="44.97966" lon="3.4007">
        <ele>1073</ele>
        <time>2022-06-20T20:32:11.006Z</time>
      </trkpt>
      <trkpt lat="44.97991" lon="3.40066">
        <ele>1073</ele>
        <time>2022-06-20T20:32:15.169Z</time>
      </trkpt>
      <trkpt lat="44.98022" lon="3.40054">
        <ele>1073</ele>
        <time>2022-06-20T20:32:20.487Z</time>
      </trkpt>
      <trkpt lat="44.98052" lon="3.40034">
        <ele>1074</ele>
        <time>2022-06-20T20:32:28.069Z</time>
      </trkpt>
      <trkpt lat="44.98136" lon="3.39954">
        <ele>1082</ele>
        <time>2022-06-20T20:33:04.242Z</time>
      </trkpt>
      <trkpt lat="44.9818" lon="3.39914">
        <ele>1085</ele>
        <time>2022-06-20T20:33:20.142Z</time>
      </trkpt>
      <trkpt lat="44.98196" lon="3.39906">
        <ele>1087</ele>
        <time>2022-06-20T20:33:28.982Z</time>
      </trkpt>
      <trkpt lat="44.98246" lon="3.39916">
        <ele>1083</ele>
        <time>2022-06-20T20:33:33.275Z</time>
      </trkpt>
      <trkpt lat="44.98275" lon="3.39913">
        <ele>1086</ele>
        <time>2022-06-20T20:33:46.186Z</time>
      </trkpt>
      <trkpt lat="44.98297" lon="3.39907">
        <ele>1089</ele>
        <time>2022-06-20T20:34:00.485Z</time>
      </trkpt>
      <trkpt lat="44.98306" lon="3.39908">
        <ele>1089</ele>
        <time>2022-06-20T20:34:01.979Z</time>
      </trkpt>
      <trkpt lat="44.98331" lon="3.3993">
        <ele>1087</ele>
        <time>2022-06-20T20:34:04.483Z</time>
      </trkpt>
      <trkpt lat="44.98369" lon="3.39952">
        <ele>1089</ele>
        <time>2022-06-20T20:34:16.263Z</time>
      </trkpt>
      <trkpt lat="44.98458" lon="3.39999">
        <ele>1093</ele>
        <time>2022-06-20T20:34:41.851Z</time>
      </trkpt>
      <trkpt lat="44.98496" lon="3.4003">
        <ele>1091</ele>
        <time>2022-06-20T20:34:45.918Z</time>
      </trkpt>
      <trkpt lat="44.98504" lon="3.40032">
        <ele>1091</ele>
        <time>2022-06-20T20:34:47.262Z</time>
      </trkpt>
      <trkpt lat="44.98511" lon="3.40029">
        <ele>1090</ele>
        <time>2022-06-20T20:34:47.884Z</time>
      </trkpt>
      <trkpt lat="44.98525" lon="3.40019">
        <ele>1090</ele>
        <time>2022-06-20T20:34:50.479Z</time>
      </trkpt>
      <trkpt lat="44.98592" lon="3.39906">
        <ele>1098</ele>
        <time>2022-06-20T20:35:27.052Z</time>
      </trkpt>
      <trkpt lat="44.98606" lon="3.39891">
        <ele>1101</ele>
        <time>2022-06-20T20:35:38.263Z</time>
      </trkpt>
      <trkpt lat="44.98623" lon="3.39878">
        <ele>1103</ele>
        <time>2022-06-20T20:35:46.871Z</time>
      </trkpt>
      <trkpt lat="44.9864" lon="3.39878">
        <ele>1103</ele>
        <time>2022-06-20T20:35:49.684Z</time>
      </trkpt>
      <trkpt lat="44.98663" lon="3.39884">
        <ele>1102</ele>
        <time>2022-06-20T20:35:51.909Z</time>
      </trkpt>
      <trkpt lat="44.98712" lon="3.39914">
        <ele>1096</ele>
        <time>2022-06-20T20:35:56.449Z</time>
      </trkpt>
      <trkpt lat="44.98726" lon="3.39915">
        <ele>1096</ele>
        <time>2022-06-20T20:35:58.768Z</time>
      </trkpt>
      <trkpt lat="44.98755" lon="3.39905">
        <ele>1098</ele>
        <time>2022-06-20T20:36:08.487Z</time>
      </trkpt>
      <trkpt lat="44.98775" lon="3.39896">
        <ele>1097</ele>
        <time>2022-06-20T20:36:10.397Z</time>
      </trkpt>
      <trkpt lat="44.98796" lon="3.39879">
        <ele>1097</ele>
        <time>2022-06-20T20:36:14.401Z</time>
      </trkpt>
      <trkpt lat="44.98809" lon="3.39861">
        <ele>1099</ele>
        <time>2022-06-20T20:36:23.068Z</time>
      </trkpt>
      <trkpt lat="44.98826" lon="3.39832">
        <ele>1103</ele>
        <time>2022-06-20T20:36:40.069Z</time>
      </trkpt>
      <trkpt lat="44.98847" lon="3.39783">
        <ele>1111</ele>
        <time>2022-06-20T20:37:05.930Z</time>
      </trkpt>
      <trkpt lat="44.98856" lon="3.39776">
        <ele>1111</ele>
        <time>2022-06-20T20:37:07.630Z</time>
      </trkpt>
      <trkpt lat="44.98866" lon="3.39773">
        <ele>1111</ele>
        <time>2022-06-20T20:37:09.321Z</time>
      </trkpt>
      <trkpt lat="44.98885" lon="3.39778">
        <ele>1109</ele>
        <time>2022-06-20T20:37:10.965Z</time>
      </trkpt>
      <trkpt lat="44.98903" lon="3.39772">
        <ele>1109</ele>
        <time>2022-06-20T20:37:14.024Z</time>
      </trkpt>
      <trkpt lat="44.98925" lon="3.39756">
        <ele>1111</ele>
        <time>2022-06-20T20:37:22.995Z</time>
      </trkpt>
      <trkpt lat="44.9896" lon="3.39715">
        <ele>1125</ele>
        <time>2022-06-20T20:37:52.002Z</time>
      </trkpt>
      <trkpt lat="44.9897" lon="3.3971">
        <ele>1127</ele>
        <time>2022-06-20T20:37:58.771Z</time>
      </trkpt>
      <trkpt lat="44.98979" lon="3.39707">
        <ele>1128</ele>
        <time>2022-06-20T20:38:03.093Z</time>
      </trkpt>
      <trkpt lat="44.98991" lon="3.39709">
        <ele>1128</ele>
        <time>2022-06-20T20:38:05.092Z</time>
      </trkpt>
      <trkpt lat="44.99024" lon="3.39722">
        <ele>1125</ele>
        <time>2022-06-20T20:38:08.005Z</time>
      </trkpt>
      <trkpt lat="44.99045" lon="3.39723">
        <ele>1126</ele>
        <time>2022-06-20T20:38:13.990Z</time>
      </trkpt>
      <trkpt lat="44.99071" lon="3.39713">
        <ele>1131</ele>
        <time>2022-06-20T20:38:31.186Z</time>
      </trkpt>
      <trkpt lat="44.99097" lon="3.39692">
        <ele>1137</ele>
        <time>2022-06-20T20:38:50.296Z</time>
      </trkpt>
      <trkpt lat="44.99104" lon="3.39689">
        <ele>1138</ele>
        <time>2022-06-20T20:38:54.964Z</time>
      </trkpt>
      <trkpt lat="44.99198" lon="3.39675">
        <ele>1136</ele>
        <time>2022-06-20T20:39:06.202Z</time>
      </trkpt>
      <trkpt lat="44.99256" lon="3.39661">
        <ele>1137</ele>
        <time>2022-06-20T20:39:17.733Z</time>
      </trkpt>
      <trkpt lat="44.99329" lon="3.39645">
        <ele>1146</ele>
        <time>2022-06-20T20:39:58.108Z</time>
      </trkpt>
      <trkpt lat="44.99338" lon="3.39646">
        <ele>1147</ele>
        <time>2022-06-20T20:40:02.448Z</time>
      </trkpt>
      <trkpt lat="44.99345" lon="3.39651">
        <ele>1148</ele>
        <time>2022-06-20T20:40:07.059Z</time>
      </trkpt>
      <trkpt lat="44.9939" lon="3.397">
        <ele>1150</ele>
        <time>2022-06-20T20:40:20.930Z</time>
      </trkpt>
      <trkpt lat="44.99409" lon="3.39718">
        <ele>1152</ele>
        <time>2022-06-20T20:40:29.699Z</time>
      </trkpt>
      <trkpt lat="44.99426" lon="3.39727">
        <ele>1154</ele>
        <time>2022-06-20T20:40:38.369Z</time>
      </trkpt>
      <trkpt lat="44.99446" lon="3.39734">
        <ele>1156</ele>
        <time>2022-06-20T20:40:46.989Z</time>
      </trkpt>
      <trkpt lat="44.99516" lon="3.39786">
        <ele>1162</ele>
        <time>2022-06-20T20:41:14.537Z</time>
      </trkpt>
      <trkpt lat="44.99561" lon="3.398">
        <ele>1165</ele>
        <time>2022-06-20T20:41:29.332Z</time>
      </trkpt>
      <trkpt lat="44.99595" lon="3.39817">
        <ele>1168</ele>
        <time>2022-06-20T20:41:42.665Z</time>
      </trkpt>
      <trkpt lat="44.99612" lon="3.3983">
        <ele>1169</ele>
        <time>2022-06-20T20:41:48.321Z</time>
      </trkpt>
      <trkpt lat="44.99627" lon="3.39847">
        <ele>1170</ele>
        <time>2022-06-20T20:41:53.957Z</time>
      </trkpt>
      <trkpt lat="44.99636" lon="3.39861">
        <ele>1172</ele>
        <time>2022-06-20T20:42:02.496Z</time>
      </trkpt>
      <trkpt lat="44.99642" lon="3.39876">
        <ele>1173</ele>
        <time>2022-06-20T20:42:06.960Z</time>
      </trkpt>
      <trkpt lat="44.99645" lon="3.39897">
        <ele>1173</ele>
        <time>2022-06-20T20:42:09.466Z</time>
      </trkpt>
      <trkpt lat="44.99645" lon="3.39916">
        <ele>1173</ele>
        <time>2022-06-20T20:42:11.689Z</time>
      </trkpt>
      <trkpt lat="44.99641" lon="3.39939">
        <ele>1174</ele>
        <time>2022-06-20T20:42:16.864Z</time>
      </trkpt>
      <trkpt lat="44.99626" lon="3.39973">
        <ele>1174</ele>
        <time>2022-06-20T20:42:21.553Z</time>
      </trkpt>
      <trkpt lat="44.99602" lon="3.40041">
        <ele>1176</ele>
        <time>2022-06-20T20:42:35.044Z</time>
      </trkpt>
      <trkpt lat="44.99568" lon="3.40079">
        <ele>1178</ele>
        <time>2022-06-20T20:42:47.274Z</time>
      </trkpt>
      <trkpt lat="44.99512" lon="3.40118">
        <ele>1181</ele>
        <time>2022-06-20T20:43:05.107Z</time>
      </trkpt>
      <trkpt lat="44.995" lon="3.40134">
        <ele>1182</ele>
        <time>2022-06-20T20:43:10.236Z</time>
      </trkpt>
      <trkpt lat="44.99495" lon="3.40148">
        <ele>1183</ele>
        <time>2022-06-20T20:43:14.591Z</time>
      </trkpt>
      <trkpt lat="44.99496" lon="3.40164">
        <ele>1184</ele>
        <time>2022-06-20T20:43:18.968Z</time>
      </trkpt>
      <trkpt lat="44.99503" lon="3.40179">
        <ele>1185</ele>
        <time>2022-06-20T20:43:23.496Z</time>
      </trkpt>
      <trkpt lat="44.99517" lon="3.40185">
        <ele>1186</ele>
        <time>2022-06-20T20:43:28.307Z</time>
      </trkpt>
      <trkpt lat="44.99564" lon="3.40187">
        <ele>1188</ele>
        <time>2022-06-20T20:43:41.053Z</time>
      </trkpt>
      <trkpt lat="44.99605" lon="3.40168">
        <ele>1190</ele>
        <time>2022-06-20T20:43:53.245Z</time>
      </trkpt>
      <trkpt lat="44.99633" lon="3.40142">
        <ele>1189</ele>
        <time>2022-06-20T20:43:56.864Z</time>
      </trkpt>
      <trkpt lat="44.99709" lon="3.40028">
        <ele>1190</ele>
        <time>2022-06-20T20:44:16.848Z</time>
      </trkpt>
      <trkpt lat="44.99769" lon="3.39913">
        <ele>1192</ele>
        <time>2022-06-20T20:44:37.271Z</time>
      </trkpt>
      <trkpt lat="44.99778" lon="3.39872">
        <ele>1191</ele>
        <time>2022-06-20T20:44:40.448Z</time>
      </trkpt>
      <trkpt lat="44.9978" lon="3.39849">
        <ele>1191</ele>
        <time>2022-06-20T20:44:43.159Z</time>
      </trkpt>
      <trkpt lat="44.99767" lon="3.3974">
        <ele>1196</ele>
        <time>2022-06-20T20:45:08.052Z</time>
      </trkpt>
      <trkpt lat="44.99792" lon="3.39732">
        <ele>1196</ele>
        <time>2022-06-20T20:45:12.293Z</time>
      </trkpt>
      <trkpt lat="44.99827" lon="3.39707">
        <ele>1196</ele>
        <time>2022-06-20T20:45:18.781Z</time>
      </trkpt>
      <trkpt lat="44.99863" lon="3.39662">
        <ele>1196</ele>
        <time>2022-06-20T20:45:26.731Z</time>
      </trkpt>
      <trkpt lat="44.99875" lon="3.39627">
        <ele>1196</ele>
        <time>2022-06-20T20:45:31.282Z</time>
      </trkpt>
      <trkpt lat="44.99884" lon="3.3958">
        <ele>1196</ele>
        <time>2022-06-20T20:45:36.979Z</time>
      </trkpt>
      <trkpt lat="44.99879" lon="3.39522">
        <ele>1199</ele>
        <time>2022-06-20T20:45:51.012Z</time>
      </trkpt>
      <trkpt lat="44.99861" lon="3.39379">
        <ele>1204</ele>
        <time>2022-06-20T20:46:20.472Z</time>
      </trkpt>
      <trkpt lat="44.99863" lon="3.39359">
        <ele>1205</ele>
        <time>2022-06-20T20:46:25.228Z</time>
      </trkpt>
      <trkpt lat="44.99871" lon="3.39347">
        <ele>1206</ele>
        <time>2022-06-20T20:46:29.634Z</time>
      </trkpt>
      <trkpt lat="44.99882" lon="3.3934">
        <ele>1206</ele>
        <time>2022-06-20T20:46:31.630Z</time>
      </trkpt>
      <trkpt lat="44.99898" lon="3.39342">
        <ele>1205</ele>
        <time>2022-06-20T20:46:32.925Z</time>
      </trkpt>
      <trkpt lat="45.0009" lon="3.39409">
        <ele>1204</ele>
        <time>2022-06-20T20:47:03.293Z</time>
      </trkpt>
      <trkpt lat="45.0011" lon="3.39413">
        <ele>1204</ele>
        <time>2022-06-20T20:47:06.635Z</time>
      </trkpt>
      <trkpt lat="45.00185" lon="3.39415">
        <ele>1206</ele>
        <time>2022-06-20T20:47:23.058Z</time>
      </trkpt>
      <trkpt lat="45.0023" lon="3.39408">
        <ele>1205</ele>
        <time>2022-06-20T20:47:28.383Z</time>
      </trkpt>
      <trkpt lat="45.00253" lon="3.39395">
        <ele>1206</ele>
        <time>2022-06-20T20:47:34.886Z</time>
      </trkpt>
      <trkpt lat="45.00273" lon="3.39373">
        <ele>1206</ele>
        <time>2022-06-20T20:47:39.079Z</time>
      </trkpt>
      <trkpt lat="45.00291" lon="3.39345">
        <ele>1207</ele>
        <time>2022-06-20T20:47:45.810Z</time>
      </trkpt>
      <trkpt lat="45.00332" lon="3.39256">
        <ele>1213</ele>
        <time>2022-06-20T20:48:12.831Z</time>
      </trkpt>
      <trkpt lat="45.00342" lon="3.39209">
        <ele>1215</ele>
        <time>2022-06-20T20:48:23.400Z</time>
      </trkpt>
      <trkpt lat="45.00351" lon="3.39153">
        <ele>1216</ele>
        <time>2022-06-20T20:48:32.076Z</time>
      </trkpt>
      <trkpt lat="45.00369" lon="3.39009">
        <ele>1214</ele>
        <time>2022-06-20T20:48:44.633Z</time>
      </trkpt>
      <trkpt lat="45.00382" lon="3.38986">
        <ele>1215</ele>
        <time>2022-06-20T20:48:50.580Z</time>
      </trkpt>
      <trkpt lat="45.00396" lon="3.38971">
        <ele>1216</ele>
        <time>2022-06-20T20:48:55.904Z</time>
      </trkpt>
      <trkpt lat="45.00421" lon="3.38963">
        <ele>1215</ele>
        <time>2022-06-20T20:48:58.430Z</time>
      </trkpt>
      <trkpt lat="45.00495" lon="3.38952">
        <ele>1214</ele>
        <time>2022-06-20T20:49:08.144Z</time>
      </trkpt>
      <trkpt lat="45.00516" lon="3.38939">
        <ele>1214</ele>
        <time>2022-06-20T20:49:11.937Z</time>
      </trkpt>
      <trkpt lat="45.00529" lon="3.38922">
        <ele>1215</ele>
        <time>2022-06-20T20:49:17.287Z</time>
      </trkpt>
      <trkpt lat="45.00622" lon="3.38773">
        <ele>1217</ele>
        <time>2022-06-20T20:49:44.024Z</time>
      </trkpt>
      <trkpt lat="45.00665" lon="3.3869">
        <ele>1216</ele>
        <time>2022-06-20T20:49:53.485Z</time>
      </trkpt>
      <trkpt lat="45.00674" lon="3.38661">
        <ele>1215</ele>
        <time>2022-06-20T20:49:55.579Z</time>
      </trkpt>
      <trkpt lat="45.00672" lon="3.38602">
        <ele>1214</ele>
        <time>2022-06-20T20:50:00.389Z</time>
      </trkpt>
      <trkpt lat="45.00661" lon="3.38556">
        <ele>1213</ele>
        <time>2022-06-20T20:50:04.127Z</time>
      </trkpt>
      <trkpt lat="45.00628" lon="3.38433">
        <ele>1213</ele>
        <time>2022-06-20T20:50:19.517Z</time>
      </trkpt>
      <trkpt lat="45.00623" lon="3.38392">
        <ele>1212</ele>
        <time>2022-06-20T20:50:22.562Z</time>
      </trkpt>
      <trkpt lat="45.00622" lon="3.38353">
        <ele>1210</ele>
        <time>2022-06-20T20:50:24.908Z</time>
      </trkpt>
      <trkpt lat="45.0063" lon="3.38306">
        <ele>1209</ele>
        <time>2022-06-20T20:50:28.624Z</time>
      </trkpt>
      <trkpt lat="45.00652" lon="3.38226">
        <ele>1210</ele>
        <time>2022-06-20T20:50:40.451Z</time>
      </trkpt>
      <trkpt lat="45.00669" lon="3.38186">
        <ele>1212</ele>
        <time>2022-06-20T20:50:50.711Z</time>
      </trkpt>
      <trkpt lat="45.00706" lon="3.38139">
        <ele>1214</ele>
        <time>2022-06-20T20:51:03.739Z</time>
      </trkpt>
      <trkpt lat="45.00769" lon="3.38093">
        <ele>1211</ele>
        <time>2022-06-20T20:51:10.511Z</time>
      </trkpt>
      <trkpt lat="45.00776" lon="3.38078">
        <ele>1209</ele>
        <time>2022-06-20T20:51:11.591Z</time>
      </trkpt>
      <trkpt lat="45.00775" lon="3.38053">
        <ele>1207</ele>
        <time>2022-06-20T20:51:13.096Z</time>
      </trkpt>
      <trkpt lat="45.0076" lon="3.38022">
        <ele>1207</ele>
        <time>2022-06-20T20:51:17.491Z</time>
      </trkpt>
      <trkpt lat="45.00713" lon="3.37938">
        <ele>1198</ele>
        <time>2022-06-20T20:51:23.930Z</time>
      </trkpt>
      <trkpt lat="45.00694" lon="3.37918">
        <ele>1197</ele>
        <time>2022-06-20T20:51:26.194Z</time>
      </trkpt>
      <trkpt lat="45.00608" lon="3.37857">
        <ele>1192</ele>
        <time>2022-06-20T20:51:34.627Z</time>
      </trkpt>
      <trkpt lat="45.00525" lon="3.37819">
        <ele>1189</ele>
        <time>2022-06-20T20:51:43.623Z</time>
      </trkpt>
      <trkpt lat="45.00429" lon="3.37743">
        <ele>1184</ele>
        <time>2022-06-20T20:51:53.834Z</time>
      </trkpt>
      <trkpt lat="45.00376" lon="3.37715">
        <ele>1179</ele>
        <time>2022-06-20T20:51:58.644Z</time>
      </trkpt>
      <trkpt lat="45.00342" lon="3.37707">
        <ele>1177</ele>
        <time>2022-06-20T20:52:01.517Z</time>
      </trkpt>
      <trkpt lat="45.0031" lon="3.37715">
        <ele>1177</ele>
        <time>2022-06-20T20:52:06.894Z</time>
      </trkpt>
      <trkpt lat="45.00284" lon="3.3771">
        <ele>1174</ele>
        <time>2022-06-20T20:52:09.125Z</time>
      </trkpt>
      <trkpt lat="45.00235" lon="3.37695">
        <ele>1166</ele>
        <time>2022-06-20T20:52:13.387Z</time>
      </trkpt>
      <trkpt lat="45.00204" lon="3.37694">
        <ele>1163</ele>
        <time>2022-06-20T20:52:16.023Z</time>
      </trkpt>
      <trkpt lat="45.00181" lon="3.37705">
        <ele>1163</ele>
        <time>2022-06-20T20:52:20.041Z</time>
      </trkpt>
      <trkpt lat="45.00162" lon="3.37708">
        <ele>1163</ele>
        <time>2022-06-20T20:52:23.204Z</time>
      </trkpt>
      <trkpt lat="45.00152" lon="3.377">
        <ele>1165</ele>
        <time>2022-06-20T20:52:30.536Z</time>
      </trkpt>
      <trkpt lat="45.00141" lon="3.37682">
        <ele>1166</ele>
        <time>2022-06-20T20:52:35.725Z</time>
      </trkpt>
      <trkpt lat="45.00123" lon="3.37556">
        <ele>1156</ele>
        <time>2022-06-20T20:52:43.452Z</time>
      </trkpt>
      <trkpt lat="45.00104" lon="3.37521">
        <ele>1155</ele>
        <time>2022-06-20T20:52:46.747Z</time>
      </trkpt>
      <trkpt lat="45.00074" lon="3.37487">
        <ele>1156</ele>
        <time>2022-06-20T20:52:55.098Z</time>
      </trkpt>
      <trkpt lat="45.00049" lon="3.37452">
        <ele>1156</ele>
        <time>2022-06-20T20:53:00.918Z</time>
      </trkpt>
      <trkpt lat="45.00032" lon="3.37413">
        <ele>1153</ele>
        <time>2022-06-20T20:53:03.673Z</time>
      </trkpt>
      <trkpt lat="45.00015" lon="3.37349">
        <ele>1148</ele>
        <time>2022-06-20T20:53:07.783Z</time>
      </trkpt>
      <trkpt lat="45.00008" lon="3.37299">
        <ele>1144</ele>
        <time>2022-06-20T20:53:10.847Z</time>
      </trkpt>
      <trkpt lat="45.00017" lon="3.37285">
        <ele>1144</ele>
        <time>2022-06-20T20:53:13.061Z</time>
      </trkpt>
      <trkpt lat="45.00043" lon="3.37277">
        <ele>1147</ele>
        <time>2022-06-20T20:53:26.133Z</time>
      </trkpt>
      <trkpt lat="45.00051" lon="3.37284">
        <ele>1148</ele>
        <time>2022-06-20T20:53:30.446Z</time>
      </trkpt>
      <trkpt lat="45.00077" lon="3.37357">
        <ele>1144</ele>
        <time>2022-06-20T20:53:35.360Z</time>
      </trkpt>
      <trkpt lat="45.00096" lon="3.37379">
        <ele>1143</ele>
        <time>2022-06-20T20:53:37.741Z</time>
      </trkpt>
      <trkpt lat="45.0014" lon="3.37408">
        <ele>1142</ele>
        <time>2022-06-20T20:53:43.550Z</time>
      </trkpt>
      <trkpt lat="45.00168" lon="3.37413">
        <ele>1143</ele>
        <time>2022-06-20T20:53:50.464Z</time>
      </trkpt>
      <trkpt lat="45.00214" lon="3.37401">
        <ele>1144</ele>
        <time>2022-06-20T20:54:00.088Z</time>
      </trkpt>
      <trkpt lat="45.00316" lon="3.37378">
        <ele>1150</ele>
        <time>2022-06-20T20:54:31.644Z</time>
      </trkpt>
      <trkpt lat="45.00352" lon="3.37377">
        <ele>1150</ele>
        <time>2022-06-20T20:54:37.601Z</time>
      </trkpt>
      <trkpt lat="45.00404" lon="3.37369">
        <ele>1154</ele>
        <time>2022-06-20T20:54:55.910Z</time>
      </trkpt>
      <trkpt lat="45.00425" lon="3.37373">
        <ele>1154</ele>
        <time>2022-06-20T20:54:59.416Z</time>
      </trkpt>
      <trkpt lat="45.00457" lon="3.374">
        <ele>1153</ele>
        <time>2022-06-20T20:55:03.574Z</time>
      </trkpt>
      <trkpt lat="45.00487" lon="3.37418">
        <ele>1154</ele>
        <time>2022-06-20T20:55:11.074Z</time>
      </trkpt>
      <trkpt lat="45.00505" lon="3.37425">
        <ele>1155</ele>
        <time>2022-06-20T20:55:16.604Z</time>
      </trkpt>
      <trkpt lat="45.00525" lon="3.37445">
        <ele>1153</ele>
        <time>2022-06-20T20:55:18.687Z</time>
      </trkpt>
      <trkpt lat="45.0054" lon="3.3745">
        <ele>1155</ele>
        <time>2022-06-20T20:55:28.028Z</time>
      </trkpt>
      <trkpt lat="45.00617" lon="3.37466">
        <ele>1164</ele>
        <time>2022-06-20T20:56:07.538Z</time>
      </trkpt>
      <trkpt lat="45.00653" lon="3.37479">
        <ele>1165</ele>
        <time>2022-06-20T20:56:15.697Z</time>
      </trkpt>
      <trkpt lat="45.007" lon="3.37485">
        <ele>1171</ele>
        <time>2022-06-20T20:56:43.304Z</time>
      </trkpt>
      <trkpt lat="45.00947" lon="3.37619">
        <ele>1165</ele>
        <time>2022-06-20T20:57:14.214Z</time>
      </trkpt>
      <trkpt lat="45.00967" lon="3.37617">
        <ele>1166</ele>
        <time>2022-06-20T20:57:20.010Z</time>
      </trkpt>
      <trkpt lat="45.00988" lon="3.376">
        <ele>1171</ele>
        <time>2022-06-20T20:57:35.452Z</time>
      </trkpt>
      <trkpt lat="45.01038" lon="3.37571">
        <ele>1167</ele>
        <time>2022-06-20T20:57:40.047Z</time>
      </trkpt>
      <trkpt lat="45.01052" lon="3.37547">
        <ele>1167</ele>
        <time>2022-06-20T20:57:43.687Z</time>
      </trkpt>
      <trkpt lat="45.01065" lon="3.37509">
        <ele>1171</ele>
        <time>2022-06-20T20:58:02.734Z</time>
      </trkpt>
      <trkpt lat="45.01084" lon="3.37419">
        <ele>1172</ele>
        <time>2022-06-20T20:58:15.480Z</time>
      </trkpt>
      <trkpt lat="45.01084" lon="3.37393">
        <ele>1172</ele>
        <time>2022-06-20T20:58:18.521Z</time>
      </trkpt>
      <trkpt lat="45.01074" lon="3.37329">
        <ele>1175</ele>
        <time>2022-06-20T20:58:33.361Z</time>
      </trkpt>
      <trkpt lat="45.01047" lon="3.37204">
        <ele>1176</ele>
        <time>2022-06-20T20:58:50.332Z</time>
      </trkpt>
      <trkpt lat="45.01024" lon="3.37117">
        <ele>1176</ele>
        <time>2022-06-20T20:59:01.198Z</time>
      </trkpt>
      <trkpt lat="45.00961" lon="3.36979">
        <ele>1176</ele>
        <time>2022-06-20T20:59:20.414Z</time>
      </trkpt>
      <trkpt lat="45.00942" lon="3.36932">
        <ele>1175</ele>
        <time>2022-06-20T20:59:24.718Z</time>
      </trkpt>
      <trkpt lat="45.00923" lon="3.36895">
        <ele>1177</ele>
        <time>2022-06-20T20:59:34.860Z</time>
      </trkpt>
      <trkpt lat="45.00909" lon="3.36858">
        <ele>1177</ele>
        <time>2022-06-20T20:59:39.769Z</time>
      </trkpt>
      <trkpt lat="45.00905" lon="3.36829">
        <ele>1176</ele>
        <time>2022-06-20T20:59:41.666Z</time>
      </trkpt>
      <trkpt lat="45.00908" lon="3.36812">
        <ele>1176</ele>
        <time>2022-06-20T20:59:43.716Z</time>
      </trkpt>
      <trkpt lat="45.0092" lon="3.36801">
        <ele>1175</ele>
        <time>2022-06-20T20:59:44.932Z</time>
      </trkpt>
      <trkpt lat="45.00932" lon="3.36795">
        <ele>1175</ele>
        <time>2022-06-20T20:59:47.037Z</time>
      </trkpt>
      <trkpt lat="45.00995" lon="3.36805">
        <ele>1173</ele>
        <time>2022-06-20T20:59:53.766Z</time>
      </trkpt>
      <trkpt lat="45.01118" lon="3.36802">
        <ele>1179</ele>
        <time>2022-06-20T21:00:29.074Z</time>
      </trkpt>
      <trkpt lat="45.0114" lon="3.36803">
        <ele>1182</ele>
        <time>2022-06-20T21:00:43.122Z</time>
      </trkpt>
      <trkpt lat="45.01165" lon="3.36809">
        <ele>1183</ele>
        <time>2022-06-20T21:00:49.690Z</time>
      </trkpt>
      <trkpt lat="45.01215" lon="3.36831">
        <ele>1187</ele>
        <time>2022-06-20T21:01:08.007Z</time>
      </trkpt>
      <trkpt lat="45.01239" lon="3.36839">
        <ele>1189</ele>
        <time>2022-06-20T21:01:16.967Z</time>
      </trkpt>
      <trkpt lat="45.01268" lon="3.36844">
        <ele>1193</ele>
        <time>2022-06-20T21:01:35.612Z</time>
      </trkpt>
      <trkpt lat="45.0128" lon="3.3685">
        <ele>1194</ele>
        <time>2022-06-20T21:01:40.142Z</time>
      </trkpt>
      <trkpt lat="45.0129" lon="3.36865">
        <ele>1193</ele>
        <time>2022-06-20T21:01:41.382Z</time>
      </trkpt>
      <trkpt lat="45.01333" lon="3.36945">
        <ele>1191</ele>
        <time>2022-06-20T21:01:49.197Z</time>
      </trkpt>
      <trkpt lat="45.01347" lon="3.36964">
        <ele>1190</ele>
        <time>2022-06-20T21:01:50.903Z</time>
      </trkpt>
      <trkpt lat="45.01362" lon="3.3698">
        <ele>1191</ele>
        <time>2022-06-20T21:01:56.456Z</time>
      </trkpt>
      <trkpt lat="45.01389" lon="3.36997">
        <ele>1192</ele>
        <time>2022-06-20T21:02:03.543Z</time>
      </trkpt>
      <trkpt lat="45.01422" lon="3.37006">
        <ele>1194</ele>
        <time>2022-06-20T21:02:13.912Z</time>
      </trkpt>
      <trkpt lat="45.01516" lon="3.37022">
        <ele>1196</ele>
        <time>2022-06-20T21:02:33.336Z</time>
      </trkpt>
      <trkpt lat="45.01562" lon="3.37012">
        <ele>1196</ele>
        <time>2022-06-20T21:02:41.037Z</time>
      </trkpt>
      <trkpt lat="45.01582" lon="3.36998">
        <ele>1198</ele>
        <time>2022-06-20T21:02:49.757Z</time>
      </trkpt>
      <trkpt lat="45.01602" lon="3.36981">
        <ele>1198</ele>
        <time>2022-06-20T21:02:53.617Z</time>
      </trkpt>
      <trkpt lat="45.01627" lon="3.36954">
        <ele>1198</ele>
        <time>2022-06-20T21:02:58.822Z</time>
      </trkpt>
      <trkpt lat="45.01665" lon="3.36894">
        <ele>1202</ele>
        <time>2022-06-20T21:03:17.816Z</time>
      </trkpt>
      <trkpt lat="45.01676" lon="3.36861">
        <ele>1204</ele>
        <time>2022-06-20T21:03:26.922Z</time>
      </trkpt>
      <trkpt lat="45.01688" lon="3.36795">
        <ele>1212</ele>
        <time>2022-06-20T21:03:57.667Z</time>
      </trkpt>
      <trkpt lat="45.01695" lon="3.36776">
        <ele>1214</ele>
        <time>2022-06-20T21:04:07.143Z</time>
      </trkpt>
      <trkpt lat="45.01705" lon="3.36765">
        <ele>1213</ele>
        <time>2022-06-20T21:04:08.220Z</time>
      </trkpt>
      <trkpt lat="45.01755" lon="3.36733">
        <ele>1205</ele>
        <time>2022-06-20T21:04:12.886Z</time>
      </trkpt>
      <trkpt lat="45.01788" lon="3.367">
        <ele>1206</ele>
        <time>2022-06-20T21:04:21.532Z</time>
      </trkpt>
      <trkpt lat="45.01866" lon="3.36611">
        <ele>1215</ele>
        <time>2022-06-20T21:05:00.757Z</time>
      </trkpt>
      <trkpt lat="45.01879" lon="3.36599">
        <ele>1216</ele>
        <time>2022-06-20T21:05:05.716Z</time>
      </trkpt>
      <trkpt lat="45.01895" lon="3.36596">
        <ele>1214</ele>
        <time>2022-06-20T21:05:07.088Z</time>
      </trkpt>
      <trkpt lat="45.01909" lon="3.366">
        <ele>1210</ele>
        <time>2022-06-20T21:05:08.303Z</time>
      </trkpt>
      <trkpt lat="45.01921" lon="3.36613">
        <ele>1207</ele>
        <time>2022-06-20T21:05:09.588Z</time>
      </trkpt>
      <trkpt lat="45.0197" lon="3.36708">
        <ele>1198</ele>
        <time>2022-06-20T21:05:16.656Z</time>
      </trkpt>
      <trkpt lat="45.01983" lon="3.36727">
        <ele>1198</ele>
        <time>2022-06-20T21:05:19.748Z</time>
      </trkpt>
      <trkpt lat="45.02017" lon="3.36799">
        <ele>1193</ele>
        <time>2022-06-20T21:05:24.952Z</time>
      </trkpt>
      <trkpt lat="45.02041" lon="3.36836">
        <ele>1191</ele>
        <time>2022-06-20T21:05:27.951Z</time>
      </trkpt>
      <trkpt lat="45.02119" lon="3.36929">
        <ele>1196</ele>
        <time>2022-06-20T21:05:57.275Z</time>
      </trkpt>
      <trkpt lat="45.02167" lon="3.37007">
        <ele>1193</ele>
        <time>2022-06-20T21:06:04.341Z</time>
      </trkpt>
      <trkpt lat="45.02186" lon="3.37027">
        <ele>1193</ele>
        <time>2022-06-20T21:06:08.260Z</time>
      </trkpt>
      <trkpt lat="45.022" lon="3.37036">
        <ele>1194</ele>
        <time>2022-06-20T21:06:13.195Z</time>
      </trkpt>
      <trkpt lat="45.0222" lon="3.37043">
        <ele>1195</ele>
        <time>2022-06-20T21:06:19.099Z</time>
      </trkpt>
      <trkpt lat="45.02243" lon="3.37051">
        <ele>1197</ele>
        <time>2022-06-20T21:06:27.948Z</time>
      </trkpt>
      <trkpt lat="45.02325" lon="3.37065">
        <ele>1198</ele>
        <time>2022-06-20T21:06:43.319Z</time>
      </trkpt>
      <trkpt lat="45.02362" lon="3.37061">
        <ele>1199</ele>
        <time>2022-06-20T21:06:51.471Z</time>
      </trkpt>
      <trkpt lat="45.02396" lon="3.37049">
        <ele>1200</ele>
        <time>2022-06-20T21:06:59.321Z</time>
      </trkpt>
      <trkpt lat="45.02426" lon="3.37029">
        <ele>1201</ele>
        <time>2022-06-20T21:07:06.903Z</time>
      </trkpt>
      <trkpt lat="45.02482" lon="3.36967">
        <ele>1205</ele>
        <time>2022-06-20T21:07:28.354Z</time>
      </trkpt>
      <trkpt lat="45.02518" lon="3.36937">
        <ele>1209</ele>
        <time>2022-06-20T21:07:45.615Z</time>
      </trkpt>
      <trkpt lat="45.02528" lon="3.36934">
        <ele>1209</ele>
        <time>2022-06-20T21:07:47.306Z</time>
      </trkpt>
      <trkpt lat="45.02538" lon="3.36934">
        <ele>1209</ele>
        <time>2022-06-20T21:07:48.961Z</time>
      </trkpt>
      <trkpt lat="45.02575" lon="3.36953">
        <ele>1203</ele>
        <time>2022-06-20T21:07:52.307Z</time>
      </trkpt>
      <trkpt lat="45.02629" lon="3.36953">
        <ele>1204</ele>
        <time>2022-06-20T21:08:03.067Z</time>
      </trkpt>
      <trkpt lat="45.02678" lon="3.36947">
        <ele>1205</ele>
        <time>2022-06-20T21:08:13.068Z</time>
      </trkpt>
      <trkpt lat="45.02741" lon="3.36924">
        <ele>1206</ele>
        <time>2022-06-20T21:08:25.597Z</time>
      </trkpt>
      <trkpt lat="45.02778" lon="3.36914">
        <ele>1209</ele>
        <time>2022-06-20T21:08:39.122Z</time>
      </trkpt>
      <trkpt lat="45.02787" lon="3.36915">
        <ele>1209</ele>
        <time>2022-06-20T21:08:40.616Z</time>
      </trkpt>
      <trkpt lat="45.02807" lon="3.3693">
        <ele>1209</ele>
        <time>2022-06-20T21:08:44.361Z</time>
      </trkpt>
      <trkpt lat="45.02854" lon="3.37006">
        <ele>1206</ele>
        <time>2022-06-20T21:08:51.197Z</time>
      </trkpt>
      <trkpt lat="45.02883" lon="3.37061">
        <ele>1206</ele>
        <time>2022-06-20T21:08:59.221Z</time>
      </trkpt>
      <trkpt lat="45.02956" lon="3.37215">
        <ele>1209</ele>
        <time>2022-06-20T21:09:26.658Z</time>
      </trkpt>
      <trkpt lat="45.03019" lon="3.37334">
        <ele>1210</ele>
        <time>2022-06-20T21:09:45.705Z</time>
      </trkpt>
      <trkpt lat="45.03039" lon="3.37382">
        <ele>1211</ele>
        <time>2022-06-20T21:09:54.196Z</time>
      </trkpt>
      <trkpt lat="45.03058" lon="3.37457">
        <ele>1212</ele>
        <time>2022-06-20T21:10:05.323Z</time>
      </trkpt>
      <trkpt lat="45.03072" lon="3.37528">
        <ele>1212</ele>
        <time>2022-06-20T21:10:13.943Z</time>
      </trkpt>
      <trkpt lat="45.03086" lon="3.37574">
        <ele>1211</ele>
        <time>2022-06-20T21:10:17.832Z</time>
      </trkpt>
      <trkpt lat="45.03097" lon="3.37604">
        <ele>1210</ele>
        <time>2022-06-20T21:10:20.123Z</time>
      </trkpt>
      <trkpt lat="45.03115" lon="3.37645">
        <ele>1210</ele>
        <time>2022-06-20T21:10:25.767Z</time>
      </trkpt>
      <trkpt lat="45.03137" lon="3.37683">
        <ele>1209</ele>
        <time>2022-06-20T21:10:29.559Z</time>
      </trkpt>
      <trkpt lat="45.03166" lon="3.37717">
        <ele>1206</ele>
        <time>2022-06-20T21:10:32.761Z</time>
      </trkpt>
      <trkpt lat="45.0324" lon="3.37781">
        <ele>1198</ele>
        <time>2022-06-20T21:10:40.135Z</time>
      </trkpt>
      <trkpt lat="45.03261" lon="3.37787">
        <ele>1195</ele>
        <time>2022-06-20T21:10:41.956Z</time>
      </trkpt>
      <trkpt lat="45.03288" lon="3.37784">
        <ele>1192</ele>
        <time>2022-06-20T21:10:44.259Z</time>
      </trkpt>
      <trkpt lat="45.03332" lon="3.37771">
        <ele>1188</ele>
        <time>2022-06-20T21:10:48.081Z</time>
      </trkpt>
      <trkpt lat="45.0337" lon="3.37773">
        <ele>1187</ele>
        <time>2022-06-20T21:10:52.348Z</time>
      </trkpt>
      <trkpt lat="45.03393" lon="3.37788">
        <ele>1185</ele>
        <time>2022-06-20T21:10:54.501Z</time>
      </trkpt>
      <trkpt lat="45.03464" lon="3.37867">
        <ele>1179</ele>
        <time>2022-06-20T21:11:01.549Z</time>
      </trkpt>
      <trkpt lat="45.03478" lon="3.37876">
        <ele>1178</ele>
        <time>2022-06-20T21:11:02.761Z</time>
      </trkpt>
      <trkpt lat="45.03516" lon="3.37876">
        <ele>1179</ele>
        <time>2022-06-20T21:11:11.046Z</time>
      </trkpt>
      <trkpt lat="45.03631" lon="3.37844">
        <ele>1182</ele>
        <time>2022-06-20T21:11:36.378Z</time>
      </trkpt>
      <trkpt lat="45.03707" lon="3.3783">
        <ele>1183</ele>
        <time>2022-06-20T21:11:50.780Z</time>
      </trkpt>
      <trkpt lat="45.03781" lon="3.3783">
        <ele>1181</ele>
        <time>2022-06-20T21:11:59.019Z</time>
      </trkpt>
      <trkpt lat="45.03827" lon="3.37852">
        <ele>1179</ele>
        <time>2022-06-20T21:12:03.706Z</time>
      </trkpt>
      <trkpt lat="45.03853" lon="3.37876">
        <ele>1177</ele>
        <time>2022-06-20T21:12:06.166Z</time>
      </trkpt>
      <trkpt lat="45.03864" lon="3.37894">
        <ele>1176</ele>
        <time>2022-06-20T21:12:07.551Z</time>
      </trkpt>
      <trkpt lat="45.03875" lon="3.37914">
        <ele>1175</ele>
        <time>2022-06-20T21:12:09.071Z</time>
      </trkpt>
      <trkpt lat="45.03899" lon="3.37982">
        <ele>1173</ele>
        <time>2022-06-20T21:12:14.455Z</time>
      </trkpt>
      <trkpt lat="45.03929" lon="3.38097">
        <ele>1172</ele>
        <time>2022-06-20T21:12:26.044Z</time>
      </trkpt>
      <trkpt lat="45.03948" lon="3.38156">
        <ele>1169</ele>
        <time>2022-06-20T21:12:29.645Z</time>
      </trkpt>
      <trkpt lat="45.03969" lon="3.38212">
        <ele>1166</ele>
        <time>2022-06-20T21:12:33.453Z</time>
      </trkpt>
      <trkpt lat="45.04025" lon="3.38338">
        <ele>1159</ele>
        <time>2022-06-20T21:12:41.653Z</time>
      </trkpt>
      <trkpt lat="45.04054" lon="3.38393">
        <ele>1157</ele>
        <time>2022-06-20T21:12:46.331Z</time>
      </trkpt>
      <trkpt lat="45.04086" lon="3.38443">
        <ele>1154</ele>
        <time>2022-06-20T21:12:50.152Z</time>
      </trkpt>
      <trkpt lat="45.04124" lon="3.38485">
        <ele>1149</ele>
        <time>2022-06-20T21:12:54.251Z</time>
      </trkpt>
      <trkpt lat="45.04214" lon="3.38578">
        <ele>1134</ele>
        <time>2022-06-20T21:13:03.726Z</time>
      </trkpt>
      <trkpt lat="45.04239" lon="3.38607">
        <ele>1131</ele>
        <time>2022-06-20T21:13:06.474Z</time>
      </trkpt>
      <trkpt lat="45.04249" lon="3.38628">
        <ele>1130</ele>
        <time>2022-06-20T21:13:07.992Z</time>
      </trkpt>
      <trkpt lat="45.04252" lon="3.38652">
        <ele>1130</ele>
        <time>2022-06-20T21:13:10.841Z</time>
      </trkpt>
      <trkpt lat="45.04249" lon="3.38676">
        <ele>1129</ele>
        <time>2022-06-20T21:13:12.276Z</time>
      </trkpt>
      <trkpt lat="45.04241" lon="3.38713">
        <ele>1127</ele>
        <time>2022-06-20T21:13:14.600Z</time>
      </trkpt>
      <trkpt lat="45.04241" lon="3.38741">
        <ele>1124</ele>
        <time>2022-06-20T21:13:16.282Z</time>
      </trkpt>
      <trkpt lat="45.04246" lon="3.38761">
        <ele>1122</ele>
        <time>2022-06-20T21:13:17.557Z</time>
      </trkpt>
      <trkpt lat="45.04264" lon="3.38816">
        <ele>1119</ele>
        <time>2022-06-20T21:13:21.198Z</time>
      </trkpt>
      <trkpt lat="45.04271" lon="3.38835">
        <ele>1117</ele>
        <time>2022-06-20T21:13:22.485Z</time>
      </trkpt>
      <trkpt lat="45.04279" lon="3.3885">
        <ele>1118</ele>
        <time>2022-06-20T21:13:27.091Z</time>
      </trkpt>
      <trkpt lat="45.04305" lon="3.38875">
        <ele>1117</ele>
        <time>2022-06-20T21:13:30.418Z</time>
      </trkpt>
      <trkpt lat="45.04367" lon="3.38918">
        <ele>1114</ele>
        <time>2022-06-20T21:13:36.944Z</time>
      </trkpt>
      <trkpt lat="45.04396" lon="3.38942">
        <ele>1112</ele>
        <time>2022-06-20T21:13:39.710Z</time>
      </trkpt>
      <trkpt lat="45.04424" lon="3.38969">
        <ele>1110</ele>
        <time>2022-06-20T21:13:42.511Z</time>
      </trkpt>
      <trkpt lat="45.04498" lon="3.39047">
        <ele>1102</ele>
        <time>2022-06-20T21:13:50.356Z</time>
      </trkpt>
      <trkpt lat="45.04518" lon="3.39063">
        <ele>1100</ele>
        <time>2022-06-20T21:13:52.309Z</time>
      </trkpt>
      <trkpt lat="45.04545" lon="3.39078">
        <ele>1098</ele>
        <time>2022-06-20T21:13:54.775Z</time>
      </trkpt>
      <trkpt lat="45.04592" lon="3.39103">
        <ele>1093</ele>
        <time>2022-06-20T21:13:59.044Z</time>
      </trkpt>
      <trkpt lat="45.04624" lon="3.39113">
        <ele>1091</ele>
        <time>2022-06-20T21:14:01.711Z</time>
      </trkpt>
      <trkpt lat="45.0464" lon="3.39114">
        <ele>1090</ele>
        <time>2022-06-20T21:14:02.999Z</time>
      </trkpt>
      <trkpt lat="45.04694" lon="3.39109">
        <ele>1083</ele>
        <time>2022-06-20T21:14:07.600Z</time>
      </trkpt>
      <trkpt lat="45.04736" lon="3.3911">
        <ele>1079</ele>
        <time>2022-06-20T21:14:11.172Z</time>
      </trkpt>
      <trkpt lat="45.04877" lon="3.39152">
        <ele>1075</ele>
        <time>2022-06-20T21:14:27.088Z</time>
      </trkpt>
      <trkpt lat="45.0491" lon="3.3915">
        <ele>1072</ele>
        <time>2022-06-20T21:14:29.896Z</time>
      </trkpt>
      <trkpt lat="45.04941" lon="3.39143">
        <ele>1069</ele>
        <time>2022-06-20T21:14:32.565Z</time>
      </trkpt>
      <trkpt lat="45.05004" lon="3.39114">
        <ele>1060</ele>
        <time>2022-06-20T21:14:38.198Z</time>
      </trkpt>
      <trkpt lat="45.05034" lon="3.39113">
        <ele>1058</ele>
        <time>2022-06-20T21:14:40.535Z</time>
      </trkpt>
      <trkpt lat="45.05066" lon="3.39122">
        <ele>1057</ele>
        <time>2022-06-20T21:14:44.030Z</time>
      </trkpt>
      <trkpt lat="45.05117" lon="3.39155">
        <ele>1058</ele>
        <time>2022-06-20T21:14:55.120Z</time>
      </trkpt>
      <trkpt lat="45.05248" lon="3.39207">
        <ele>1049</ele>
        <time>2022-06-20T21:15:05.759Z</time>
      </trkpt>
      <trkpt lat="45.05295" lon="3.39222">
        <ele>1045</ele>
        <time>2022-06-20T21:15:09.855Z</time>
      </trkpt>
      <trkpt lat="45.05333" lon="3.39223">
        <ele>1041</ele>
        <time>2022-06-20T21:15:13.086Z</time>
      </trkpt>
      <trkpt lat="45.05424" lon="3.3922">
        <ele>1037</ele>
        <time>2022-06-20T21:15:21.651Z</time>
      </trkpt>
      <trkpt lat="45.05434" lon="3.39225">
        <ele>1036</ele>
        <time>2022-06-20T21:15:22.553Z</time>
      </trkpt>
      <trkpt lat="45.05439" lon="3.39233">
        <ele>1035</ele>
        <time>2022-06-20T21:15:23.194Z</time>
      </trkpt>
      <trkpt lat="45.05441" lon="3.39242">
        <ele>1035</ele>
        <time>2022-06-20T21:15:24.297Z</time>
      </trkpt>
      <trkpt lat="45.05442" lon="3.39263">
        <ele>1034</ele>
        <time>2022-06-20T21:15:25.561Z</time>
      </trkpt>
      <trkpt lat="45.05415" lon="3.39312">
        <ele>1036</ele>
        <time>2022-06-20T21:15:37.903Z</time>
      </trkpt>
      <trkpt lat="45.05407" lon="3.39335">
        <ele>1036</ele>
        <time>2022-06-20T21:15:40.900Z</time>
      </trkpt>
      <trkpt lat="45.05398" lon="3.39367">
        <ele>1036</ele>
        <time>2022-06-20T21:15:44.926Z</time>
      </trkpt>
      <trkpt lat="45.05393" lon="3.394">
        <ele>1036</ele>
        <time>2022-06-20T21:15:48.871Z</time>
      </trkpt>
      <trkpt lat="45.05392" lon="3.39438">
        <ele>1035</ele>
        <time>2022-06-20T21:15:51.564Z</time>
      </trkpt>
      <trkpt lat="45.05398" lon="3.39569">
        <ele>1035</ele>
        <time>2022-06-20T21:16:06.909Z</time>
      </trkpt>
      <trkpt lat="45.05398" lon="3.39617">
        <ele>1034</ele>
        <time>2022-06-20T21:16:10.586Z</time>
      </trkpt>
      <trkpt lat="45.05395" lon="3.39647">
        <ele>1033</ele>
        <time>2022-06-20T21:16:12.550Z</time>
      </trkpt>
      <trkpt lat="45.05389" lon="3.39672">
        <ele>1032</ele>
        <time>2022-06-20T21:16:14.163Z</time>
      </trkpt>
      <trkpt lat="45.05378" lon="3.39698">
        <ele>1031</ele>
        <time>2022-06-20T21:16:16.127Z</time>
      </trkpt>
      <trkpt lat="45.05363" lon="3.39721">
        <ele>1031</ele>
        <time>2022-06-20T21:16:19.786Z</time>
      </trkpt>
      <trkpt lat="45.05328" lon="3.39766">
        <ele>1031</ele>
        <time>2022-06-20T21:16:27.610Z</time>
      </trkpt>
      <trkpt lat="45.05318" lon="3.39781">
        <ele>1032</ele>
        <time>2022-06-20T21:16:32.411Z</time>
      </trkpt>
      <trkpt lat="45.05305" lon="3.39812">
        <ele>1032</ele>
        <time>2022-06-20T21:16:36.625Z</time>
      </trkpt>
      <trkpt lat="45.05302" lon="3.39832">
        <ele>1032</ele>
        <time>2022-06-20T21:16:39.015Z</time>
      </trkpt>
      <trkpt lat="45.05298" lon="3.39932">
        <ele>1032</ele>
        <time>2022-06-20T21:16:50.723Z</time>
      </trkpt>
      <trkpt lat="45.05293" lon="3.39961">
        <ele>1032</ele>
        <time>2022-06-20T21:16:54.212Z</time>
      </trkpt>
      <trkpt lat="45.0529" lon="3.39975">
        <ele>1033</ele>
        <time>2022-06-20T21:16:58.523Z</time>
      </trkpt>
      <trkpt lat="45.05283" lon="3.39988">
        <ele>1034</ele>
        <time>2022-06-20T21:17:02.918Z</time>
      </trkpt>
      <trkpt lat="45.05272" lon="3.39999">
        <ele>1035</ele>
        <time>2022-06-20T21:17:07.550Z</time>
      </trkpt>
      <trkpt lat="45.05264" lon="3.40003">
        <ele>1035</ele>
        <time>2022-06-20T21:17:08.954Z</time>
      </trkpt>
      <trkpt lat="45.05187" lon="3.40023">
        <ele>1039</ele>
        <time>2022-06-20T21:17:31.767Z</time>
      </trkpt>
      <trkpt lat="45.05175" lon="3.40028">
        <ele>1039</ele>
        <time>2022-06-20T21:17:33.837Z</time>
      </trkpt>
      <trkpt lat="45.05167" lon="3.4004">
        <ele>1038</ele>
        <time>2022-06-20T21:17:34.828Z</time>
      </trkpt>
      <trkpt lat="45.05163" lon="3.40051">
        <ele>1037</ele>
        <time>2022-06-20T21:17:35.571Z</time>
      </trkpt>
      <trkpt lat="45.05162" lon="3.40067">
        <ele>1035</ele>
        <time>2022-06-20T21:17:36.536Z</time>
      </trkpt>
      <trkpt lat="45.05169" lon="3.40088">
        <ele>1032</ele>
        <time>2022-06-20T21:17:37.931Z</time>
      </trkpt>
      <trkpt lat="45.05178" lon="3.40097">
        <ele>1031</ele>
        <time>2022-06-20T21:17:38.868Z</time>
      </trkpt>
      <trkpt lat="45.05243" lon="3.40152">
        <ele>1024</ele>
        <time>2022-06-20T21:17:45.306Z</time>
      </trkpt>
      <trkpt lat="45.05259" lon="3.4017">
        <ele>1022</ele>
        <time>2022-06-20T21:17:47.044Z</time>
      </trkpt>
      <trkpt lat="45.0528" lon="3.40203">
        <ele>1018</ele>
        <time>2022-06-20T21:17:49.711Z</time>
      </trkpt>
      <trkpt lat="45.05295" lon="3.40232">
        <ele>1017</ele>
        <time>2022-06-20T21:17:52.205Z</time>
      </trkpt>
      <trkpt lat="45.0531" lon="3.40265">
        <ele>1016</ele>
        <time>2022-06-20T21:17:55.016Z</time>
      </trkpt>
      <trkpt lat="45.05314" lon="3.4028">
        <ele>1016</ele>
        <time>2022-06-20T21:17:56.890Z</time>
      </trkpt>
      <trkpt lat="45.0532" lon="3.40307">
        <ele>1016</ele>
        <time>2022-06-20T21:18:00.198Z</time>
      </trkpt>
      <trkpt lat="45.05322" lon="3.40364">
        <ele>1017</ele>
        <time>2022-06-20T21:18:08.830Z</time>
      </trkpt>
      <trkpt lat="45.05322" lon="3.40381">
        <ele>1017</ele>
        <time>2022-06-20T21:18:10.817Z</time>
      </trkpt>
      <trkpt lat="45.05314" lon="3.40422">
        <ele>1018</ele>
        <time>2022-06-20T21:18:17.969Z</time>
      </trkpt>
      <trkpt lat="45.05305" lon="3.40445">
        <ele>1019</ele>
        <time>2022-06-20T21:18:23.482Z</time>
      </trkpt>
      <trkpt lat="45.05281" lon="3.40486">
        <ele>1026</ele>
        <time>2022-06-20T21:18:47.489Z</time>
      </trkpt>
      <trkpt lat="45.05275" lon="3.40503">
        <ele>1027</ele>
        <time>2022-06-20T21:18:52.115Z</time>
      </trkpt>
      <trkpt lat="45.05275" lon="3.40515">
        <ele>1027</ele>
        <time>2022-06-20T21:18:53.518Z</time>
      </trkpt>
      <trkpt lat="45.05276" lon="3.40533">
        <ele>1026</ele>
        <time>2022-06-20T21:18:54.602Z</time>
      </trkpt>
      <trkpt lat="45.05287" lon="3.40566">
        <ele>1022</ele>
        <time>2022-06-20T21:18:56.794Z</time>
      </trkpt>
      <trkpt lat="45.05353" lon="3.4073">
        <ele>1013</ele>
        <time>2022-06-20T21:19:08.130Z</time>
      </trkpt>
      <trkpt lat="45.05359" lon="3.40749">
        <ele>1013</ele>
        <time>2022-06-20T21:19:10.563Z</time>
      </trkpt>
      <trkpt lat="45.05361" lon="3.40762">
        <ele>1012</ele>
        <time>2022-06-20T21:19:11.362Z</time>
      </trkpt>
      <trkpt lat="45.05362" lon="3.40771">
        <ele>1012</ele>
        <time>2022-06-20T21:19:12.427Z</time>
      </trkpt>
      <trkpt lat="45.05361" lon="3.40791">
        <ele>1013</ele>
        <time>2022-06-20T21:19:17.165Z</time>
      </trkpt>
      <trkpt lat="45.05356" lon="3.40816">
        <ele>1014</ele>
        <time>2022-06-20T21:19:22.636Z</time>
      </trkpt>
      <trkpt lat="45.05348" lon="3.40836">
        <ele>1015</ele>
        <time>2022-06-20T21:19:27.719Z</time>
      </trkpt>
      <trkpt lat="45.05306" lon="3.40899">
        <ele>1015</ele>
        <time>2022-06-20T21:19:37.845Z</time>
      </trkpt>
      <trkpt lat="45.05282" lon="3.40931">
        <ele>1015</ele>
        <time>2022-06-20T21:19:43.300Z</time>
      </trkpt>
      <trkpt lat="45.05258" lon="3.40955">
        <ele>1015</ele>
        <time>2022-06-20T21:19:48.162Z</time>
      </trkpt>
      <trkpt lat="45.05243" lon="3.40963">
        <ele>1015</ele>
        <time>2022-06-20T21:19:50.814Z</time>
      </trkpt>
      <trkpt lat="45.05191" lon="3.40985">
        <ele>1016</ele>
        <time>2022-06-20T21:20:01.618Z</time>
      </trkpt>
      <trkpt lat="45.0518" lon="3.40993">
        <ele>1016</ele>
        <time>2022-06-20T21:20:03.664Z</time>
      </trkpt>
      <trkpt lat="45.05174" lon="3.41001">
        <ele>1015</ele>
        <time>2022-06-20T21:20:04.365Z</time>
      </trkpt>
      <trkpt lat="45.0517" lon="3.41011">
        <ele>1016</ele>
        <time>2022-06-20T21:20:08.877Z</time>
      </trkpt>
      <trkpt lat="45.05166" lon="3.41031">
        <ele>1016</ele>
        <time>2022-06-20T21:20:11.307Z</time>
      </trkpt>
      <trkpt lat="45.05166" lon="3.41042">
        <ele>1017</ele>
        <time>2022-06-20T21:20:15.947Z</time>
      </trkpt>
      <trkpt lat="45.05169" lon="3.41057">
        <ele>1016</ele>
        <time>2022-06-20T21:20:16.884Z</time>
      </trkpt>
      <trkpt lat="45.05203" lon="3.41123">
        <ele>1014</ele>
        <time>2022-06-20T21:20:22.818Z</time>
      </trkpt>
      <trkpt lat="45.05232" lon="3.41189">
        <ele>1013</ele>
        <time>2022-06-20T21:20:29.577Z</time>
      </trkpt>
      <trkpt lat="45.05233" lon="3.41202">
        <ele>1013</ele>
        <time>2022-06-20T21:20:31.106Z</time>
      </trkpt>
      <trkpt lat="45.05211" lon="3.41279">
        <ele>1015</ele>
        <time>2022-06-20T21:20:45.222Z</time>
      </trkpt>
      <trkpt lat="45.05201" lon="3.41302">
        <ele>1014</ele>
        <time>2022-06-20T21:20:46.888Z</time>
      </trkpt>
      <trkpt lat="45.05192" lon="3.41317">
        <ele>1014</ele>
        <time>2022-06-20T21:20:49.188Z</time>
      </trkpt>
      <trkpt lat="45.05133" lon="3.41391">
        <ele>1015</ele>
        <time>2022-06-20T21:21:03.946Z</time>
      </trkpt>
      <trkpt lat="45.0511" lon="3.41441">
        <ele>1015</ele>
        <time>2022-06-20T21:21:10.921Z</time>
      </trkpt>
      <trkpt lat="45.051" lon="3.41479">
        <ele>1015</ele>
        <time>2022-06-20T21:21:15.661Z</time>
      </trkpt>
      <trkpt lat="45.05086" lon="3.41552">
        <ele>1013</ele>
        <time>2022-06-20T21:21:21.008Z</time>
      </trkpt>
      <trkpt lat="45.05075" lon="3.41632">
        <ele>1011</ele>
        <time>2022-06-20T21:21:26.925Z</time>
      </trkpt>
      <trkpt lat="45.05069" lon="3.41665">
        <ele>1010</ele>
        <time>2022-06-20T21:21:29.241Z</time>
      </trkpt>
      <trkpt lat="45.05055" lon="3.41712">
        <ele>1010</ele>
        <time>2022-06-20T21:21:35.204Z</time>
      </trkpt>
      <trkpt lat="45.05025" lon="3.41791">
        <ele>1011</ele>
        <time>2022-06-20T21:21:47.460Z</time>
      </trkpt>
      <trkpt lat="45.04983" lon="3.41885">
        <ele>1012</ele>
        <time>2022-06-20T21:22:02.177Z</time>
      </trkpt>
      <trkpt lat="45.0495" lon="3.4197">
        <ele>1012</ele>
        <time>2022-06-20T21:22:13.514Z</time>
      </trkpt>
      <trkpt lat="45.04893" lon="3.42152">
        <ele>1008</ele>
        <time>2022-06-20T21:22:28.938Z</time>
      </trkpt>
      <trkpt lat="45.0488" lon="3.42179">
        <ele>1007</ele>
        <time>2022-06-20T21:22:31.123Z</time>
      </trkpt>
      <trkpt lat="45.04871" lon="3.42194">
        <ele>1006</ele>
        <time>2022-06-20T21:22:32.305Z</time>
      </trkpt>
      <trkpt lat="45.04845" lon="3.42212">
        <ele>1005</ele>
        <time>2022-06-20T21:22:35.285Z</time>
      </trkpt>
      <trkpt lat="45.04829" lon="3.42217">
        <ele>1005</ele>
        <time>2022-06-20T21:22:37.996Z</time>
      </trkpt>
      <trkpt lat="45.04814" lon="3.42216">
        <ele>1003</ele>
        <time>2022-06-20T21:22:39.272Z</time>
      </trkpt>
      <trkpt lat="45.04799" lon="3.4221">
        <ele>1002</ele>
        <time>2022-06-20T21:22:40.510Z</time>
      </trkpt>
      <trkpt lat="45.04783" lon="3.42199">
        <ele>1001</ele>
        <time>2022-06-20T21:22:42.015Z</time>
      </trkpt>
      <trkpt lat="45.04772" lon="3.42188">
        <ele>1002</ele>
        <time>2022-06-20T21:22:46.647Z</time>
      </trkpt>
      <trkpt lat="45.04761" lon="3.42171">
        <ele>1003</ele>
        <time>2022-06-20T21:22:51.740Z</time>
      </trkpt>
      <trkpt lat="45.04695" lon="3.42014">
        <ele>1001</ele>
        <time>2022-06-20T21:23:08.163Z</time>
      </trkpt>
      <trkpt lat="45.04605" lon="3.41826">
        <ele>996</ele>
        <time>2022-06-20T21:23:25.261Z</time>
      </trkpt>
      <trkpt lat="45.04574" lon="3.41745">
        <ele>997</ele>
        <time>2022-06-20T21:23:37.794Z</time>
      </trkpt>
      <trkpt lat="45.04566" lon="3.41734">
        <ele>999</ele>
        <time>2022-06-20T21:23:44.912Z</time>
      </trkpt>
      <trkpt lat="45.04556" lon="3.41725">
        <ele>999</ele>
        <time>2022-06-20T21:23:46.873Z</time>
      </trkpt>
      <trkpt lat="45.04545" lon="3.41719">
        <ele>999</ele>
        <time>2022-06-20T21:23:48.824Z</time>
      </trkpt>
      <trkpt lat="45.04532" lon="3.41718">
        <ele>998</ele>
        <time>2022-06-20T21:23:49.931Z</time>
      </trkpt>
      <trkpt lat="45.04521" lon="3.41723">
        <ele>997</ele>
        <time>2022-06-20T21:23:50.913Z</time>
      </trkpt>
      <trkpt lat="45.04511" lon="3.41733">
        <ele>996</ele>
        <time>2022-06-20T21:23:51.954Z</time>
      </trkpt>
      <trkpt lat="45.04503" lon="3.41745">
        <ele>994</ele>
        <time>2022-06-20T21:23:52.945Z</time>
      </trkpt>
      <trkpt lat="45.04499" lon="3.41763">
        <ele>994</ele>
        <time>2022-06-20T21:23:55.151Z</time>
      </trkpt>
      <trkpt lat="45.04488" lon="3.41856">
        <ele>996</ele>
        <time>2022-06-20T21:24:10.355Z</time>
      </trkpt>
      <trkpt lat="45.04481" lon="3.4188">
        <ele>996</ele>
        <time>2022-06-20T21:24:13.391Z</time>
      </trkpt>
      <trkpt lat="45.04471" lon="3.41907">
        <ele>997</ele>
        <time>2022-06-20T21:24:19.480Z</time>
      </trkpt>
      <trkpt lat="45.04456" lon="3.41928">
        <ele>998</ele>
        <time>2022-06-20T21:24:25.482Z</time>
      </trkpt>
      <trkpt lat="45.04439" lon="3.41942">
        <ele>1000</ele>
        <time>2022-06-20T21:24:34.086Z</time>
      </trkpt>
      <trkpt lat="45.04408" lon="3.41959">
        <ele>1005</ele>
        <time>2022-06-20T21:24:55.304Z</time>
      </trkpt>
      <trkpt lat="45.04399" lon="3.41972">
        <ele>1005</ele>
        <time>2022-06-20T21:24:57.431Z</time>
      </trkpt>
      <trkpt lat="45.04393" lon="3.41988">
        <ele>1004</ele>
        <time>2022-06-20T21:24:58.519Z</time>
      </trkpt>
      <trkpt lat="45.04391" lon="3.42007">
        <ele>1003</ele>
        <time>2022-06-20T21:24:59.673Z</time>
      </trkpt>
      <trkpt lat="45.04395" lon="3.42029">
        <ele>1003</ele>
        <time>2022-06-20T21:25:02.329Z</time>
      </trkpt>
      <trkpt lat="45.04473" lon="3.42298">
        <ele>1005</ele>
        <time>2022-06-20T21:25:39.651Z</time>
      </trkpt>
      <trkpt lat="45.04483" lon="3.42341">
        <ele>1007</ele>
        <time>2022-06-20T21:25:49.732Z</time>
      </trkpt>
      <trkpt lat="45.045" lon="3.42434">
        <ele>1010</ele>
        <time>2022-06-20T21:26:08.602Z</time>
      </trkpt>
      <trkpt lat="45.04506" lon="3.42501">
        <ele>1010</ele>
        <time>2022-06-20T21:26:16.498Z</time>
      </trkpt>
      <trkpt lat="45.04504" lon="3.42522">
        <ele>1009</ele>
        <time>2022-06-20T21:26:17.771Z</time>
      </trkpt>
      <trkpt lat="45.04499" lon="3.42542">
        <ele>1008</ele>
        <time>2022-06-20T21:26:18.938Z</time>
      </trkpt>
      <trkpt lat="45.04493" lon="3.42556">
        <ele>1008</ele>
        <time>2022-06-20T21:26:20.852Z</time>
      </trkpt>
      <trkpt lat="45.04481" lon="3.42571">
        <ele>1009</ele>
        <time>2022-06-20T21:26:25.896Z</time>
      </trkpt>
      <trkpt lat="45.04466" lon="3.42582">
        <ele>1011</ele>
        <time>2022-06-20T21:26:34.751Z</time>
      </trkpt>
      <trkpt lat="45.04416" lon="3.42607">
        <ele>1015</ele>
        <time>2022-06-20T21:26:53.161Z</time>
      </trkpt>
      <trkpt lat="45.04377" lon="3.42632">
        <ele>1019</ele>
        <time>2022-06-20T21:27:10.474Z</time>
      </trkpt>
      <trkpt lat="45.04358" lon="3.42647">
        <ele>1021</ele>
        <time>2022-06-20T21:27:19.153Z</time>
      </trkpt>
      <trkpt lat="45.04339" lon="3.42674">
        <ele>1022</ele>
        <time>2022-06-20T21:27:25.905Z</time>
      </trkpt>
      <trkpt lat="45.04323" lon="3.42705">
        <ele>1022</ele>
        <time>2022-06-20T21:27:30.393Z</time>
      </trkpt>
      <trkpt lat="45.04314" lon="3.42732">
        <ele>1022</ele>
        <time>2022-06-20T21:27:33.883Z</time>
      </trkpt>
      <trkpt lat="45.04312" lon="3.4275">
        <ele>1020</ele>
        <time>2022-06-20T21:27:34.978Z</time>
      </trkpt>
      <trkpt lat="45.04312" lon="3.4277">
        <ele>1021</ele>
        <time>2022-06-20T21:27:39.710Z</time>
      </trkpt>
      <trkpt lat="45.04318" lon="3.42792">
        <ele>1021</ele>
        <time>2022-06-20T21:27:42.467Z</time>
      </trkpt>
      <trkpt lat="45.04331" lon="3.42815">
        <ele>1019</ele>
        <time>2022-06-20T21:27:44.237Z</time>
      </trkpt>
      <trkpt lat="45.04354" lon="3.42834">
        <ele>1019</ele>
        <time>2022-06-20T21:27:48.643Z</time>
      </trkpt>
      <trkpt lat="45.04372" lon="3.42837">
        <ele>1018</ele>
        <time>2022-06-20T21:27:50.189Z</time>
      </trkpt>
      <trkpt lat="45.04406" lon="3.42837">
        <ele>1017</ele>
        <time>2022-06-20T21:27:53.880Z</time>
      </trkpt>
      <trkpt lat="45.04425" lon="3.4284">
        <ele>1016</ele>
        <time>2022-06-20T21:27:55.550Z</time>
      </trkpt>
      <trkpt lat="45.04439" lon="3.42849">
        <ele>1016</ele>
        <time>2022-06-20T21:27:58.095Z</time>
      </trkpt>
      <trkpt lat="45.0445" lon="3.4286">
        <ele>1017</ele>
        <time>2022-06-20T21:28:02.727Z</time>
      </trkpt>
      <trkpt lat="45.04488" lon="3.42929">
        <ele>1021</ele>
        <time>2022-06-20T21:28:22.519Z</time>
      </trkpt>
      <trkpt lat="45.04508" lon="3.42974">
        <ele>1021</ele>
        <time>2022-06-20T21:28:28.734Z</time>
      </trkpt>
      <trkpt lat="45.04512" lon="3.4299">
        <ele>1021</ele>
        <time>2022-06-20T21:28:30.718Z</time>
      </trkpt>
      <trkpt lat="45.04513" lon="3.43011">
        <ele>1021</ele>
        <time>2022-06-20T21:28:33.178Z</time>
      </trkpt>
      <trkpt lat="45.04509" lon="3.43029">
        <ele>1020</ele>
        <time>2022-06-20T21:28:34.312Z</time>
      </trkpt>
      <trkpt lat="45.04504" lon="3.4304">
        <ele>1019</ele>
        <time>2022-06-20T21:28:35.098Z</time>
      </trkpt>
      <trkpt lat="45.04462" lon="3.43098">
        <ele>1019</ele>
        <time>2022-06-20T21:28:44.807Z</time>
      </trkpt>
      <trkpt lat="45.04452" lon="3.43117">
        <ele>1019</ele>
        <time>2022-06-20T21:28:47.577Z</time>
      </trkpt>
      <trkpt lat="45.04444" lon="3.43143">
        <ele>1018</ele>
        <time>2022-06-20T21:28:49.364Z</time>
      </trkpt>
      <trkpt lat="45.0444" lon="3.43185">
        <ele>1018</ele>
        <time>2022-06-20T21:28:54.319Z</time>
      </trkpt>
      <trkpt lat="45.04435" lon="3.433">
        <ele>1022</ele>
        <time>2022-06-20T21:29:17.739Z</time>
      </trkpt>
      <trkpt lat="45.04436" lon="3.43317">
        <ele>1022</ele>
        <time>2022-06-20T21:29:19.733Z</time>
      </trkpt>
      <trkpt lat="45.04427" lon="3.4332">
        <ele>1023</ele>
        <time>2022-06-20T21:29:24.055Z</time>
      </trkpt>
      <trkpt lat="45.04417" lon="3.4333">
        <ele>1025</ele>
        <time>2022-06-20T21:29:31.870Z</time>
      </trkpt>
      <trkpt lat="45.04402" lon="3.43363">
        <ele>1027</ele>
        <time>2022-06-20T21:29:41.252Z</time>
      </trkpt>
      <trkpt lat="45.04397" lon="3.43379">
        <ele>1028</ele>
        <time>2022-06-20T21:29:45.736Z</time>
      </trkpt>
      <trkpt lat="45.04403" lon="3.4356">
        <ele>1034</ele>
        <time>2022-06-20T21:30:22.031Z</time>
      </trkpt>
      <trkpt lat="45.04386" lon="3.4364">
        <ele>1039</ele>
        <time>2022-06-20T21:30:44.135Z</time>
      </trkpt>
      <trkpt lat="45.04327" lon="3.43808">
        <ele>1045</ele>
        <time>2022-06-20T21:31:21.332Z</time>
      </trkpt>
      <trkpt lat="45.043" lon="3.43847">
        <ele>1045</ele>
        <time>2022-06-20T21:31:27.715Z</time>
      </trkpt>
      <trkpt lat="45.04249" lon="3.43906">
        <ele>1044</ele>
        <time>2022-06-20T21:31:36.129Z</time>
      </trkpt>
      <trkpt lat="45.04087" lon="3.43954">
        <ele>1053</ele>
        <time>2022-06-20T21:32:25.429Z</time>
      </trkpt>
      <trkpt lat="45.03995" lon="3.43975">
        <ele>1059</ele>
        <time>2022-06-20T21:32:55.196Z</time>
      </trkpt>
      <trkpt lat="45.0392" lon="3.43984">
        <ele>1066</ele>
        <time>2022-06-20T21:33:25.514Z</time>
      </trkpt>
      <trkpt lat="45.03887" lon="3.43985">
        <ele>1068</ele>
        <time>2022-06-20T21:33:35.776Z</time>
      </trkpt>
      <trkpt lat="45.0386" lon="3.43962">
        <ele>1070</ele>
        <time>2022-06-20T21:33:45.776Z</time>
      </trkpt>
      <trkpt lat="45.03828" lon="3.43923">
        <ele>1071</ele>
        <time>2022-06-20T21:33:54.699Z</time>
      </trkpt>
      <trkpt lat="45.0379" lon="3.43887">
        <ele>1073</ele>
        <time>2022-06-20T21:34:07.322Z</time>
      </trkpt>
      <trkpt lat="45.03753" lon="3.43856">
        <ele>1073</ele>
        <time>2022-06-20T21:34:14.437Z</time>
      </trkpt>
      <trkpt lat="45.0372" lon="3.43825">
        <ele>1072</ele>
        <time>2022-06-20T21:34:18.934Z</time>
      </trkpt>
      <trkpt lat="45.03694" lon="3.43786">
        <ele>1070</ele>
        <time>2022-06-20T21:34:22.232Z</time>
      </trkpt>
      <trkpt lat="45.0368" lon="3.4376">
        <ele>1069</ele>
        <time>2022-06-20T21:34:24.418Z</time>
      </trkpt>
      <trkpt lat="45.03675" lon="3.43645">
        <ele>1064</ele>
        <time>2022-06-20T21:34:31.023Z</time>
      </trkpt>
      <trkpt lat="45.0367" lon="3.43582">
        <ele>1060</ele>
        <time>2022-06-20T21:34:34.832Z</time>
      </trkpt>
      <trkpt lat="45.03593" lon="3.43614">
        <ele>1049</ele>
        <time>2022-06-20T21:34:41.655Z</time>
      </trkpt>
      <trkpt lat="45.03562" lon="3.43636">
        <ele>1045</ele>
        <time>2022-06-20T21:34:44.603Z</time>
      </trkpt>
      <trkpt lat="45.0354" lon="3.43655">
        <ele>1041</ele>
        <time>2022-06-20T21:34:46.794Z</time>
      </trkpt>
      <trkpt lat="45.03525" lon="3.43683">
        <ele>1040</ele>
        <time>2022-06-20T21:34:49.212Z</time>
      </trkpt>
      <trkpt lat="45.03515" lon="3.43692">
        <ele>1038</ele>
        <time>2022-06-20T21:34:50.220Z</time>
      </trkpt>
      <trkpt lat="45.03508" lon="3.43688">
        <ele>1036</ele>
        <time>2022-06-20T21:34:50.861Z</time>
      </trkpt>
      <trkpt lat="45.03488" lon="3.43633">
        <ele>1029</ele>
        <time>2022-06-20T21:34:54.578Z</time>
      </trkpt>
      <trkpt lat="45.03484" lon="3.43604">
        <ele>1027</ele>
        <time>2022-06-20T21:34:56.353Z</time>
      </trkpt>
      <trkpt lat="45.0349" lon="3.43533">
        <ele>1025</ele>
        <time>2022-06-20T21:35:01.306Z</time>
      </trkpt>
      <trkpt lat="45.03486" lon="3.4352">
        <ele>1024</ele>
        <time>2022-06-20T21:35:02.158Z</time>
      </trkpt>
      <trkpt lat="45.0348" lon="3.43517">
        <ele>1023</ele>
        <time>2022-06-20T21:35:02.699Z</time>
      </trkpt>
      <trkpt lat="45.03455" lon="3.43532">
        <ele>1019</ele>
        <time>2022-06-20T21:35:05.007Z</time>
      </trkpt>
      <trkpt lat="45.03442" lon="3.43552">
        <ele>1017</ele>
        <time>2022-06-20T21:35:06.640Z</time>
      </trkpt>
      <trkpt lat="45.0343" lon="3.43584">
        <ele>1016</ele>
        <time>2022-06-20T21:35:09.161Z</time>
      </trkpt>
      <trkpt lat="45.03408" lon="3.43624">
        <ele>1011</ele>
        <time>2022-06-20T21:35:12.207Z</time>
      </trkpt>
      <trkpt lat="45.03372" lon="3.43712">
        <ele>998</ele>
        <time>2022-06-20T21:35:18.316Z</time>
      </trkpt>
      <trkpt lat="45.03365" lon="3.43746">
        <ele>994</ele>
        <time>2022-06-20T21:35:20.444Z</time>
      </trkpt>
      <trkpt lat="45.03363" lon="3.43785">
        <ele>994</ele>
        <time>2022-06-20T21:35:25.016Z</time>
      </trkpt>
      <trkpt lat="45.03364" lon="3.43857">
        <ele>996</ele>
        <time>2022-06-20T21:35:38.173Z</time>
      </trkpt>
      <trkpt lat="45.03355" lon="3.43875">
        <ele>994</ele>
        <time>2022-06-20T21:35:39.498Z</time>
      </trkpt>
      <trkpt lat="45.03335" lon="3.43891">
        <ele>990</ele>
        <time>2022-06-20T21:35:41.451Z</time>
      </trkpt>
      <trkpt lat="45.03281" lon="3.43912">
        <ele>979</ele>
        <time>2022-06-20T21:35:46.212Z</time>
      </trkpt>
      <trkpt lat="45.03261" lon="3.43923">
        <ele>975</ele>
        <time>2022-06-20T21:35:48.037Z</time>
      </trkpt>
      <trkpt lat="45.03245" lon="3.43939">
        <ele>973</ele>
        <time>2022-06-20T21:35:49.702Z</time>
      </trkpt>
      <trkpt lat="45.03225" lon="3.43986">
        <ele>975</ele>
        <time>2022-06-20T21:36:01.037Z</time>
      </trkpt>
      <trkpt lat="45.03216" lon="3.44017">
        <ele>978</ele>
        <time>2022-06-20T21:36:14.806Z</time>
      </trkpt>
      <trkpt lat="45.03204" lon="3.44027">
        <ele>977</ele>
        <time>2022-06-20T21:36:15.990Z</time>
      </trkpt>
      <trkpt lat="45.03186" lon="3.44028">
        <ele>973</ele>
        <time>2022-06-20T21:36:17.522Z</time>
      </trkpt>
      <trkpt lat="45.0317" lon="3.44024">
        <ele>969</ele>
        <time>2022-06-20T21:36:18.903Z</time>
      </trkpt>
      <trkpt lat="45.03142" lon="3.44037">
        <ele>965</ele>
        <time>2022-06-20T21:36:21.408Z</time>
      </trkpt>
      <trkpt lat="45.03126" lon="3.44051">
        <ele>963</ele>
        <time>2022-06-20T21:36:23.008Z</time>
      </trkpt>
      <trkpt lat="45.03098" lon="3.44084">
        <ele>962</ele>
        <time>2022-06-20T21:36:27.047Z</time>
      </trkpt>
      <trkpt lat="45.03063" lon="3.44139">
        <ele>960</ele>
        <time>2022-06-20T21:36:32.240Z</time>
      </trkpt>
      <trkpt lat="45.03029" lon="3.44202">
        <ele>953</ele>
        <time>2022-06-20T21:36:37.003Z</time>
      </trkpt>
      <trkpt lat="45.03016" lon="3.44232">
        <ele>950</ele>
        <time>2022-06-20T21:36:39.117Z</time>
      </trkpt>
      <trkpt lat="45.03012" lon="3.44261">
        <ele>949</ele>
        <time>2022-06-20T21:36:41.014Z</time>
      </trkpt>
      <trkpt lat="45.03012" lon="3.44297">
        <ele>946</ele>
        <time>2022-06-20T21:36:43.177Z</time>
      </trkpt>
      <trkpt lat="45.03018" lon="3.44329">
        <ele>946</ele>
        <time>2022-06-20T21:36:47.048Z</time>
      </trkpt>
      <trkpt lat="45.03034" lon="3.44372">
        <ele>946</ele>
        <time>2022-06-20T21:36:52.731Z</time>
      </trkpt>
      <trkpt lat="45.03041" lon="3.44404">
        <ele>945</ele>
        <time>2022-06-20T21:36:54.994Z</time>
      </trkpt>
      <trkpt lat="45.03044" lon="3.44445">
        <ele>948</ele>
        <time>2022-06-20T21:37:07.904Z</time>
      </trkpt>
      <trkpt lat="45.0304" lon="3.44457">
        <ele>949</ele>
        <time>2022-06-20T21:37:12.218Z</time>
      </trkpt>
      <trkpt lat="45.03021" lon="3.44468">
        <ele>944</ele>
        <time>2022-06-20T21:37:13.963Z</time>
      </trkpt>
      <trkpt lat="45.02982" lon="3.44485">
        <ele>935</ele>
        <time>2022-06-20T21:37:17.433Z</time>
      </trkpt>
      <trkpt lat="45.02961" lon="3.44502">
        <ele>934</ele>
        <time>2022-06-20T21:37:19.765Z</time>
      </trkpt>
      <trkpt lat="45.02947" lon="3.44517">
        <ele>936</ele>
        <time>2022-06-20T21:37:28.504Z</time>
      </trkpt>
      <trkpt lat="45.02933" lon="3.44525">
        <ele>936</ele>
        <time>2022-06-20T21:37:31.002Z</time>
      </trkpt>
      <trkpt lat="45.02917" lon="3.44524">
        <ele>933</ele>
        <time>2022-06-20T21:37:32.364Z</time>
      </trkpt>
      <trkpt lat="45.02897" lon="3.44517">
        <ele>926</ele>
        <time>2022-06-20T21:37:34.115Z</time>
      </trkpt>
      <trkpt lat="45.02859" lon="3.44517">
        <ele>919</ele>
        <time>2022-06-20T21:37:37.346Z</time>
      </trkpt>
      <trkpt lat="45.0284" lon="3.44522">
        <ele>917</ele>
        <time>2022-06-20T21:37:38.989Z</time>
      </trkpt>
      <trkpt lat="45.02822" lon="3.44532">
        <ele>915</ele>
        <time>2022-06-20T21:37:40.633Z</time>
      </trkpt>
      <trkpt lat="45.02799" lon="3.44551">
        <ele>913</ele>
        <time>2022-06-20T21:37:42.898Z</time>
      </trkpt>
      <trkpt lat="45.02767" lon="3.44581">
        <ele>907</ele>
        <time>2022-06-20T21:37:46.161Z</time>
      </trkpt>
      <trkpt lat="45.02748" lon="3.44617">
        <ele>908</ele>
        <time>2022-06-20T21:37:53.546Z</time>
      </trkpt>
      <trkpt lat="45.02729" lon="3.44665">
        <ele>913</ele>
        <time>2022-06-20T21:38:16.738Z</time>
      </trkpt>
      <trkpt lat="45.0272" lon="3.44682">
        <ele>915</ele>
        <time>2022-06-20T21:38:26.290Z</time>
      </trkpt>
      <trkpt lat="45.02711" lon="3.44694">
        <ele>916</ele>
        <time>2022-06-20T21:38:30.774Z</time>
      </trkpt>
      <trkpt lat="45.02699" lon="3.44693">
        <ele>912</ele>
        <time>2022-06-20T21:38:31.796Z</time>
      </trkpt>
      <trkpt lat="45.02668" lon="3.4468">
        <ele>897</ele>
        <time>2022-06-20T21:38:34.545Z</time>
      </trkpt>
      <trkpt lat="45.02636" lon="3.44679">
        <ele>886</ele>
        <time>2022-06-20T21:38:37.267Z</time>
      </trkpt>
      <trkpt lat="45.02619" lon="3.44686">
        <ele>882</ele>
        <time>2022-06-20T21:38:38.772Z</time>
      </trkpt>
      <trkpt lat="45.02606" lon="3.44697">
        <ele>882</ele>
        <time>2022-06-20T21:38:41.278Z</time>
      </trkpt>
      <trkpt lat="45.02568" lon="3.44747">
        <ele>885</ele>
        <time>2022-06-20T21:38:57.102Z</time>
      </trkpt>
      <trkpt lat="45.0255" lon="3.44765">
        <ele>883</ele>
        <time>2022-06-20T21:38:58.976Z</time>
      </trkpt>
      <trkpt lat="45.0254" lon="3.44784">
        <ele>886</ele>
        <time>2022-06-20T21:39:09.662Z</time>
      </trkpt>
      <trkpt lat="45.0253" lon="3.44793">
        <ele>885</ele>
        <time>2022-06-20T21:39:10.669Z</time>
      </trkpt>
      <trkpt lat="45.02496" lon="3.44792">
        <ele>872</ele>
        <time>2022-06-20T21:39:13.561Z</time>
      </trkpt>
      <trkpt lat="45.02478" lon="3.44798">
        <ele>868</ele>
        <time>2022-06-20T21:39:15.133Z</time>
      </trkpt>
      <trkpt lat="45.02454" lon="3.44808">
        <ele>863</ele>
        <time>2022-06-20T21:39:17.260Z</time>
      </trkpt>
      <trkpt lat="45.02424" lon="3.44825">
        <ele>859</ele>
        <time>2022-06-20T21:39:20.008Z</time>
      </trkpt>
      <trkpt lat="45.02402" lon="3.44843">
        <ele>855</ele>
        <time>2022-06-20T21:39:22.168Z</time>
      </trkpt>
      <trkpt lat="45.0238" lon="3.44872">
        <ele>852</ele>
        <time>2022-06-20T21:39:24.725Z</time>
      </trkpt>
      <trkpt lat="45.02343" lon="3.44934">
        <ele>845</ele>
        <time>2022-06-20T21:39:29.601Z</time>
      </trkpt>
      <trkpt lat="45.02333" lon="3.44957">
        <ele>842</ele>
        <time>2022-06-20T21:39:31.224Z</time>
      </trkpt>
      <trkpt lat="45.02328" lon="3.44976">
        <ele>841</ele>
        <time>2022-06-20T21:39:32.442Z</time>
      </trkpt>
      <trkpt lat="45.02327" lon="3.45004">
        <ele>842</ele>
        <time>2022-06-20T21:39:38.193Z</time>
      </trkpt>
      <trkpt lat="45.02347" lon="3.45065">
        <ele>850</ele>
        <time>2022-06-20T21:40:08.526Z</time>
      </trkpt>
      <trkpt lat="45.02348" lon="3.45074">
        <ele>850</ele>
        <time>2022-06-20T21:40:09.591Z</time>
      </trkpt>
      <trkpt lat="45.02339" lon="3.45091">
        <ele>847</ele>
        <time>2022-06-20T21:40:10.868Z</time>
      </trkpt>
      <trkpt lat="45.02315" lon="3.45102">
        <ele>839</ele>
        <time>2022-06-20T21:40:13.013Z</time>
      </trkpt>
      <trkpt lat="45.02265" lon="3.45117">
        <ele>823</ele>
        <time>2022-06-20T21:40:17.358Z</time>
      </trkpt>
      <trkpt lat="45.02254" lon="3.45124">
        <ele>820</ele>
        <time>2022-06-20T21:40:18.384Z</time>
      </trkpt>
      <trkpt lat="45.02249" lon="3.45138">
        <ele>821</ele>
        <time>2022-06-20T21:40:22.738Z</time>
      </trkpt>
      <trkpt lat="45.02248" lon="3.45195">
        <ele>829</ele>
        <time>2022-06-20T21:40:48.459Z</time>
      </trkpt>
      <trkpt lat="45.02244" lon="3.45209">
        <ele>830</ele>
        <time>2022-06-20T21:40:52.786Z</time>
      </trkpt>
      <trkpt lat="45.02231" lon="3.45227">
        <ele>829</ele>
        <time>2022-06-20T21:40:54.340Z</time>
      </trkpt>
      <trkpt lat="45.02215" lon="3.4523">
        <ele>827</ele>
        <time>2022-06-20T21:40:55.712Z</time>
      </trkpt>
      <trkpt lat="45.02205" lon="3.4522">
        <ele>823</ele>
        <time>2022-06-20T21:40:56.753Z</time>
      </trkpt>
      <trkpt lat="45.02196" lon="3.45205">
        <ele>818</ele>
        <time>2022-06-20T21:40:57.936Z</time>
      </trkpt>
      <trkpt lat="45.02177" lon="3.45189">
        <ele>810</ele>
        <time>2022-06-20T21:40:59.816Z</time>
      </trkpt>
      <trkpt lat="45.02161" lon="3.45182">
        <ele>805</ele>
        <time>2022-06-20T21:41:01.240Z</time>
      </trkpt>
      <trkpt lat="45.02143" lon="3.45176">
        <ele>800</ele>
        <time>2022-06-20T21:41:02.812Z</time>
      </trkpt>
      <trkpt lat="45.0212" lon="3.45179">
        <ele>796</ele>
        <time>2022-06-20T21:41:04.776Z</time>
      </trkpt>
      <trkpt lat="45.02103" lon="3.45187">
        <ele>794</ele>
        <time>2022-06-20T21:41:06.299Z</time>
      </trkpt>
      <trkpt lat="45.02074" lon="3.45198">
        <ele>789</ele>
        <time>2022-06-20T21:41:08.852Z</time>
      </trkpt>
      <trkpt lat="45.02059" lon="3.45211">
        <ele>786</ele>
        <time>2022-06-20T21:41:10.347Z</time>
      </trkpt>
      <trkpt lat="45.02043" lon="3.45249">
        <ele>789</ele>
        <time>2022-06-20T21:41:23.290Z</time>
      </trkpt>
      <trkpt lat="45.0201" lon="3.45272">
        <ele>785</ele>
        <time>2022-06-20T21:41:26.417Z</time>
      </trkpt>
      <trkpt lat="45.01959" lon="3.45281">
        <ele>770</ele>
        <time>2022-06-20T21:41:30.787Z</time>
      </trkpt>
      <trkpt lat="45.01909" lon="3.45317">
        <ele>766</ele>
        <time>2022-06-20T21:41:35.557Z</time>
      </trkpt>
      <trkpt lat="45.01867" lon="3.45304">
        <ele>754</ele>
        <time>2022-06-20T21:41:39.212Z</time>
      </trkpt>
      <trkpt lat="45.0184" lon="3.45306">
        <ele>749</ele>
        <time>2022-06-20T21:41:41.511Z</time>
      </trkpt>
      <trkpt lat="45.01817" lon="3.4532">
        <ele>748</ele>
        <time>2022-06-20T21:41:43.957Z</time>
      </trkpt>
      <trkpt lat="45.01799" lon="3.45339">
        <ele>748</ele>
        <time>2022-06-20T21:41:47.673Z</time>
      </trkpt>
      <trkpt lat="45.01787" lon="3.45354">
        <ele>748</ele>
        <time>2022-06-20T21:41:50.322Z</time>
      </trkpt>
      <trkpt lat="45.01781" lon="3.45359">
        <ele>747</ele>
        <time>2022-06-20T21:41:50.914Z</time>
      </trkpt>
      <trkpt lat="45.01776" lon="3.45359">
        <ele>746</ele>
        <time>2022-06-20T21:41:51.339Z</time>
      </trkpt>
      <trkpt lat="45.01771" lon="3.45356">
        <ele>744</ele>
        <time>2022-06-20T21:41:51.801Z</time>
      </trkpt>
      <trkpt lat="45.01766" lon="3.45349">
        <ele>741</ele>
        <time>2022-06-20T21:41:52.399Z</time>
      </trkpt>
      <trkpt lat="45.01764" lon="3.4534">
        <ele>739</ele>
        <time>2022-06-20T21:41:52.966Z</time>
      </trkpt>
      <trkpt lat="45.01765" lon="3.45332">
        <ele>738</ele>
        <time>2022-06-20T21:41:53.455Z</time>
      </trkpt>
      <trkpt lat="45.01769" lon="3.45323">
        <ele>738</ele>
        <time>2022-06-20T21:41:54.698Z</time>
      </trkpt>
      <trkpt lat="45.01781" lon="3.45307">
        <ele>737</ele>
        <time>2022-06-20T21:41:56.044Z</time>
      </trkpt>
      <trkpt lat="45.01801" lon="3.45291">
        <ele>738</ele>
        <time>2022-06-20T21:42:02.366Z</time>
      </trkpt>
      <trkpt lat="45.01814" lon="3.45269">
        <ele>735</ele>
        <time>2022-06-20T21:42:04.089Z</time>
      </trkpt>
      <trkpt lat="45.01818" lon="3.45253">
        <ele>732</ele>
        <time>2022-06-20T21:42:05.109Z</time>
      </trkpt>
      <trkpt lat="45.01809" lon="3.45224">
        <ele>729</ele>
        <time>2022-06-20T21:42:07.013Z</time>
      </trkpt>
      <trkpt lat="45.01791" lon="3.4522">
        <ele>727</ele>
        <time>2022-06-20T21:42:08.562Z</time>
      </trkpt>
      <trkpt lat="45.01768" lon="3.45223">
        <ele>725</ele>
        <time>2022-06-20T21:42:10.526Z</time>
      </trkpt>
      <trkpt lat="45.01715" lon="3.45234">
        <ele>719</ele>
        <time>2022-06-20T21:42:15.080Z</time>
      </trkpt>
      <trkpt lat="45.01683" lon="3.45244">
        <ele>714</ele>
        <time>2022-06-20T21:42:17.866Z</time>
      </trkpt>
      <trkpt lat="45.01682" lon="3.45266">
        <ele>715</ele>
        <time>2022-06-20T21:42:22.836Z</time>
      </trkpt>
      <trkpt lat="45.01669" lon="3.4534">
        <ele>718</ele>
        <time>2022-06-20T21:42:39.031Z</time>
      </trkpt>
      <trkpt lat="45.01662" lon="3.45372">
        <ele>719</ele>
        <time>2022-06-20T21:42:45.421Z</time>
      </trkpt>
      <trkpt lat="45.01657" lon="3.45385">
        <ele>719</ele>
        <time>2022-06-20T21:42:47.152Z</time>
      </trkpt>
      <trkpt lat="45.01631" lon="3.45432">
        <ele>718</ele>
        <time>2022-06-20T21:42:52.025Z</time>
      </trkpt>
      <trkpt lat="45.01609" lon="3.45479">
        <ele>716</ele>
        <time>2022-06-20T21:42:55.571Z</time>
      </trkpt>
      <trkpt lat="45.0157" lon="3.45546">
        <ele>718</ele>
        <time>2022-06-20T21:43:10.044Z</time>
      </trkpt>
      <trkpt lat="45.01558" lon="3.45578">
        <ele>721</ele>
        <time>2022-06-20T21:43:23.274Z</time>
      </trkpt>
      <trkpt lat="45.01554" lon="3.45618">
        <ele>721</ele>
        <time>2022-06-20T21:43:28.000Z</time>
      </trkpt>
      <trkpt lat="45.01554" lon="3.45639">
        <ele>721</ele>
        <time>2022-06-20T21:43:30.456Z</time>
      </trkpt>
      <trkpt lat="45.01561" lon="3.4568">
        <ele>721</ele>
        <time>2022-06-20T21:43:35.389Z</time>
      </trkpt>
      <trkpt lat="45.01571" lon="3.45712">
        <ele>718</ele>
        <time>2022-06-20T21:43:37.492Z</time>
      </trkpt>
      <trkpt lat="45.01598" lon="3.4577">
        <ele>715</ele>
        <time>2022-06-20T21:43:41.484Z</time>
      </trkpt>
      <trkpt lat="45.01605" lon="3.45793">
        <ele>715</ele>
        <time>2022-06-20T21:43:44.413Z</time>
      </trkpt>
      <trkpt lat="45.01642" lon="3.45936">
        <ele>717</ele>
        <time>2022-06-20T21:44:05.877Z</time>
      </trkpt>
      <trkpt lat="45.01645" lon="3.45956">
        <ele>719</ele>
        <time>2022-06-20T21:44:15.101Z</time>
      </trkpt>
      <trkpt lat="45.01646" lon="3.45997">
        <ele>721</ele>
        <time>2022-06-20T21:44:24.682Z</time>
      </trkpt>
      <trkpt lat="45.01639" lon="3.46067">
        <ele>721</ele>
        <time>2022-06-20T21:44:32.951Z</time>
      </trkpt>
      <trkpt lat="45.01636" lon="3.46082">
        <ele>721</ele>
        <time>2022-06-20T21:44:34.774Z</time>
      </trkpt>
      <trkpt lat="45.01627" lon="3.46101">
        <ele>719</ele>
        <time>2022-06-20T21:44:36.149Z</time>
      </trkpt>
      <trkpt lat="45.01616" lon="3.46117">
        <ele>717</ele>
        <time>2022-06-20T21:44:37.490Z</time>
      </trkpt>
      <trkpt lat="45.01607" lon="3.46141">
        <ele>714</ele>
        <time>2022-06-20T21:44:39.123Z</time>
      </trkpt>
      <trkpt lat="45.01604" lon="3.46159">
        <ele>713</ele>
        <time>2022-06-20T21:44:40.234Z</time>
      </trkpt>
      <trkpt lat="45.016" lon="3.46226">
        <ele>717</ele>
        <time>2022-06-20T21:44:57.951Z</time>
      </trkpt>
      <trkpt lat="45.01595" lon="3.46262">
        <ele>718</ele>
        <time>2022-06-20T21:45:04.585Z</time>
      </trkpt>
      <trkpt lat="45.01586" lon="3.46302">
        <ele>718</ele>
        <time>2022-06-20T21:45:09.495Z</time>
      </trkpt>
      <trkpt lat="45.01527" lon="3.46451">
        <ele>720</ele>
        <time>2022-06-20T21:45:33.045Z</time>
      </trkpt>
      <trkpt lat="45.0142" lon="3.46712">
        <ele>715</ele>
        <time>2022-06-20T21:45:57.752Z</time>
      </trkpt>
      <trkpt lat="45.01374" lon="3.46813">
        <ele>719</ele>
        <time>2022-06-20T21:46:21.866Z</time>
      </trkpt>
      <trkpt lat="45.01364" lon="3.46828">
        <ele>718</ele>
        <time>2022-06-20T21:46:23.105Z</time>
      </trkpt>
      <trkpt lat="45.01356" lon="3.46837">
        <ele>716</ele>
        <time>2022-06-20T21:46:23.974Z</time>
      </trkpt>
      <trkpt lat="45.01313" lon="3.46869">
        <ele>712</ele>
        <time>2022-06-20T21:46:28.105Z</time>
      </trkpt>
      <trkpt lat="45.01295" lon="3.46891">
        <ele>713</ele>
        <time>2022-06-20T21:46:34.506Z</time>
      </trkpt>
      <trkpt lat="45.0128" lon="3.46922">
        <ele>717</ele>
        <time>2022-06-20T21:46:51.455Z</time>
      </trkpt>
      <trkpt lat="45.01271" lon="3.46929">
        <ele>718</ele>
        <time>2022-06-20T21:46:55.763Z</time>
      </trkpt>
      <trkpt lat="45.01253" lon="3.46935">
        <ele>716</ele>
        <time>2022-06-20T21:46:57.336Z</time>
      </trkpt>
      <trkpt lat="45.01108" lon="3.46942">
        <ele>714</ele>
        <time>2022-06-20T21:47:16.195Z</time>
      </trkpt>
      <trkpt lat="45.0108" lon="3.46937">
        <ele>711</ele>
        <time>2022-06-20T21:47:18.595Z</time>
      </trkpt>
      <trkpt lat="45.01071" lon="3.46931">
        <ele>709</ele>
        <time>2022-06-20T21:47:19.441Z</time>
      </trkpt>
      <trkpt lat="45.01059" lon="3.46919">
        <ele>706</ele>
        <time>2022-06-20T21:47:20.690Z</time>
      </trkpt>
      <trkpt lat="45.0105" lon="3.46904">
        <ele>704</ele>
        <time>2022-06-20T21:47:21.873Z</time>
      </trkpt>
      <trkpt lat="45.01042" lon="3.46898">
        <ele>703</ele>
        <time>2022-06-20T21:47:22.643Z</time>
      </trkpt>
      <trkpt lat="45.01028" lon="3.46897">
        <ele>702</ele>
        <time>2022-06-20T21:47:23.834Z</time>
      </trkpt>
      <trkpt lat="45.01018" lon="3.46901">
        <ele>702</ele>
        <time>2022-06-20T21:47:25.554Z</time>
      </trkpt>
      <trkpt lat="45.01002" lon="3.4691">
        <ele>703</ele>
        <time>2022-06-20T21:47:30.814Z</time>
      </trkpt>
      <trkpt lat="45.00975" lon="3.46933">
        <ele>702</ele>
        <time>2022-06-20T21:47:34.153Z</time>
      </trkpt>
      <trkpt lat="45.00969" lon="3.4694">
        <ele>702</ele>
        <time>2022-06-20T21:47:35.440Z</time>
      </trkpt>
      <trkpt lat="45.00965" lon="3.46951">
        <ele>702</ele>
        <time>2022-06-20T21:47:36.887Z</time>
      </trkpt>
      <trkpt lat="45.00963" lon="3.46966">
        <ele>702</ele>
        <time>2022-06-20T21:47:38.673Z</time>
      </trkpt>
      <trkpt lat="45.00966" lon="3.46989">
        <ele>703</ele>
        <time>2022-06-20T21:47:43.809Z</time>
      </trkpt>
      <trkpt lat="45.0097" lon="3.47003">
        <ele>704</ele>
        <time>2022-06-20T21:47:48.136Z</time>
      </trkpt>
      <trkpt lat="45.00984" lon="3.47029">
        <ele>704</ele>
        <time>2022-06-20T21:47:51.959Z</time>
      </trkpt>
      <trkpt lat="45.01014" lon="3.47067">
        <ele>706</ele>
        <time>2022-06-20T21:48:03.584Z</time>
      </trkpt>
      <trkpt lat="45.01042" lon="3.47113">
        <ele>709</ele>
        <time>2022-06-20T21:48:17.863Z</time>
      </trkpt>
      <trkpt lat="45.01094" lon="3.47217">
        <ele>705</ele>
        <time>2022-06-20T21:48:26.300Z</time>
      </trkpt>
      <trkpt lat="45.01119" lon="3.47283">
        <ele>704</ele>
        <time>2022-06-20T21:48:32.763Z</time>
      </trkpt>
      <trkpt lat="45.01127" lon="3.47317">
        <ele>703</ele>
        <time>2022-06-20T21:48:35.249Z</time>
      </trkpt>
      <trkpt lat="45.01131" lon="3.47341">
        <ele>701</ele>
        <time>2022-06-20T21:48:36.731Z</time>
      </trkpt>
      <trkpt lat="45.01131" lon="3.47364">
        <ele>700</ele>
        <time>2022-06-20T21:48:38.049Z</time>
      </trkpt>
      <trkpt lat="45.01125" lon="3.47416">
        <ele>696</ele>
        <time>2022-06-20T21:48:41.216Z</time>
      </trkpt>
      <trkpt lat="45.01125" lon="3.47434">
        <ele>695</ele>
        <time>2022-06-20T21:48:42.298Z</time>
      </trkpt>
      <trkpt lat="45.01127" lon="3.47448">
        <ele>694</ele>
        <time>2022-06-20T21:48:43.156Z</time>
      </trkpt>
      <trkpt lat="45.0113" lon="3.47461">
        <ele>694</ele>
        <time>2022-06-20T21:48:44.756Z</time>
      </trkpt>
      <trkpt lat="45.01158" lon="3.47526">
        <ele>693</ele>
        <time>2022-06-20T21:48:51.351Z</time>
      </trkpt>
      <trkpt lat="45.01163" lon="3.47543">
        <ele>692</ele>
        <time>2022-06-20T21:48:52.457Z</time>
      </trkpt>
      <trkpt lat="45.01169" lon="3.47588">
        <ele>688</ele>
        <time>2022-06-20T21:48:55.210Z</time>
      </trkpt>
      <trkpt lat="45.0117" lon="3.47604">
        <ele>687</ele>
        <time>2022-06-20T21:48:56.175Z</time>
      </trkpt>
      <trkpt lat="45.01168" lon="3.47621">
        <ele>685</ele>
        <time>2022-06-20T21:48:57.211Z</time>
      </trkpt>
      <trkpt lat="45.01163" lon="3.47638">
        <ele>684</ele>
        <time>2022-06-20T21:48:58.318Z</time>
      </trkpt>
      <trkpt lat="45.01158" lon="3.47666">
        <ele>682</ele>
        <time>2022-06-20T21:49:00.054Z</time>
      </trkpt>
      <trkpt lat="45.01162" lon="3.47696">
        <ele>681</ele>
        <time>2022-06-20T21:49:02.041Z</time>
      </trkpt>
      <trkpt lat="45.01166" lon="3.4771">
        <ele>681</ele>
        <time>2022-06-20T21:49:03.807Z</time>
      </trkpt>
      <trkpt lat="45.01178" lon="3.47729">
        <ele>680</ele>
        <time>2022-06-20T21:49:05.340Z</time>
      </trkpt>
      <trkpt lat="45.01203" lon="3.47757">
        <ele>681</ele>
        <time>2022-06-20T21:49:12.742Z</time>
      </trkpt>
      <trkpt lat="45.01222" lon="3.47776">
        <ele>684</ele>
        <time>2022-06-20T21:49:26.685Z</time>
      </trkpt>
      <trkpt lat="45.01229" lon="3.47783">
        <ele>685</ele>
        <time>2022-06-20T21:49:31.088Z</time>
      </trkpt>
      <trkpt lat="45.01238" lon="3.47784">
        <ele>686</ele>
        <time>2022-06-20T21:49:35.428Z</time>
      </trkpt>
      <trkpt lat="45.01245" lon="3.47783">
        <ele>686</ele>
        <time>2022-06-20T21:49:36.592Z</time>
      </trkpt>
      <trkpt lat="45.01281" lon="3.47767">
        <ele>680</ele>
        <time>2022-06-20T21:49:39.800Z</time>
      </trkpt>
      <trkpt lat="45.01289" lon="3.47765">
        <ele>679</ele>
        <time>2022-06-20T21:49:40.491Z</time>
      </trkpt>
      <trkpt lat="45.01305" lon="3.47771">
        <ele>679</ele>
        <time>2022-06-20T21:49:43.229Z</time>
      </trkpt>
      <trkpt lat="45.0131" lon="3.47778">
        <ele>679</ele>
        <time>2022-06-20T21:49:44.393Z</time>
      </trkpt>
      <trkpt lat="45.01313" lon="3.47786">
        <ele>680</ele>
        <time>2022-06-20T21:49:48.479Z</time>
      </trkpt>
      <trkpt lat="45.01315" lon="3.47797">
        <ele>681</ele>
        <time>2022-06-20T21:49:53.020Z</time>
      </trkpt>
      <trkpt lat="45.0131" lon="3.47952">
        <ele>696</ele>
        <time>2022-06-20T21:51:03.025Z</time>
      </trkpt>
      <trkpt lat="45.01312" lon="3.47988">
        <ele>698</ele>
        <time>2022-06-20T21:51:12.096Z</time>
      </trkpt>
      <trkpt lat="45.0132" lon="3.48023">
        <ele>700</ele>
        <time>2022-06-20T21:51:21.230Z</time>
      </trkpt>
      <trkpt lat="45.01332" lon="3.48043">
        <ele>697</ele>
        <time>2022-06-20T21:51:22.806Z</time>
      </trkpt>
      <trkpt lat="45.01358" lon="3.48078">
        <ele>698</ele>
        <time>2022-06-20T21:51:30.780Z</time>
      </trkpt>
      <trkpt lat="45.0137" lon="3.48085">
        <ele>697</ele>
        <time>2022-06-20T21:51:31.883Z</time>
      </trkpt>
      <trkpt lat="45.01405" lon="3.48094">
        <ele>693</ele>
        <time>2022-06-20T21:51:34.908Z</time>
      </trkpt>
      <trkpt lat="45.01427" lon="3.48093">
        <ele>692</ele>
        <time>2022-06-20T21:51:36.951Z</time>
      </trkpt>
      <trkpt lat="45.01444" lon="3.48087">
        <ele>692</ele>
        <time>2022-06-20T21:51:39.850Z</time>
      </trkpt>
      <trkpt lat="45.01462" lon="3.48077">
        <ele>693</ele>
        <time>2022-06-20T21:51:45.509Z</time>
      </trkpt>
      <trkpt lat="45.0148" lon="3.48061">
        <ele>693</ele>
        <time>2022-06-20T21:51:49.026Z</time>
      </trkpt>
      <trkpt lat="45.01497" lon="3.4804">
        <ele>690</ele>
        <time>2022-06-20T21:51:50.945Z</time>
      </trkpt>
      <trkpt lat="45.01548" lon="3.47995">
        <ele>678</ele>
        <time>2022-06-20T21:51:56.055Z</time>
      </trkpt>
      <trkpt lat="45.01567" lon="3.47988">
        <ele>678</ele>
        <time>2022-06-20T21:51:59.304Z</time>
      </trkpt>
      <trkpt lat="45.01581" lon="3.47994">
        <ele>678</ele>
        <time>2022-06-20T21:52:01.725Z</time>
      </trkpt>
      <trkpt lat="45.01585" lon="3.48001">
        <ele>678</ele>
        <time>2022-06-20T21:52:02.777Z</time>
      </trkpt>
      <trkpt lat="45.01589" lon="3.48011">
        <ele>679</ele>
        <time>2022-06-20T21:52:07.288Z</time>
      </trkpt>
      <trkpt lat="45.01591" lon="3.48025">
        <ele>681</ele>
        <time>2022-06-20T21:52:13.732Z</time>
      </trkpt>
      <trkpt lat="45.0159" lon="3.48094">
        <ele>693</ele>
        <time>2022-06-20T21:52:44.869Z</time>
      </trkpt>
      <trkpt lat="45.01594" lon="3.48114">
        <ele>697</ele>
        <time>2022-06-20T21:52:54.246Z</time>
      </trkpt>
      <trkpt lat="45.01605" lon="3.48137">
        <ele>698</ele>
        <time>2022-06-20T21:52:59.960Z</time>
      </trkpt>
      <trkpt lat="45.01622" lon="3.48166">
        <ele>694</ele>
        <time>2022-06-20T21:53:02.225Z</time>
      </trkpt>
      <trkpt lat="45.01634" lon="3.4819">
        <ele>693</ele>
        <time>2022-06-20T21:53:04.108Z</time>
      </trkpt>
      <trkpt lat="45.01651" lon="3.48236">
        <ele>692</ele>
        <time>2022-06-20T21:53:08.183Z</time>
      </trkpt>
      <trkpt lat="45.01665" lon="3.48256">
        <ele>688</ele>
        <time>2022-06-20T21:53:09.875Z</time>
      </trkpt>
      <trkpt lat="45.01678" lon="3.48269">
        <ele>689</ele>
        <time>2022-06-20T21:53:14.903Z</time>
      </trkpt>
      <trkpt lat="45.01697" lon="3.4828">
        <ele>688</ele>
        <time>2022-06-20T21:53:16.754Z</time>
      </trkpt>
      <trkpt lat="45.01714" lon="3.48287">
        <ele>686</ele>
        <time>2022-06-20T21:53:18.259Z</time>
      </trkpt>
      <trkpt lat="45.01728" lon="3.4829">
        <ele>684</ele>
        <time>2022-06-20T21:53:19.463Z</time>
      </trkpt>
      <trkpt lat="45.01744" lon="3.48289">
        <ele>680</ele>
        <time>2022-06-20T21:53:20.825Z</time>
      </trkpt>
      <trkpt lat="45.01773" lon="3.48277">
        <ele>673</ele>
        <time>2022-06-20T21:53:23.394Z</time>
      </trkpt>
      <trkpt lat="45.01787" lon="3.4828">
        <ele>672</ele>
        <time>2022-06-20T21:53:24.598Z</time>
      </trkpt>
      <trkpt lat="45.01793" lon="3.48285">
        <ele>672</ele>
        <time>2022-06-20T21:53:25.750Z</time>
      </trkpt>
      <trkpt lat="45.01801" lon="3.48303">
        <ele>674</ele>
        <time>2022-06-20T21:53:35.292Z</time>
      </trkpt>
      <trkpt lat="45.01819" lon="3.48389">
        <ele>679</ele>
        <time>2022-06-20T21:53:57.913Z</time>
      </trkpt>
      <trkpt lat="45.01824" lon="3.48402">
        <ele>678</ele>
        <time>2022-06-20T21:53:58.802Z</time>
      </trkpt>
      <trkpt lat="45.01831" lon="3.48415">
        <ele>675</ele>
        <time>2022-06-20T21:53:59.784Z</time>
      </trkpt>
      <trkpt lat="45.01838" lon="3.48424">
        <ele>674</ele>
        <time>2022-06-20T21:54:00.589Z</time>
      </trkpt>
      <trkpt lat="45.01847" lon="3.48432">
        <ele>673</ele>
        <time>2022-06-20T21:54:01.492Z</time>
      </trkpt>
      <trkpt lat="45.01862" lon="3.48441">
        <ele>671</ele>
        <time>2022-06-20T21:54:02.878Z</time>
      </trkpt>
      <trkpt lat="45.01868" lon="3.48446">
        <ele>670</ele>
        <time>2022-06-20T21:54:03.470Z</time>
      </trkpt>
      <trkpt lat="45.01871" lon="3.48453">
        <ele>669</ele>
        <time>2022-06-20T21:54:03.962Z</time>
      </trkpt>
      <trkpt lat="45.01874" lon="3.48471">
        <ele>668</ele>
        <time>2022-06-20T21:54:05.073Z</time>
      </trkpt>
      <trkpt lat="45.0187" lon="3.48491">
        <ele>668</ele>
        <time>2022-06-20T21:54:07.504Z</time>
      </trkpt>
      <trkpt lat="45.01861" lon="3.48507">
        <ele>669</ele>
        <time>2022-06-20T21:54:12.287Z</time>
      </trkpt>
      <trkpt lat="45.01819" lon="3.48565">
        <ele>676</ele>
        <time>2022-06-20T21:54:43.378Z</time>
      </trkpt>
      <trkpt lat="45.01812" lon="3.48581">
        <ele>678</ele>
        <time>2022-06-20T21:54:51.867Z</time>
      </trkpt>
      <trkpt lat="45.01807" lon="3.48599">
        <ele>680</ele>
        <time>2022-06-20T21:55:00.592Z</time>
      </trkpt>
      <trkpt lat="45.01801" lon="3.48639">
        <ele>680</ele>
        <time>2022-06-20T21:55:05.374Z</time>
      </trkpt>
      <trkpt lat="45.01801" lon="3.48656">
        <ele>678</ele>
        <time>2022-06-20T21:55:06.396Z</time>
      </trkpt>
      <trkpt lat="45.01805" lon="3.48676">
        <ele>675</ele>
        <time>2022-06-20T21:55:07.645Z</time>
      </trkpt>
      <trkpt lat="45.01814" lon="3.48694">
        <ele>669</ele>
        <time>2022-06-20T21:55:08.970Z</time>
      </trkpt>
      <trkpt lat="45.01827" lon="3.48712">
        <ele>662</ele>
        <time>2022-06-20T21:55:10.517Z</time>
      </trkpt>
      <trkpt lat="45.01838" lon="3.48723">
        <ele>660</ele>
        <time>2022-06-20T21:55:11.662Z</time>
      </trkpt>
      <trkpt lat="45.0185" lon="3.48728">
        <ele>661</ele>
        <time>2022-06-20T21:55:16.165Z</time>
      </trkpt>
      <trkpt lat="45.01868" lon="3.4873">
        <ele>663</ele>
        <time>2022-06-20T21:55:24.845Z</time>
      </trkpt>
      <trkpt lat="45.01872" lon="3.48732">
        <ele>664</ele>
        <time>2022-06-20T21:55:27.552Z</time>
      </trkpt>
      <trkpt lat="45.01875" lon="3.48738">
        <ele>664</ele>
        <time>2022-06-20T21:55:28.412Z</time>
      </trkpt>
      <trkpt lat="45.01877" lon="3.48756">
        <ele>664</ele>
        <time>2022-06-20T21:55:30.543Z</time>
      </trkpt>
      <trkpt lat="45.0186" lon="3.48823">
        <ele>661</ele>
        <time>2022-06-20T21:55:34.683Z</time>
      </trkpt>
      <trkpt lat="45.01856" lon="3.48848">
        <ele>660</ele>
        <time>2022-06-20T21:55:36.229Z</time>
      </trkpt>
      <trkpt lat="45.01854" lon="3.48897">
        <ele>662</ele>
        <time>2022-06-20T21:55:46.796Z</time>
      </trkpt>
      <trkpt lat="45.01851" lon="3.48914">
        <ele>662</ele>
        <time>2022-06-20T21:55:48.845Z</time>
      </trkpt>
      <trkpt lat="45.01846" lon="3.48928">
        <ele>664</ele>
        <time>2022-06-20T21:55:55.922Z</time>
      </trkpt>
      <trkpt lat="45.0184" lon="3.48937">
        <ele>665</ele>
        <time>2022-06-20T21:56:00.296Z</time>
      </trkpt>
      <trkpt lat="45.01825" lon="3.48953">
        <ele>665</ele>
        <time>2022-06-20T21:56:03.405Z</time>
      </trkpt>
      <trkpt lat="45.01771" lon="3.48986">
        <ele>657</ele>
        <time>2022-06-20T21:56:08.406Z</time>
      </trkpt>
      <trkpt lat="45.01746" lon="3.49011">
        <ele>653</ele>
        <time>2022-06-20T21:56:11.009Z</time>
      </trkpt>
      <trkpt lat="45.01734" lon="3.49025">
        <ele>653</ele>
        <time>2022-06-20T21:56:13.582Z</time>
      </trkpt>
      <trkpt lat="45.01722" lon="3.49045">
        <ele>654</ele>
        <time>2022-06-20T21:56:19.089Z</time>
      </trkpt>
      <trkpt lat="45.01713" lon="3.49066">
        <ele>654</ele>
        <time>2022-06-20T21:56:21.962Z</time>
      </trkpt>
      <trkpt lat="45.01698" lon="3.49108">
        <ele>653</ele>
        <time>2022-06-20T21:56:25.547Z</time>
      </trkpt>
      <trkpt lat="45.01694" lon="3.49129">
        <ele>653</ele>
        <time>2022-06-20T21:56:28.091Z</time>
      </trkpt>
      <trkpt lat="45.01688" lon="3.49206">
        <ele>653</ele>
        <time>2022-06-20T21:56:37.152Z</time>
      </trkpt>
      <trkpt lat="45.01685" lon="3.49226">
        <ele>652</ele>
        <time>2022-06-20T21:56:38.381Z</time>
      </trkpt>
      <trkpt lat="45.01667" lon="3.49299">
        <ele>648</ele>
        <time>2022-06-20T21:56:43.027Z</time>
      </trkpt>
      <trkpt lat="45.01639" lon="3.49434">
        <ele>660</ele>
        <time>2022-06-20T21:57:36.606Z</time>
      </trkpt>
      <trkpt lat="45.01633" lon="3.49454">
        <ele>662</ele>
        <time>2022-06-20T21:57:45.973Z</time>
      </trkpt>
      <trkpt lat="45.01621" lon="3.49483">
        <ele>662</ele>
        <time>2022-06-20T21:57:49.904Z</time>
      </trkpt>
      <trkpt lat="45.01615" lon="3.49494">
        <ele>662</ele>
        <time>2022-06-20T21:57:51.529Z</time>
      </trkpt>
      <trkpt lat="45.01608" lon="3.49503">
        <ele>660</ele>
        <time>2022-06-20T21:57:52.333Z</time>
      </trkpt>
      <trkpt lat="45.01576" lon="3.49536">
        <ele>651</ele>
        <time>2022-06-20T21:57:55.700Z</time>
      </trkpt>
      <trkpt lat="45.01571" lon="3.49545">
        <ele>652</ele>
        <time>2022-06-20T21:58:00.220Z</time>
      </trkpt>
      <trkpt lat="45.01569" lon="3.49556">
        <ele>652</ele>
        <time>2022-06-20T21:58:01.549Z</time>
      </trkpt>
      <trkpt lat="45.0157" lon="3.49577">
        <ele>652</ele>
        <time>2022-06-20T21:58:04.011Z</time>
      </trkpt>
      <trkpt lat="45.01574" lon="3.49589">
        <ele>651</ele>
        <time>2022-06-20T21:58:04.808Z</time>
      </trkpt>
      <trkpt lat="45.01578" lon="3.49598">
        <ele>650</ele>
        <time>2022-06-20T21:58:05.447Z</time>
      </trkpt>
      <trkpt lat="45.01583" lon="3.49604">
        <ele>648</ele>
        <time>2022-06-20T21:58:06.004Z</time>
      </trkpt>
      <trkpt lat="45.01632" lon="3.49624">
        <ele>655</ele>
        <time>2022-06-20T21:58:38.552Z</time>
      </trkpt>
      <trkpt lat="45.0169" lon="3.49659">
        <ele>657</ele>
        <time>2022-06-20T21:58:53.258Z</time>
      </trkpt>
      <trkpt lat="45.017" lon="3.49669">
        <ele>658</ele>
        <time>2022-06-20T21:58:57.728Z</time>
      </trkpt>
      <trkpt lat="45.01712" lon="3.4969">
        <ele>660</ele>
        <time>2022-06-20T21:59:06.343Z</time>
      </trkpt>
      <trkpt lat="45.0172" lon="3.49711">
        <ele>660</ele>
        <time>2022-06-20T21:59:09.133Z</time>
      </trkpt>
      <trkpt lat="45.01726" lon="3.49733">
        <ele>658</ele>
        <time>2022-06-20T21:59:10.550Z</time>
      </trkpt>
      <trkpt lat="45.01729" lon="3.4976">
        <ele>657</ele>
        <time>2022-06-20T21:59:12.247Z</time>
      </trkpt>
      <trkpt lat="45.01732" lon="3.49809">
        <ele>656</ele>
        <time>2022-06-20T21:59:16.046Z</time>
      </trkpt>
      <trkpt lat="45.0173" lon="3.49838">
        <ele>655</ele>
        <time>2022-06-20T21:59:17.906Z</time>
      </trkpt>
      <trkpt lat="45.01727" lon="3.49868">
        <ele>653</ele>
        <time>2022-06-20T21:59:19.727Z</time>
      </trkpt>
      <trkpt lat="45.01694" lon="3.49999">
        <ele>639</ele>
        <time>2022-06-20T21:59:28.085Z</time>
      </trkpt>
      <trkpt lat="45.01694" lon="3.50024">
        <ele>638</ele>
        <time>2022-06-20T21:59:29.575Z</time>
      </trkpt>
      <trkpt lat="45.01697" lon="3.50036">
        <ele>638</ele>
        <time>2022-06-20T21:59:31.064Z</time>
      </trkpt>
      <trkpt lat="45.01705" lon="3.50051">
        <ele>636</ele>
        <time>2022-06-20T21:59:32.193Z</time>
      </trkpt>
      <trkpt lat="45.01739" lon="3.5009">
        <ele>631</ele>
        <time>2022-06-20T21:59:35.915Z</time>
      </trkpt>
      <trkpt lat="45.01762" lon="3.50116">
        <ele>635</ele>
        <time>2022-06-20T21:59:54.705Z</time>
      </trkpt>
      <trkpt lat="45.0177" lon="3.50124">
        <ele>636</ele>
        <time>2022-06-20T21:59:59.007Z</time>
      </trkpt>
      <trkpt lat="45.01784" lon="3.50131">
        <ele>638</ele>
        <time>2022-06-20T22:00:08.484Z</time>
      </trkpt>
      <trkpt lat="45.018" lon="3.50132">
        <ele>638</ele>
        <time>2022-06-20T22:00:11.133Z</time>
      </trkpt>
      <trkpt lat="45.0181" lon="3.50127">
        <ele>637</ele>
        <time>2022-06-20T22:00:12.035Z</time>
      </trkpt>
      <trkpt lat="45.01895" lon="3.50066">
        <ele>631</ele>
        <time>2022-06-20T22:00:19.674Z</time>
      </trkpt>
      <trkpt lat="45.01924" lon="3.50047">
        <ele>630</ele>
        <time>2022-06-20T22:00:23.075Z</time>
      </trkpt>
      <trkpt lat="45.01936" lon="3.50041">
        <ele>630</ele>
        <time>2022-06-20T22:00:25.181Z</time>
      </trkpt>
      <trkpt lat="45.01947" lon="3.50038">
        <ele>629</ele>
        <time>2022-06-20T22:00:26.133Z</time>
      </trkpt>
      <trkpt lat="45.01969" lon="3.50036">
        <ele>629</ele>
        <time>2022-06-20T22:00:29.781Z</time>
      </trkpt>
      <trkpt lat="45.01994" lon="3.50041">
        <ele>631</ele>
        <time>2022-06-20T22:00:38.815Z</time>
      </trkpt>
      <trkpt lat="45.02007" lon="3.50047">
        <ele>632</ele>
        <time>2022-06-20T22:00:43.478Z</time>
      </trkpt>
      <trkpt lat="45.02031" lon="3.50063">
        <ele>632</ele>
        <time>2022-06-20T22:00:47.868Z</time>
      </trkpt>
      <trkpt lat="45.02045" lon="3.50078">
        <ele>631</ele>
        <time>2022-06-20T22:00:49.345Z</time>
      </trkpt>
      <trkpt lat="45.02124" lon="3.50204">
        <ele>641</ele>
        <time>2022-06-20T22:01:33.660Z</time>
      </trkpt>
      <trkpt lat="45.02177" lon="3.50274">
        <ele>639</ele>
        <time>2022-06-20T22:01:41.684Z</time>
      </trkpt>
      <trkpt lat="45.02274" lon="3.50392">
        <ele>639</ele>
        <time>2022-06-20T22:02:02.851Z</time>
      </trkpt>
      <trkpt lat="45.02292" lon="3.50412">
        <ele>638</ele>
        <time>2022-06-20T22:02:05.010Z</time>
      </trkpt>
      <trkpt lat="45.02331" lon="3.50445">
        <ele>634</ele>
        <time>2022-06-20T22:02:08.873Z</time>
      </trkpt>
      <trkpt lat="45.02339" lon="3.50454">
        <ele>635</ele>
        <time>2022-06-20T22:02:13.181Z</time>
      </trkpt>
      <trkpt lat="45.02343" lon="3.50463">
        <ele>637</ele>
        <time>2022-06-20T22:02:17.976Z</time>
      </trkpt>
      <trkpt lat="45.02346" lon="3.50474">
        <ele>639</ele>
        <time>2022-06-20T22:02:23.295Z</time>
      </trkpt>
      <trkpt lat="45.02348" lon="3.5049">
        <ele>643</ele>
        <time>2022-06-20T22:02:30.624Z</time>
      </trkpt>
      <trkpt lat="45.0235" lon="3.505">
        <ele>645</ele>
        <time>2022-06-20T22:02:35.313Z</time>
      </trkpt>
      <trkpt lat="45.02354" lon="3.50509">
        <ele>646</ele>
        <time>2022-06-20T22:02:40.084Z</time>
      </trkpt>
      <trkpt lat="45.0236" lon="3.50517">
        <ele>647</ele>
        <time>2022-06-20T22:02:44.560Z</time>
      </trkpt>
      <trkpt lat="45.02367" lon="3.5052">
        <ele>646</ele>
        <time>2022-06-20T22:02:45.182Z</time>
      </trkpt>
      <trkpt lat="45.0238" lon="3.50519">
        <ele>644</ele>
        <time>2022-06-20T22:02:46.289Z</time>
      </trkpt>
      <trkpt lat="45.02387" lon="3.50516">
        <ele>642</ele>
        <time>2022-06-20T22:02:46.910Z</time>
      </trkpt>
      <trkpt lat="45.02407" lon="3.50499">
        <ele>634</ele>
        <time>2022-06-20T22:02:48.894Z</time>
      </trkpt>
      <trkpt lat="45.02421" lon="3.50497">
        <ele>631</ele>
        <time>2022-06-20T22:02:50.091Z</time>
      </trkpt>
      <trkpt lat="45.0247" lon="3.50513">
        <ele>632</ele>
        <time>2022-06-20T22:03:00.264Z</time>
      </trkpt>
      <trkpt lat="45.02495" lon="3.50524">
        <ele>634</ele>
        <time>2022-06-20T22:03:09.423Z</time>
      </trkpt>
      <trkpt lat="45.02516" lon="3.50537">
        <ele>636</ele>
        <time>2022-06-20T22:03:18.196Z</time>
      </trkpt>
      <trkpt lat="45.02548" lon="3.50563">
        <ele>641</ele>
        <time>2022-06-20T22:03:41.746Z</time>
      </trkpt>
      <trkpt lat="45.02623" lon="3.50647">
        <ele>654</ele>
        <time>2022-06-20T22:04:42.794Z</time>
      </trkpt>
      <trkpt lat="45.02631" lon="3.50652">
        <ele>654</ele>
        <time>2022-06-20T22:04:44.241Z</time>
      </trkpt>
      <trkpt lat="45.02643" lon="3.50655">
        <ele>654</ele>
        <time>2022-06-20T22:04:46.257Z</time>
      </trkpt>
      <trkpt lat="45.02689" lon="3.50666">
        <ele>653</ele>
        <time>2022-06-20T22:04:51.786Z</time>
      </trkpt>
      <trkpt lat="45.0271" lon="3.50676">
        <ele>655</ele>
        <time>2022-06-20T22:05:00.494Z</time>
      </trkpt>
      <trkpt lat="45.02735" lon="3.50692">
        <ele>657</ele>
        <time>2022-06-20T22:05:09.833Z</time>
      </trkpt>
      <trkpt lat="45.02743" lon="3.507">
        <ele>659</ele>
        <time>2022-06-20T22:05:16.086Z</time>
      </trkpt>
      <trkpt lat="45.02777" lon="3.50744">
        <ele>669</ele>
        <time>2022-06-20T22:05:45.492Z</time>
      </trkpt>
      <trkpt lat="45.02791" lon="3.50749">
        <ele>670</ele>
        <time>2022-06-20T22:05:50.273Z</time>
      </trkpt>
      <trkpt lat="45.02797" lon="3.50748">
        <ele>669</ele>
        <time>2022-06-20T22:05:50.786Z</time>
      </trkpt>
      <trkpt lat="45.02804" lon="3.50743">
        <ele>668</ele>
        <time>2022-06-20T22:05:51.453Z</time>
      </trkpt>
      <trkpt lat="45.02828" lon="3.50717">
        <ele>663</ele>
        <time>2022-06-20T22:05:54.023Z</time>
      </trkpt>
      <trkpt lat="45.02843" lon="3.50704">
        <ele>661</ele>
        <time>2022-06-20T22:05:55.518Z</time>
      </trkpt>
      <trkpt lat="45.02861" lon="3.50699">
        <ele>662</ele>
        <time>2022-06-20T22:06:00.987Z</time>
      </trkpt>
      <trkpt lat="45.02974" lon="3.50702">
        <ele>664</ele>
        <time>2022-06-20T22:06:23.305Z</time>
      </trkpt>
      <trkpt lat="45.02995" lon="3.50708">
        <ele>664</ele>
        <time>2022-06-20T22:06:26.850Z</time>
      </trkpt>
      <trkpt lat="45.03012" lon="3.50722">
        <ele>664</ele>
        <time>2022-06-20T22:06:30.105Z</time>
      </trkpt>
      <trkpt lat="45.0303" lon="3.50756">
        <ele>667</ele>
        <time>2022-06-20T22:06:43.013Z</time>
      </trkpt>
      <trkpt lat="45.03053" lon="3.50774">
        <ele>667</ele>
        <time>2022-06-20T22:06:47.362Z</time>
      </trkpt>
      <trkpt lat="45.0306" lon="3.50783">
        <ele>668</ele>
        <time>2022-06-20T22:06:51.673Z</time>
      </trkpt>
      <trkpt lat="45.03069" lon="3.50799">
        <ele>669</ele>
        <time>2022-06-20T22:06:56.455Z</time>
      </trkpt>
      <trkpt lat="45.03089" lon="3.50853">
        <ele>675</ele>
        <time>2022-06-20T22:07:23.953Z</time>
      </trkpt>
      <trkpt lat="45.03095" lon="3.50862">
        <ele>676</ele>
        <time>2022-06-20T22:07:28.328Z</time>
      </trkpt>
      <trkpt lat="45.03102" lon="3.50871">
        <ele>677</ele>
        <time>2022-06-20T22:07:32.638Z</time>
      </trkpt>
      <trkpt lat="45.03118" lon="3.50881">
        <ele>677</ele>
        <time>2022-06-20T22:07:35.532Z</time>
      </trkpt>
      <trkpt lat="45.03134" lon="3.50884">
        <ele>676</ele>
        <time>2022-06-20T22:07:36.836Z</time>
      </trkpt>
      <trkpt lat="45.03141" lon="3.50883">
        <ele>676</ele>
        <time>2022-06-20T22:07:38.000Z</time>
      </trkpt>
      <trkpt lat="45.03155" lon="3.50875">
        <ele>674</ele>
        <time>2022-06-20T22:07:39.284Z</time>
      </trkpt>
      <trkpt lat="45.0317" lon="3.50873">
        <ele>673</ele>
        <time>2022-06-20T22:07:40.460Z</time>
      </trkpt>
      <trkpt lat="45.03186" lon="3.5088">
        <ele>673</ele>
        <time>2022-06-20T22:07:43.231Z</time>
      </trkpt>
      <trkpt lat="45.03213" lon="3.50895">
        <ele>673</ele>
        <time>2022-06-20T22:07:48.030Z</time>
      </trkpt>
      <trkpt lat="45.03281" lon="3.50926">
        <ele>679</ele>
        <time>2022-06-20T22:08:14.621Z</time>
      </trkpt>
      <trkpt lat="45.03303" lon="3.50926">
        <ele>682</ele>
        <time>2022-06-20T22:08:28.661Z</time>
      </trkpt>
      <trkpt lat="45.03322" lon="3.50918">
        <ele>682</ele>
        <time>2022-06-20T22:08:31.941Z</time>
      </trkpt>
      <trkpt lat="45.03362" lon="3.50877">
        <ele>680</ele>
        <time>2022-06-20T22:08:36.740Z</time>
      </trkpt>
      <trkpt lat="45.03388" lon="3.5082">
        <ele>671</ele>
        <time>2022-06-20T22:08:40.816Z</time>
      </trkpt>
      <trkpt lat="45.034" lon="3.50803">
        <ele>670</ele>
        <time>2022-06-20T22:08:42.222Z</time>
      </trkpt>
      <trkpt lat="45.03414" lon="3.50795">
        <ele>669</ele>
        <time>2022-06-20T22:08:43.402Z</time>
      </trkpt>
      <trkpt lat="45.03436" lon="3.50799">
        <ele>668</ele>
        <time>2022-06-20T22:08:45.467Z</time>
      </trkpt>
      <trkpt lat="45.03496" lon="3.50829">
        <ele>669</ele>
        <time>2022-06-20T22:08:57.767Z</time>
      </trkpt>
      <trkpt lat="45.03535" lon="3.50852">
        <ele>666</ele>
        <time>2022-06-20T22:09:01.359Z</time>
      </trkpt>
      <trkpt lat="45.0357" lon="3.50881">
        <ele>665</ele>
        <time>2022-06-20T22:09:05.994Z</time>
      </trkpt>
      <trkpt lat="45.03597" lon="3.5091">
        <ele>666</ele>
        <time>2022-06-20T22:09:13.679Z</time>
      </trkpt>
      <trkpt lat="45.03606" lon="3.50918">
        <ele>667</ele>
        <time>2022-06-20T22:09:18.003Z</time>
      </trkpt>
      <trkpt lat="45.03616" lon="3.50922">
        <ele>667</ele>
        <time>2022-06-20T22:09:19.723Z</time>
      </trkpt>
      <trkpt lat="45.03657" lon="3.50922">
        <ele>660</ele>
        <time>2022-06-20T22:09:23.209Z</time>
      </trkpt>
      <trkpt lat="45.03749" lon="3.5094">
        <ele>655</ele>
        <time>2022-06-20T22:09:31.222Z</time>
      </trkpt>
      <trkpt lat="45.03756" lon="3.50943">
        <ele>655</ele>
        <time>2022-06-20T22:09:32.432Z</time>
      </trkpt>
      <trkpt lat="45.03775" lon="3.50966">
        <ele>661</ele>
        <time>2022-06-20T22:09:48.389Z</time>
      </trkpt>
      <trkpt lat="45.03782" lon="3.50971">
        <ele>662</ele>
        <time>2022-06-20T22:09:53.000Z</time>
      </trkpt>
      <trkpt lat="45.03798" lon="3.50976">
        <ele>662</ele>
        <time>2022-06-20T22:09:55.711Z</time>
      </trkpt>
      <trkpt lat="45.03815" lon="3.50971">
        <ele>659</ele>
        <time>2022-06-20T22:09:57.187Z</time>
      </trkpt>
      <trkpt lat="45.03847" lon="3.50956">
        <ele>650</ele>
        <time>2022-06-20T22:10:00.053Z</time>
      </trkpt>
      <trkpt lat="45.03856" lon="3.50954">
        <ele>648</ele>
        <time>2022-06-20T22:10:00.828Z</time>
      </trkpt>
      <trkpt lat="45.03871" lon="3.50956">
        <ele>647</ele>
        <time>2022-06-20T22:10:02.004Z</time>
      </trkpt>
      <trkpt lat="45.03878" lon="3.5096">
        <ele>647</ele>
        <time>2022-06-20T22:10:03.253Z</time>
      </trkpt>
      <trkpt lat="45.03905" lon="3.50986">
        <ele>652</ele>
        <time>2022-06-20T22:10:24.096Z</time>
      </trkpt>
      <trkpt lat="45.03921" lon="3.50995">
        <ele>653</ele>
        <time>2022-06-20T22:10:29.355Z</time>
      </trkpt>
      <trkpt lat="45.04068" lon="3.51021">
        <ele>642</ele>
        <time>2022-06-20T22:10:41.951Z</time>
      </trkpt>
      <trkpt lat="45.04084" lon="3.51027">
        <ele>642</ele>
        <time>2022-06-20T22:10:44.689Z</time>
      </trkpt>
      <trkpt lat="45.04131" lon="3.5105">
        <ele>640</ele>
        <time>2022-06-20T22:10:49.534Z</time>
      </trkpt>
      <trkpt lat="45.04153" lon="3.51063">
        <ele>639</ele>
        <time>2022-06-20T22:10:51.819Z</time>
      </trkpt>
      <trkpt lat="45.04193" lon="3.51098">
        <ele>640</ele>
        <time>2022-06-20T22:11:01.483Z</time>
      </trkpt>
      <trkpt lat="45.04216" lon="3.51115">
        <ele>639</ele>
        <time>2022-06-20T22:11:04.051Z</time>
      </trkpt>
      <trkpt lat="45.04256" lon="3.51149">
        <ele>637</ele>
        <time>2022-06-20T22:11:08.486Z</time>
      </trkpt>
      <trkpt lat="45.04429" lon="3.5128">
        <ele>629</ele>
        <time>2022-06-20T22:11:27.499Z</time>
      </trkpt>
      <trkpt lat="45.04492" lon="3.51331">
        <ele>624</ele>
        <time>2022-06-20T22:11:33.670Z</time>
      </trkpt>
      <trkpt lat="45.0457" lon="3.51406">
        <ele>622</ele>
        <time>2022-06-20T22:11:44.875Z</time>
      </trkpt>
      <trkpt lat="45.04625" lon="3.51449">
        <ele>617</ele>
        <time>2022-06-20T22:11:50.217Z</time>
      </trkpt>
      <trkpt lat="45.04662" lon="3.51475">
        <ele>612</ele>
        <time>2022-06-20T22:11:53.729Z</time>
      </trkpt>
      <trkpt lat="45.04674" lon="3.51493">
        <ele>612</ele>
        <time>2022-06-20T22:11:56.622Z</time>
      </trkpt>
      <trkpt lat="45.04679" lon="3.51506">
        <ele>612</ele>
        <time>2022-06-20T22:11:58.353Z</time>
      </trkpt>
      <trkpt lat="45.04683" lon="3.51522">
        <ele>612</ele>
        <time>2022-06-20T22:12:00.337Z</time>
      </trkpt>
      <trkpt lat="45.04692" lon="3.51573">
        <ele>612</ele>
        <time>2022-06-20T22:12:06.482Z</time>
      </trkpt>
      <trkpt lat="45.04696" lon="3.51587">
        <ele>612</ele>
        <time>2022-06-20T22:12:08.247Z</time>
      </trkpt>
      <trkpt lat="45.047" lon="3.51597">
        <ele>612</ele>
        <time>2022-06-20T22:12:09.591Z</time>
      </trkpt>
      <trkpt lat="45.0472" lon="3.5163">
        <ele>610</ele>
        <time>2022-06-20T22:12:12.012Z</time>
      </trkpt>
      <trkpt lat="45.04726" lon="3.51643">
        <ele>609</ele>
        <time>2022-06-20T22:12:12.945Z</time>
      </trkpt>
      <trkpt lat="45.0473" lon="3.5166">
        <ele>609</ele>
        <time>2022-06-20T22:12:15.039Z</time>
      </trkpt>
      <trkpt lat="45.04732" lon="3.51678">
        <ele>609</ele>
        <time>2022-06-20T22:12:17.169Z</time>
      </trkpt>
      <trkpt lat="45.04732" lon="3.51744">
        <ele>608</ele>
        <time>2022-06-20T22:12:22.696Z</time>
      </trkpt>
      <trkpt lat="45.04733" lon="3.51796">
        <ele>609</ele>
        <time>2022-06-20T22:12:30.795Z</time>
      </trkpt>
      <trkpt lat="45.0474" lon="3.51873">
        <ele>607</ele>
        <time>2022-06-20T22:12:36.336Z</time>
      </trkpt>
      <trkpt lat="45.0479" lon="3.52207">
        <ele>594</ele>
        <time>2022-06-20T22:12:57.138Z</time>
      </trkpt>
      <trkpt lat="45.04814" lon="3.52392">
        <ele>590</ele>
        <time>2022-06-20T22:13:11.457Z</time>
      </trkpt>
      <trkpt lat="45.04831" lon="3.52545">
        <ele>586</ele>
        <time>2022-06-20T22:13:22.500Z</time>
      </trkpt>
      <trkpt lat="45.04834" lon="3.52569">
        <ele>585</ele>
        <time>2022-06-20T22:13:23.935Z</time>
      </trkpt>
      <trkpt lat="45.04848" lon="3.52614">
        <ele>584</ele>
        <time>2022-06-20T22:13:27.730Z</time>
      </trkpt>
      <trkpt lat="45.04868" lon="3.52657">
        <ele>582</ele>
        <time>2022-06-20T22:13:30.838Z</time>
      </trkpt>
      <trkpt lat="45.04912" lon="3.52735">
        <ele>578</ele>
        <time>2022-06-20T22:13:36.779Z</time>
      </trkpt>
      <trkpt lat="45.04922" lon="3.5276">
        <ele>578</ele>
        <time>2022-06-20T22:13:40.137Z</time>
      </trkpt>
      <trkpt lat="45.04925" lon="3.52773">
        <ele>578</ele>
        <time>2022-06-20T22:13:41.736Z</time>
      </trkpt>
      <trkpt lat="45.04927" lon="3.52789">
        <ele>578</ele>
        <time>2022-06-20T22:13:43.635Z</time>
      </trkpt>
      <trkpt lat="45.04928" lon="3.52817">
        <ele>578</ele>
        <time>2022-06-20T22:13:46.912Z</time>
      </trkpt>
      <trkpt lat="45.04925" lon="3.52867">
        <ele>577</ele>
        <time>2022-06-20T22:13:50.810Z</time>
      </trkpt>
      <trkpt lat="45.04921" lon="3.52899">
        <ele>576</ele>
        <time>2022-06-20T22:13:52.978Z</time>
      </trkpt>
      <trkpt lat="45.04912" lon="3.52938">
        <ele>575</ele>
        <time>2022-06-20T22:13:55.963Z</time>
      </trkpt>
      <trkpt lat="45.04912" lon="3.52955">
        <ele>574</ele>
        <time>2022-06-20T22:13:56.984Z</time>
      </trkpt>
      <trkpt lat="45.04914" lon="3.52972">
        <ele>573</ele>
        <time>2022-06-20T22:13:58.020Z</time>
      </trkpt>
      <trkpt lat="45.04927" lon="3.53006">
        <ele>572</ele>
        <time>2022-06-20T22:14:00.775Z</time>
      </trkpt>
      <trkpt lat="45.04952" lon="3.53055">
        <ele>572</ele>
        <time>2022-06-20T22:14:07.840Z</time>
      </trkpt>
      <trkpt lat="45.04966" lon="3.53079">
        <ele>571</ele>
        <time>2022-06-20T22:14:09.880Z</time>
      </trkpt>
      <trkpt lat="45.05026" lon="3.53156">
        <ele>570</ele>
        <time>2022-06-20T22:14:20.603Z</time>
      </trkpt>
      <trkpt lat="45.05041" lon="3.53185">
        <ele>571</ele>
        <time>2022-06-20T22:14:27.176Z</time>
      </trkpt>
      <trkpt lat="45.05045" lon="3.53197">
        <ele>571</ele>
        <time>2022-06-20T22:14:28.727Z</time>
      </trkpt>
      <trkpt lat="45.05047" lon="3.53209">
        <ele>570</ele>
        <time>2022-06-20T22:14:29.467Z</time>
      </trkpt>
      <trkpt lat="45.05044" lon="3.53242">
        <ele>570</ele>
        <time>2022-06-20T22:14:33.356Z</time>
      </trkpt>
      <trkpt lat="45.05048" lon="3.53256">
        <ele>570</ele>
        <time>2022-06-20T22:14:35.122Z</time>
      </trkpt>
      <trkpt lat="45.05063" lon="3.53282">
        <ele>570</ele>
        <time>2022-06-20T22:14:39.046Z</time>
      </trkpt>
      <trkpt lat="45.05066" lon="3.53292">
        <ele>570</ele>
        <time>2022-06-20T22:14:40.316Z</time>
      </trkpt>
      <trkpt lat="45.05064" lon="3.53309">
        <ele>570</ele>
        <time>2022-06-20T22:14:42.330Z</time>
      </trkpt>
      <trkpt lat="45.05035" lon="3.5339">
        <ele>571</ele>
        <time>2022-06-20T22:14:54.713Z</time>
      </trkpt>
      <trkpt lat="45.05035" lon="3.53402">
        <ele>571</ele>
        <time>2022-06-20T22:14:56.116Z</time>
      </trkpt>
      <trkpt lat="45.05039" lon="3.5342">
        <ele>572</ele>
        <time>2022-06-20T22:15:00.729Z</time>
      </trkpt>
      <trkpt lat="45.05052" lon="3.5344">
        <ele>571</ele>
        <time>2022-06-20T22:15:02.410Z</time>
      </trkpt>
      <trkpt lat="45.05086" lon="3.53467">
        <ele>566</ele>
        <time>2022-06-20T22:15:05.725Z</time>
      </trkpt>
      <trkpt lat="45.05133" lon="3.5349">
        <ele>565</ele>
        <time>2022-06-20T22:15:11.710Z</time>
      </trkpt>
      <trkpt lat="45.05161" lon="3.53498">
        <ele>564</ele>
        <time>2022-06-20T22:15:14.638Z</time>
      </trkpt>
      <trkpt lat="45.05167" lon="3.53498">
        <ele>564</ele>
        <time>2022-06-20T22:15:15.630Z</time>
      </trkpt>
      <trkpt lat="45.0524" lon="3.53473">
        <ele>563</ele>
        <time>2022-06-20T22:15:25.452Z</time>
      </trkpt>
      <trkpt lat="45.05354" lon="3.53476">
        <ele>564</ele>
        <time>2022-06-20T22:15:45.966Z</time>
      </trkpt>
      <trkpt lat="45.05377" lon="3.53484">
        <ele>566</ele>
        <time>2022-06-20T22:15:54.815Z</time>
      </trkpt>
      <trkpt lat="45.05387" lon="3.53496">
        <ele>567</ele>
        <time>2022-06-20T22:15:59.397Z</time>
      </trkpt>
      <trkpt lat="45.05424" lon="3.53576">
        <ele>570</ele>
        <time>2022-06-20T22:16:18.239Z</time>
      </trkpt>
      <trkpt lat="45.05428" lon="3.53603">
        <ele>571</ele>
        <time>2022-06-20T22:16:23.926Z</time>
      </trkpt>
      <trkpt lat="45.05419" lon="3.53645">
        <ele>567</ele>
        <time>2022-06-20T22:16:26.562Z</time>
      </trkpt>
      <trkpt lat="45.05409" lon="3.53677">
        <ele>565</ele>
        <time>2022-06-20T22:16:28.664Z</time>
      </trkpt>
      <trkpt lat="45.05407" lon="3.53733">
        <ele>565</ele>
        <time>2022-06-20T22:16:35.218Z</time>
      </trkpt>
      <trkpt lat="45.05397" lon="3.53806">
        <ele>565</ele>
        <time>2022-06-20T22:16:43.909Z</time>
      </trkpt>
      <trkpt lat="45.05388" lon="3.5385">
        <ele>565</ele>
        <time>2022-06-20T22:16:49.264Z</time>
      </trkpt>
      <trkpt lat="45.05389" lon="3.53922">
        <ele>563</ele>
        <time>2022-06-20T22:16:54.263Z</time>
      </trkpt>
      <trkpt lat="45.05402" lon="3.53981">
        <ele>561</ele>
        <time>2022-06-20T22:16:58.302Z</time>
      </trkpt>
      <trkpt lat="45.05418" lon="3.5403">
        <ele>559</ele>
        <time>2022-06-20T22:17:01.631Z</time>
      </trkpt>
      <trkpt lat="45.05421" lon="3.54127">
        <ele>557</ele>
        <time>2022-06-20T22:17:09.095Z</time>
      </trkpt>
      <trkpt lat="45.05434" lon="3.54186">
        <ele>559</ele>
        <time>2022-06-20T22:17:21.389Z</time>
      </trkpt>
      <trkpt lat="45.05459" lon="3.54253">
        <ele>559</ele>
        <time>2022-06-20T22:17:30.246Z</time>
      </trkpt>
      <trkpt lat="45.05499" lon="3.5429">
        <ele>556</ele>
        <time>2022-06-20T22:17:34.081Z</time>
      </trkpt>
      <trkpt lat="45.05526" lon="3.54298">
        <ele>556</ele>
        <time>2022-06-20T22:17:38.645Z</time>
      </trkpt>
      <trkpt lat="45.0557" lon="3.54301">
        <ele>556</ele>
        <time>2022-06-20T22:17:45.934Z</time>
      </trkpt>
      <trkpt lat="45.05655" lon="3.54317">
        <ele>559</ele>
        <time>2022-06-20T22:18:06.812Z</time>
      </trkpt>
      <trkpt lat="45.05672" lon="3.54336">
        <ele>558</ele>
        <time>2022-06-20T22:18:08.810Z</time>
      </trkpt>
      <trkpt lat="45.05747" lon="3.54513">
        <ele>557</ele>
        <time>2022-06-20T22:18:30.640Z</time>
      </trkpt>
      <trkpt lat="45.05757" lon="3.54553">
        <ele>555</ele>
        <time>2022-06-20T22:18:33.189Z</time>
      </trkpt>
      <trkpt lat="45.05759" lon="3.54604">
        <ele>552</ele>
        <time>2022-06-20T22:18:36.256Z</time>
      </trkpt>
      <trkpt lat="45.05769" lon="3.54632">
        <ele>553</ele>
        <time>2022-06-20T22:18:42.470Z</time>
      </trkpt>
      <trkpt lat="45.05833" lon="3.54699">
        <ele>556</ele>
        <time>2022-06-20T22:19:02.584Z</time>
      </trkpt>
      <trkpt lat="45.05857" lon="3.54718">
        <ele>555</ele>
        <time>2022-06-20T22:19:05.365Z</time>
      </trkpt>
      <trkpt lat="45.05876" lon="3.54726">
        <ele>555</ele>
        <time>2022-06-20T22:19:08.644Z</time>
      </trkpt>
      <trkpt lat="45.05942" lon="3.54744">
        <ele>553</ele>
        <time>2022-06-20T22:19:15.913Z</time>
      </trkpt>
      <trkpt lat="45.05997" lon="3.54754">
        <ele>554</ele>
        <time>2022-06-20T22:19:26.904Z</time>
      </trkpt>
      <trkpt lat="45.06083" lon="3.54762">
        <ele>549</ele>
        <time>2022-06-20T22:19:34.088Z</time>
      </trkpt>
      <trkpt lat="45.06175" lon="3.54742">
        <ele>544</ele>
        <time>2022-06-20T22:19:42.126Z</time>
      </trkpt>
      <trkpt lat="45.06243" lon="3.54686">
        <ele>546</ele>
        <time>2022-06-20T22:19:59.094Z</time>
      </trkpt>
      <trkpt lat="45.06284" lon="3.54659">
        <ele>547</ele>
        <time>2022-06-20T22:20:08.476Z</time>
      </trkpt>
      <trkpt lat="45.06326" lon="3.54649">
        <ele>548</ele>
        <time>2022-06-20T22:20:17.454Z</time>
      </trkpt>
      <trkpt lat="45.06379" lon="3.54657">
        <ele>547</ele>
        <time>2022-06-20T22:20:23.972Z</time>
      </trkpt>
      <trkpt lat="45.06423" lon="3.54647">
        <ele>550</ele>
        <time>2022-06-20T22:20:38.516Z</time>
      </trkpt>
      <trkpt lat="45.06471" lon="3.54642">
        <ele>553</ele>
        <time>2022-06-20T22:20:53.665Z</time>
      </trkpt>
      <trkpt lat="45.06492" lon="3.54647">
        <ele>551</ele>
        <time>2022-06-20T22:20:55.475Z</time>
      </trkpt>
      <trkpt lat="45.06499" lon="3.54656">
        <ele>548</ele>
        <time>2022-06-20T22:20:56.279Z</time>
      </trkpt>
      <trkpt lat="45.06505" lon="3.54675">
        <ele>543</ele>
        <time>2022-06-20T22:20:57.529Z</time>
      </trkpt>
      <trkpt lat="45.0651" lon="3.54706">
        <ele>541</ele>
        <time>2022-06-20T22:20:59.438Z</time>
      </trkpt>
      <trkpt lat="45.06513" lon="3.54726">
        <ele>540</ele>
        <time>2022-06-20T22:21:00.666Z</time>
      </trkpt>
      <trkpt lat="45.06517" lon="3.54741">
        <ele>538</ele>
        <time>2022-06-20T22:21:01.629Z</time>
      </trkpt>
      <trkpt lat="45.06537" lon="3.54765">
        <ele>541</ele>
        <time>2022-06-20T22:21:14.755Z</time>
      </trkpt>
      <trkpt lat="45.06553" lon="3.54775">
        <ele>542</ele>
        <time>2022-06-20T22:21:20.065Z</time>
      </trkpt>
      <trkpt lat="45.0658" lon="3.54772">
        <ele>540</ele>
        <time>2022-06-20T22:21:22.368Z</time>
      </trkpt>
      <trkpt lat="45.06603" lon="3.54765">
        <ele>538</ele>
        <time>2022-06-20T22:21:24.368Z</time>
      </trkpt>
      <trkpt lat="45.06682" lon="3.54723">
        <ele>536</ele>
        <time>2022-06-20T22:21:34.114Z</time>
      </trkpt>
      <trkpt lat="45.06715" lon="3.54717">
        <ele>536</ele>
        <time>2022-06-20T22:21:39.619Z</time>
      </trkpt>
      <trkpt lat="45.06727" lon="3.54712">
        <ele>536</ele>
        <time>2022-06-20T22:21:41.689Z</time>
      </trkpt>
      <trkpt lat="45.06745" lon="3.54694">
        <ele>536</ele>
        <time>2022-06-20T22:21:45.335Z</time>
      </trkpt>
      <trkpt lat="45.06753" lon="3.54692">
        <ele>536</ele>
        <time>2022-06-20T22:21:46.680Z</time>
      </trkpt>
      <trkpt lat="45.06761" lon="3.54694">
        <ele>535</ele>
        <time>2022-06-20T22:21:47.370Z</time>
      </trkpt>
      <trkpt lat="45.06765" lon="3.54699">
        <ele>535</ele>
        <time>2022-06-20T22:21:48.253Z</time>
      </trkpt>
      <trkpt lat="45.06784" lon="3.54668">
        <ele>535</ele>
        <time>2022-06-20T22:21:53.050Z</time>
      </trkpt>
      <trkpt lat="45.06811" lon="3.54612">
        <ele>535</ele>
        <time>2022-06-20T22:22:00.973Z</time>
      </trkpt>
      <trkpt lat="45.0682" lon="3.54589">
        <ele>536</ele>
        <time>2022-06-20T22:22:06.485Z</time>
      </trkpt>
      <trkpt lat="45.06828" lon="3.5456">
        <ele>537</ele>
        <time>2022-06-20T22:22:12.664Z</time>
      </trkpt>
      <trkpt lat="45.06833" lon="3.54562">
        <ele>537</ele>
        <time>2022-06-20T22:22:13.523Z</time>
      </trkpt>
      <trkpt lat="45.06844" lon="3.54574">
        <ele>536</ele>
        <time>2022-06-20T22:22:14.704Z</time>
      </trkpt>
      <trkpt lat="45.06854" lon="3.54591">
        <ele>534</ele>
        <time>2022-06-20T22:22:16.033Z</time>
      </trkpt>
      <trkpt lat="45.0686" lon="3.54614">
        <ele>532</ele>
        <time>2022-06-20T22:22:17.505Z</time>
      </trkpt>
      <trkpt lat="45.0686" lon="3.54626">
        <ele>531</ele>
        <time>2022-06-20T22:22:18.225Z</time>
      </trkpt>
      <trkpt lat="45.06841" lon="3.54669">
        <ele>530</ele>
        <time>2022-06-20T22:22:22.176Z</time>
      </trkpt>
      <trkpt lat="45.06827" lon="3.54692">
        <ele>529</ele>
        <time>2022-06-20T22:22:24.145Z</time>
      </trkpt>
      <trkpt lat="45.06807" lon="3.54718">
        <ele>529</ele>
        <time>2022-06-20T22:22:28.638Z</time>
      </trkpt>
      <trkpt lat="45.06804" lon="3.54728">
        <ele>528</ele>
        <time>2022-06-20T22:22:29.290Z</time>
      </trkpt>
      <trkpt lat="45.06804" lon="3.54736">
        <ele>527</ele>
        <time>2022-06-20T22:22:29.771Z</time>
      </trkpt>
      <trkpt lat="45.06807" lon="3.54742">
        <ele>526</ele>
        <time>2022-06-20T22:22:30.212Z</time>
      </trkpt>
      <trkpt lat="45.06857" lon="3.54832">
        <ele>516</ele>
        <time>2022-06-20T22:22:37.088Z</time>
      </trkpt>
      <trkpt lat="45.06861" lon="3.54842">
        <ele>518</ele>
        <time>2022-06-20T22:22:42.268Z</time>
      </trkpt>
      <trkpt lat="45.06864" lon="3.54855">
        <ele>520</ele>
        <time>2022-06-20T22:22:48.432Z</time>
      </trkpt>
      <trkpt lat="45.06862" lon="3.54867">
        <ele>523</ele>
        <time>2022-06-20T22:22:53.990Z</time>
      </trkpt>
      <trkpt lat="45.06858" lon="3.54879">
        <ele>525</ele>
        <time>2022-06-20T22:22:59.971Z</time>
      </trkpt>
      <trkpt lat="45.06842" lon="3.54905">
        <ele>528</ele>
        <time>2022-06-20T22:23:13.508Z</time>
      </trkpt>
      <trkpt lat="45.06807" lon="3.54941">
        <ele>532</ele>
        <time>2022-06-20T22:23:30.848Z</time>
      </trkpt>
      <trkpt lat="45.06747" lon="3.55013">
        <ele>537</ele>
        <time>2022-06-20T22:23:55.824Z</time>
      </trkpt>
      <trkpt lat="45.06736" lon="3.55029">
        <ele>538</ele>
        <time>2022-06-20T22:24:00.826Z</time>
      </trkpt>
      <trkpt lat="45.06728" lon="3.55046">
        <ele>539</ele>
        <time>2022-06-20T22:24:05.605Z</time>
      </trkpt>
      <trkpt lat="45.06715" lon="3.55092">
        <ele>542</ele>
        <time>2022-06-20T22:24:18.824Z</time>
      </trkpt>
      <trkpt lat="45.06707" lon="3.55138">
        <ele>542</ele>
        <time>2022-06-20T22:24:24.360Z</time>
      </trkpt>
      <trkpt lat="45.06705" lon="3.55165">
        <ele>542</ele>
        <time>2022-06-20T22:24:27.533Z</time>
      </trkpt>
      <trkpt lat="45.06708" lon="3.55201">
        <ele>542</ele>
        <time>2022-06-20T22:24:31.769Z</time>
      </trkpt>
      <trkpt lat="45.0672" lon="3.55259">
        <ele>543</ele>
        <time>2022-06-20T22:24:40.762Z</time>
      </trkpt>
      <trkpt lat="45.06728" lon="3.55272">
        <ele>544</ele>
        <time>2022-06-20T22:24:45.224Z</time>
      </trkpt>
      <trkpt lat="45.06724" lon="3.55282">
        <ele>543</ele>
        <time>2022-06-20T22:24:45.914Z</time>
      </trkpt>
      <trkpt lat="45.06723" lon="3.55395">
        <ele>546</ele>
        <time>2022-06-20T22:25:06.054Z</time>
      </trkpt>
      <trkpt lat="45.06721" lon="3.55426">
        <ele>547</ele>
        <time>2022-06-20T22:25:12.232Z</time>
      </trkpt>
      <trkpt lat="45.06719" lon="3.55448">
        <ele>547</ele>
        <time>2022-06-20T22:25:14.825Z</time>
      </trkpt>
      <trkpt lat="45.06712" lon="3.55486">
        <ele>548</ele>
        <time>2022-06-20T22:25:21.677Z</time>
      </trkpt>
      <trkpt lat="45.06708" lon="3.55499">
        <ele>547</ele>
        <time>2022-06-20T22:25:22.528Z</time>
      </trkpt>
      <trkpt lat="45.06699" lon="3.55521">
        <ele>549</ele>
        <time>2022-06-20T22:25:31.218Z</time>
      </trkpt>
      <trkpt lat="45.0667" lon="3.55569">
        <ele>551</ele>
        <time>2022-06-20T22:25:43.703Z</time>
      </trkpt>
      <trkpt lat="45.06589" lon="3.55697">
        <ele>544</ele>
        <time>2022-06-20T22:25:53.849Z</time>
      </trkpt>
      <trkpt lat="45.06573" lon="3.5574">
        <ele>543</ele>
        <time>2022-06-20T22:25:57.586Z</time>
      </trkpt>
      <trkpt lat="45.0656" lon="3.55783">
        <ele>541</ele>
        <time>2022-06-20T22:26:00.284Z</time>
      </trkpt>
      <trkpt lat="45.06557" lon="3.5581">
        <ele>541</ele>
        <time>2022-06-20T22:26:03.478Z</time>
      </trkpt>
      <trkpt lat="45.06553" lon="3.55911">
        <ele>541</ele>
        <time>2022-06-20T22:26:15.300Z</time>
      </trkpt>
      <trkpt lat="45.06553" lon="3.55939">
        <ele>541</ele>
        <time>2022-06-20T22:26:18.572Z</time>
      </trkpt>
      <trkpt lat="45.06556" lon="3.55964">
        <ele>542</ele>
        <time>2022-06-20T22:26:23.960Z</time>
      </trkpt>
      <trkpt lat="45.06571" lon="3.56016">
        <ele>549</ele>
        <time>2022-06-20T22:26:49.279Z</time>
      </trkpt>
      <trkpt lat="45.06572" lon="3.56024">
        <ele>550</ele>
        <time>2022-06-20T22:26:52.941Z</time>
      </trkpt>
      <trkpt lat="45.06572" lon="3.56041">
        <ele>550</ele>
        <time>2022-06-20T22:26:54.928Z</time>
      </trkpt>
      <trkpt lat="45.06559" lon="3.56144">
        <ele>551</ele>
        <time>2022-06-20T22:27:08.886Z</time>
      </trkpt>
      <trkpt lat="45.06555" lon="3.5617">
        <ele>552</ele>
        <time>2022-06-20T22:27:14.440Z</time>
      </trkpt>
      <trkpt lat="45.06551" lon="3.56185">
        <ele>552</ele>
        <time>2022-06-20T22:27:16.314Z</time>
      </trkpt>
      <trkpt lat="45.06546" lon="3.56198">
        <ele>552</ele>
        <time>2022-06-20T22:27:18.044Z</time>
      </trkpt>
      <trkpt lat="45.06524" lon="3.56229">
        <ele>545</ele>
        <time>2022-06-20T22:27:20.683Z</time>
      </trkpt>
      <trkpt lat="45.06518" lon="3.56241">
        <ele>543</ele>
        <time>2022-06-20T22:27:21.566Z</time>
      </trkpt>
      <trkpt lat="45.06476" lon="3.56376">
        <ele>546</ele>
        <time>2022-06-20T22:27:44.981Z</time>
      </trkpt>
      <trkpt lat="45.0645" lon="3.56446">
        <ele>545</ele>
        <time>2022-06-20T22:27:51.883Z</time>
      </trkpt>
      <trkpt lat="45.06429" lon="3.56496">
        <ele>543</ele>
        <time>2022-06-20T22:27:55.588Z</time>
      </trkpt>
      <trkpt lat="45.0642" lon="3.56511">
        <ele>541</ele>
        <time>2022-06-20T22:27:56.770Z</time>
      </trkpt>
      <trkpt lat="45.06402" lon="3.56537">
        <ele>541</ele>
        <time>2022-06-20T22:28:01.025Z</time>
      </trkpt>
      <trkpt lat="45.06373" lon="3.56589">
        <ele>541</ele>
        <time>2022-06-20T22:28:08.768Z</time>
      </trkpt>
      <trkpt lat="45.06357" lon="3.56609">
        <ele>538</ele>
        <time>2022-06-20T22:28:10.583Z</time>
      </trkpt>
      <trkpt lat="45.06333" lon="3.56649">
        <ele>535</ele>
        <time>2022-06-20T22:28:13.734Z</time>
      </trkpt>
      <trkpt lat="45.06318" lon="3.56677">
        <ele>535</ele>
        <time>2022-06-20T22:28:17.842Z</time>
      </trkpt>
      <trkpt lat="45.06314" lon="3.5669">
        <ele>536</ele>
        <time>2022-06-20T22:28:22.145Z</time>
      </trkpt>
      <trkpt lat="45.06312" lon="3.56735">
        <ele>538</ele>
        <time>2022-06-20T22:28:32.202Z</time>
      </trkpt>
      <trkpt lat="45.06309" lon="3.56748">
        <ele>539</ele>
        <time>2022-06-20T22:28:36.506Z</time>
      </trkpt>
      <trkpt lat="45.06306" lon="3.56755">
        <ele>539</ele>
        <time>2022-06-20T22:28:37.463Z</time>
      </trkpt>
      <trkpt lat="45.063" lon="3.5676">
        <ele>539</ele>
        <time>2022-06-20T22:28:38.615Z</time>
      </trkpt>
      <trkpt lat="45.06287" lon="3.56763">
        <ele>539</ele>
        <time>2022-06-20T22:28:40.794Z</time>
      </trkpt>
      <trkpt lat="45.06259" lon="3.56747">
        <ele>534</ele>
        <time>2022-06-20T22:28:43.362Z</time>
      </trkpt>
      <trkpt lat="45.06253" lon="3.56745">
        <ele>534</ele>
        <time>2022-06-20T22:28:44.382Z</time>
      </trkpt>
      <trkpt lat="45.06237" lon="3.56748">
        <ele>534</ele>
        <time>2022-06-20T22:28:47.052Z</time>
      </trkpt>
      <trkpt lat="45.06221" lon="3.56759">
        <ele>535</ele>
        <time>2022-06-20T22:28:52.417Z</time>
      </trkpt>
      <trkpt lat="45.06134" lon="3.56867">
        <ele>545</ele>
        <time>2022-06-20T22:29:36.387Z</time>
      </trkpt>
      <trkpt lat="45.06086" lon="3.56953">
        <ele>542</ele>
        <time>2022-06-20T22:29:44.036Z</time>
      </trkpt>
      <trkpt lat="45.06078" lon="3.5697">
        <ele>543</ele>
        <time>2022-06-20T22:29:48.815Z</time>
      </trkpt>
      <trkpt lat="45.06072" lon="3.56988">
        <ele>544</ele>
        <time>2022-06-20T22:29:53.536Z</time>
      </trkpt>
      <trkpt lat="45.06054" lon="3.57051">
        <ele>546</ele>
        <time>2022-06-20T22:30:06.380Z</time>
      </trkpt>
      <trkpt lat="45.06045" lon="3.57089">
        <ele>546</ele>
        <time>2022-06-20T22:30:11.065Z</time>
      </trkpt>
      <trkpt lat="45.06037" lon="3.5713">
        <ele>546</ele>
        <time>2022-06-20T22:30:16.036Z</time>
      </trkpt>
      <trkpt lat="45.06027" lon="3.57165">
        <ele>544</ele>
        <time>2022-06-20T22:30:18.303Z</time>
      </trkpt>
      <trkpt lat="45.05987" lon="3.57285">
        <ele>537</ele>
        <time>2022-06-20T22:30:26.272Z</time>
      </trkpt>
      <trkpt lat="45.0598" lon="3.57314">
        <ele>537</ele>
        <time>2022-06-20T22:30:29.854Z</time>
      </trkpt>
      <trkpt lat="45.05972" lon="3.57361">
        <ele>537</ele>
        <time>2022-06-20T22:30:35.504Z</time>
      </trkpt>
      <trkpt lat="45.05965" lon="3.57559">
        <ele>540</ele>
        <time>2022-06-20T22:31:04.332Z</time>
      </trkpt>
      <trkpt lat="45.0596" lon="3.57593">
        <ele>539</ele>
        <time>2022-06-20T22:31:06.709Z</time>
      </trkpt>
      <trkpt lat="45.05934" lon="3.57689">
        <ele>537</ele>
        <time>2022-06-20T22:31:14.751Z</time>
      </trkpt>
      <trkpt lat="45.05929" lon="3.57701">
        <ele>537</ele>
        <time>2022-06-20T22:31:16.379Z</time>
      </trkpt>
      <trkpt lat="45.05863" lon="3.5781">
        <ele>541</ele>
        <time>2022-06-20T22:31:42.650Z</time>
      </trkpt>
      <trkpt lat="45.05833" lon="3.57849">
        <ele>540</ele>
        <time>2022-06-20T22:31:47.310Z</time>
      </trkpt>
      <trkpt lat="45.05802" lon="3.57882">
        <ele>545</ele>
        <time>2022-06-20T22:32:10.545Z</time>
      </trkpt>
      <trkpt lat="45.05769" lon="3.57913">
        <ele>544</ele>
        <time>2022-06-20T22:32:15.041Z</time>
      </trkpt>
      <trkpt lat="45.05747" lon="3.57927">
        <ele>543</ele>
        <time>2022-06-20T22:32:17.364Z</time>
      </trkpt>
      <trkpt lat="45.05714" lon="3.57939">
        <ele>541</ele>
        <time>2022-06-20T22:32:20.188Z</time>
      </trkpt>
      <trkpt lat="45.05705" lon="3.57945">
        <ele>541</ele>
        <time>2022-06-20T22:32:21.834Z</time>
      </trkpt>
      <trkpt lat="45.05634" lon="3.58021">
        <ele>540</ele>
        <time>2022-06-20T22:32:33.790Z</time>
      </trkpt>
      <trkpt lat="45.05549" lon="3.58099">
        <ele>537</ele>
        <time>2022-06-20T22:32:44.761Z</time>
      </trkpt>
      <trkpt lat="45.05531" lon="3.58109">
        <ele>540</ele>
        <time>2022-06-20T22:32:57.102Z</time>
      </trkpt>
      <trkpt lat="45.05495" lon="3.58123">
        <ele>543</ele>
        <time>2022-06-20T22:33:10.585Z</time>
      </trkpt>
      <trkpt lat="45.0548" lon="3.58126">
        <ele>543</ele>
        <time>2022-06-20T22:33:13.092Z</time>
      </trkpt>
      <trkpt lat="45.05446" lon="3.58128">
        <ele>541</ele>
        <time>2022-06-20T22:33:15.911Z</time>
      </trkpt>
      <trkpt lat="45.05415" lon="3.58127">
        <ele>539</ele>
        <time>2022-06-20T22:33:18.366Z</time>
      </trkpt>
      <trkpt lat="45.05277" lon="3.581">
        <ele>534</ele>
        <time>2022-06-20T22:33:32.518Z</time>
      </trkpt>
      <trkpt lat="45.05249" lon="3.58098">
        <ele>534</ele>
        <time>2022-06-20T22:33:37.157Z</time>
      </trkpt>
      <trkpt lat="45.05191" lon="3.581">
        <ele>533</ele>
        <time>2022-06-20T22:33:44.383Z</time>
      </trkpt>
      <trkpt lat="45.05136" lon="3.58109">
        <ele>534</ele>
        <time>2022-06-20T22:33:55.360Z</time>
      </trkpt>
      <trkpt lat="45.05039" lon="3.58138">
        <ele>535</ele>
        <time>2022-06-20T22:34:13.434Z</time>
      </trkpt>
      <trkpt lat="45.05009" lon="3.58151">
        <ele>535</ele>
        <time>2022-06-20T22:34:18.625Z</time>
      </trkpt>
      <trkpt lat="45.04983" lon="3.58169">
        <ele>534</ele>
        <time>2022-06-20T22:34:21.605Z</time>
      </trkpt>
      <trkpt lat="45.04973" lon="3.58178">
        <ele>535</ele>
        <time>2022-06-20T22:34:26.030Z</time>
      </trkpt>
      <trkpt lat="45.049" lon="3.58265">
        <ele>539</ele>
        <time>2022-06-20T22:34:51.661Z</time>
      </trkpt>
      <trkpt lat="45.04878" lon="3.58296">
        <ele>539</ele>
        <time>2022-06-20T22:34:56.797Z</time>
      </trkpt>
      <trkpt lat="45.04872" lon="3.58308">
        <ele>539</ele>
        <time>2022-06-20T22:34:58.516Z</time>
      </trkpt>
      <trkpt lat="45.04868" lon="3.58321">
        <ele>539</ele>
        <time>2022-06-20T22:35:00.173Z</time>
      </trkpt>
      <trkpt lat="45.0486" lon="3.58354">
        <ele>540</ele>
        <time>2022-06-20T22:35:06.663Z</time>
      </trkpt>
      <trkpt lat="45.04854" lon="3.58365">
        <ele>539</ele>
        <time>2022-06-20T22:35:07.498Z</time>
      </trkpt>
      <trkpt lat="45.04848" lon="3.58362">
        <ele>536</ele>
        <time>2022-06-20T22:35:08.039Z</time>
      </trkpt>
      <trkpt lat="45.04773" lon="3.58315">
        <ele>532</ele>
        <time>2022-06-20T22:35:15.430Z</time>
      </trkpt>
      <trkpt lat="45.04749" lon="3.58301">
        <ele>535</ele>
        <time>2022-06-20T22:35:28.598Z</time>
      </trkpt>
      <trkpt lat="45.04742" lon="3.58299">
        <ele>537</ele>
        <time>2022-06-20T22:35:33.155Z</time>
      </trkpt>
      <trkpt lat="45.04736" lon="3.58301">
        <ele>538</ele>
        <time>2022-06-20T22:35:37.089Z</time>
      </trkpt>
      <trkpt lat="45.04728" lon="3.5831">
        <ele>538</ele>
        <time>2022-06-20T22:35:38.780Z</time>
      </trkpt>
      <trkpt lat="45.04718" lon="3.58343">
        <ele>537</ele>
        <time>2022-06-20T22:35:41.270Z</time>
      </trkpt>
      <trkpt lat="45.0471" lon="3.58387">
        <ele>536</ele>
        <time>2022-06-20T22:35:44.691Z</time>
      </trkpt>
      <trkpt lat="45.04703" lon="3.58397">
        <ele>536</ele>
        <time>2022-06-20T22:35:46.337Z</time>
      </trkpt>
      <trkpt lat="45.04701" lon="3.58399">
        <ele>536</ele>
        <time>2022-06-20T22:35:46.742Z</time>
      </trkpt>
      <trkpt lat="45.04682" lon="3.58408">
        <ele>537</ele>
        <time>2022-06-20T22:35:52.536Z</time>
      </trkpt>
      <trkpt lat="45.04666" lon="3.58418">
        <ele>538</ele>
        <time>2022-06-20T22:35:57.845Z</time>
      </trkpt>
      <trkpt lat="45.04662" lon="3.58425">
        <ele>539</ele>
        <time>2022-06-20T22:36:01.905Z</time>
      </trkpt>
      <trkpt lat="45.04654" lon="3.58454">
        <ele>539</ele>
        <time>2022-06-20T22:36:05.544Z</time>
      </trkpt>
      <trkpt lat="45.04625" lon="3.5852">
        <ele>544</ele>
        <time>2022-06-20T22:36:27.278Z</time>
      </trkpt>
      <trkpt lat="45.04613" lon="3.58555">
        <ele>544</ele>
        <time>2022-06-20T22:36:31.826Z</time>
      </trkpt>
      <trkpt lat="45.04603" lon="3.58626">
        <ele>543</ele>
        <time>2022-06-20T22:36:38.023Z</time>
      </trkpt>
      <trkpt lat="45.04603" lon="3.58702">
        <ele>542</ele>
        <time>2022-06-20T22:36:44.600Z</time>
      </trkpt>
      <trkpt lat="45.04599" lon="3.58754">
        <ele>542</ele>
        <time>2022-06-20T22:36:50.715Z</time>
      </trkpt>
      <trkpt lat="45.04596" lon="3.58773">
        <ele>541</ele>
        <time>2022-06-20T22:36:51.885Z</time>
      </trkpt>
      <trkpt lat="45.04577" lon="3.58849">
        <ele>540</ele>
        <time>2022-06-20T22:36:58.952Z</time>
      </trkpt>
      <trkpt lat="45.04559" lon="3.58901">
        <ele>544</ele>
        <time>2022-06-20T22:37:16.181Z</time>
      </trkpt>
      <trkpt lat="45.04546" lon="3.58933">
        <ele>545</ele>
        <time>2022-06-20T22:37:22.833Z</time>
      </trkpt>
      <trkpt lat="45.04484" lon="3.59038">
        <ele>541</ele>
        <time>2022-06-20T22:37:32.149Z</time>
      </trkpt>
      <trkpt lat="45.0447" lon="3.59053">
        <ele>542</ele>
        <time>2022-06-20T22:37:37.472Z</time>
      </trkpt>
      <trkpt lat="45.04458" lon="3.59063">
        <ele>542</ele>
        <time>2022-06-20T22:37:39.776Z</time>
      </trkpt>
      <trkpt lat="45.04428" lon="3.59084">
        <ele>542</ele>
        <time>2022-06-20T22:37:45.314Z</time>
      </trkpt>
      <trkpt lat="45.04417" lon="3.59088">
        <ele>543</ele>
        <time>2022-06-20T22:37:49.691Z</time>
      </trkpt>
      <trkpt lat="45.04386" lon="3.59098">
        <ele>543</ele>
        <time>2022-06-20T22:37:54.952Z</time>
      </trkpt>
      <trkpt lat="45.04368" lon="3.591">
        <ele>543</ele>
        <time>2022-06-20T22:37:57.939Z</time>
      </trkpt>
      <trkpt lat="45.04329" lon="3.59103">
        <ele>543</ele>
        <time>2022-06-20T22:38:04.402Z</time>
      </trkpt>
      <trkpt lat="45.04306" lon="3.591">
        <ele>541</ele>
        <time>2022-06-20T22:38:06.365Z</time>
      </trkpt>
      <trkpt lat="45.04283" lon="3.5909">
        <ele>540</ele>
        <time>2022-06-20T22:38:08.680Z</time>
      </trkpt>
      <trkpt lat="45.0424" lon="3.59065">
        <ele>541</ele>
        <time>2022-06-20T22:38:18.259Z</time>
      </trkpt>
      <trkpt lat="45.04209" lon="3.59042">
        <ele>541</ele>
        <time>2022-06-20T22:38:24.051Z</time>
      </trkpt>
      <trkpt lat="45.04189" lon="3.59021">
        <ele>539</ele>
        <time>2022-06-20T22:38:26.168Z</time>
      </trkpt>
      <trkpt lat="45.04169" lon="3.58994">
        <ele>537</ele>
        <time>2022-06-20T22:38:28.518Z</time>
      </trkpt>
      <trkpt lat="45.04141" lon="3.58941">
        <ele>543</ele>
        <time>2022-06-20T22:38:56.305Z</time>
      </trkpt>
      <trkpt lat="45.0413" lon="3.58915">
        <ele>544</ele>
        <time>2022-06-20T22:39:02.369Z</time>
      </trkpt>
      <trkpt lat="45.04114" lon="3.58854">
        <ele>552</ele>
        <time>2022-06-20T22:39:31.711Z</time>
      </trkpt>
      <trkpt lat="45.04104" lon="3.58838">
        <ele>550</ele>
        <time>2022-06-20T22:39:32.994Z</time>
      </trkpt>
      <trkpt lat="45.041" lon="3.58826">
        <ele>551</ele>
        <time>2022-06-20T22:39:37.309Z</time>
      </trkpt>
      <trkpt lat="45.04092" lon="3.58783">
        <ele>553</ele>
        <time>2022-06-20T22:39:47.292Z</time>
      </trkpt>
      <trkpt lat="45.04079" lon="3.5873">
        <ele>556</ele>
        <time>2022-06-20T22:40:01.081Z</time>
      </trkpt>
      <trkpt lat="45.04049" lon="3.58687">
        <ele>553</ele>
        <time>2022-06-20T22:40:04.711Z</time>
      </trkpt>
      <trkpt lat="45.04027" lon="3.58617">
        <ele>554</ele>
        <time>2022-06-20T22:40:15.493Z</time>
      </trkpt>
      <trkpt lat="45.04014" lon="3.58596">
        <ele>550</ele>
        <time>2022-06-20T22:40:17.170Z</time>
      </trkpt>
      <trkpt lat="45.04012" lon="3.58584">
        <ele>550</ele>
        <time>2022-06-20T22:40:18.611Z</time>
      </trkpt>
      <trkpt lat="45.04016" lon="3.5857">
        <ele>555</ele>
        <time>2022-06-20T22:40:25.422Z</time>
      </trkpt>
      <trkpt lat="45.04016" lon="3.58561">
        <ele>557</ele>
        <time>2022-06-20T22:40:29.480Z</time>
      </trkpt>
      <trkpt lat="45.04015" lon="3.58553">
        <ele>558</ele>
        <time>2022-06-20T22:40:33.144Z</time>
      </trkpt>
      <trkpt lat="45.04009" lon="3.5854">
        <ele>557</ele>
        <time>2022-06-20T22:40:34.077Z</time>
      </trkpt>
      <trkpt lat="45.03971" lon="3.58504">
        <ele>555</ele>
        <time>2022-06-20T22:40:38.388Z</time>
      </trkpt>
      <trkpt lat="45.03939" lon="3.58462">
        <ele>560</ele>
        <time>2022-06-20T22:41:00.273Z</time>
      </trkpt>
      <trkpt lat="45.03926" lon="3.5845">
        <ele>561</ele>
        <time>2022-06-20T22:41:05.232Z</time>
      </trkpt>
      <trkpt lat="45.03919" lon="3.58447">
        <ele>560</ele>
        <time>2022-06-20T22:41:05.854Z</time>
      </trkpt>
      <trkpt lat="45.03887" lon="3.58444">
        <ele>559</ele>
        <time>2022-06-20T22:41:09.271Z</time>
      </trkpt>
      <trkpt lat="45.03847" lon="3.58431">
        <ele>560</ele>
        <time>2022-06-20T22:41:18.012Z</time>
      </trkpt>
      <trkpt lat="45.03829" lon="3.58428">
        <ele>560</ele>
        <time>2022-06-20T22:41:21.011Z</time>
      </trkpt>
      <trkpt lat="45.03812" lon="3.5843">
        <ele>562</ele>
        <time>2022-06-20T22:41:29.834Z</time>
      </trkpt>
      <trkpt lat="45.03772" lon="3.58441">
        <ele>564</ele>
        <time>2022-06-20T22:41:41.552Z</time>
      </trkpt>
      <trkpt lat="45.03725" lon="3.58483">
        <ele>558</ele>
        <time>2022-06-20T22:41:46.278Z</time>
      </trkpt>
      <trkpt lat="45.03699" lon="3.5851">
        <ele>556</ele>
        <time>2022-06-20T22:41:48.882Z</time>
      </trkpt>
      <trkpt lat="45.03679" lon="3.58526">
        <ele>556</ele>
        <time>2022-06-20T22:41:52.683Z</time>
      </trkpt>
      <trkpt lat="45.0367" lon="3.58531">
        <ele>556</ele>
        <time>2022-06-20T22:41:54.283Z</time>
      </trkpt>
      <trkpt lat="45.03658" lon="3.58532">
        <ele>558</ele>
        <time>2022-06-20T22:42:01.955Z</time>
      </trkpt>
      <trkpt lat="45.03631" lon="3.58516">
        <ele>566</ele>
        <time>2022-06-20T22:42:20.636Z</time>
      </trkpt>
      <trkpt lat="45.03626" lon="3.58515">
        <ele>568</ele>
        <time>2022-06-20T22:42:23.859Z</time>
      </trkpt>
      <trkpt lat="45.0362" lon="3.58517">
        <ele>568</ele>
        <time>2022-06-20T22:42:24.879Z</time>
      </trkpt>
      <trkpt lat="45.03616" lon="3.58521">
        <ele>568</ele>
        <time>2022-06-20T22:42:25.689Z</time>
      </trkpt>
      <trkpt lat="45.03613" lon="3.58527">
        <ele>568</ele>
        <time>2022-06-20T22:42:26.549Z</time>
      </trkpt>
      <trkpt lat="45.0361" lon="3.58557">
        <ele>563</ele>
        <time>2022-06-20T22:42:28.369Z</time>
      </trkpt>
      <trkpt lat="45.03605" lon="3.58581">
        <ele>560</ele>
        <time>2022-06-20T22:42:29.873Z</time>
      </trkpt>
      <trkpt lat="45.03596" lon="3.58596">
        <ele>559</ele>
        <time>2022-06-20T22:42:31.055Z</time>
      </trkpt>
      <trkpt lat="45.03584" lon="3.58607">
        <ele>559</ele>
        <time>2022-06-20T22:42:33.420Z</time>
      </trkpt>
      <trkpt lat="45.03532" lon="3.58642">
        <ele>565</ele>
        <time>2022-06-20T22:42:59.254Z</time>
      </trkpt>
      <trkpt lat="45.0351" lon="3.5866">
        <ele>565</ele>
        <time>2022-06-20T22:43:03.459Z</time>
      </trkpt>
      <trkpt lat="45.03482" lon="3.58689">
        <ele>562</ele>
        <time>2022-06-20T22:43:06.409Z</time>
      </trkpt>
      <trkpt lat="45.03457" lon="3.58708">
        <ele>560</ele>
        <time>2022-06-20T22:43:08.822Z</time>
      </trkpt>
      <trkpt lat="45.03448" lon="3.58709">
        <ele>561</ele>
        <time>2022-06-20T22:43:13.161Z</time>
      </trkpt>
      <trkpt lat="45.03418" lon="3.58695">
        <ele>569</ele>
        <time>2022-06-20T22:43:33.322Z</time>
      </trkpt>
      <trkpt lat="45.03405" lon="3.58694">
        <ele>572</ele>
        <time>2022-06-20T22:43:41.631Z</time>
      </trkpt>
      <trkpt lat="45.03393" lon="3.58693">
        <ele>574</ele>
        <time>2022-06-20T22:43:49.303Z</time>
      </trkpt>
      <trkpt lat="45.03382" lon="3.58696">
        <ele>576</ele>
        <time>2022-06-20T22:43:56.452Z</time>
      </trkpt>
      <trkpt lat="45.03373" lon="3.58701">
        <ele>576</ele>
        <time>2022-06-20T22:43:58.052Z</time>
      </trkpt>
      <trkpt lat="45.03366" lon="3.58708">
        <ele>577</ele>
        <time>2022-06-20T22:44:02.455Z</time>
      </trkpt>
      <trkpt lat="45.03356" lon="3.58731">
        <ele>576</ele>
        <time>2022-06-20T22:44:04.122Z</time>
      </trkpt>
      <trkpt lat="45.03346" lon="3.58804">
        <ele>565</ele>
        <time>2022-06-20T22:44:08.590Z</time>
      </trkpt>
      <trkpt lat="45.03336" lon="3.58819">
        <ele>564</ele>
        <time>2022-06-20T22:44:09.829Z</time>
      </trkpt>
      <trkpt lat="45.03265" lon="3.58892">
        <ele>563</ele>
        <time>2022-06-20T22:44:21.593Z</time>
      </trkpt>
      <trkpt lat="45.03249" lon="3.58903">
        <ele>564</ele>
        <time>2022-06-20T22:44:26.958Z</time>
      </trkpt>
      <trkpt lat="45.03199" lon="3.5893">
        <ele>565</ele>
        <time>2022-06-20T22:44:37.641Z</time>
      </trkpt>
      <trkpt lat="45.03174" lon="3.58957">
        <ele>561</ele>
        <time>2022-06-20T22:44:40.315Z</time>
      </trkpt>
      <trkpt lat="45.03161" lon="3.58963">
        <ele>560</ele>
        <time>2022-06-20T22:44:41.478Z</time>
      </trkpt>
      <trkpt lat="45.03098" lon="3.58978">
        <ele>558</ele>
        <time>2022-06-20T22:44:48.276Z</time>
      </trkpt>
      <trkpt lat="45.03037" lon="3.58983">
        <ele>556</ele>
        <time>2022-06-20T22:44:54.683Z</time>
      </trkpt>
      <trkpt lat="45.0298" lon="3.58994">
        <ele>552</ele>
        <time>2022-06-20T22:44:59.574Z</time>
      </trkpt>
      <trkpt lat="45.02973" lon="3.59002">
        <ele>551</ele>
        <time>2022-06-20T22:45:00.339Z</time>
      </trkpt>
      <trkpt lat="45.02963" lon="3.59037">
        <ele>548</ele>
        <time>2022-06-20T22:45:02.607Z</time>
      </trkpt>
      <trkpt lat="45.0296" lon="3.59044">
        <ele>547</ele>
        <time>2022-06-20T22:45:03.099Z</time>
      </trkpt>
      <trkpt lat="45.02955" lon="3.59048">
        <ele>547</ele>
        <time>2022-06-20T22:45:04.050Z</time>
      </trkpt>
      <trkpt lat="45.02912" lon="3.59056">
        <ele>547</ele>
        <time>2022-06-20T22:45:11.226Z</time>
      </trkpt>
      <trkpt lat="45.02884" lon="3.59072">
        <ele>547</ele>
        <time>2022-06-20T22:45:16.222Z</time>
      </trkpt>
      <trkpt lat="45.0284" lon="3.59103">
        <ele>547</ele>
        <time>2022-06-20T22:45:24.355Z</time>
      </trkpt>
      <trkpt lat="45.02816" lon="3.59103">
        <ele>548</ele>
        <time>2022-06-20T22:45:30.777Z</time>
      </trkpt>
      <trkpt lat="45.0279" lon="3.59098">
        <ele>548</ele>
        <time>2022-06-20T22:45:35.119Z</time>
      </trkpt>
      <trkpt lat="45.02774" lon="3.59097">
        <ele>548</ele>
        <time>2022-06-20T22:45:37.769Z</time>
      </trkpt>
      <trkpt lat="45.02767" lon="3.59102">
        <ele>548</ele>
        <time>2022-06-20T22:45:39.066Z</time>
      </trkpt>
      <trkpt lat="45.02766" lon="3.59107">
        <ele>548</ele>
        <time>2022-06-20T22:45:39.674Z</time>
      </trkpt>
      <trkpt lat="45.02766" lon="3.59116">
        <ele>548</ele>
        <time>2022-06-20T22:45:40.726Z</time>
      </trkpt>
      <trkpt lat="45.02761" lon="3.59238">
        <ele>548</ele>
        <time>2022-06-20T22:45:55.017Z</time>
      </trkpt>
      <trkpt lat="45.02771" lon="3.59294">
        <ele>547</ele>
        <time>2022-06-20T22:45:59.690Z</time>
      </trkpt>
      <trkpt lat="45.02775" lon="3.59307">
        <ele>547</ele>
        <time>2022-06-20T22:46:01.348Z</time>
      </trkpt>
      <trkpt lat="45.02782" lon="3.59321">
        <ele>547</ele>
        <time>2022-06-20T22:46:03.354Z</time>
      </trkpt>
      <trkpt lat="45.02782" lon="3.59326">
        <ele>547</ele>
        <time>2022-06-20T22:46:03.939Z</time>
      </trkpt>
      <trkpt lat="45.02781" lon="3.59363">
        <ele>546</ele>
        <time>2022-06-20T22:46:06.537Z</time>
      </trkpt>
      <trkpt lat="45.02779" lon="3.59388">
        <ele>546</ele>
        <time>2022-06-20T22:46:09.480Z</time>
      </trkpt>
      <trkpt lat="45.02784" lon="3.59394">
        <ele>546</ele>
        <time>2022-06-20T22:46:10.564Z</time>
      </trkpt>
      <trkpt lat="45.02819" lon="3.59412">
        <ele>545</ele>
        <time>2022-06-20T22:46:14.719Z</time>
      </trkpt>
      <trkpt lat="45.0287" lon="3.5945">
        <ele>544</ele>
        <time>2022-06-20T22:46:21.888Z</time>
      </trkpt>
      <trkpt lat="45.02891" lon="3.59469">
        <ele>545</ele>
        <time>2022-06-20T22:46:28.408Z</time>
      </trkpt>
      <trkpt lat="45.029" lon="3.59471">
        <ele>545</ele>
        <time>2022-06-20T22:46:29.916Z</time>
      </trkpt>
      <trkpt lat="45.02945" lon="3.59466">
        <ele>550</ele>
        <time>2022-06-20T22:46:51.615Z</time>
      </trkpt>
      <trkpt lat="45.02952" lon="3.59463">
        <ele>550</ele>
        <time>2022-06-20T22:46:52.825Z</time>
      </trkpt>
      <trkpt lat="45.02955" lon="3.5946">
        <ele>551</ele>
        <time>2022-06-20T22:46:55.170Z</time>
      </trkpt>
      <trkpt lat="45.02956" lon="3.59454">
        <ele>550</ele>
        <time>2022-06-20T22:46:55.540Z</time>
      </trkpt>
      <trkpt lat="45.02954" lon="3.59424">
        <ele>547</ele>
        <time>2022-06-20T22:46:57.351Z</time>
      </trkpt>
      <trkpt lat="45.02958" lon="3.59394">
        <ele>546</ele>
        <time>2022-06-20T22:46:59.337Z</time>
      </trkpt>
      <trkpt lat="45.02967" lon="3.59363">
        <ele>546</ele>
        <time>2022-06-20T22:47:03.257Z</time>
      </trkpt>
      <trkpt lat="45.02972" lon="3.59354">
        <ele>546</ele>
        <time>2022-06-20T22:47:04.595Z</time>
      </trkpt>
      <trkpt lat="45.02992" lon="3.59335">
        <ele>546</ele>
        <time>2022-06-20T22:47:08.581Z</time>
      </trkpt>
      <trkpt lat="45.03065" lon="3.59287">
        <ele>556</ele>
        <time>2022-06-20T22:47:53.922Z</time>
      </trkpt>
      <trkpt lat="45.03085" lon="3.59281">
        <ele>558</ele>
        <time>2022-06-20T22:48:02.536Z</time>
      </trkpt>
      <trkpt lat="45.03107" lon="3.59281">
        <ele>558</ele>
        <time>2022-06-20T22:48:06.177Z</time>
      </trkpt>
      <trkpt lat="45.03141" lon="3.59287">
        <ele>561</ele>
        <time>2022-06-20T22:48:19.325Z</time>
      </trkpt>
      <trkpt lat="45.03227" lon="3.59314">
        <ele>570</ele>
        <time>2022-06-20T22:48:58.047Z</time>
      </trkpt>
      <trkpt lat="45.03264" lon="3.59318">
        <ele>572</ele>
        <time>2022-06-20T22:49:09.064Z</time>
      </trkpt>
      <trkpt lat="45.0329" lon="3.59314">
        <ele>574</ele>
        <time>2022-06-20T22:49:18.218Z</time>
      </trkpt>
      <trkpt lat="45.0332" lon="3.59317">
        <ele>578</ele>
        <time>2022-06-20T22:49:37.293Z</time>
      </trkpt>
      <trkpt lat="45.03328" lon="3.59316">
        <ele>579</ele>
        <time>2022-06-20T22:49:41.833Z</time>
      </trkpt>
      <trkpt lat="45.03369" lon="3.59295">
        <ele>583</ele>
        <time>2022-06-20T22:49:59.197Z</time>
      </trkpt>
      <trkpt lat="45.03401" lon="3.59269">
        <ele>583</ele>
        <time>2022-06-20T22:50:05.302Z</time>
      </trkpt>
      <trkpt lat="45.03425" lon="3.59243">
        <ele>581</ele>
        <time>2022-06-20T22:50:07.666Z</time>
      </trkpt>
      <trkpt lat="45.03438" lon="3.59227">
        <ele>582</ele>
        <time>2022-06-20T22:50:12.927Z</time>
      </trkpt>
      <trkpt lat="45.0348" lon="3.59165">
        <ele>582</ele>
        <time>2022-06-20T22:50:22.970Z</time>
      </trkpt>
      <trkpt lat="45.03485" lon="3.59153">
        <ele>582</ele>
        <time>2022-06-20T22:50:24.599Z</time>
      </trkpt>
      <trkpt lat="45.03496" lon="3.5911">
        <ele>580</ele>
        <time>2022-06-20T22:50:27.210Z</time>
      </trkpt>
      <trkpt lat="45.0352" lon="3.59046">
        <ele>579</ele>
        <time>2022-06-20T22:50:33.415Z</time>
      </trkpt>
      <trkpt lat="45.03537" lon="3.59003">
        <ele>578</ele>
        <time>2022-06-20T22:50:37.222Z</time>
      </trkpt>
      <trkpt lat="45.03543" lon="3.58997">
        <ele>579</ele>
        <time>2022-06-20T22:50:41.911Z</time>
      </trkpt>
      <trkpt lat="45.03549" lon="3.58993">
        <ele>580</ele>
        <time>2022-06-20T22:50:46.144Z</time>
      </trkpt>
      <trkpt lat="45.03561" lon="3.58994">
        <ele>582</ele>
        <time>2022-06-20T22:50:53.815Z</time>
      </trkpt>
      <trkpt lat="45.03566" lon="3.58999">
        <ele>584</ele>
        <time>2022-06-20T22:50:57.723Z</time>
      </trkpt>
      <trkpt lat="45.0357" lon="3.59005">
        <ele>585</ele>
        <time>2022-06-20T22:51:01.443Z</time>
      </trkpt>
      <trkpt lat="45.03573" lon="3.59021">
        <ele>588</ele>
        <time>2022-06-20T22:51:08.909Z</time>
      </trkpt>
      <trkpt lat="45.03572" lon="3.59029">
        <ele>589</ele>
        <time>2022-06-20T22:51:12.573Z</time>
      </trkpt>
      <trkpt lat="45.03568" lon="3.59043">
        <ele>591</ele>
        <time>2022-06-20T22:51:19.383Z</time>
      </trkpt>
      <trkpt lat="45.03546" lon="3.59077">
        <ele>589</ele>
        <time>2022-06-20T22:51:22.026Z</time>
      </trkpt>
      <trkpt lat="45.03537" lon="3.59096">
        <ele>590</ele>
        <time>2022-06-20T22:51:27.097Z</time>
      </trkpt>
      <trkpt lat="45.03528" lon="3.59149">
        <ele>596</ele>
        <time>2022-06-20T22:51:51.680Z</time>
      </trkpt>
      <trkpt lat="45.03522" lon="3.5917">
        <ele>598</ele>
        <time>2022-06-20T22:52:00.780Z</time>
      </trkpt>
      <trkpt lat="45.03438" lon="3.59323">
        <ele>617</ele>
        <time>2022-06-20T22:53:28.161Z</time>
      </trkpt>
      <trkpt lat="45.03424" lon="3.59344">
        <ele>619</ele>
        <time>2022-06-20T22:53:36.774Z</time>
      </trkpt>
      <trkpt lat="45.03402" lon="3.59367">
        <ele>620</ele>
        <time>2022-06-20T22:53:43.579Z</time>
      </trkpt>
      <trkpt lat="45.03372" lon="3.59394">
        <ele>622</ele>
        <time>2022-06-20T22:53:54.305Z</time>
      </trkpt>
      <trkpt lat="45.03316" lon="3.59453">
        <ele>630</ele>
        <time>2022-06-20T22:54:29.322Z</time>
      </trkpt>
      <trkpt lat="45.03304" lon="3.59459">
        <ele>631</ele>
        <time>2022-06-20T22:54:33.853Z</time>
      </trkpt>
      <trkpt lat="45.03263" lon="3.59474">
        <ele>633</ele>
        <time>2022-06-20T22:54:45.886Z</time>
      </trkpt>
      <trkpt lat="45.03247" lon="3.59475">
        <ele>633</ele>
        <time>2022-06-20T22:54:48.536Z</time>
      </trkpt>
      <trkpt lat="45.03183" lon="3.5947">
        <ele>634</ele>
        <time>2022-06-20T22:55:00.910Z</time>
      </trkpt>
      <trkpt lat="45.03153" lon="3.59477">
        <ele>635</ele>
        <time>2022-06-20T22:55:08.110Z</time>
      </trkpt>
      <trkpt lat="45.03129" lon="3.59487">
        <ele>634</ele>
        <time>2022-06-20T22:55:10.553Z</time>
      </trkpt>
      <trkpt lat="45.03117" lon="3.59502">
        <ele>634</ele>
        <time>2022-06-20T22:55:13.202Z</time>
      </trkpt>
      <trkpt lat="45.03113" lon="3.59512">
        <ele>633</ele>
        <time>2022-06-20T22:55:13.893Z</time>
      </trkpt>
      <trkpt lat="45.0311" lon="3.59532">
        <ele>632</ele>
        <time>2022-06-20T22:55:15.121Z</time>
      </trkpt>
      <trkpt lat="45.03111" lon="3.59545">
        <ele>632</ele>
        <time>2022-06-20T22:55:16.650Z</time>
      </trkpt>
      <trkpt lat="45.03115" lon="3.59557">
        <ele>633</ele>
        <time>2022-06-20T22:55:20.964Z</time>
      </trkpt>
      <trkpt lat="45.03121" lon="3.59567">
        <ele>634</ele>
        <time>2022-06-20T22:55:25.285Z</time>
      </trkpt>
      <trkpt lat="45.03138" lon="3.59578">
        <ele>638</ele>
        <time>2022-06-20T22:55:37.215Z</time>
      </trkpt>
      <trkpt lat="45.03148" lon="3.59578">
        <ele>641</ele>
        <time>2022-06-20T22:55:43.597Z</time>
      </trkpt>
      <trkpt lat="45.0323" lon="3.59557">
        <ele>648</ele>
        <time>2022-06-20T22:56:14.617Z</time>
      </trkpt>
      <trkpt lat="45.03238" lon="3.59559">
        <ele>649</ele>
        <time>2022-06-20T22:56:19.128Z</time>
      </trkpt>
      <trkpt lat="45.03284" lon="3.5958">
        <ele>657</ele>
        <time>2022-06-20T22:56:49.975Z</time>
      </trkpt>
      <trkpt lat="45.03297" lon="3.59582">
        <ele>659</ele>
        <time>2022-06-20T22:56:58.321Z</time>
      </trkpt>
      <trkpt lat="45.03306" lon="3.59581">
        <ele>660</ele>
        <time>2022-06-20T22:57:02.661Z</time>
      </trkpt>
      <trkpt lat="45.03318" lon="3.59577">
        <ele>661</ele>
        <time>2022-06-20T22:57:07.141Z</time>
      </trkpt>
      <trkpt lat="45.03341" lon="3.59564">
        <ele>661</ele>
        <time>2022-06-20T22:57:11.239Z</time>
      </trkpt>
      <trkpt lat="45.03362" lon="3.59548">
        <ele>662</ele>
        <time>2022-06-20T22:57:17.646Z</time>
      </trkpt>
      <trkpt lat="45.03407" lon="3.59523">
        <ele>666</ele>
        <time>2022-06-20T22:57:35.452Z</time>
      </trkpt>
      <trkpt lat="45.03434" lon="3.59504">
        <ele>670</ele>
        <time>2022-06-20T22:57:54.482Z</time>
      </trkpt>
      <trkpt lat="45.03454" lon="3.59485">
        <ele>670</ele>
        <time>2022-06-20T22:57:58.467Z</time>
      </trkpt>
      <trkpt lat="45.03479" lon="3.59452">
        <ele>670</ele>
        <time>2022-06-20T22:58:04.124Z</time>
      </trkpt>
      <trkpt lat="45.03503" lon="3.59431">
        <ele>672</ele>
        <time>2022-06-20T22:58:13.582Z</time>
      </trkpt>
      <trkpt lat="45.03527" lon="3.59414">
        <ele>670</ele>
        <time>2022-06-20T22:58:15.864Z</time>
      </trkpt>
      <trkpt lat="45.03548" lon="3.59403">
        <ele>669</ele>
        <time>2022-06-20T22:58:17.957Z</time>
      </trkpt>
      <trkpt lat="45.03554" lon="3.59404">
        <ele>669</ele>
        <time>2022-06-20T22:58:18.957Z</time>
      </trkpt>
      <trkpt lat="45.03559" lon="3.59407">
        <ele>670</ele>
        <time>2022-06-20T22:58:22.423Z</time>
      </trkpt>
      <trkpt lat="45.03564" lon="3.59412">
        <ele>672</ele>
        <time>2022-06-20T22:58:26.330Z</time>
      </trkpt>
      <trkpt lat="45.03571" lon="3.59435">
        <ele>675</ele>
        <time>2022-06-20T22:58:37.624Z</time>
      </trkpt>
      <trkpt lat="45.03574" lon="3.59479">
        <ele>681</ele>
        <time>2022-06-20T22:58:57.560Z</time>
      </trkpt>
      <trkpt lat="45.03575" lon="3.59565">
        <ele>687</ele>
        <time>2022-06-20T22:59:23.390Z</time>
      </trkpt>
      <trkpt lat="45.03581" lon="3.59591">
        <ele>688</ele>
        <time>2022-06-20T22:59:29.046Z</time>
      </trkpt>
      <trkpt lat="45.03585" lon="3.596">
        <ele>689</ele>
        <time>2022-06-20T22:59:33.818Z</time>
      </trkpt>
      <trkpt lat="45.03595" lon="3.59617">
        <ele>690</ele>
        <time>2022-06-20T22:59:38.796Z</time>
      </trkpt>
      <trkpt lat="45.03602" lon="3.59624">
        <ele>690</ele>
        <time>2022-06-20T22:59:40.214Z</time>
      </trkpt>
      <trkpt lat="45.03656" lon="3.59641">
        <ele>694</ele>
        <time>2022-06-20T22:59:58.959Z</time>
      </trkpt>
      <trkpt lat="45.03675" lon="3.59656">
        <ele>696</ele>
        <time>2022-06-20T23:00:07.638Z</time>
      </trkpt>
      <trkpt lat="45.03684" lon="3.59665">
        <ele>697</ele>
        <time>2022-06-20T23:00:11.987Z</time>
      </trkpt>
      <trkpt lat="45.03734" lon="3.59733">
        <ele>701</ele>
        <time>2022-06-20T23:00:33.114Z</time>
      </trkpt>
      <trkpt lat="45.03749" lon="3.59765">
        <ele>704</ele>
        <time>2022-06-20T23:00:46.128Z</time>
      </trkpt>
      <trkpt lat="45.03757" lon="3.59796">
        <ele>706</ele>
        <time>2022-06-20T23:00:54.940Z</time>
      </trkpt>
      <trkpt lat="45.03759" lon="3.5981">
        <ele>707</ele>
        <time>2022-06-20T23:00:59.244Z</time>
      </trkpt>
      <trkpt lat="45.03758" lon="3.59828">
        <ele>708</ele>
        <time>2022-06-20T23:01:03.779Z</time>
      </trkpt>
      <trkpt lat="45.03748" lon="3.59905">
        <ele>712</ele>
        <time>2022-06-20T23:01:22.524Z</time>
      </trkpt>
      <trkpt lat="45.03741" lon="3.5993">
        <ele>713</ele>
        <time>2022-06-20T23:01:28.118Z</time>
      </trkpt>
      <trkpt lat="45.03711" lon="3.59983">
        <ele>715</ele>
        <time>2022-06-20T23:01:40.961Z</time>
      </trkpt>
      <trkpt lat="45.03706" lon="3.59997">
        <ele>716</ele>
        <time>2022-06-20T23:01:45.315Z</time>
      </trkpt>
      <trkpt lat="45.03702" lon="3.60014">
        <ele>717</ele>
        <time>2022-06-20T23:01:49.837Z</time>
      </trkpt>
      <trkpt lat="45.03696" lon="3.60055">
        <ele>720</ele>
        <time>2022-06-20T23:02:02.743Z</time>
      </trkpt>
      <trkpt lat="45.03693" lon="3.60125">
        <ele>724</ele>
        <time>2022-06-20T23:02:20.693Z</time>
      </trkpt>
      <trkpt lat="45.03694" lon="3.60175">
        <ele>727</ele>
        <time>2022-06-20T23:02:33.948Z</time>
      </trkpt>
      <trkpt lat="45.03696" lon="3.60212">
        <ele>730</ele>
        <time>2022-06-20T23:02:47.074Z</time>
      </trkpt>
      <trkpt lat="45.03712" lon="3.6037">
        <ele>738</ele>
        <time>2022-06-20T23:03:24.892Z</time>
      </trkpt>
      <trkpt lat="45.03715" lon="3.60428">
        <ele>741</ele>
        <time>2022-06-20T23:03:38.891Z</time>
      </trkpt>
      <trkpt lat="45.03715" lon="3.60454">
        <ele>742</ele>
        <time>2022-06-20T23:03:44.366Z</time>
      </trkpt>
      <trkpt lat="45.03713" lon="3.60477">
        <ele>743</ele>
        <time>2022-06-20T23:03:49.474Z</time>
      </trkpt>
      <trkpt lat="45.03684" lon="3.60691">
        <ele>756</ele>
        <time>2022-06-20T23:04:46.999Z</time>
      </trkpt>
      <trkpt lat="45.03675" lon="3.60733">
        <ele>757</ele>
        <time>2022-06-20T23:04:54.281Z</time>
      </trkpt>
      <trkpt lat="45.0365" lon="3.60828">
        <ele>761</ele>
        <time>2022-06-20T23:05:15.831Z</time>
      </trkpt>
      <trkpt lat="45.03646" lon="3.60855">
        <ele>762</ele>
        <time>2022-06-20T23:05:21.519Z</time>
      </trkpt>
      <trkpt lat="45.03645" lon="3.60878">
        <ele>761</ele>
        <time>2022-06-20T23:05:22.840Z</time>
      </trkpt>
      <trkpt lat="45.03656" lon="3.61151">
        <ele>774</ele>
        <time>2022-06-20T23:06:25.882Z</time>
      </trkpt>
      <trkpt lat="45.03652" lon="3.61214">
        <ele>780</ele>
        <time>2022-06-20T23:06:54.409Z</time>
      </trkpt>
      <trkpt lat="45.03647" lon="3.61233">
        <ele>781</ele>
        <time>2022-06-20T23:06:59.172Z</time>
      </trkpt>
      <trkpt lat="45.03642" lon="3.61247">
        <ele>782</ele>
        <time>2022-06-20T23:07:03.526Z</time>
      </trkpt>
      <trkpt lat="45.0363" lon="3.61265">
        <ele>783</ele>
        <time>2022-06-20T23:07:08.835Z</time>
      </trkpt>
      <trkpt lat="45.03617" lon="3.61277">
        <ele>783</ele>
        <time>2022-06-20T23:07:11.404Z</time>
      </trkpt>
      <trkpt lat="45.036" lon="3.613">
        <ele>785</ele>
        <time>2022-06-20T23:07:20.236Z</time>
      </trkpt>
      <trkpt lat="45.03585" lon="3.61338">
        <ele>788</ele>
        <time>2022-06-20T23:07:33.160Z</time>
      </trkpt>
      <trkpt lat="45.03577" lon="3.61375">
        <ele>788</ele>
        <time>2022-06-20T23:07:37.684Z</time>
      </trkpt>
      <trkpt lat="45.03577" lon="3.61389">
        <ele>789</ele>
        <time>2022-06-20T23:07:41.986Z</time>
      </trkpt>
      <trkpt lat="45.03579" lon="3.61397">
        <ele>789</ele>
        <time>2022-06-20T23:07:42.978Z</time>
      </trkpt>
      <trkpt lat="45.03585" lon="3.61407">
        <ele>791</ele>
        <time>2022-06-20T23:07:48.895Z</time>
      </trkpt>
      <trkpt lat="45.03595" lon="3.61417">
        <ele>793</ele>
        <time>2022-06-20T23:07:56.709Z</time>
      </trkpt>
      <trkpt lat="45.036" lon="3.61428">
        <ele>795</ele>
        <time>2022-06-20T23:08:02.608Z</time>
      </trkpt>
      <trkpt lat="45.03603" lon="3.61438">
        <ele>796</ele>
        <time>2022-06-20T23:08:07.293Z</time>
      </trkpt>
      <trkpt lat="45.03602" lon="3.61448">
        <ele>797</ele>
        <time>2022-06-20T23:08:11.848Z</time>
      </trkpt>
      <trkpt lat="45.03598" lon="3.61455">
        <ele>797</ele>
        <time>2022-06-20T23:08:12.900Z</time>
      </trkpt>
      <trkpt lat="45.03593" lon="3.61462">
        <ele>797</ele>
        <time>2022-06-20T23:08:14.064Z</time>
      </trkpt>
      <trkpt lat="45.03567" lon="3.61487">
        <ele>794</ele>
        <time>2022-06-20T23:08:16.736Z</time>
      </trkpt>
      <trkpt lat="45.03559" lon="3.61497">
        <ele>793</ele>
        <time>2022-06-20T23:08:17.644Z</time>
      </trkpt>
      <trkpt lat="45.03555" lon="3.61505">
        <ele>793</ele>
        <time>2022-06-20T23:08:18.790Z</time>
      </trkpt>
      <trkpt lat="45.03549" lon="3.61543">
        <ele>797</ele>
        <time>2022-06-20T23:08:36.350Z</time>
      </trkpt>
      <trkpt lat="45.03545" lon="3.6156">
        <ele>799</ele>
        <time>2022-06-20T23:08:44.431Z</time>
      </trkpt>
      <trkpt lat="45.0353" lon="3.61604">
        <ele>800</ele>
        <time>2022-06-20T23:08:52.206Z</time>
      </trkpt>
      <trkpt lat="45.03521" lon="3.6164">
        <ele>802</ele>
        <time>2022-06-20T23:09:01.479Z</time>
      </trkpt>
      <trkpt lat="45.03501" lon="3.61693">
        <ele>801</ele>
        <time>2022-06-20T23:09:06.391Z</time>
      </trkpt>
      <trkpt lat="45.03498" lon="3.6171">
        <ele>801</ele>
        <time>2022-06-20T23:09:08.440Z</time>
      </trkpt>
      <trkpt lat="45.03492" lon="3.61754">
        <ele>803</ele>
        <time>2022-06-20T23:09:18.466Z</time>
      </trkpt>
      <trkpt lat="45.03482" lon="3.61784">
        <ele>800</ele>
        <time>2022-06-20T23:09:20.459Z</time>
      </trkpt>
      <trkpt lat="45.03481" lon="3.61792">
        <ele>800</ele>
        <time>2022-06-20T23:09:21.409Z</time>
      </trkpt>
      <trkpt lat="45.03481" lon="3.61799">
        <ele>801</ele>
        <time>2022-06-20T23:09:24.566Z</time>
      </trkpt>
      <trkpt lat="45.03484" lon="3.6181">
        <ele>801</ele>
        <time>2022-06-20T23:09:25.945Z</time>
      </trkpt>
      <trkpt lat="45.03512" lon="3.61844">
        <ele>809</ele>
        <time>2022-06-20T23:09:49.492Z</time>
      </trkpt>
      <trkpt lat="45.03519" lon="3.61856">
        <ele>813</ele>
        <time>2022-06-20T23:09:56.509Z</time>
      </trkpt>
      <trkpt lat="45.03525" lon="3.61869">
        <ele>815</ele>
        <time>2022-06-20T23:10:03.512Z</time>
      </trkpt>
      <trkpt lat="45.03528" lon="3.61881">
        <ele>817</ele>
        <time>2022-06-20T23:10:09.253Z</time>
      </trkpt>
      <trkpt lat="45.0353" lon="3.61903">
        <ele>818</ele>
        <time>2022-06-20T23:10:14.239Z</time>
      </trkpt>
      <trkpt lat="45.03528" lon="3.61914">
        <ele>817</ele>
        <time>2022-06-20T23:10:14.921Z</time>
      </trkpt>
      <trkpt lat="45.03525" lon="3.61921">
        <ele>818</ele>
        <time>2022-06-20T23:10:18.613Z</time>
      </trkpt>
      <trkpt lat="45.03521" lon="3.61924">
        <ele>818</ele>
        <time>2022-06-20T23:10:19.362Z</time>
      </trkpt>
      <trkpt lat="45.03516" lon="3.61926">
        <ele>817</ele>
        <time>2022-06-20T23:10:19.804Z</time>
      </trkpt>
      <trkpt lat="45.03503" lon="3.61923">
        <ele>812</ele>
        <time>2022-06-20T23:10:20.924Z</time>
      </trkpt>
      <trkpt lat="45.0349" lon="3.61924">
        <ele>812</ele>
        <time>2022-06-20T23:10:23.078Z</time>
      </trkpt>
      <trkpt lat="45.0348" lon="3.61929">
        <ele>814</ele>
        <time>2022-06-20T23:10:29.847Z</time>
      </trkpt>
      <trkpt lat="45.03464" lon="3.61942">
        <ele>818</ele>
        <time>2022-06-20T23:10:41.622Z</time>
      </trkpt>
      <trkpt lat="45.03457" lon="3.61946">
        <ele>819</ele>
        <time>2022-06-20T23:10:46.373Z</time>
      </trkpt>
      <trkpt lat="45.03447" lon="3.61948">
        <ele>819</ele>
        <time>2022-06-20T23:10:48.044Z</time>
      </trkpt>
      <trkpt lat="45.03404" lon="3.61946">
        <ele>818</ele>
        <time>2022-06-20T23:10:53.039Z</time>
      </trkpt>
      <trkpt lat="45.03394" lon="3.61953">
        <ele>820</ele>
        <time>2022-06-20T23:11:00.159Z</time>
      </trkpt>
      <trkpt lat="45.03391" lon="3.61959">
        <ele>821</ele>
        <time>2022-06-20T23:11:03.474Z</time>
      </trkpt>
      <trkpt lat="45.03389" lon="3.61966">
        <ele>823</ele>
        <time>2022-06-20T23:11:06.880Z</time>
      </trkpt>
      <trkpt lat="45.03388" lon="3.62054">
        <ele>842</ele>
        <time>2022-06-20T23:11:46.574Z</time>
      </trkpt>
      <trkpt lat="45.03385" lon="3.62062">
        <ele>844</ele>
        <time>2022-06-20T23:11:50.659Z</time>
      </trkpt>
      <trkpt lat="45.03381" lon="3.62068">
        <ele>845</ele>
        <time>2022-06-20T23:11:54.379Z</time>
      </trkpt>
      <trkpt lat="45.03374" lon="3.62072">
        <ele>846</ele>
        <time>2022-06-20T23:11:59.130Z</time>
      </trkpt>
      <trkpt lat="45.03357" lon="3.6207">
        <ele>845</ele>
        <time>2022-06-20T23:12:00.545Z</time>
      </trkpt>
      <trkpt lat="45.03338" lon="3.6206">
        <ele>842</ele>
        <time>2022-06-20T23:12:02.269Z</time>
      </trkpt>
      <trkpt lat="45.03311" lon="3.62055">
        <ele>841</ele>
        <time>2022-06-20T23:12:05.012Z</time>
      </trkpt>
      <trkpt lat="45.03277" lon="3.62071">
        <ele>843</ele>
        <time>2022-06-20T23:12:15.789Z</time>
      </trkpt>
      <trkpt lat="45.03274" lon="3.62075">
        <ele>844</ele>
        <time>2022-06-20T23:12:18.420Z</time>
      </trkpt>
      <trkpt lat="45.03274" lon="3.6208">
        <ele>845</ele>
        <time>2022-06-20T23:12:20.675Z</time>
      </trkpt>
      <trkpt lat="45.03277" lon="3.62083">
        <ele>846</ele>
        <time>2022-06-20T23:12:23.020Z</time>
      </trkpt>
      <trkpt lat="45.03295" lon="3.62087">
        <ele>847</ele>
        <time>2022-06-20T23:12:28.466Z</time>
      </trkpt>
      <trkpt lat="45.03298" lon="3.62092">
        <ele>848</ele>
        <time>2022-06-20T23:12:31.424Z</time>
      </trkpt>
      <trkpt lat="45.03298" lon="3.62099">
        <ele>850</ele>
        <time>2022-06-20T23:12:34.581Z</time>
      </trkpt>
      <trkpt lat="45.03278" lon="3.62139">
        <ele>857</ele>
        <time>2022-06-20T23:12:56.681Z</time>
      </trkpt>
      <trkpt lat="45.0326" lon="3.62187">
        <ele>865</ele>
        <time>2022-06-20T23:13:21.189Z</time>
      </trkpt>
      <trkpt lat="45.03226" lon="3.62313">
        <ele>884</ele>
        <time>2022-06-20T23:14:22.020Z</time>
      </trkpt>
      <trkpt lat="45.03189" lon="3.62459">
        <ele>903</ele>
        <time>2022-06-20T23:15:31.976Z</time>
      </trkpt>
      <trkpt lat="45.03183" lon="3.62477">
        <ele>904</ele>
        <time>2022-06-20T23:15:36.698Z</time>
      </trkpt>
      <trkpt lat="45.03127" lon="3.62591">
        <ele>914</ele>
        <time>2022-06-20T23:16:19.720Z</time>
      </trkpt>
      <trkpt lat="45.0311" lon="3.62636">
        <ele>919</ele>
        <time>2022-06-20T23:16:42.734Z</time>
      </trkpt>
      <trkpt lat="45.03107" lon="3.6265">
        <ele>921</ele>
        <time>2022-06-20T23:16:49.333Z</time>
      </trkpt>
      <trkpt lat="45.03103" lon="3.62681">
        <ele>924</ele>
        <time>2022-06-20T23:17:03.546Z</time>
      </trkpt>
      <trkpt lat="45.03108" lon="3.6273">
        <ele>929</ele>
        <time>2022-06-20T23:17:25.876Z</time>
      </trkpt>
      <trkpt lat="45.03112" lon="3.62754">
        <ele>932</ele>
        <time>2022-06-20T23:17:36.998Z</time>
      </trkpt>
      <trkpt lat="45.03126" lon="3.628">
        <ele>938</ele>
        <time>2022-06-20T23:17:59.587Z</time>
      </trkpt>
      <trkpt lat="45.03159" lon="3.62865">
        <ele>952</ele>
        <time>2022-06-20T23:18:35.685Z</time>
      </trkpt>
      <trkpt lat="45.0317" lon="3.62882">
        <ele>956</ele>
        <time>2022-06-20T23:18:46.081Z</time>
      </trkpt>
      <trkpt lat="45.03198" lon="3.62921">
        <ele>965</ele>
        <time>2022-06-20T23:19:11.156Z</time>
      </trkpt>
      <trkpt lat="45.03209" lon="3.62942">
        <ele>969</ele>
        <time>2022-06-20T23:19:22.946Z</time>
      </trkpt>
      <trkpt lat="45.03215" lon="3.62966">
        <ele>970</ele>
        <time>2022-06-20T23:19:28.348Z</time>
      </trkpt>
      <trkpt lat="45.03235" lon="3.63066">
        <ele>977</ele>
        <time>2022-06-20T23:19:58.569Z</time>
      </trkpt>
      <trkpt lat="45.03247" lon="3.63116">
        <ele>982</ele>
        <time>2022-06-20T23:20:22.385Z</time>
      </trkpt>
      <trkpt lat="45.03268" lon="3.6316">
        <ele>990</ele>
        <time>2022-06-20T23:20:46.332Z</time>
      </trkpt>
      <trkpt lat="45.03281" lon="3.6319">
        <ele>995</ele>
        <time>2022-06-20T23:21:02.204Z</time>
      </trkpt>
      <trkpt lat="45.03289" lon="3.63206">
        <ele>999</ele>
        <time>2022-06-20T23:21:11.044Z</time>
      </trkpt>
      <trkpt lat="45.03293" lon="3.63224">
        <ele>1001</ele>
        <time>2022-06-20T23:21:19.554Z</time>
      </trkpt>
      <trkpt lat="45.03297" lon="3.63263">
        <ele>1004</ele>
        <time>2022-06-20T23:21:32.512Z</time>
      </trkpt>
      <trkpt lat="45.03299" lon="3.63268">
        <ele>1005</ele>
        <time>2022-06-20T23:21:35.103Z</time>
      </trkpt>
      <trkpt lat="45.03302" lon="3.63269">
        <ele>1006</ele>
        <time>2022-06-20T23:21:37.070Z</time>
      </trkpt>
      <trkpt lat="45.03305" lon="3.63267">
        <ele>1007</ele>
        <time>2022-06-20T23:21:39.187Z</time>
      </trkpt>
      <trkpt lat="45.03306" lon="3.63262">
        <ele>1007</ele>
        <time>2022-06-20T23:21:39.795Z</time>
      </trkpt>
      <trkpt lat="45.03306" lon="3.63176">
        <ele>1006</ele>
        <time>2022-06-20T23:21:47.437Z</time>
      </trkpt>
      <trkpt lat="45.03303" lon="3.63135">
        <ele>1005</ele>
        <time>2022-06-20T23:21:50.442Z</time>
      </trkpt>
      <trkpt lat="45.03303" lon="3.63113">
        <ele>1006</ele>
        <time>2022-06-20T23:21:55.406Z</time>
      </trkpt>
      <trkpt lat="45.03308" lon="3.6299">
        <ele>1009</ele>
        <time>2022-06-20T23:22:16.456Z</time>
      </trkpt>
      <trkpt lat="45.0331" lon="3.62973">
        <ele>1009</ele>
        <time>2022-06-20T23:22:18.471Z</time>
      </trkpt>
      <trkpt lat="45.03313" lon="3.62962">
        <ele>1010</ele>
        <time>2022-06-20T23:22:22.925Z</time>
      </trkpt>
      <trkpt lat="45.0332" lon="3.62952">
        <ele>1012</ele>
        <time>2022-06-20T23:22:29.273Z</time>
      </trkpt>
      <trkpt lat="45.03326" lon="3.62947">
        <ele>1013</ele>
        <time>2022-06-20T23:22:33.717Z</time>
      </trkpt>
      <trkpt lat="45.03335" lon="3.62943">
        <ele>1016</ele>
        <time>2022-06-20T23:22:39.738Z</time>
      </trkpt>
      <trkpt lat="45.03344" lon="3.62943">
        <ele>1016</ele>
        <time>2022-06-20T23:22:41.227Z</time>
      </trkpt>
      <trkpt lat="45.03357" lon="3.62949">
        <ele>1017</ele>
        <time>2022-06-20T23:22:45.890Z</time>
      </trkpt>
      <trkpt lat="45.03368" lon="3.62965">
        <ele>1018</ele>
        <time>2022-06-20T23:22:50.893Z</time>
      </trkpt>
      <trkpt lat="45.03371" lon="3.62975">
        <ele>1019</ele>
        <time>2022-06-20T23:22:55.577Z</time>
      </trkpt>
      <trkpt lat="45.03372" lon="3.62987">
        <ele>1020</ele>
        <time>2022-06-20T23:22:59.986Z</time>
      </trkpt>
      <trkpt lat="45.03362" lon="3.63093">
        <ele>1022</ele>
        <time>2022-06-20T23:23:16.492Z</time>
      </trkpt>
      <trkpt lat="45.03362" lon="3.63119">
        <ele>1022</ele>
        <time>2022-06-20T23:23:19.532Z</time>
      </trkpt>
      <trkpt lat="45.03376" lon="3.63345">
        <ele>1032</ele>
        <time>2022-06-20T23:24:10.009Z</time>
      </trkpt>
      <trkpt lat="45.03382" lon="3.63378">
        <ele>1034</ele>
        <time>2022-06-20T23:24:18.902Z</time>
      </trkpt>
      <trkpt lat="45.03476" lon="3.63584">
        <ele>1054</ele>
        <time>2022-06-20T23:25:46.644Z</time>
      </trkpt>
      <trkpt lat="45.03493" lon="3.63614">
        <ele>1059</ele>
        <time>2022-06-20T23:26:03.987Z</time>
      </trkpt>
      <trkpt lat="45.03516" lon="3.63577">
        <ele>1061</ele>
        <time>2022-06-20T23:26:14.578Z</time>
      </trkpt>
      <trkpt lat="45.03602" lon="3.63512">
        <ele>1060</ele>
        <time>2022-06-20T23:26:27.844Z</time>
      </trkpt>
      <trkpt lat="45.03617" lon="3.63505">
        <ele>1059</ele>
        <time>2022-06-20T23:26:29.106Z</time>
      </trkpt>
      <trkpt lat="45.03619" lon="3.6351">
        <ele>1060</ele>
        <time>2022-06-20T23:26:31.697Z</time>
      </trkpt>
      <trkpt lat="45.03624" lon="3.63512">
        <ele>1060</ele>
        <time>2022-06-20T23:26:32.557Z</time>
      </trkpt>
      <trkpt lat="45.03634" lon="3.63512">
        <ele>1061</ele>
        <time>2022-06-20T23:26:36.860Z</time>
      </trkpt>
      <trkpt lat="45.03683" lon="3.635">
        <ele>1061</ele>
        <time>2022-06-20T23:26:45.088Z</time>
      </trkpt>
      <trkpt lat="45.03735" lon="3.63494">
        <ele>1064</ele>
        <time>2022-06-20T23:27:00.963Z</time>
      </trkpt>
      <trkpt lat="45.03846" lon="3.63498">
        <ele>1071</ele>
        <time>2022-06-20T23:27:36.089Z</time>
      </trkpt>
      <trkpt lat="45.03861" lon="3.63501">
        <ele>1072</ele>
        <time>2022-06-20T23:27:40.986Z</time>
      </trkpt>
      <trkpt lat="45.03867" lon="3.63506">
        <ele>1072</ele>
        <time>2022-06-20T23:27:42.138Z</time>
      </trkpt>
      <trkpt lat="45.03871" lon="3.63517">
        <ele>1074</ele>
        <time>2022-06-20T23:27:47.717Z</time>
      </trkpt>
      <trkpt lat="45.0387" lon="3.63528">
        <ele>1075</ele>
        <time>2022-06-20T23:27:52.330Z</time>
      </trkpt>
      <trkpt lat="45.03865" lon="3.63539">
        <ele>1076</ele>
        <time>2022-06-20T23:27:56.652Z</time>
      </trkpt>
      <trkpt lat="45.03705" lon="3.63688">
        <ele>1085</ele>
        <time>2022-06-20T23:28:50.994Z</time>
      </trkpt>
      <trkpt lat="45.03693" lon="3.63704">
        <ele>1087</ele>
        <time>2022-06-20T23:28:59.947Z</time>
      </trkpt>
      <trkpt lat="45.03678" lon="3.63729">
        <ele>1089</ele>
        <time>2022-06-20T23:29:08.744Z</time>
      </trkpt>
      <trkpt lat="45.03664" lon="3.63759">
        <ele>1092</ele>
        <time>2022-06-20T23:29:22.014Z</time>
      </trkpt>
      <trkpt lat="45.03641" lon="3.63815">
        <ele>1097</ele>
        <time>2022-06-20T23:29:43.657Z</time>
      </trkpt>
      <trkpt lat="45.03623" lon="3.63867">
        <ele>1102</ele>
        <time>2022-06-20T23:30:06.122Z</time>
      </trkpt>
      <trkpt lat="45.03606" lon="3.63932">
        <ele>1106</ele>
        <time>2022-06-20T23:30:24.003Z</time>
      </trkpt>
      <trkpt lat="45.03604" lon="3.63957">
        <ele>1107</ele>
        <time>2022-06-20T23:30:29.366Z</time>
      </trkpt>
      <trkpt lat="45.03608" lon="3.64179">
        <ele>1123</ele>
        <time>2022-06-20T23:31:38.202Z</time>
      </trkpt>
      <trkpt lat="45.03608" lon="3.64425">
        <ele>1137</ele>
        <time>2022-06-20T23:32:41.076Z</time>
      </trkpt>
      <trkpt lat="45.03604" lon="3.64593">
        <ele>1155</ele>
        <time>2022-06-20T23:33:56.886Z</time>
      </trkpt>
      <trkpt lat="45.03601" lon="3.64637">
        <ele>1158</ele>
        <time>2022-06-20T23:34:09.828Z</time>
      </trkpt>
      <trkpt lat="45.03592" lon="3.64679">
        <ele>1159</ele>
        <time>2022-06-20T23:34:17.110Z</time>
      </trkpt>
      <trkpt lat="45.03574" lon="3.64725">
        <ele>1159</ele>
        <time>2022-06-20T23:34:23.258Z</time>
      </trkpt>
      <trkpt lat="45.03529" lon="3.64828">
        <ele>1160</ele>
        <time>2022-06-20T23:34:39.115Z</time>
      </trkpt>
      <trkpt lat="45.03521" lon="3.64859">
        <ele>1162</ele>
        <time>2022-06-20T23:34:47.926Z</time>
      </trkpt>
      <trkpt lat="45.0348" lon="3.65106">
        <ele>1173</ele>
        <time>2022-06-20T23:35:43.969Z</time>
      </trkpt>
      <trkpt lat="45.0347" lon="3.65135">
        <ele>1173</ele>
        <time>2022-06-20T23:35:47.742Z</time>
      </trkpt>
      <trkpt lat="45.03379" lon="3.65327">
        <ele>1170</ele>
        <time>2022-06-20T23:36:07.816Z</time>
      </trkpt>
      <trkpt lat="45.0335" lon="3.65401">
        <ele>1165</ele>
        <time>2022-06-20T23:36:12.900Z</time>
      </trkpt>
      <trkpt lat="45.03324" lon="3.65505">
        <ele>1162</ele>
        <time>2022-06-20T23:36:20.622Z</time>
      </trkpt>
      <trkpt lat="45.03278" lon="3.65767">
        <ele>1151</ele>
        <time>2022-06-20T23:36:36.571Z</time>
      </trkpt>
      <trkpt lat="45.03275" lon="3.65801">
        <ele>1150</ele>
        <time>2022-06-20T23:36:38.906Z</time>
      </trkpt>
      <trkpt lat="45.03277" lon="3.6582">
        <ele>1149</ele>
        <time>2022-06-20T23:36:40.060Z</time>
      </trkpt>
      <trkpt lat="45.0328" lon="3.65838">
        <ele>1149</ele>
        <time>2022-06-20T23:36:42.222Z</time>
      </trkpt>
      <trkpt lat="45.03286" lon="3.65853">
        <ele>1148</ele>
        <time>2022-06-20T23:36:43.258Z</time>
      </trkpt>
      <trkpt lat="45.03391" lon="3.66106">
        <ele>1140</ele>
        <time>2022-06-20T23:37:03.775Z</time>
      </trkpt>
      <trkpt lat="45.03396" lon="3.6613">
        <ele>1139</ele>
        <time>2022-06-20T23:37:05.267Z</time>
      </trkpt>
      <trkpt lat="45.03396" lon="3.6615">
        <ele>1138</ele>
        <time>2022-06-20T23:37:06.468Z</time>
      </trkpt>
      <trkpt lat="45.03393" lon="3.66169">
        <ele>1137</ele>
        <time>2022-06-20T23:37:07.638Z</time>
      </trkpt>
      <trkpt lat="45.03385" lon="3.66184">
        <ele>1137</ele>
        <time>2022-06-20T23:37:09.835Z</time>
      </trkpt>
      <trkpt lat="45.03364" lon="3.66212">
        <ele>1136</ele>
        <time>2022-06-20T23:37:12.803Z</time>
      </trkpt>
      <trkpt lat="45.0334" lon="3.6624">
        <ele>1134</ele>
        <time>2022-06-20T23:37:15.270Z</time>
      </trkpt>
      <trkpt lat="45.03328" lon="3.66258">
        <ele>1134</ele>
        <time>2022-06-20T23:37:18.163Z</time>
      </trkpt>
      <trkpt lat="45.0332" lon="3.6628">
        <ele>1133</ele>
        <time>2022-06-20T23:37:19.630Z</time>
      </trkpt>
      <trkpt lat="45.03271" lon="3.66451">
        <ele>1125</ele>
        <time>2022-06-20T23:37:30.214Z</time>
      </trkpt>
      <trkpt lat="45.03269" lon="3.66471">
        <ele>1124</ele>
        <time>2022-06-20T23:37:31.427Z</time>
      </trkpt>
      <trkpt lat="45.0327" lon="3.66491">
        <ele>1123</ele>
        <time>2022-06-20T23:37:32.632Z</time>
      </trkpt>
      <trkpt lat="45.03276" lon="3.66509">
        <ele>1122</ele>
        <time>2022-06-20T23:37:33.828Z</time>
      </trkpt>
      <trkpt lat="45.03285" lon="3.66524">
        <ele>1121</ele>
        <time>2022-06-20T23:37:35.010Z</time>
      </trkpt>
      <trkpt lat="45.033" lon="3.66535">
        <ele>1120</ele>
        <time>2022-06-20T23:37:36.405Z</time>
      </trkpt>
      <trkpt lat="45.03507" lon="3.66628">
        <ele>1112</ele>
        <time>2022-06-20T23:37:58.263Z</time>
      </trkpt>
      <trkpt lat="45.03523" lon="3.66642">
        <ele>1111</ele>
        <time>2022-06-20T23:37:59.895Z</time>
      </trkpt>
      <trkpt lat="45.03544" lon="3.66668">
        <ele>1109</ele>
        <time>2022-06-20T23:38:02.268Z</time>
      </trkpt>
      <trkpt lat="45.0356" lon="3.66692">
        <ele>1110</ele>
        <time>2022-06-20T23:38:08.622Z</time>
      </trkpt>
      <trkpt lat="45.03585" lon="3.66749">
        <ele>1111</ele>
        <time>2022-06-20T23:38:18.345Z</time>
      </trkpt>
      <trkpt lat="45.03591" lon="3.66773">
        <ele>1110</ele>
        <time>2022-06-20T23:38:19.874Z</time>
      </trkpt>
      <trkpt lat="45.03593" lon="3.66794">
        <ele>1109</ele>
        <time>2022-06-20T23:38:21.147Z</time>
      </trkpt>
      <trkpt lat="45.0359" lon="3.6682">
        <ele>1108</ele>
        <time>2022-06-20T23:38:22.755Z</time>
      </trkpt>
      <trkpt lat="45.03583" lon="3.66845">
        <ele>1107</ele>
        <time>2022-06-20T23:38:24.412Z</time>
      </trkpt>
      <trkpt lat="45.0357" lon="3.66874">
        <ele>1106</ele>
        <time>2022-06-20T23:38:26.754Z</time>
      </trkpt>
      <trkpt lat="45.03564" lon="3.66902">
        <ele>1105</ele>
        <time>2022-06-20T23:38:28.624Z</time>
      </trkpt>
      <trkpt lat="45.03563" lon="3.66934">
        <ele>1104</ele>
        <time>2022-06-20T23:38:30.749Z</time>
      </trkpt>
      <trkpt lat="45.03564" lon="3.66963">
        <ele>1103</ele>
        <time>2022-06-20T23:38:32.598Z</time>
      </trkpt>
      <trkpt lat="45.0357" lon="3.67005">
        <ele>1101</ele>
        <time>2022-06-20T23:38:34.968Z</time>
      </trkpt>
      <trkpt lat="45.03572" lon="3.67043">
        <ele>1102</ele>
        <time>2022-06-20T23:38:41.720Z</time>
      </trkpt>
      <trkpt lat="45.03558" lon="3.67202">
        <ele>1103</ele>
        <time>2022-06-20T23:39:02.104Z</time>
      </trkpt>
      <trkpt lat="45.03564" lon="3.67288">
        <ele>1098</ele>
        <time>2022-06-20T23:39:07.296Z</time>
      </trkpt>
      <trkpt lat="45.03574" lon="3.67339">
        <ele>1096</ele>
        <time>2022-06-20T23:39:10.533Z</time>
      </trkpt>
      <trkpt lat="45.0358" lon="3.67358">
        <ele>1095</ele>
        <time>2022-06-20T23:39:11.783Z</time>
      </trkpt>
      <trkpt lat="45.0359" lon="3.67375">
        <ele>1095</ele>
        <time>2022-06-20T23:39:14.370Z</time>
      </trkpt>
      <trkpt lat="45.03615" lon="3.67407">
        <ele>1095</ele>
        <time>2022-06-20T23:39:19.947Z</time>
      </trkpt>
      <trkpt lat="45.03666" lon="3.67457">
        <ele>1092</ele>
        <time>2022-06-20T23:39:25.559Z</time>
      </trkpt>
      <trkpt lat="45.03679" lon="3.67476">
        <ele>1091</ele>
        <time>2022-06-20T23:39:27.176Z</time>
      </trkpt>
      <trkpt lat="45.0369" lon="3.67499">
        <ele>1089</ele>
        <time>2022-06-20T23:39:28.844Z</time>
      </trkpt>
      <trkpt lat="45.03698" lon="3.6753">
        <ele>1088</ele>
        <time>2022-06-20T23:39:31.060Z</time>
      </trkpt>
      <trkpt lat="45.03701" lon="3.67556">
        <ele>1086</ele>
        <time>2022-06-20T23:39:32.643Z</time>
      </trkpt>
      <trkpt lat="45.03696" lon="3.67614">
        <ele>1083</ele>
        <time>2022-06-20T23:39:36.153Z</time>
      </trkpt>
      <trkpt lat="45.03698" lon="3.67654">
        <ele>1082</ele>
        <time>2022-06-20T23:39:39.049Z</time>
      </trkpt>
      <trkpt lat="45.03719" lon="3.6777">
        <ele>1079</ele>
        <time>2022-06-20T23:39:47.682Z</time>
      </trkpt>
      <trkpt lat="45.0372" lon="3.67797">
        <ele>1078</ele>
        <time>2022-06-20T23:39:49.352Z</time>
      </trkpt>
      <trkpt lat="45.03712" lon="3.67953">
        <ele>1071</ele>
        <time>2022-06-20T23:39:58.184Z</time>
      </trkpt>
      <trkpt lat="45.03708" lon="3.6799">
        <ele>1070</ele>
        <time>2022-06-20T23:40:00.821Z</time>
      </trkpt>
      <trkpt lat="45.03703" lon="3.68019">
        <ele>1069</ele>
        <time>2022-06-20T23:40:02.744Z</time>
      </trkpt>
      <trkpt lat="45.03697" lon="3.68041">
        <ele>1068</ele>
        <time>2022-06-20T23:40:04.111Z</time>
      </trkpt>
      <trkpt lat="45.03688" lon="3.68065">
        <ele>1067</ele>
        <time>2022-06-20T23:40:05.792Z</time>
      </trkpt>
      <trkpt lat="45.03673" lon="3.68088">
        <ele>1064</ele>
        <time>2022-06-20T23:40:07.673Z</time>
      </trkpt>
      <trkpt lat="45.03657" lon="3.68107">
        <ele>1064</ele>
        <time>2022-06-20T23:40:11.129Z</time>
      </trkpt>
      <trkpt lat="45.036" lon="3.68154">
        <ele>1059</ele>
        <time>2022-06-20T23:40:16.738Z</time>
      </trkpt>
      <trkpt lat="45.03589" lon="3.68171">
        <ele>1058</ele>
        <time>2022-06-20T23:40:18.059Z</time>
      </trkpt>
      <trkpt lat="45.03515" lon="3.68317">
        <ele>1056</ele>
        <time>2022-06-20T23:40:34.163Z</time>
      </trkpt>
      <trkpt lat="45.03509" lon="3.68343">
        <ele>1054</ele>
        <time>2022-06-20T23:40:35.806Z</time>
      </trkpt>
      <trkpt lat="45.03509" lon="3.68365">
        <ele>1054</ele>
        <time>2022-06-20T23:40:38.379Z</time>
      </trkpt>
      <trkpt lat="45.03529" lon="3.68609">
        <ele>1056</ele>
        <time>2022-06-20T23:41:10.489Z</time>
      </trkpt>
      <trkpt lat="45.03534" lon="3.68644">
        <ele>1056</ele>
        <time>2022-06-20T23:41:14.664Z</time>
      </trkpt>
      <trkpt lat="45.03539" lon="3.68664">
        <ele>1057</ele>
        <time>2022-06-20T23:41:19.535Z</time>
      </trkpt>
      <trkpt lat="45.0359" lon="3.68788">
        <ele>1058</ele>
        <time>2022-06-20T23:41:37.976Z</time>
      </trkpt>
      <trkpt lat="45.03619" lon="3.68868">
        <ele>1060</ele>
        <time>2022-06-20T23:41:52.749Z</time>
      </trkpt>
      <trkpt lat="45.03632" lon="3.68908">
        <ele>1060</ele>
        <time>2022-06-20T23:41:57.896Z</time>
      </trkpt>
      <trkpt lat="45.0365" lon="3.6899">
        <ele>1059</ele>
        <time>2022-06-20T23:42:05.524Z</time>
      </trkpt>
      <trkpt lat="45.03651" lon="3.69004">
        <ele>1059</ele>
        <time>2022-06-20T23:42:07.169Z</time>
      </trkpt>
      <trkpt lat="45.03649" lon="3.69014">
        <ele>1059</ele>
        <time>2022-06-20T23:42:08.384Z</time>
      </trkpt>
      <trkpt lat="45.03678" lon="3.69036">
        <ele>1058</ele>
        <time>2022-06-20T23:42:11.919Z</time>
      </trkpt>
      <trkpt lat="45.03728" lon="3.69011">
        <ele>1056</ele>
        <time>2022-06-20T23:42:17.211Z</time>
      </trkpt>
      <trkpt lat="45.03839" lon="3.68995">
        <ele>1050</ele>
        <time>2022-06-20T23:42:26.842Z</time>
      </trkpt>
      <trkpt lat="45.03854" lon="3.68987">
        <ele>1049</ele>
        <time>2022-06-20T23:42:28.132Z</time>
      </trkpt>
      <trkpt lat="45.03869" lon="3.68969">
        <ele>1047</ele>
        <time>2022-06-20T23:42:29.804Z</time>
      </trkpt>
      <trkpt lat="45.03925" lon="3.68857">
        <ele>1043</ele>
        <time>2022-06-20T23:42:39.157Z</time>
      </trkpt>
      <trkpt lat="45.0393" lon="3.68849">
        <ele>1043</ele>
        <time>2022-06-20T23:42:40.405Z</time>
      </trkpt>
      <trkpt lat="45.03939" lon="3.68834">
        <ele>1044</ele>
        <time>2022-06-20T23:42:45.103Z</time>
      </trkpt>
      <trkpt lat="45.03948" lon="3.68828">
        <ele>1044</ele>
        <time>2022-06-20T23:42:46.749Z</time>
      </trkpt>
      <trkpt lat="45.0396" lon="3.68826">
        <ele>1044</ele>
        <time>2022-06-20T23:42:48.748Z</time>
      </trkpt>
      <trkpt lat="45.03998" lon="3.68833">
        <ele>1045</ele>
        <time>2022-06-20T23:42:57.081Z</time>
      </trkpt>
      <trkpt lat="45.04026" lon="3.68829">
        <ele>1045</ele>
        <time>2022-06-20T23:43:01.737Z</time>
      </trkpt>
      <trkpt lat="45.04086" lon="3.688">
        <ele>1045</ele>
        <time>2022-06-20T23:43:12.228Z</time>
      </trkpt>
      <trkpt lat="45.04154" lon="3.68762">
        <ele>1046</ele>
        <time>2022-06-20T23:43:26.057Z</time>
      </trkpt>
      <trkpt lat="45.04169" lon="3.68757">
        <ele>1047</ele>
        <time>2022-06-20T23:43:30.998Z</time>
      </trkpt>
      <trkpt lat="45.04416" lon="3.6874">
        <ele>1044</ele>
        <time>2022-06-20T23:44:03.830Z</time>
      </trkpt>
      <trkpt lat="45.04521" lon="3.68752">
        <ele>1046</ele>
        <time>2022-06-20T23:44:24.929Z</time>
      </trkpt>
      <trkpt lat="45.04737" lon="3.6876">
        <ele>1050</ele>
        <time>2022-06-20T23:45:07.981Z</time>
      </trkpt>
      <trkpt lat="45.04927" lon="3.68775">
        <ele>1049</ele>
        <time>2022-06-20T23:45:37.121Z</time>
      </trkpt>
      <trkpt lat="45.04961" lon="3.68774">
        <ele>1049</ele>
        <time>2022-06-20T23:45:42.748Z</time>
      </trkpt>
      <trkpt lat="45.05019" lon="3.68765">
        <ele>1051</ele>
        <time>2022-06-20T23:45:56.821Z</time>
      </trkpt>
      <trkpt lat="45.05104" lon="3.68738">
        <ele>1051</ele>
        <time>2022-06-20T23:46:11.235Z</time>
      </trkpt>
      <trkpt lat="45.05142" lon="3.68713">
        <ele>1052</ele>
        <time>2022-06-20T23:46:20.108Z</time>
      </trkpt>
      <trkpt lat="45.05308" lon="3.68585">
        <ele>1054</ele>
        <time>2022-06-20T23:46:54.742Z</time>
      </trkpt>
      <trkpt lat="45.05455" lon="3.68451">
        <ele>1048</ele>
        <time>2022-06-20T23:47:12.784Z</time>
      </trkpt>
      <trkpt lat="45.05475" lon="3.6843">
        <ele>1048</ele>
        <time>2022-06-20T23:47:16.904Z</time>
      </trkpt>
      <trkpt lat="45.05525" lon="3.68365">
        <ele>1048</ele>
        <time>2022-06-20T23:47:28.137Z</time>
      </trkpt>
      <trkpt lat="45.05538" lon="3.68344">
        <ele>1048</ele>
        <time>2022-06-20T23:47:31.400Z</time>
      </trkpt>
      <trkpt lat="45.05553" lon="3.68316">
        <ele>1048</ele>
        <time>2022-06-20T23:47:35.508Z</time>
      </trkpt>
      <trkpt lat="45.05621" lon="3.68161">
        <ele>1052</ele>
        <time>2022-06-20T23:48:05.304Z</time>
      </trkpt>
      <trkpt lat="45.05633" lon="3.68141">
        <ele>1052</ele>
        <time>2022-06-20T23:48:08.371Z</time>
      </trkpt>
      <trkpt lat="45.05644" lon="3.6813">
        <ele>1052</ele>
        <time>2022-06-20T23:48:10.600Z</time>
      </trkpt>
      <trkpt lat="45.05661" lon="3.68118">
        <ele>1052</ele>
        <time>2022-06-20T23:48:13.743Z</time>
      </trkpt>
      <trkpt lat="45.05676" lon="3.68112">
        <ele>1052</ele>
        <time>2022-06-20T23:48:16.322Z</time>
      </trkpt>
      <trkpt lat="45.05762" lon="3.68076">
        <ele>1053</ele>
        <time>2022-06-20T23:48:32.849Z</time>
      </trkpt>
      <trkpt lat="45.05784" lon="3.68059">
        <ele>1053</ele>
        <time>2022-06-20T23:48:36.996Z</time>
      </trkpt>
      <trkpt lat="45.05801" lon="3.68039">
        <ele>1054</ele>
        <time>2022-06-20T23:48:43.198Z</time>
      </trkpt>
      <trkpt lat="45.05817" lon="3.68014">
        <ele>1054</ele>
        <time>2022-06-20T23:48:47.140Z</time>
      </trkpt>
      <trkpt lat="45.05859" lon="3.6793">
        <ele>1054</ele>
        <time>2022-06-20T23:48:59.169Z</time>
      </trkpt>
      <trkpt lat="45.05878" lon="3.67898">
        <ele>1054</ele>
        <time>2022-06-20T23:49:04.055Z</time>
      </trkpt>
      <trkpt lat="45.05984" lon="3.67801">
        <ele>1055</ele>
        <time>2022-06-20T23:49:26.573Z</time>
      </trkpt>
      <trkpt lat="45.06009" lon="3.67783">
        <ele>1056</ele>
        <time>2022-06-20T23:49:33.464Z</time>
      </trkpt>
      <trkpt lat="45.06019" lon="3.6778">
        <ele>1056</ele>
        <time>2022-06-20T23:49:35.156Z</time>
      </trkpt>
      <trkpt lat="45.06096" lon="3.67791">
        <ele>1057</ele>
        <time>2022-06-20T23:49:49.680Z</time>
      </trkpt>
      <trkpt lat="45.06106" lon="3.67797">
        <ele>1057</ele>
        <time>2022-06-20T23:49:51.477Z</time>
      </trkpt>
      <trkpt lat="45.06143" lon="3.67831">
        <ele>1057</ele>
        <time>2022-06-20T23:49:58.776Z</time>
      </trkpt>
      <trkpt lat="45.06156" lon="3.67861">
        <ele>1056</ele>
        <time>2022-06-20T23:50:01.197Z</time>
      </trkpt>
      <trkpt lat="45.06162" lon="3.67868">
        <ele>1056</ele>
        <time>2022-06-20T23:50:02.484Z</time>
      </trkpt>
      <trkpt lat="45.06172" lon="3.67873">
        <ele>1057</ele>
        <time>2022-06-20T23:50:06.807Z</time>
      </trkpt>
      <trkpt lat="45.06188" lon="3.67873">
        <ele>1057</ele>
        <time>2022-06-20T23:50:09.454Z</time>
      </trkpt>
      <trkpt lat="45.06272" lon="3.67835">
        <ele>1060</ele>
        <time>2022-06-20T23:50:30.650Z</time>
      </trkpt>
      <trkpt lat="45.06297" lon="3.67821">
        <ele>1062</ele>
        <time>2022-06-20T23:50:39.908Z</time>
      </trkpt>
      <trkpt lat="45.06368" lon="3.67768">
        <ele>1067</ele>
        <time>2022-06-20T23:51:05.164Z</time>
      </trkpt>
      <trkpt lat="45.06384" lon="3.67762">
        <ele>1067</ele>
        <time>2022-06-20T23:51:07.903Z</time>
      </trkpt>
      <trkpt lat="45.06403" lon="3.6776">
        <ele>1068</ele>
        <time>2022-06-20T23:51:13.506Z</time>
      </trkpt>
      <trkpt lat="45.06464" lon="3.67767">
        <ele>1069</ele>
        <time>2022-06-20T23:51:25.415Z</time>
      </trkpt>
      <trkpt lat="45.06488" lon="3.67767">
        <ele>1070</ele>
        <time>2022-06-20T23:51:31.837Z</time>
      </trkpt>
      <trkpt lat="45.06574" lon="3.6775">
        <ele>1073</ele>
        <time>2022-06-20T23:51:52.856Z</time>
      </trkpt>
      <trkpt lat="45.06605" lon="3.67739">
        <ele>1075</ele>
        <time>2022-06-20T23:52:02.933Z</time>
      </trkpt>
      <trkpt lat="45.06632" lon="3.67723">
        <ele>1077</ele>
        <time>2022-06-20T23:52:12.557Z</time>
      </trkpt>
      <trkpt lat="45.06651" lon="3.67707">
        <ele>1079</ele>
        <time>2022-06-20T23:52:21.261Z</time>
      </trkpt>
      <trkpt lat="45.06787" lon="3.67728">
        <ele>1085</ele>
        <time>2022-06-20T23:52:59.097Z</time>
      </trkpt>
      <trkpt lat="45.06804" lon="3.6773">
        <ele>1086</ele>
        <time>2022-06-20T23:53:04.328Z</time>
      </trkpt>
      <trkpt lat="45.06816" lon="3.67726">
        <ele>1087</ele>
        <time>2022-06-20T23:53:08.808Z</time>
      </trkpt>
      <trkpt lat="45.06825" lon="3.67718">
        <ele>1088</ele>
        <time>2022-06-20T23:53:13.132Z</time>
      </trkpt>
      <trkpt lat="45.06833" lon="3.67704">
        <ele>1089</ele>
        <time>2022-06-20T23:53:17.661Z</time>
      </trkpt>
      <trkpt lat="45.06838" lon="3.6769">
        <ele>1091</ele>
        <time>2022-06-20T23:53:24.732Z</time>
      </trkpt>
      <trkpt lat="45.06844" lon="3.67647">
        <ele>1094</ele>
        <time>2022-06-20T23:53:37.663Z</time>
      </trkpt>
      <trkpt lat="45.0685" lon="3.67623">
        <ele>1096</ele>
        <time>2022-06-20T23:53:46.350Z</time>
      </trkpt>
      <trkpt lat="45.06863" lon="3.67595">
        <ele>1099</ele>
        <time>2022-06-20T23:54:00.126Z</time>
      </trkpt>
      <trkpt lat="45.06902" lon="3.67542">
        <ele>1101</ele>
        <time>2022-06-20T23:54:13.655Z</time>
      </trkpt>
      <trkpt lat="45.06921" lon="3.67521">
        <ele>1102</ele>
        <time>2022-06-20T23:54:20.088Z</time>
      </trkpt>
      <trkpt lat="45.06973" lon="3.67476">
        <ele>1100</ele>
        <time>2022-06-20T23:54:26.473Z</time>
      </trkpt>
      <trkpt lat="45.07001" lon="3.6746">
        <ele>1099</ele>
        <time>2022-06-20T23:54:29.627Z</time>
      </trkpt>
      <trkpt lat="45.07025" lon="3.6745">
        <ele>1098</ele>
        <time>2022-06-20T23:54:32.069Z</time>
      </trkpt>
      <trkpt lat="45.07048" lon="3.67441">
        <ele>1097</ele>
        <time>2022-06-20T23:54:34.357Z</time>
      </trkpt>
      <trkpt lat="45.07102" lon="3.67425">
        <ele>1095</ele>
        <time>2022-06-20T23:54:39.942Z</time>
      </trkpt>
      <trkpt lat="45.07161" lon="3.67415">
        <ele>1092</ele>
        <time>2022-06-20T23:54:45.217Z</time>
      </trkpt>
      <trkpt lat="45.07208" lon="3.67412">
        <ele>1093</ele>
        <time>2022-06-20T23:54:54.883Z</time>
      </trkpt>
      <trkpt lat="45.07324" lon="3.67411">
        <ele>1093</ele>
        <time>2022-06-20T23:55:14.077Z</time>
      </trkpt>
      <trkpt lat="45.07348" lon="3.67415">
        <ele>1093</ele>
        <time>2022-06-20T23:55:18.076Z</time>
      </trkpt>
      <trkpt lat="45.07383" lon="3.67429">
        <ele>1092</ele>
        <time>2022-06-20T23:55:22.105Z</time>
      </trkpt>
      <trkpt lat="45.0745" lon="3.67463">
        <ele>1092</ele>
        <time>2022-06-20T23:55:33.881Z</time>
      </trkpt>
      <trkpt lat="45.07473" lon="3.6747">
        <ele>1092</ele>
        <time>2022-06-20T23:55:37.773Z</time>
      </trkpt>
      <trkpt lat="45.07531" lon="3.67477">
        <ele>1089</ele>
        <time>2022-06-20T23:55:42.895Z</time>
      </trkpt>
      <trkpt lat="45.0759" lon="3.67494">
        <ele>1087</ele>
        <time>2022-06-20T23:55:49.177Z</time>
      </trkpt>
      <trkpt lat="45.07613" lon="3.67504">
        <ele>1086</ele>
        <time>2022-06-20T23:55:51.491Z</time>
      </trkpt>
      <trkpt lat="45.07627" lon="3.67514">
        <ele>1086</ele>
        <time>2022-06-20T23:55:54.086Z</time>
      </trkpt>
      <trkpt lat="45.07645" lon="3.67534">
        <ele>1086</ele>
        <time>2022-06-20T23:55:57.871Z</time>
      </trkpt>
      <trkpt lat="45.07665" lon="3.6755">
        <ele>1085</ele>
        <time>2022-06-20T23:56:00.041Z</time>
      </trkpt>
      <trkpt lat="45.07691" lon="3.67569">
        <ele>1085</ele>
        <time>2022-06-20T23:56:04.882Z</time>
      </trkpt>
      <trkpt lat="45.07717" lon="3.67584">
        <ele>1084</ele>
        <time>2022-06-20T23:56:07.741Z</time>
      </trkpt>
      <trkpt lat="45.07736" lon="3.67591">
        <ele>1084</ele>
        <time>2022-06-20T23:56:10.990Z</time>
      </trkpt>
      <trkpt lat="45.07755" lon="3.67594">
        <ele>1083</ele>
        <time>2022-06-20T23:56:12.661Z</time>
      </trkpt>
      <trkpt lat="45.07773" lon="3.67595">
        <ele>1083</ele>
        <time>2022-06-20T23:56:15.641Z</time>
      </trkpt>
      <trkpt lat="45.0783" lon="3.67589">
        <ele>1083</ele>
        <time>2022-06-20T23:56:25.099Z</time>
      </trkpt>
      <trkpt lat="45.07856" lon="3.6759">
        <ele>1083</ele>
        <time>2022-06-20T23:56:29.402Z</time>
      </trkpt>
      <trkpt lat="45.07889" lon="3.67594">
        <ele>1083</ele>
        <time>2022-06-20T23:56:34.882Z</time>
      </trkpt>
      <trkpt lat="45.07956" lon="3.67615">
        <ele>1083</ele>
        <time>2022-06-20T23:56:46.237Z</time>
      </trkpt>
      <trkpt lat="45.08008" lon="3.67633">
        <ele>1082</ele>
        <time>2022-06-20T23:56:52.789Z</time>
      </trkpt>
      <trkpt lat="45.08047" lon="3.67651">
        <ele>1081</ele>
        <time>2022-06-20T23:56:57.491Z</time>
      </trkpt>
      <trkpt lat="45.08081" lon="3.67661">
        <ele>1080</ele>
        <time>2022-06-20T23:57:01.285Z</time>
      </trkpt>
      <trkpt lat="45.08101" lon="3.67663">
        <ele>1080</ele>
        <time>2022-06-20T23:57:04.602Z</time>
      </trkpt>
      <trkpt lat="45.08113" lon="3.67661">
        <ele>1080</ele>
        <time>2022-06-20T23:57:06.601Z</time>
      </trkpt>
      <trkpt lat="45.08128" lon="3.67655">
        <ele>1079</ele>
        <time>2022-06-20T23:57:07.839Z</time>
      </trkpt>
      <trkpt lat="45.08264" lon="3.67556">
        <ele>1083</ele>
        <time>2022-06-20T23:57:41.113Z</time>
      </trkpt>
      <trkpt lat="45.08355" lon="3.6751">
        <ele>1082</ele>
        <time>2022-06-20T23:57:54.243Z</time>
      </trkpt>
      <trkpt lat="45.08373" lon="3.67506">
        <ele>1082</ele>
        <time>2022-06-20T23:57:57.258Z</time>
      </trkpt>
      <trkpt lat="45.08404" lon="3.67508">
        <ele>1083</ele>
        <time>2022-06-20T23:58:04.543Z</time>
      </trkpt>
      <trkpt lat="45.0842" lon="3.67514">
        <ele>1083</ele>
        <time>2022-06-20T23:58:07.282Z</time>
      </trkpt>
      <trkpt lat="45.08432" lon="3.67523">
        <ele>1083</ele>
        <time>2022-06-20T23:58:09.528Z</time>
      </trkpt>
      <trkpt lat="45.08505" lon="3.67603">
        <ele>1084</ele>
        <time>2022-06-20T23:58:26.483Z</time>
      </trkpt>
      <trkpt lat="45.08541" lon="3.6765">
        <ele>1086</ele>
        <time>2022-06-20T23:58:39.428Z</time>
      </trkpt>
      <trkpt lat="45.08553" lon="3.67659">
        <ele>1086</ele>
        <time>2022-06-20T23:58:41.675Z</time>
      </trkpt>
      <trkpt lat="45.08568" lon="3.67665">
        <ele>1086</ele>
        <time>2022-06-20T23:58:44.254Z</time>
      </trkpt>
      <trkpt lat="45.08586" lon="3.67667">
        <ele>1085</ele>
        <time>2022-06-20T23:58:45.791Z</time>
      </trkpt>
      <trkpt lat="45.08698" lon="3.67661">
        <ele>1091</ele>
        <time>2022-06-20T23:59:18.987Z</time>
      </trkpt>
      <trkpt lat="45.08839" lon="3.67663">
        <ele>1095</ele>
        <time>2022-06-20T23:59:50.508Z</time>
      </trkpt>
      <trkpt lat="45.08862" lon="3.67667">
        <ele>1096</ele>
        <time>2022-06-20T23:59:56.849Z</time>
      </trkpt>
      <trkpt lat="45.08884" lon="3.67675">
        <ele>1098</ele>
        <time>2022-06-21T00:00:05.603Z</time>
      </trkpt>
      <trkpt lat="45.09031" lon="3.67747">
        <ele>1105</ele>
        <time>2022-06-21T00:00:49.177Z</time>
      </trkpt>
      <trkpt lat="45.09083" lon="3.67764">
        <ele>1108</ele>
        <time>2022-06-21T00:01:05.273Z</time>
      </trkpt>
      <trkpt lat="45.09104" lon="3.67767">
        <ele>1109</ele>
        <time>2022-06-21T00:01:11.276Z</time>
      </trkpt>
      <trkpt lat="45.09181" lon="3.67767">
        <ele>1111</ele>
        <time>2022-06-21T00:01:27.994Z</time>
      </trkpt>
      <trkpt lat="45.09207" lon="3.67765">
        <ele>1112</ele>
        <time>2022-06-21T00:01:34.640Z</time>
      </trkpt>
      <trkpt lat="45.09229" lon="3.67769">
        <ele>1113</ele>
        <time>2022-06-21T00:01:40.857Z</time>
      </trkpt>
      <trkpt lat="45.09263" lon="3.67782">
        <ele>1114</ele>
        <time>2022-06-21T00:01:48.733Z</time>
      </trkpt>
      <trkpt lat="45.09341" lon="3.67826">
        <ele>1117</ele>
        <time>2022-06-21T00:02:09.383Z</time>
      </trkpt>
      <trkpt lat="45.09547" lon="3.67935">
        <ele>1122</ele>
        <time>2022-06-21T00:02:55.340Z</time>
      </trkpt>
      <trkpt lat="45.09749" lon="3.68">
        <ele>1142</ele>
        <time>2022-06-21T00:04:21.572Z</time>
      </trkpt>
      <trkpt lat="45.09776" lon="3.68013">
        <ele>1144</ele>
        <time>2022-06-21T00:04:31.076Z</time>
      </trkpt>
      <trkpt lat="45.09809" lon="3.68038">
        <ele>1147</ele>
        <time>2022-06-21T00:04:44.570Z</time>
      </trkpt>
      <trkpt lat="45.09839" lon="3.68057">
        <ele>1148</ele>
        <time>2022-06-21T00:04:52.109Z</time>
      </trkpt>
      <trkpt lat="45.09917" lon="3.68091">
        <ele>1151</ele>
        <time>2022-06-21T00:05:12.467Z</time>
      </trkpt>
      <trkpt lat="45.0994" lon="3.68095">
        <ele>1152</ele>
        <time>2022-06-21T00:05:18.807Z</time>
      </trkpt>
      <trkpt lat="45.1011" lon="3.68101">
        <ele>1160</ele>
        <time>2022-06-21T00:06:07.072Z</time>
      </trkpt>
      <trkpt lat="45.10128" lon="3.68104">
        <ele>1161</ele>
        <time>2022-06-21T00:06:12.500Z</time>
      </trkpt>
      <trkpt lat="45.10191" lon="3.68121">
        <ele>1165</ele>
        <time>2022-06-21T00:06:32.691Z</time>
      </trkpt>
      <trkpt lat="45.10274" lon="3.68133">
        <ele>1168</ele>
        <time>2022-06-21T00:06:53.275Z</time>
      </trkpt>
      <trkpt lat="45.10291" lon="3.68132">
        <ele>1169</ele>
        <time>2022-06-21T00:06:58.498Z</time>
      </trkpt>
      <trkpt lat="45.10339" lon="3.68118">
        <ele>1170</ele>
        <time>2022-06-21T00:07:08.471Z</time>
      </trkpt>
      <trkpt lat="45.10359" lon="3.68109">
        <ele>1169</ele>
        <time>2022-06-21T00:07:10.380Z</time>
      </trkpt>
      <trkpt lat="45.10372" lon="3.681">
        <ele>1168</ele>
        <time>2022-06-21T00:07:11.611Z</time>
      </trkpt>
      <trkpt lat="45.1043" lon="3.68045">
        <ele>1169</ele>
        <time>2022-06-21T00:07:24.903Z</time>
      </trkpt>
      <trkpt lat="45.10485" lon="3.68">
        <ele>1169</ele>
        <time>2022-06-21T00:07:35.412Z</time>
      </trkpt>
      <trkpt lat="45.10503" lon="3.67986">
        <ele>1170</ele>
        <time>2022-06-21T00:07:41.303Z</time>
      </trkpt>
      <trkpt lat="45.10528" lon="3.67974">
        <ele>1169</ele>
        <time>2022-06-21T00:07:43.932Z</time>
      </trkpt>
      <trkpt lat="45.10553" lon="3.67965">
        <ele>1168</ele>
        <time>2022-06-21T00:07:46.480Z</time>
      </trkpt>
      <trkpt lat="45.1058" lon="3.67963">
        <ele>1164</ele>
        <time>2022-06-21T00:07:48.779Z</time>
      </trkpt>
      <trkpt lat="45.10619" lon="3.67965">
        <ele>1165</ele>
        <time>2022-06-21T00:07:57.216Z</time>
      </trkpt>
      <trkpt lat="45.10681" lon="3.67976">
        <ele>1166</ele>
        <time>2022-06-21T00:08:09.331Z</time>
      </trkpt>
      <trkpt lat="45.10701" lon="3.67974">
        <ele>1166</ele>
        <time>2022-06-21T00:08:12.648Z</time>
      </trkpt>
      <trkpt lat="45.1102" lon="3.67867">
        <ele>1153</ele>
        <time>2022-06-21T00:08:44.754Z</time>
      </trkpt>
      <trkpt lat="45.1115" lon="3.67798">
        <ele>1151</ele>
        <time>2022-06-21T00:09:02.659Z</time>
      </trkpt>
      <trkpt lat="45.11288" lon="3.67697">
        <ele>1149</ele>
        <time>2022-06-21T00:09:23.084Z</time>
      </trkpt>
      <trkpt lat="45.11542" lon="3.67505">
        <ele>1143</ele>
        <time>2022-06-21T00:09:57.438Z</time>
      </trkpt>
      <trkpt lat="45.11562" lon="3.67489">
        <ele>1142</ele>
        <time>2022-06-21T00:09:59.607Z</time>
      </trkpt>
      <trkpt lat="45.11683" lon="3.67344">
        <ele>1138</ele>
        <time>2022-06-21T00:10:17.599Z</time>
      </trkpt>
      <trkpt lat="45.11701" lon="3.67327">
        <ele>1137</ele>
        <time>2022-06-21T00:10:19.592Z</time>
      </trkpt>
      <trkpt lat="45.11766" lon="3.67286">
        <ele>1133</ele>
        <time>2022-06-21T00:10:25.610Z</time>
      </trkpt>
      <trkpt lat="45.11789" lon="3.67273">
        <ele>1131</ele>
        <time>2022-06-21T00:10:27.716Z</time>
      </trkpt>
      <trkpt lat="45.11935" lon="3.67225">
        <ele>1131</ele>
        <time>2022-06-21T00:10:52.514Z</time>
      </trkpt>
      <trkpt lat="45.11962" lon="3.67218">
        <ele>1132</ele>
        <time>2022-06-21T00:10:59.331Z</time>
      </trkpt>
      <trkpt lat="45.11987" lon="3.67215">
        <ele>1133</ele>
        <time>2022-06-21T00:11:05.869Z</time>
      </trkpt>
      <trkpt lat="45.12007" lon="3.67216">
        <ele>1133</ele>
        <time>2022-06-21T00:11:09.180Z</time>
      </trkpt>
      <trkpt lat="45.12028" lon="3.67218">
        <ele>1133</ele>
        <time>2022-06-21T00:11:12.663Z</time>
      </trkpt>
      <trkpt lat="45.12131" lon="3.67239">
        <ele>1133</ele>
        <time>2022-06-21T00:11:29.881Z</time>
      </trkpt>
      <trkpt lat="45.12153" lon="3.6724">
        <ele>1134</ele>
        <time>2022-06-21T00:11:36.064Z</time>
      </trkpt>
      <trkpt lat="45.12173" lon="3.67238">
        <ele>1134</ele>
        <time>2022-06-21T00:11:39.381Z</time>
      </trkpt>
      <trkpt lat="45.12248" lon="3.67221">
        <ele>1137</ele>
        <time>2022-06-21T00:11:59.073Z</time>
      </trkpt>
      <trkpt lat="45.13221" lon="3.66968">
        <ele>1142</ele>
        <time>2022-06-21T00:14:50.699Z</time>
      </trkpt>
      <trkpt lat="45.13259" lon="3.66962">
        <ele>1142</ele>
        <time>2022-06-21T00:14:57.025Z</time>
      </trkpt>
      <trkpt lat="45.13294" lon="3.6696">
        <ele>1142</ele>
        <time>2022-06-21T00:15:02.821Z</time>
      </trkpt>
      <trkpt lat="45.13746" lon="3.66994">
        <ele>1130</ele>
        <time>2022-06-21T00:15:53.501Z</time>
      </trkpt>
      <trkpt lat="45.13983" lon="3.67014">
        <ele>1118</ele>
        <time>2022-06-21T00:16:14.567Z</time>
      </trkpt>
      <trkpt lat="45.14012" lon="3.67013">
        <ele>1116</ele>
        <time>2022-06-21T00:16:17.034Z</time>
      </trkpt>
      <trkpt lat="45.14061" lon="3.67001">
        <ele>1113</ele>
        <time>2022-06-21T00:16:21.102Z</time>
      </trkpt>
      <trkpt lat="45.14084" lon="3.66991">
        <ele>1112</ele>
        <time>2022-06-21T00:16:23.416Z</time>
      </trkpt>
      <trkpt lat="45.1413" lon="3.6696">
        <ele>1109</ele>
        <time>2022-06-21T00:16:27.631Z</time>
      </trkpt>
      <trkpt lat="45.1415" lon="3.6694">
        <ele>1109</ele>
        <time>2022-06-21T00:16:31.681Z</time>
      </trkpt>
      <trkpt lat="45.14199" lon="3.669">
        <ele>1110</ele>
        <time>2022-06-21T00:16:42.845Z</time>
      </trkpt>
      <trkpt lat="45.14209" lon="3.66904">
        <ele>1109</ele>
        <time>2022-06-21T00:16:43.728Z</time>
      </trkpt>
      <trkpt lat="45.14225" lon="3.66886">
        <ele>1109</ele>
        <time>2022-06-21T00:16:47.108Z</time>
      </trkpt>
      <trkpt lat="45.1426" lon="3.66854">
        <ele>1110</ele>
        <time>2022-06-21T00:16:55.942Z</time>
      </trkpt>
      <trkpt lat="45.14271" lon="3.66871">
        <ele>1110</ele>
        <time>2022-06-21T00:16:58.634Z</time>
      </trkpt>
      <trkpt lat="45.14279" lon="3.66882">
        <ele>1110</ele>
        <time>2022-06-21T00:17:00.478Z</time>
      </trkpt>
      <trkpt lat="45.14288" lon="3.66887">
        <ele>1110</ele>
        <time>2022-06-21T00:17:02.077Z</time>
      </trkpt>
      <trkpt lat="45.14311" lon="3.66886">
        <ele>1110</ele>
        <time>2022-06-21T00:17:05.885Z</time>
      </trkpt>
      <trkpt lat="45.14355" lon="3.66876">
        <ele>1112</ele>
        <time>2022-06-21T00:17:18.359Z</time>
      </trkpt>
      <trkpt lat="45.14376" lon="3.66874">
        <ele>1112</ele>
        <time>2022-06-21T00:17:21.842Z</time>
      </trkpt>
      <trkpt lat="45.14402" lon="3.66874">
        <ele>1113</ele>
        <time>2022-06-21T00:17:28.483Z</time>
      </trkpt>
      <trkpt lat="45.14419" lon="3.66881">
        <ele>1113</ele>
        <time>2022-06-21T00:17:31.413Z</time>
      </trkpt>
      <trkpt lat="45.14453" lon="3.66902">
        <ele>1113</ele>
        <time>2022-06-21T00:17:37.549Z</time>
      </trkpt>
      <trkpt lat="45.14502" lon="3.66938">
        <ele>1114</ele>
        <time>2022-06-21T00:17:48.497Z</time>
      </trkpt>
      <trkpt lat="45.14598" lon="3.67054">
        <ele>1118</ele>
        <time>2022-06-21T00:18:17.912Z</time>
      </trkpt>
      <trkpt lat="45.14768" lon="3.66963">
        <ele>1122</ele>
        <time>2022-06-21T00:18:55.572Z</time>
      </trkpt>
      <trkpt lat="45.1481" lon="3.66938">
        <ele>1123</ele>
        <time>2022-06-21T00:19:05.006Z</time>
      </trkpt>
      <trkpt lat="45.14837" lon="3.6691">
        <ele>1124</ele>
        <time>2022-06-21T00:19:12.628Z</time>
      </trkpt>
      <trkpt lat="45.14859" lon="3.66884">
        <ele>1125</ele>
        <time>2022-06-21T00:19:19.595Z</time>
      </trkpt>
      <trkpt lat="45.15015" lon="3.66602">
        <ele>1127</ele>
        <time>2022-06-21T00:20:04.686Z</time>
      </trkpt>
      <trkpt lat="45.15026" lon="3.66576">
        <ele>1127</ele>
        <time>2022-06-21T00:20:08.224Z</time>
      </trkpt>
      <trkpt lat="45.15042" lon="3.66505">
        <ele>1125</ele>
        <time>2022-06-21T00:20:13.452Z</time>
      </trkpt>
      <trkpt lat="45.15051" lon="3.6648">
        <ele>1125</ele>
        <time>2022-06-21T00:20:16.727Z</time>
      </trkpt>
      <trkpt lat="45.15085" lon="3.66409">
        <ele>1126</ele>
        <time>2022-06-21T00:20:28.528Z</time>
      </trkpt>
      <trkpt lat="45.15103" lon="3.66368">
        <ele>1127</ele>
        <time>2022-06-21T00:20:36.236Z</time>
      </trkpt>
      <trkpt lat="45.1515" lon="3.66229">
        <ele>1131</ele>
        <time>2022-06-21T00:21:03.368Z</time>
      </trkpt>
      <trkpt lat="45.15179" lon="3.66177">
        <ele>1133</ele>
        <time>2022-06-21T00:21:16.088Z</time>
      </trkpt>
      <trkpt lat="45.15218" lon="3.66122">
        <ele>1135</ele>
        <time>2022-06-21T00:21:29.734Z</time>
      </trkpt>
      <trkpt lat="45.15294" lon="3.66036">
        <ele>1140</ele>
        <time>2022-06-21T00:21:58.130Z</time>
      </trkpt>
      <trkpt lat="45.15407" lon="3.65954">
        <ele>1141</ele>
        <time>2022-06-21T00:22:20.767Z</time>
      </trkpt>
      <trkpt lat="45.1545" lon="3.65912">
        <ele>1140</ele>
        <time>2022-06-21T00:22:27.123Z</time>
      </trkpt>
      <trkpt lat="45.15475" lon="3.6588">
        <ele>1140</ele>
        <time>2022-06-21T00:22:32.695Z</time>
      </trkpt>
      <trkpt lat="45.15485" lon="3.65855">
        <ele>1140</ele>
        <time>2022-06-21T00:22:36.049Z</time>
      </trkpt>
      <trkpt lat="45.15493" lon="3.65811">
        <ele>1141</ele>
        <time>2022-06-21T00:22:43.473Z</time>
      </trkpt>
      <trkpt lat="45.15501" lon="3.65793">
        <ele>1144</ele>
        <time>2022-06-21T00:22:53.048Z</time>
      </trkpt>
      <trkpt lat="45.15539" lon="3.65773">
        <ele>1150</ele>
        <time>2022-06-21T00:23:18.917Z</time>
      </trkpt>
      <trkpt lat="45.15557" lon="3.65761">
        <ele>1153</ele>
        <time>2022-06-21T00:23:31.611Z</time>
      </trkpt>
      <trkpt lat="45.15621" lon="3.6573">
        <ele>1161</ele>
        <time>2022-06-21T00:24:07.022Z</time>
      </trkpt>
      <trkpt lat="45.15655" lon="3.65706">
        <ele>1165</ele>
        <time>2022-06-21T00:24:24.257Z</time>
      </trkpt>
      <trkpt lat="45.15847" lon="3.65493">
        <ele>1173</ele>
        <time>2022-06-21T00:25:21.928Z</time>
      </trkpt>
      <trkpt lat="45.15924" lon="3.654">
        <ele>1175</ele>
        <time>2022-06-21T00:25:42.364Z</time>
      </trkpt>
      <trkpt lat="45.16043" lon="3.65324">
        <ele>1171</ele>
        <time>2022-06-21T00:25:56.347Z</time>
      </trkpt>
      <trkpt lat="45.16105" lon="3.65299">
        <ele>1167</ele>
        <time>2022-06-21T00:26:01.549Z</time>
      </trkpt>
      <trkpt lat="45.16166" lon="3.65271">
        <ele>1168</ele>
        <time>2022-06-21T00:26:13.926Z</time>
      </trkpt>
      <trkpt lat="45.16219" lon="3.65242">
        <ele>1167</ele>
        <time>2022-06-21T00:26:20.970Z</time>
      </trkpt>
      <trkpt lat="45.16258" lon="3.65202">
        <ele>1163</ele>
        <time>2022-06-21T00:26:25.062Z</time>
      </trkpt>
      <trkpt lat="45.16284" lon="3.65138">
        <ele>1158</ele>
        <time>2022-06-21T00:26:29.490Z</time>
      </trkpt>
      <trkpt lat="45.16317" lon="3.65064">
        <ele>1156</ele>
        <time>2022-06-21T00:26:35.986Z</time>
      </trkpt>
      <trkpt lat="45.16347" lon="3.65005">
        <ele>1154</ele>
        <time>2022-06-21T00:26:41.041Z</time>
      </trkpt>
      <trkpt lat="45.16371" lon="3.64969">
        <ele>1152</ele>
        <time>2022-06-21T00:26:43.971Z</time>
      </trkpt>
      <trkpt lat="45.16407" lon="3.64928">
        <ele>1152</ele>
        <time>2022-06-21T00:26:51.610Z</time>
      </trkpt>
      <trkpt lat="45.16446" lon="3.64892">
        <ele>1153</ele>
        <time>2022-06-21T00:27:01.196Z</time>
      </trkpt>
      <trkpt lat="45.16508" lon="3.64827">
        <ele>1152</ele>
        <time>2022-06-21T00:27:11.323Z</time>
      </trkpt>
      <trkpt lat="45.16623" lon="3.64725">
        <ele>1155</ele>
        <time>2022-06-21T00:27:39.467Z</time>
      </trkpt>
      <trkpt lat="45.16693" lon="3.64666">
        <ele>1153</ele>
        <time>2022-06-21T00:27:48.782Z</time>
      </trkpt>
      <trkpt lat="45.16832" lon="3.64558">
        <ele>1151</ele>
        <time>2022-06-21T00:28:09.693Z</time>
      </trkpt>
      <trkpt lat="45.16875" lon="3.64537">
        <ele>1152</ele>
        <time>2022-06-21T00:28:19.115Z</time>
      </trkpt>
      <trkpt lat="45.16919" lon="3.64519">
        <ele>1152</ele>
        <time>2022-06-21T00:28:26.692Z</time>
      </trkpt>
      <trkpt lat="45.16968" lon="3.64494">
        <ele>1150</ele>
        <time>2022-06-21T00:28:31.854Z</time>
      </trkpt>
      <trkpt lat="45.17062" lon="3.64472">
        <ele>1141</ele>
        <time>2022-06-21T00:28:39.954Z</time>
      </trkpt>
      <trkpt lat="45.17102" lon="3.64453">
        <ele>1136</ele>
        <time>2022-06-21T00:28:43.540Z</time>
      </trkpt>
      <trkpt lat="45.17135" lon="3.64454">
        <ele>1135</ele>
        <time>2022-06-21T00:28:47.089Z</time>
      </trkpt>
      <trkpt lat="45.17171" lon="3.64471">
        <ele>1134</ele>
        <time>2022-06-21T00:28:51.345Z</time>
      </trkpt>
      <trkpt lat="45.17216" lon="3.64496">
        <ele>1134</ele>
        <time>2022-06-21T00:28:59.341Z</time>
      </trkpt>
      <trkpt lat="45.17263" lon="3.64495">
        <ele>1133</ele>
        <time>2022-06-21T00:29:04.923Z</time>
      </trkpt>
      <trkpt lat="45.17324" lon="3.64476">
        <ele>1132</ele>
        <time>2022-06-21T00:29:12.819Z</time>
      </trkpt>
      <trkpt lat="45.17391" lon="3.64459">
        <ele>1130</ele>
        <time>2022-06-21T00:29:20.208Z</time>
      </trkpt>
      <trkpt lat="45.1745" lon="3.64431">
        <ele>1124</ele>
        <time>2022-06-21T00:29:25.498Z</time>
      </trkpt>
      <trkpt lat="45.17483" lon="3.64428">
        <ele>1121</ele>
        <time>2022-06-21T00:29:28.309Z</time>
      </trkpt>
      <trkpt lat="45.17598" lon="3.64448">
        <ele>1110</ele>
        <time>2022-06-21T00:29:38.160Z</time>
      </trkpt>
      <trkpt lat="45.17638" lon="3.64451">
        <ele>1111</ele>
        <time>2022-06-21T00:29:46.752Z</time>
      </trkpt>
      <trkpt lat="45.17685" lon="3.64442">
        <ele>1111</ele>
        <time>2022-06-21T00:29:54.599Z</time>
      </trkpt>
      <trkpt lat="45.17701" lon="3.64443">
        <ele>1111</ele>
        <time>2022-06-21T00:29:57.249Z</time>
      </trkpt>
      <trkpt lat="45.17732" lon="3.64458">
        <ele>1112</ele>
        <time>2022-06-21T00:30:04.773Z</time>
      </trkpt>
      <trkpt lat="45.17762" lon="3.64488">
        <ele>1113</ele>
        <time>2022-06-21T00:30:12.866Z</time>
      </trkpt>
      <trkpt lat="45.17798" lon="3.64533">
        <ele>1115</ele>
        <time>2022-06-21T00:30:25.708Z</time>
      </trkpt>
      <trkpt lat="45.17816" lon="3.64548">
        <ele>1116</ele>
        <time>2022-06-21T00:30:31.666Z</time>
      </trkpt>
      <trkpt lat="45.17838" lon="3.64552">
        <ele>1115</ele>
        <time>2022-06-21T00:30:33.731Z</time>
      </trkpt>
      <trkpt lat="45.17869" lon="3.64545">
        <ele>1114</ele>
        <time>2022-06-21T00:30:37.052Z</time>
      </trkpt>
      <trkpt lat="45.17893" lon="3.64544">
        <ele>1114</ele>
        <time>2022-06-21T00:30:41.025Z</time>
      </trkpt>
      <trkpt lat="45.17915" lon="3.6455">
        <ele>1115</ele>
        <time>2022-06-21T00:30:47.287Z</time>
      </trkpt>
      <trkpt lat="45.17933" lon="3.64565">
        <ele>1115</ele>
        <time>2022-06-21T00:30:50.741Z</time>
      </trkpt>
      <trkpt lat="45.17955" lon="3.64589">
        <ele>1114</ele>
        <time>2022-06-21T00:30:53.556Z</time>
      </trkpt>
      <trkpt lat="45.17987" lon="3.64599">
        <ele>1113</ele>
        <time>2022-06-21T00:30:57.071Z</time>
      </trkpt>
      <trkpt lat="45.18147" lon="3.64614">
        <ele>1113</ele>
        <time>2022-06-21T00:31:23.603Z</time>
      </trkpt>
      <trkpt lat="45.18166" lon="3.64608">
        <ele>1113</ele>
        <time>2022-06-21T00:31:26.823Z</time>
      </trkpt>
      <trkpt lat="45.18195" lon="3.64592">
        <ele>1112</ele>
        <time>2022-06-21T00:31:30.106Z</time>
      </trkpt>
      <trkpt lat="45.18247" lon="3.64571">
        <ele>1111</ele>
        <time>2022-06-21T00:31:36.739Z</time>
      </trkpt>
      <trkpt lat="45.18343" lon="3.6452">
        <ele>1111</ele>
        <time>2022-06-21T00:31:53.700Z</time>
      </trkpt>
      <trkpt lat="45.18367" lon="3.6452">
        <ele>1110</ele>
        <time>2022-06-21T00:31:56.006Z</time>
      </trkpt>
      <trkpt lat="45.18395" lon="3.64525">
        <ele>1109</ele>
        <time>2022-06-21T00:31:58.886Z</time>
      </trkpt>
      <trkpt lat="45.18474" lon="3.64522">
        <ele>1105</ele>
        <time>2022-06-21T00:32:05.894Z</time>
      </trkpt>
      <trkpt lat="45.1853" lon="3.64512">
        <ele>1101</ele>
        <time>2022-06-21T00:32:10.693Z</time>
      </trkpt>
      <trkpt lat="45.18576" lon="3.64493">
        <ele>1097</ele>
        <time>2022-06-21T00:32:14.766Z</time>
      </trkpt>
      <trkpt lat="45.18612" lon="3.64475">
        <ele>1095</ele>
        <time>2022-06-21T00:32:18.100Z</time>
      </trkpt>
      <trkpt lat="45.1864" lon="3.64454">
        <ele>1092</ele>
        <time>2022-06-21T00:32:20.792Z</time>
      </trkpt>
      <trkpt lat="45.18667" lon="3.64448">
        <ele>1088</ele>
        <time>2022-06-21T00:32:23.116Z</time>
      </trkpt>
      <trkpt lat="45.18769" lon="3.6445">
        <ele>1089</ele>
        <time>2022-06-21T00:32:41.660Z</time>
      </trkpt>
      <trkpt lat="45.18802" lon="3.64447">
        <ele>1087</ele>
        <time>2022-06-21T00:32:44.362Z</time>
      </trkpt>
      <trkpt lat="45.18876" lon="3.64422">
        <ele>1085</ele>
        <time>2022-06-21T00:32:52.899Z</time>
      </trkpt>
      <trkpt lat="45.18917" lon="3.64424">
        <ele>1086</ele>
        <time>2022-06-21T00:33:01.639Z</time>
      </trkpt>
      <trkpt lat="45.18955" lon="3.64424">
        <ele>1088</ele>
        <time>2022-06-21T00:33:12.826Z</time>
      </trkpt>
      <trkpt lat="45.19047" lon="3.64388">
        <ele>1096</ele>
        <time>2022-06-21T00:33:48.299Z</time>
      </trkpt>
      <trkpt lat="45.19071" lon="3.64382">
        <ele>1100</ele>
        <time>2022-06-21T00:34:03.852Z</time>
      </trkpt>
      <trkpt lat="45.19095" lon="3.64381">
        <ele>1102</ele>
        <time>2022-06-21T00:34:12.737Z</time>
      </trkpt>
      <trkpt lat="45.1914" lon="3.64366">
        <ele>1106</ele>
        <time>2022-06-21T00:34:30.319Z</time>
      </trkpt>
      <trkpt lat="45.19269" lon="3.6429">
        <ele>1115</ele>
        <time>2022-06-21T00:35:14.951Z</time>
      </trkpt>
      <trkpt lat="45.19307" lon="3.64253">
        <ele>1118</ele>
        <time>2022-06-21T00:35:29.748Z</time>
      </trkpt>
      <trkpt lat="45.19331" lon="3.64237">
        <ele>1118</ele>
        <time>2022-06-21T00:35:34.136Z</time>
      </trkpt>
      <trkpt lat="45.19407" lon="3.64223">
        <ele>1120</ele>
        <time>2022-06-21T00:35:50.800Z</time>
      </trkpt>
      <trkpt lat="45.19429" lon="3.64221">
        <ele>1121</ele>
        <time>2022-06-21T00:35:56.990Z</time>
      </trkpt>
      <trkpt lat="45.19581" lon="3.6424">
        <ele>1129</ele>
        <time>2022-06-21T00:36:41.850Z</time>
      </trkpt>
      <trkpt lat="45.19653" lon="3.64232">
        <ele>1132</ele>
        <time>2022-06-21T00:37:01.139Z</time>
      </trkpt>
      <trkpt lat="45.19803" lon="3.64221">
        <ele>1128</ele>
        <time>2022-06-21T00:37:17.934Z</time>
      </trkpt>
      <trkpt lat="45.19844" lon="3.64209">
        <ele>1124</ele>
        <time>2022-06-21T00:37:21.493Z</time>
      </trkpt>
      <trkpt lat="45.19934" lon="3.64126">
        <ele>1118</ele>
        <time>2022-06-21T00:37:30.596Z</time>
      </trkpt>
      <trkpt lat="45.20007" lon="3.6407">
        <ele>1116</ele>
        <time>2022-06-21T00:37:40.138Z</time>
      </trkpt>
      <trkpt lat="45.20068" lon="3.64007">
        <ele>1108</ele>
        <time>2022-06-21T00:37:46.552Z</time>
      </trkpt>
      <trkpt lat="45.20093" lon="3.63973">
        <ele>1104</ele>
        <time>2022-06-21T00:37:49.496Z</time>
      </trkpt>
      <trkpt lat="45.2011" lon="3.63954">
        <ele>1101</ele>
        <time>2022-06-21T00:37:51.336Z</time>
      </trkpt>
      <trkpt lat="45.20118" lon="3.63947">
        <ele>1100</ele>
        <time>2022-06-21T00:37:52.135Z</time>
      </trkpt>
      <trkpt lat="45.20147" lon="3.6393">
        <ele>1097</ele>
        <time>2022-06-21T00:37:54.803Z</time>
      </trkpt>
      <trkpt lat="45.20189" lon="3.63916">
        <ele>1094</ele>
        <time>2022-06-21T00:37:58.471Z</time>
      </trkpt>
      <trkpt lat="45.20252" lon="3.63911">
        <ele>1093</ele>
        <time>2022-06-21T00:38:06.464Z</time>
      </trkpt>
      <trkpt lat="45.20271" lon="3.63906">
        <ele>1094</ele>
        <time>2022-06-21T00:38:12.120Z</time>
      </trkpt>
      <trkpt lat="45.20306" lon="3.63891">
        <ele>1095</ele>
        <time>2022-06-21T00:38:20.191Z</time>
      </trkpt>
      <trkpt lat="45.20479" lon="3.63837">
        <ele>1101</ele>
        <time>2022-06-21T00:39:02.684Z</time>
      </trkpt>
      <trkpt lat="45.20501" lon="3.63834">
        <ele>1101</ele>
        <time>2022-06-21T00:39:06.341Z</time>
      </trkpt>
      <trkpt lat="45.20523" lon="3.63835">
        <ele>1103</ele>
        <time>2022-06-21T00:39:15.038Z</time>
      </trkpt>
      <trkpt lat="45.20573" lon="3.63848">
        <ele>1106</ele>
        <time>2022-06-21T00:39:30.668Z</time>
      </trkpt>
      <trkpt lat="45.20615" lon="3.63865">
        <ele>1107</ele>
        <time>2022-06-21T00:39:39.812Z</time>
      </trkpt>
      <trkpt lat="45.20642" lon="3.63884">
        <ele>1106</ele>
        <time>2022-06-21T00:39:42.958Z</time>
      </trkpt>
      <trkpt lat="45.20703" lon="3.6392">
        <ele>1107</ele>
        <time>2022-06-21T00:39:55.648Z</time>
      </trkpt>
      <trkpt lat="45.20718" lon="3.63932">
        <ele>1109</ele>
        <time>2022-06-21T00:40:04.441Z</time>
      </trkpt>
      <trkpt lat="45.20743" lon="3.63958">
        <ele>1110</ele>
        <time>2022-06-21T00:40:11.721Z</time>
      </trkpt>
      <trkpt lat="45.20757" lon="3.63968">
        <ele>1111</ele>
        <time>2022-06-21T00:40:16.706Z</time>
      </trkpt>
      <trkpt lat="45.20773" lon="3.63977">
        <ele>1112</ele>
        <time>2022-06-21T00:40:21.965Z</time>
      </trkpt>
      <trkpt lat="45.20891" lon="3.64011">
        <ele>1113</ele>
        <time>2022-06-21T00:40:43.528Z</time>
      </trkpt>
      <trkpt lat="45.20928" lon="3.64017">
        <ele>1112</ele>
        <time>2022-06-21T00:40:47.682Z</time>
      </trkpt>
      <trkpt lat="45.20947" lon="3.64014">
        <ele>1111</ele>
        <time>2022-06-21T00:40:49.353Z</time>
      </trkpt>
      <trkpt lat="45.21057" lon="3.63985">
        <ele>1106</ele>
        <time>2022-06-21T00:40:59.808Z</time>
      </trkpt>
      <trkpt lat="45.21142" lon="3.63968">
        <ele>1105</ele>
        <time>2022-06-21T00:41:11.277Z</time>
      </trkpt>
      <trkpt lat="45.21184" lon="3.63963">
        <ele>1106</ele>
        <time>2022-06-21T00:41:20.187Z</time>
      </trkpt>
      <trkpt lat="45.21225" lon="3.63962">
        <ele>1107</ele>
        <time>2022-06-21T00:41:28.923Z</time>
      </trkpt>
      <trkpt lat="45.21271" lon="3.63985">
        <ele>1108</ele>
        <time>2022-06-21T00:41:38.859Z</time>
      </trkpt>
      <trkpt lat="45.21291" lon="3.63998">
        <ele>1108</ele>
        <time>2022-06-21T00:41:42.498Z</time>
      </trkpt>
      <trkpt lat="45.2133" lon="3.64031">
        <ele>1110</ele>
        <time>2022-06-21T00:41:55.092Z</time>
      </trkpt>
      <trkpt lat="45.21379" lon="3.64063">
        <ele>1110</ele>
        <time>2022-06-21T00:42:04.017Z</time>
      </trkpt>
      <trkpt lat="45.21441" lon="3.64089">
        <ele>1112</ele>
        <time>2022-06-21T00:42:18.943Z</time>
      </trkpt>
      <trkpt lat="45.21513" lon="3.64125">
        <ele>1115</ele>
        <time>2022-06-21T00:42:38.678Z</time>
      </trkpt>
      <trkpt lat="45.21571" lon="3.64143">
        <ele>1119</ele>
        <time>2022-06-21T00:42:58.061Z</time>
      </trkpt>
      <trkpt lat="45.21598" lon="3.64155">
        <ele>1122</ele>
        <time>2022-06-21T00:43:10.996Z</time>
      </trkpt>
      <trkpt lat="45.21641" lon="3.6418">
        <ele>1125</ele>
        <time>2022-06-21T00:43:25.857Z</time>
      </trkpt>
      <trkpt lat="45.21648" lon="3.6419">
        <ele>1125</ele>
        <time>2022-06-21T00:43:27.501Z</time>
      </trkpt>
      <trkpt lat="45.21657" lon="3.64205">
        <ele>1126</ele>
        <time>2022-06-21T00:43:32.194Z</time>
      </trkpt>
      <trkpt lat="45.21693" lon="3.64299">
        <ele>1127</ele>
        <time>2022-06-21T00:43:46.390Z</time>
      </trkpt>
      <trkpt lat="45.21711" lon="3.64336">
        <ele>1128</ele>
        <time>2022-06-21T00:43:53.763Z</time>
      </trkpt>
      <trkpt lat="45.21724" lon="3.64356">
        <ele>1128</ele>
        <time>2022-06-21T00:43:56.935Z</time>
      </trkpt>
      <trkpt lat="45.21766" lon="3.64413">
        <ele>1127</ele>
        <time>2022-06-21T00:44:04.175Z</time>
      </trkpt>
      <trkpt lat="45.21817" lon="3.6447">
        <ele>1128</ele>
        <time>2022-06-21T00:44:16.679Z</time>
      </trkpt>
      <trkpt lat="45.21838" lon="3.64497">
        <ele>1129</ele>
        <time>2022-06-21T00:44:23.607Z</time>
      </trkpt>
      <trkpt lat="45.21881" lon="3.64569">
        <ele>1124</ele>
        <time>2022-06-21T00:44:29.260Z</time>
      </trkpt>
      <trkpt lat="45.21892" lon="3.64583">
        <ele>1123</ele>
        <time>2022-06-21T00:44:30.516Z</time>
      </trkpt>
      <trkpt lat="45.21898" lon="3.64591">
        <ele>1121</ele>
        <time>2022-06-21T00:44:31.216Z</time>
      </trkpt>
      <trkpt lat="45.21942" lon="3.6463">
        <ele>1117</ele>
        <time>2022-06-21T00:44:35.626Z</time>
      </trkpt>
      <trkpt lat="45.21939" lon="3.64639">
        <ele>1117</ele>
        <time>2022-06-21T00:44:36.786Z</time>
      </trkpt>
      <trkpt lat="45.21939" lon="3.64646">
        <ele>1116</ele>
        <time>2022-06-21T00:44:37.206Z</time>
      </trkpt>
      <trkpt lat="45.21943" lon="3.64718">
        <ele>1113</ele>
        <time>2022-06-21T00:44:41.414Z</time>
      </trkpt>
      <trkpt lat="45.21942" lon="3.64757">
        <ele>1112</ele>
        <time>2022-06-21T00:44:44.193Z</time>
      </trkpt>
      <trkpt lat="45.21936" lon="3.64788">
        <ele>1111</ele>
        <time>2022-06-21T00:44:46.319Z</time>
      </trkpt>
      <trkpt lat="45.21925" lon="3.64821">
        <ele>1109</ele>
        <time>2022-06-21T00:44:48.506Z</time>
      </trkpt>
      <trkpt lat="45.21929" lon="3.6484">
        <ele>1108</ele>
        <time>2022-06-21T00:44:49.693Z</time>
      </trkpt>
      <trkpt lat="45.21944" lon="3.64881">
        <ele>1106</ele>
        <time>2022-06-21T00:44:52.332Z</time>
      </trkpt>
      <trkpt lat="45.21943" lon="3.64901">
        <ele>1104</ele>
        <time>2022-06-21T00:44:53.533Z</time>
      </trkpt>
      <trkpt lat="45.21938" lon="3.64919">
        <ele>1103</ele>
        <time>2022-06-21T00:44:54.692Z</time>
      </trkpt>
      <trkpt lat="45.22019" lon="3.64925">
        <ele>1103</ele>
        <time>2022-06-21T00:45:08.112Z</time>
      </trkpt>
      <trkpt lat="45.22043" lon="3.64924">
        <ele>1101</ele>
        <time>2022-06-21T00:45:10.154Z</time>
      </trkpt>
      <trkpt lat="45.22072" lon="3.64914">
        <ele>1100</ele>
        <time>2022-06-21T00:45:13.258Z</time>
      </trkpt>
      <trkpt lat="45.22103" lon="3.64891">
        <ele>1100</ele>
        <time>2022-06-21T00:45:19.046Z</time>
      </trkpt>
      <trkpt lat="45.22116" lon="3.64878">
        <ele>1100</ele>
        <time>2022-06-21T00:45:21.677Z</time>
      </trkpt>
      <trkpt lat="45.22127" lon="3.64873">
        <ele>1099</ele>
        <time>2022-06-21T00:45:22.659Z</time>
      </trkpt>
      <trkpt lat="45.22145" lon="3.64872">
        <ele>1098</ele>
        <time>2022-06-21T00:45:24.192Z</time>
      </trkpt>
      <trkpt lat="45.22222" lon="3.64881">
        <ele>1098</ele>
        <time>2022-06-21T00:45:36.975Z</time>
      </trkpt>
      <trkpt lat="45.22272" lon="3.64893">
        <ele>1097</ele>
        <time>2022-06-21T00:45:43.107Z</time>
      </trkpt>
      <trkpt lat="45.22308" lon="3.64908">
        <ele>1096</ele>
        <time>2022-06-21T00:45:47.301Z</time>
      </trkpt>
      <trkpt lat="45.22346" lon="3.64936">
        <ele>1094</ele>
        <time>2022-06-21T00:45:51.230Z</time>
      </trkpt>
      <trkpt lat="45.2238" lon="3.64968">
        <ele>1094</ele>
        <time>2022-06-21T00:45:57.979Z</time>
      </trkpt>
      <trkpt lat="45.22407" lon="3.64988">
        <ele>1095</ele>
        <time>2022-06-21T00:46:05.186Z</time>
      </trkpt>
      <trkpt lat="45.22425" lon="3.64997">
        <ele>1095</ele>
        <time>2022-06-21T00:46:08.343Z</time>
      </trkpt>
      <trkpt lat="45.22454" lon="3.64999">
        <ele>1095</ele>
        <time>2022-06-21T00:46:13.147Z</time>
      </trkpt>
      <trkpt lat="45.22485" lon="3.64996">
        <ele>1095</ele>
        <time>2022-06-21T00:46:18.288Z</time>
      </trkpt>
      <trkpt lat="45.22516" lon="3.64991">
        <ele>1095</ele>
        <time>2022-06-21T00:46:23.451Z</time>
      </trkpt>
      <trkpt lat="45.22558" lon="3.64995">
        <ele>1095</ele>
        <time>2022-06-21T00:46:30.416Z</time>
      </trkpt>
      <trkpt lat="45.22581" lon="3.65002">
        <ele>1094</ele>
        <time>2022-06-21T00:46:32.658Z</time>
      </trkpt>
      <trkpt lat="45.22597" lon="3.65008">
        <ele>1094</ele>
        <time>2022-06-21T00:46:35.396Z</time>
      </trkpt>
      <trkpt lat="45.22606" lon="3.65021">
        <ele>1094</ele>
        <time>2022-06-21T00:46:37.521Z</time>
      </trkpt>
      <trkpt lat="45.22655" lon="3.65112">
        <ele>1092</ele>
        <time>2022-06-21T00:46:46.726Z</time>
      </trkpt>
      <trkpt lat="45.22656" lon="3.65101">
        <ele>1092</ele>
        <time>2022-06-21T00:46:48.019Z</time>
      </trkpt>
      <trkpt lat="45.22661" lon="3.65082">
        <ele>1093</ele>
        <time>2022-06-21T00:46:52.775Z</time>
      </trkpt>
      <trkpt lat="45.22735" lon="3.65037">
        <ele>1095</ele>
        <time>2022-06-21T00:47:10.019Z</time>
      </trkpt>
      <trkpt lat="45.22749" lon="3.65025">
        <ele>1096</ele>
        <time>2022-06-21T00:47:15.124Z</time>
      </trkpt>
      <trkpt lat="45.22763" lon="3.65006">
        <ele>1094</ele>
        <time>2022-06-21T00:47:16.770Z</time>
      </trkpt>
      <trkpt lat="45.22778" lon="3.64977">
        <ele>1091</ele>
        <time>2022-06-21T00:47:18.925Z</time>
      </trkpt>
      <trkpt lat="45.22789" lon="3.64949">
        <ele>1089</ele>
        <time>2022-06-21T00:47:20.844Z</time>
      </trkpt>
      <trkpt lat="45.22798" lon="3.64912">
        <ele>1087</ele>
        <time>2022-06-21T00:47:23.188Z</time>
      </trkpt>
      <trkpt lat="45.22812" lon="3.64808">
        <ele>1084</ele>
        <time>2022-06-21T00:47:30.452Z</time>
      </trkpt>
      <trkpt lat="45.22819" lon="3.64769">
        <ele>1083</ele>
        <time>2022-06-21T00:47:33.349Z</time>
      </trkpt>
      <trkpt lat="45.22834" lon="3.64704">
        <ele>1080</ele>
        <time>2022-06-21T00:47:37.230Z</time>
      </trkpt>
      <trkpt lat="45.22838" lon="3.64677">
        <ele>1079</ele>
        <time>2022-06-21T00:47:38.941Z</time>
      </trkpt>
      <trkpt lat="45.22845" lon="3.64526">
        <ele>1072</ele>
        <time>2022-06-21T00:47:47.304Z</time>
      </trkpt>
      <trkpt lat="45.22849" lon="3.64498">
        <ele>1071</ele>
        <time>2022-06-21T00:47:49.103Z</time>
      </trkpt>
      <trkpt lat="45.22856" lon="3.64474">
        <ele>1069</ele>
        <time>2022-06-21T00:47:50.658Z</time>
      </trkpt>
      <trkpt lat="45.22864" lon="3.64468">
        <ele>1067</ele>
        <time>2022-06-21T00:47:51.428Z</time>
      </trkpt>
      <trkpt lat="45.22874" lon="3.64468">
        <ele>1064</ele>
        <time>2022-06-21T00:47:52.278Z</time>
      </trkpt>
      <trkpt lat="45.22885" lon="3.64477">
        <ele>1061</ele>
        <time>2022-06-21T00:47:53.357Z</time>
      </trkpt>
      <trkpt lat="45.229" lon="3.64501">
        <ele>1056</ele>
        <time>2022-06-21T00:47:55.279Z</time>
      </trkpt>
      <trkpt lat="45.22927" lon="3.64557">
        <ele>1052</ele>
        <time>2022-06-21T00:47:59.342Z</time>
      </trkpt>
      <trkpt lat="45.22943" lon="3.64601">
        <ele>1049</ele>
        <time>2022-06-21T00:48:02.307Z</time>
      </trkpt>
      <trkpt lat="45.22953" lon="3.64662">
        <ele>1046</ele>
        <time>2022-06-21T00:48:06.058Z</time>
      </trkpt>
      <trkpt lat="45.22958" lon="3.64714">
        <ele>1044</ele>
        <time>2022-06-21T00:48:09.239Z</time>
      </trkpt>
      <trkpt lat="45.22964" lon="3.64744">
        <ele>1043</ele>
        <time>2022-06-21T00:48:11.276Z</time>
      </trkpt>
      <trkpt lat="45.2297" lon="3.64765">
        <ele>1042</ele>
        <time>2022-06-21T00:48:12.558Z</time>
      </trkpt>
      <trkpt lat="45.22998" lon="3.64824">
        <ele>1038</ele>
        <time>2022-06-21T00:48:16.818Z</time>
      </trkpt>
      <trkpt lat="45.23009" lon="3.64834">
        <ele>1037</ele>
        <time>2022-06-21T00:48:17.929Z</time>
      </trkpt>
      <trkpt lat="45.23028" lon="3.64846">
        <ele>1037</ele>
        <time>2022-06-21T00:48:21.369Z</time>
      </trkpt>
      <trkpt lat="45.23052" lon="3.64856">
        <ele>1036</ele>
        <time>2022-06-21T00:48:23.812Z</time>
      </trkpt>
      <trkpt lat="45.23078" lon="3.64863">
        <ele>1035</ele>
        <time>2022-06-21T00:48:26.450Z</time>
      </trkpt>
      <trkpt lat="45.23108" lon="3.64875">
        <ele>1032</ele>
        <time>2022-06-21T00:48:29.100Z</time>
      </trkpt>
      <trkpt lat="45.23131" lon="3.64898">
        <ele>1030</ele>
        <time>2022-06-21T00:48:31.492Z</time>
      </trkpt>
      <trkpt lat="45.23138" lon="3.64911">
        <ele>1030</ele>
        <time>2022-06-21T00:48:33.399Z</time>
      </trkpt>
      <trkpt lat="45.23142" lon="3.64929">
        <ele>1029</ele>
        <time>2022-06-21T00:48:34.529Z</time>
      </trkpt>
      <trkpt lat="45.23142" lon="3.64943">
        <ele>1028</ele>
        <time>2022-06-21T00:48:35.367Z</time>
      </trkpt>
      <trkpt lat="45.23139" lon="3.64964">
        <ele>1028</ele>
        <time>2022-06-21T00:48:37.864Z</time>
      </trkpt>
      <trkpt lat="45.23101" lon="3.65044">
        <ele>1038</ele>
        <time>2022-06-21T00:49:21.235Z</time>
      </trkpt>
      <trkpt lat="45.23095" lon="3.65064">
        <ele>1040</ele>
        <time>2022-06-21T00:49:30.626Z</time>
      </trkpt>
      <trkpt lat="45.23095" lon="3.65082">
        <ele>1040</ele>
        <time>2022-06-21T00:49:32.723Z</time>
      </trkpt>
      <trkpt lat="45.231" lon="3.651">
        <ele>1040</ele>
        <time>2022-06-21T00:49:34.978Z</time>
      </trkpt>
      <trkpt lat="45.23106" lon="3.65111">
        <ele>1039</ele>
        <time>2022-06-21T00:49:35.811Z</time>
      </trkpt>
      <trkpt lat="45.23152" lon="3.6516">
        <ele>1029</ele>
        <time>2022-06-21T00:49:40.700Z</time>
      </trkpt>
      <trkpt lat="45.23176" lon="3.65188">
        <ele>1024</ele>
        <time>2022-06-21T00:49:43.341Z</time>
      </trkpt>
      <trkpt lat="45.23187" lon="3.65207">
        <ele>1022</ele>
        <time>2022-06-21T00:49:44.814Z</time>
      </trkpt>
      <trkpt lat="45.23196" lon="3.65259">
        <ele>1021</ele>
        <time>2022-06-21T00:49:49.036Z</time>
      </trkpt>
      <trkpt lat="45.23211" lon="3.65353">
        <ele>1019</ele>
        <time>2022-06-21T00:49:56.399Z</time>
      </trkpt>
      <trkpt lat="45.23214" lon="3.65367">
        <ele>1021</ele>
        <time>2022-06-21T00:50:02.976Z</time>
      </trkpt>
      <trkpt lat="45.23228" lon="3.65379">
        <ele>1020</ele>
        <time>2022-06-21T00:50:04.305Z</time>
      </trkpt>
      <trkpt lat="45.23237" lon="3.6538">
        <ele>1020</ele>
        <time>2022-06-21T00:50:05.799Z</time>
      </trkpt>
      <trkpt lat="45.23265" lon="3.65372">
        <ele>1018</ele>
        <time>2022-06-21T00:50:08.227Z</time>
      </trkpt>
      <trkpt lat="45.23295" lon="3.65358">
        <ele>1018</ele>
        <time>2022-06-21T00:50:13.452Z</time>
      </trkpt>
      <trkpt lat="45.2331" lon="3.65347">
        <ele>1017</ele>
        <time>2022-06-21T00:50:14.845Z</time>
      </trkpt>
      <trkpt lat="45.23324" lon="3.65327">
        <ele>1013</ele>
        <time>2022-06-21T00:50:16.534Z</time>
      </trkpt>
      <trkpt lat="45.23367" lon="3.6526">
        <ele>1002</ele>
        <time>2022-06-21T00:50:21.961Z</time>
      </trkpt>
      <trkpt lat="45.2352" lon="3.65097">
        <ele>991</ele>
        <time>2022-06-21T00:50:37.970Z</time>
      </trkpt>
      <trkpt lat="45.23549" lon="3.65075">
        <ele>987</ele>
        <time>2022-06-21T00:50:40.765Z</time>
      </trkpt>
      <trkpt lat="45.23576" lon="3.65062">
        <ele>985</ele>
        <time>2022-06-21T00:50:43.189Z</time>
      </trkpt>
      <trkpt lat="45.23617" lon="3.65055">
        <ele>984</ele>
        <time>2022-06-21T00:50:47.932Z</time>
      </trkpt>
      <trkpt lat="45.23655" lon="3.65054">
        <ele>984</ele>
        <time>2022-06-21T00:50:54.220Z</time>
      </trkpt>
      <trkpt lat="45.23684" lon="3.65061">
        <ele>983</ele>
        <time>2022-06-21T00:50:57.265Z</time>
      </trkpt>
      <trkpt lat="45.23727" lon="3.65079">
        <ele>981</ele>
        <time>2022-06-21T00:51:01.458Z</time>
      </trkpt>
      <trkpt lat="45.2378" lon="3.65108">
        <ele>977</ele>
        <time>2022-06-21T00:51:06.287Z</time>
      </trkpt>
      <trkpt lat="45.23887" lon="3.6521">
        <ele>974</ele>
        <time>2022-06-21T00:51:21.243Z</time>
      </trkpt>
      <trkpt lat="45.23896" lon="3.65222">
        <ele>974</ele>
        <time>2022-06-21T00:51:23.285Z</time>
      </trkpt>
      <trkpt lat="45.23902" lon="3.65234">
        <ele>975</ele>
        <time>2022-06-21T00:51:27.597Z</time>
      </trkpt>
      <trkpt lat="45.23919" lon="3.65288">
        <ele>975</ele>
        <time>2022-06-21T00:51:34.489Z</time>
      </trkpt>
      <trkpt lat="45.23924" lon="3.65301">
        <ele>976</ele>
        <time>2022-06-21T00:51:38.803Z</time>
      </trkpt>
      <trkpt lat="45.23935" lon="3.65318">
        <ele>975</ele>
        <time>2022-06-21T00:51:40.121Z</time>
      </trkpt>
      <trkpt lat="45.23945" lon="3.6533">
        <ele>975</ele>
        <time>2022-06-21T00:51:42.287Z</time>
      </trkpt>
      <trkpt lat="45.23955" lon="3.65338">
        <ele>975</ele>
        <time>2022-06-21T00:51:44.186Z</time>
      </trkpt>
      <trkpt lat="45.23968" lon="3.65345">
        <ele>975</ele>
        <time>2022-06-21T00:51:46.487Z</time>
      </trkpt>
      <trkpt lat="45.23995" lon="3.65348">
        <ele>973</ele>
        <time>2022-06-21T00:51:48.789Z</time>
      </trkpt>
      <trkpt lat="45.24008" lon="3.65344">
        <ele>972</ele>
        <time>2022-06-21T00:51:49.920Z</time>
      </trkpt>
      <trkpt lat="45.24031" lon="3.65326">
        <ele>970</ele>
        <time>2022-06-21T00:51:52.153Z</time>
      </trkpt>
      <trkpt lat="45.2405" lon="3.653">
        <ele>968</ele>
        <time>2022-06-21T00:51:54.396Z</time>
      </trkpt>
      <trkpt lat="45.24088" lon="3.6523">
        <ele>962</ele>
        <time>2022-06-21T00:51:59.688Z</time>
      </trkpt>
      <trkpt lat="45.241" lon="3.65206">
        <ele>960</ele>
        <time>2022-06-21T00:52:01.450Z</time>
      </trkpt>
      <trkpt lat="45.24109" lon="3.65176">
        <ele>957</ele>
        <time>2022-06-21T00:52:03.402Z</time>
      </trkpt>
      <trkpt lat="45.24127" lon="3.65103">
        <ele>950</ele>
        <time>2022-06-21T00:52:08.032Z</time>
      </trkpt>
      <trkpt lat="45.24154" lon="3.64974">
        <ele>945</ele>
        <time>2022-06-21T00:52:16.282Z</time>
      </trkpt>
      <trkpt lat="45.24162" lon="3.64948">
        <ele>944</ele>
        <time>2022-06-21T00:52:18.062Z</time>
      </trkpt>
      <trkpt lat="45.24178" lon="3.64943">
        <ele>944</ele>
        <time>2022-06-21T00:52:20.773Z</time>
      </trkpt>
      <trkpt lat="45.24194" lon="3.64944">
        <ele>944</ele>
        <time>2022-06-21T00:52:23.423Z</time>
      </trkpt>
      <trkpt lat="45.24282" lon="3.64978">
        <ele>942</ele>
        <time>2022-06-21T00:52:34.171Z</time>
      </trkpt>
      <trkpt lat="45.24308" lon="3.64983">
        <ele>941</ele>
        <time>2022-06-21T00:52:36.779Z</time>
      </trkpt>
      <trkpt lat="45.24344" lon="3.64986">
        <ele>940</ele>
        <time>2022-06-21T00:52:40.763Z</time>
      </trkpt>
      <trkpt lat="45.24447" lon="3.65012">
        <ele>936</ele>
        <time>2022-06-21T00:52:51.150Z</time>
      </trkpt>
      <trkpt lat="45.24523" lon="3.65038">
        <ele>925</ele>
        <time>2022-06-21T00:52:57.796Z</time>
      </trkpt>
      <trkpt lat="45.24577" lon="3.6507">
        <ele>918</ele>
        <time>2022-06-21T00:53:02.771Z</time>
      </trkpt>
      <trkpt lat="45.24602" lon="3.65091">
        <ele>914</ele>
        <time>2022-06-21T00:53:05.240Z</time>
      </trkpt>
      <trkpt lat="45.24616" lon="3.65117">
        <ele>912</ele>
        <time>2022-06-21T00:53:07.200Z</time>
      </trkpt>
      <trkpt lat="45.2463" lon="3.6515">
        <ele>911</ele>
        <time>2022-06-21T00:53:09.929Z</time>
      </trkpt>
      <trkpt lat="45.24638" lon="3.65224">
        <ele>910</ele>
        <time>2022-06-21T00:53:16.359Z</time>
      </trkpt>
      <trkpt lat="45.24641" lon="3.65272">
        <ele>910</ele>
        <time>2022-06-21T00:53:21.973Z</time>
      </trkpt>
      <trkpt lat="45.2464" lon="3.65306">
        <ele>911</ele>
        <time>2022-06-21T00:53:28.391Z</time>
      </trkpt>
      <trkpt lat="45.24643" lon="3.65328">
        <ele>910</ele>
        <time>2022-06-21T00:53:29.651Z</time>
      </trkpt>
      <trkpt lat="45.24648" lon="3.65337">
        <ele>909</ele>
        <time>2022-06-21T00:53:30.337Z</time>
      </trkpt>
      <trkpt lat="45.24655" lon="3.65342">
        <ele>906</ele>
        <time>2022-06-21T00:53:31.003Z</time>
      </trkpt>
      <trkpt lat="45.24667" lon="3.65343">
        <ele>902</ele>
        <time>2022-06-21T00:53:32.025Z</time>
      </trkpt>
      <trkpt lat="45.24674" lon="3.65341">
        <ele>903</ele>
        <time>2022-06-21T00:53:36.582Z</time>
      </trkpt>
      <trkpt lat="45.24679" lon="3.65335">
        <ele>903</ele>
        <time>2022-06-21T00:53:37.665Z</time>
      </trkpt>
      <trkpt lat="45.24718" lon="3.65265">
        <ele>900</ele>
        <time>2022-06-21T00:53:43.380Z</time>
      </trkpt>
      <trkpt lat="45.24728" lon="3.65257">
        <ele>899</ele>
        <time>2022-06-21T00:53:44.356Z</time>
      </trkpt>
      <trkpt lat="45.24747" lon="3.65249">
        <ele>897</ele>
        <time>2022-06-21T00:53:46.041Z</time>
      </trkpt>
      <trkpt lat="45.24764" lon="3.65248">
        <ele>896</ele>
        <time>2022-06-21T00:53:47.451Z</time>
      </trkpt>
      <trkpt lat="45.24785" lon="3.6526">
        <ele>897</ele>
        <time>2022-06-21T00:53:53.742Z</time>
      </trkpt>
      <trkpt lat="45.24816" lon="3.65298">
        <ele>903</ele>
        <time>2022-06-21T00:54:19.875Z</time>
      </trkpt>
      <trkpt lat="45.24866" lon="3.65372">
        <ele>903</ele>
        <time>2022-06-21T00:54:31.823Z</time>
      </trkpt>
      <trkpt lat="45.24882" lon="3.65423">
        <ele>904</ele>
        <time>2022-06-21T00:54:40.303Z</time>
      </trkpt>
      <trkpt lat="45.24885" lon="3.65472">
        <ele>906</ele>
        <time>2022-06-21T00:54:50.858Z</time>
      </trkpt>
      <trkpt lat="45.24888" lon="3.65499">
        <ele>907</ele>
        <time>2022-06-21T00:54:56.498Z</time>
      </trkpt>
      <trkpt lat="45.24897" lon="3.65519">
        <ele>908</ele>
        <time>2022-06-21T00:55:01.666Z</time>
      </trkpt>
      <trkpt lat="45.2491" lon="3.65531">
        <ele>907</ele>
        <time>2022-06-21T00:55:02.894Z</time>
      </trkpt>
      <trkpt lat="45.24926" lon="3.65537">
        <ele>905</ele>
        <time>2022-06-21T00:55:04.301Z</time>
      </trkpt>
      <trkpt lat="45.24947" lon="3.65536">
        <ele>903</ele>
        <time>2022-06-21T00:55:06.087Z</time>
      </trkpt>
      <trkpt lat="45.24964" lon="3.6554">
        <ele>903</ele>
        <time>2022-06-21T00:55:08.939Z</time>
      </trkpt>
      <trkpt lat="45.24981" lon="3.65554">
        <ele>904</ele>
        <time>2022-06-21T00:55:14.657Z</time>
      </trkpt>
      <trkpt lat="45.25006" lon="3.65583">
        <ele>908</ele>
        <time>2022-06-21T00:55:32.768Z</time>
      </trkpt>
      <trkpt lat="45.25024" lon="3.656">
        <ele>910</ele>
        <time>2022-06-21T00:55:41.437Z</time>
      </trkpt>
      <trkpt lat="45.25044" lon="3.65608">
        <ele>910</ele>
        <time>2022-06-21T00:55:44.875Z</time>
      </trkpt>
      <trkpt lat="45.25069" lon="3.65613">
        <ele>910</ele>
        <time>2022-06-21T00:55:49.053Z</time>
      </trkpt>
      <trkpt lat="45.25088" lon="3.65627">
        <ele>911</ele>
        <time>2022-06-21T00:55:55.115Z</time>
      </trkpt>
      <trkpt lat="45.25117" lon="3.65657">
        <ele>911</ele>
        <time>2022-06-21T00:56:01.051Z</time>
      </trkpt>
      <trkpt lat="45.25149" lon="3.65702">
        <ele>911</ele>
        <time>2022-06-21T00:56:08.501Z</time>
      </trkpt>
      <trkpt lat="45.25188" lon="3.65763">
        <ele>911</ele>
        <time>2022-06-21T00:56:18.100Z</time>
      </trkpt>
      <trkpt lat="45.25216" lon="3.65819">
        <ele>909</ele>
        <time>2022-06-21T00:56:22.760Z</time>
      </trkpt>
      <trkpt lat="45.25222" lon="3.6584">
        <ele>908</ele>
        <time>2022-06-21T00:56:24.041Z</time>
      </trkpt>
      <trkpt lat="45.25219" lon="3.65857">
        <ele>906</ele>
        <time>2022-06-21T00:56:25.090Z</time>
      </trkpt>
      <trkpt lat="45.25206" lon="3.65875">
        <ele>906</ele>
        <time>2022-06-21T00:56:28.094Z</time>
      </trkpt>
      <trkpt lat="45.25144" lon="3.65946">
        <ele>906</ele>
        <time>2022-06-21T00:56:41.271Z</time>
      </trkpt>
      <trkpt lat="45.25116" lon="3.65986">
        <ele>905</ele>
        <time>2022-06-21T00:56:45.783Z</time>
      </trkpt>
      <trkpt lat="45.25104" lon="3.6601">
        <ele>905</ele>
        <time>2022-06-21T00:56:49.212Z</time>
      </trkpt>
      <trkpt lat="45.25101" lon="3.66024">
        <ele>905</ele>
        <time>2022-06-21T00:56:50.917Z</time>
      </trkpt>
      <trkpt lat="45.25101" lon="3.66035">
        <ele>905</ele>
        <time>2022-06-21T00:56:52.198Z</time>
      </trkpt>
      <trkpt lat="45.25108" lon="3.66162">
        <ele>899</ele>
        <time>2022-06-21T00:56:59.823Z</time>
      </trkpt>
      <trkpt lat="45.2511" lon="3.66175">
        <ele>900</ele>
        <time>2022-06-21T00:57:04.137Z</time>
      </trkpt>
      <trkpt lat="45.25115" lon="3.66185">
        <ele>901</ele>
        <time>2022-06-21T00:57:08.529Z</time>
      </trkpt>
      <trkpt lat="45.25122" lon="3.66191">
        <ele>902</ele>
        <time>2022-06-21T00:57:13.025Z</time>
      </trkpt>
      <trkpt lat="45.2513" lon="3.66194">
        <ele>902</ele>
        <time>2022-06-21T00:57:14.394Z</time>
      </trkpt>
      <trkpt lat="45.25138" lon="3.66193">
        <ele>902</ele>
        <time>2022-06-21T00:57:15.722Z</time>
      </trkpt>
      <trkpt lat="45.25145" lon="3.66189">
        <ele>902</ele>
        <time>2022-06-21T00:57:16.971Z</time>
      </trkpt>
      <trkpt lat="45.25156" lon="3.66171">
        <ele>899</ele>
        <time>2022-06-21T00:57:18.397Z</time>
      </trkpt>
      <trkpt lat="45.2516" lon="3.66159">
        <ele>897</ele>
        <time>2022-06-21T00:57:19.192Z</time>
      </trkpt>
      <trkpt lat="45.25166" lon="3.66124">
        <ele>893</ele>
        <time>2022-06-21T00:57:21.348Z</time>
      </trkpt>
      <trkpt lat="45.25172" lon="3.66104">
        <ele>892</ele>
        <time>2022-06-21T00:57:22.552Z</time>
      </trkpt>
      <trkpt lat="45.25184" lon="3.66083">
        <ele>892</ele>
        <time>2022-06-21T00:57:25.703Z</time>
      </trkpt>
      <trkpt lat="45.25216" lon="3.66039">
        <ele>892</ele>
        <time>2022-06-21T00:57:33.072Z</time>
      </trkpt>
      <trkpt lat="45.25226" lon="3.6603">
        <ele>891</ele>
        <time>2022-06-21T00:57:34.079Z</time>
      </trkpt>
      <trkpt lat="45.2524" lon="3.66023">
        <ele>890</ele>
        <time>2022-06-21T00:57:35.340Z</time>
      </trkpt>
      <trkpt lat="45.25252" lon="3.6602">
        <ele>889</ele>
        <time>2022-06-21T00:57:36.376Z</time>
      </trkpt>
      <trkpt lat="45.25287" lon="3.6602">
        <ele>885</ele>
        <time>2022-06-21T00:57:39.352Z</time>
      </trkpt>
      <trkpt lat="45.25304" lon="3.66023">
        <ele>884</ele>
        <time>2022-06-21T00:57:40.776Z</time>
      </trkpt>
      <trkpt lat="45.25315" lon="3.6603">
        <ele>884</ele>
        <time>2022-06-21T00:57:42.770Z</time>
      </trkpt>
      <trkpt lat="45.25323" lon="3.66039">
        <ele>886</ele>
        <time>2022-06-21T00:57:49.283Z</time>
      </trkpt>
      <trkpt lat="45.25327" lon="3.66053">
        <ele>888</ele>
        <time>2022-06-21T00:57:56.071Z</time>
      </trkpt>
      <trkpt lat="45.25334" lon="3.66087">
        <ele>895</ele>
        <time>2022-06-21T00:58:11.987Z</time>
      </trkpt>
      <trkpt lat="45.2534" lon="3.661">
        <ele>896</ele>
        <time>2022-06-21T00:58:16.331Z</time>
      </trkpt>
      <trkpt lat="45.25349" lon="3.66104">
        <ele>896</ele>
        <time>2022-06-21T00:58:17.891Z</time>
      </trkpt>
      <trkpt lat="45.25356" lon="3.66104">
        <ele>895</ele>
        <time>2022-06-21T00:58:18.486Z</time>
      </trkpt>
      <trkpt lat="45.25362" lon="3.66101">
        <ele>894</ele>
        <time>2022-06-21T00:58:19.027Z</time>
      </trkpt>
      <trkpt lat="45.25372" lon="3.66089">
        <ele>892</ele>
        <time>2022-06-21T00:58:20.140Z</time>
      </trkpt>
      <trkpt lat="45.25376" lon="3.66079">
        <ele>890</ele>
        <time>2022-06-21T00:58:20.828Z</time>
      </trkpt>
      <trkpt lat="45.2538" lon="3.66054">
        <ele>887</ele>
        <time>2022-06-21T00:58:22.363Z</time>
      </trkpt>
      <trkpt lat="45.25381" lon="3.66007">
        <ele>881</ele>
        <time>2022-06-21T00:58:25.177Z</time>
      </trkpt>
      <trkpt lat="45.25384" lon="3.6599">
        <ele>880</ele>
        <time>2022-06-21T00:58:26.226Z</time>
      </trkpt>
      <trkpt lat="45.25399" lon="3.6595">
        <ele>879</ele>
        <time>2022-06-21T00:58:29.620Z</time>
      </trkpt>
      <trkpt lat="45.25412" lon="3.65923">
        <ele>878</ele>
        <time>2022-06-21T00:58:31.797Z</time>
      </trkpt>
      <trkpt lat="45.25474" lon="3.6584">
        <ele>875</ele>
        <time>2022-06-21T00:58:40.509Z</time>
      </trkpt>
      <trkpt lat="45.25484" lon="3.65831">
        <ele>874</ele>
        <time>2022-06-21T00:58:41.516Z</time>
      </trkpt>
      <trkpt lat="45.25514" lon="3.65813">
        <ele>872</ele>
        <time>2022-06-21T00:58:44.157Z</time>
      </trkpt>
      <trkpt lat="45.25559" lon="3.65791">
        <ele>873</ele>
        <time>2022-06-21T00:58:53.908Z</time>
      </trkpt>
      <trkpt lat="45.25588" lon="3.65774">
        <ele>873</ele>
        <time>2022-06-21T00:58:59.099Z</time>
      </trkpt>
      <trkpt lat="45.25607" lon="3.65757">
        <ele>873</ele>
        <time>2022-06-21T00:59:02.815Z</time>
      </trkpt>
      <trkpt lat="45.25621" lon="3.65741">
        <ele>872</ele>
        <time>2022-06-21T00:59:04.342Z</time>
      </trkpt>
      <trkpt lat="45.25639" lon="3.65711">
        <ele>870</ele>
        <time>2022-06-21T00:59:06.701Z</time>
      </trkpt>
      <trkpt lat="45.25647" lon="3.65694">
        <ele>869</ele>
        <time>2022-06-21T00:59:07.925Z</time>
      </trkpt>
      <trkpt lat="45.25655" lon="3.65665">
        <ele>867</ele>
        <time>2022-06-21T00:59:09.789Z</time>
      </trkpt>
      <trkpt lat="45.2567" lon="3.6559">
        <ele>861</ele>
        <time>2022-06-21T00:59:14.455Z</time>
      </trkpt>
      <trkpt lat="45.25683" lon="3.65552">
        <ele>854</ele>
        <time>2022-06-21T00:59:16.984Z</time>
      </trkpt>
      <trkpt lat="45.25694" lon="3.65536">
        <ele>850</ele>
        <time>2022-06-21T00:59:18.322Z</time>
      </trkpt>
      <trkpt lat="45.25711" lon="3.65532">
        <ele>849</ele>
        <time>2022-06-21T00:59:19.758Z</time>
      </trkpt>
      <trkpt lat="45.25729" lon="3.65542">
        <ele>850</ele>
        <time>2022-06-21T00:59:25.415Z</time>
      </trkpt>
      <trkpt lat="45.25764" lon="3.65577">
        <ele>857</ele>
        <time>2022-06-21T00:59:52.731Z</time>
      </trkpt>
      <trkpt lat="45.25783" lon="3.65599">
        <ele>858</ele>
        <time>2022-06-21T00:59:59.207Z</time>
      </trkpt>
      <trkpt lat="45.25797" lon="3.6562">
        <ele>858</ele>
        <time>2022-06-21T01:00:02.575Z</time>
      </trkpt>
      <trkpt lat="45.25805" lon="3.65642">
        <ele>858</ele>
        <time>2022-06-21T01:00:05.459Z</time>
      </trkpt>
      <trkpt lat="45.25835" lon="3.6576">
        <ele>857</ele>
        <time>2022-06-21T01:00:17.308Z</time>
      </trkpt>
      <trkpt lat="45.25845" lon="3.65772">
        <ele>859</ele>
        <time>2022-06-21T01:00:25.662Z</time>
      </trkpt>
      <trkpt lat="45.25859" lon="3.65777">
        <ele>859</ele>
        <time>2022-06-21T01:00:28.051Z</time>
      </trkpt>
      <trkpt lat="45.2587" lon="3.65777">
        <ele>858</ele>
        <time>2022-06-21T01:00:28.986Z</time>
      </trkpt>
      <trkpt lat="45.25877" lon="3.65775">
        <ele>858</ele>
        <time>2022-06-21T01:00:30.168Z</time>
      </trkpt>
      <trkpt lat="45.25898" lon="3.65766">
        <ele>857</ele>
        <time>2022-06-21T01:00:32.201Z</time>
      </trkpt>
      <trkpt lat="45.25891" lon="3.65753">
        <ele>857</ele>
        <time>2022-06-21T01:00:34.107Z</time>
      </trkpt>
      <trkpt lat="45.25874" lon="3.65713">
        <ele>859</ele>
        <time>2022-06-21T01:00:44.348Z</time>
      </trkpt>
      <trkpt lat="45.25843" lon="3.656">
        <ele>854</ele>
        <time>2022-06-21T01:00:51.432Z</time>
      </trkpt>
      <trkpt lat="45.25827" lon="3.65549">
        <ele>854</ele>
        <time>2022-06-21T01:00:57.935Z</time>
      </trkpt>
      <trkpt lat="45.25818" lon="3.65531">
        <ele>854</ele>
        <time>2022-06-21T01:01:00.507Z</time>
      </trkpt>
      <trkpt lat="45.25788" lon="3.6549">
        <ele>849</ele>
        <time>2022-06-21T01:01:04.046Z</time>
      </trkpt>
      <trkpt lat="45.25739" lon="3.65429">
        <ele>842</ele>
        <time>2022-06-21T01:01:09.585Z</time>
      </trkpt>
      <trkpt lat="45.25731" lon="3.65405">
        <ele>843</ele>
        <time>2022-06-21T01:01:15.120Z</time>
      </trkpt>
      <trkpt lat="45.2573" lon="3.65376">
        <ele>846</ele>
        <time>2022-06-21T01:01:28.164Z</time>
      </trkpt>
      <trkpt lat="45.25734" lon="3.65363">
        <ele>846</ele>
        <time>2022-06-21T01:01:29.817Z</time>
      </trkpt>
      <trkpt lat="45.25767" lon="3.6527">
        <ele>843</ele>
        <time>2022-06-21T01:01:36.911Z</time>
      </trkpt>
      <trkpt lat="45.25816" lon="3.65188">
        <ele>845</ele>
        <time>2022-06-21T01:01:53.438Z</time>
      </trkpt>
      <trkpt lat="45.25832" lon="3.65143">
        <ele>843</ele>
        <time>2022-06-21T01:01:56.436Z</time>
      </trkpt>
      <trkpt lat="45.25843" lon="3.65101">
        <ele>843</ele>
        <time>2022-06-21T01:02:01.655Z</time>
      </trkpt>
      <trkpt lat="45.25862" lon="3.65056">
        <ele>845</ele>
        <time>2022-06-21T01:02:12.640Z</time>
      </trkpt>
      <trkpt lat="45.25872" lon="3.65048">
        <ele>845</ele>
        <time>2022-06-21T01:02:14.539Z</time>
      </trkpt>
      <trkpt lat="45.25886" lon="3.65042">
        <ele>845</ele>
        <time>2022-06-21T01:02:16.959Z</time>
      </trkpt>
      <trkpt lat="45.25904" lon="3.65042">
        <ele>846</ele>
        <time>2022-06-21T01:02:22.363Z</time>
      </trkpt>
      <trkpt lat="45.25918" lon="3.65044">
        <ele>846</ele>
        <time>2022-06-21T01:02:24.692Z</time>
      </trkpt>
      <trkpt lat="45.25924" lon="3.65047">
        <ele>847</ele>
        <time>2022-06-21T01:02:28.751Z</time>
      </trkpt>
      <trkpt lat="45.25935" lon="3.6506">
        <ele>848</ele>
        <time>2022-06-21T01:02:33.511Z</time>
      </trkpt>
      <trkpt lat="45.25939" lon="3.65063">
        <ele>848</ele>
        <time>2022-06-21T01:02:34.259Z</time>
      </trkpt>
      <trkpt lat="45.25962" lon="3.65066">
        <ele>849</ele>
        <time>2022-06-21T01:02:40.593Z</time>
      </trkpt>
      <trkpt lat="45.2598" lon="3.65073">
        <ele>849</ele>
        <time>2022-06-21T01:02:43.681Z</time>
      </trkpt>
      <trkpt lat="45.25995" lon="3.65083">
        <ele>849</ele>
        <time>2022-06-21T01:02:46.422Z</time>
      </trkpt>
      <trkpt lat="45.26024" lon="3.65115">
        <ele>850</ele>
        <time>2022-06-21T01:02:54.517Z</time>
      </trkpt>
      <trkpt lat="45.26036" lon="3.65122">
        <ele>851</ele>
        <time>2022-06-21T01:02:59.080Z</time>
      </trkpt>
      <trkpt lat="45.2605" lon="3.65123">
        <ele>851</ele>
        <time>2022-06-21T01:03:01.399Z</time>
      </trkpt>
      <trkpt lat="45.26059" lon="3.65121">
        <ele>852</ele>
        <time>2022-06-21T01:03:05.732Z</time>
      </trkpt>
      <trkpt lat="45.2609" lon="3.65103">
        <ele>853</ele>
        <time>2022-06-21T01:03:13.359Z</time>
      </trkpt>
      <trkpt lat="45.26102" lon="3.65094">
        <ele>853</ele>
        <time>2022-06-21T01:03:15.604Z</time>
      </trkpt>
      <trkpt lat="45.26112" lon="3.65083">
        <ele>852</ele>
        <time>2022-06-21T01:03:16.680Z</time>
      </trkpt>
      <trkpt lat="45.26119" lon="3.65064">
        <ele>853</ele>
        <time>2022-06-21T01:03:21.567Z</time>
      </trkpt>
      <trkpt lat="45.26139" lon="3.64978">
        <ele>859</ele>
        <time>2022-06-21T01:03:47.511Z</time>
      </trkpt>
      <trkpt lat="45.26141" lon="3.6496">
        <ele>859</ele>
        <time>2022-06-21T01:03:49.633Z</time>
      </trkpt>
      <trkpt lat="45.26205" lon="3.64978">
        <ele>857</ele>
        <time>2022-06-21T01:03:56.622Z</time>
      </trkpt>
      <trkpt lat="45.26227" lon="3.6498">
        <ele>855</ele>
        <time>2022-06-21T01:03:58.496Z</time>
      </trkpt>
      <trkpt lat="45.26236" lon="3.64978">
        <ele>855</ele>
        <time>2022-06-21T01:04:00.004Z</time>
      </trkpt>
      <trkpt lat="45.26254" lon="3.64968">
        <ele>855</ele>
        <time>2022-06-21T01:04:03.202Z</time>
      </trkpt>
      <trkpt lat="45.26273" lon="3.64951">
        <ele>855</ele>
        <time>2022-06-21T01:04:06.917Z</time>
      </trkpt>
      <trkpt lat="45.26302" lon="3.64904">
        <ele>858</ele>
        <time>2022-06-21T01:04:21.367Z</time>
      </trkpt>
      <trkpt lat="45.2631" lon="3.64898">
        <ele>858</ele>
        <time>2022-06-21T01:04:22.864Z</time>
      </trkpt>
      <trkpt lat="45.26324" lon="3.64893">
        <ele>858</ele>
        <time>2022-06-21T01:04:25.253Z</time>
      </trkpt>
      <trkpt lat="45.26334" lon="3.64895">
        <ele>857</ele>
        <time>2022-06-21T01:04:26.111Z</time>
      </trkpt>
      <trkpt lat="45.26342" lon="3.64899">
        <ele>857</ele>
        <time>2022-06-21T01:04:27.514Z</time>
      </trkpt>
      <trkpt lat="45.26349" lon="3.64905">
        <ele>857</ele>
        <time>2022-06-21T01:04:28.867Z</time>
      </trkpt>
      <trkpt lat="45.26364" lon="3.64924">
        <ele>857</ele>
        <time>2022-06-21T01:04:32.192Z</time>
      </trkpt>
      <trkpt lat="45.26376" lon="3.64935">
        <ele>857</ele>
        <time>2022-06-21T01:04:34.555Z</time>
      </trkpt>
      <trkpt lat="45.26389" lon="3.64936">
        <ele>859</ele>
        <time>2022-06-21T01:04:42.864Z</time>
      </trkpt>
      <trkpt lat="45.26431" lon="3.64923">
        <ele>862</ele>
        <time>2022-06-21T01:04:57.153Z</time>
      </trkpt>
      <trkpt lat="45.26468" lon="3.64923">
        <ele>858</ele>
        <time>2022-06-21T01:05:00.299Z</time>
      </trkpt>
      <trkpt lat="45.2648" lon="3.64919">
        <ele>858</ele>
        <time>2022-06-21T01:05:02.339Z</time>
      </trkpt>
      <trkpt lat="45.2649" lon="3.64913">
        <ele>857</ele>
        <time>2022-06-21T01:05:03.261Z</time>
      </trkpt>
      <trkpt lat="45.26496" lon="3.64904">
        <ele>858</ele>
        <time>2022-06-21T01:05:07.639Z</time>
      </trkpt>
      <trkpt lat="45.26512" lon="3.64873">
        <ele>859</ele>
        <time>2022-06-21T01:05:14.407Z</time>
      </trkpt>
      <trkpt lat="45.26519" lon="3.64845">
        <ele>861</ele>
        <time>2022-06-21T01:05:23.038Z</time>
      </trkpt>
      <trkpt lat="45.26524" lon="3.64797">
        <ele>862</ele>
        <time>2022-06-21T01:05:30.760Z</time>
      </trkpt>
      <trkpt lat="45.26528" lon="3.64774">
        <ele>862</ele>
        <time>2022-06-21T01:05:33.519Z</time>
      </trkpt>
      <trkpt lat="45.26548" lon="3.64694">
        <ele>860</ele>
        <time>2022-06-21T01:05:39.738Z</time>
      </trkpt>
      <trkpt lat="45.26555" lon="3.64625">
        <ele>862</ele>
        <time>2022-06-21T01:05:52.693Z</time>
      </trkpt>
      <trkpt lat="45.26559" lon="3.64604">
        <ele>862</ele>
        <time>2022-06-21T01:05:55.227Z</time>
      </trkpt>
      <trkpt lat="45.26562" lon="3.64595">
        <ele>863</ele>
        <time>2022-06-21T01:05:59.700Z</time>
      </trkpt>
      <trkpt lat="45.26577" lon="3.64575">
        <ele>863</ele>
        <time>2022-06-21T01:06:03.104Z</time>
      </trkpt>
      <trkpt lat="45.26586" lon="3.64566">
        <ele>864</ele>
        <time>2022-06-21T01:06:07.452Z</time>
      </trkpt>
      <trkpt lat="45.26604" lon="3.6456">
        <ele>865</ele>
        <time>2022-06-21T01:06:12.948Z</time>
      </trkpt>
      <trkpt lat="45.26614" lon="3.64559">
        <ele>865</ele>
        <time>2022-06-21T01:06:14.607Z</time>
      </trkpt>
      <trkpt lat="45.26692" lon="3.64563">
        <ele>864</ele>
        <time>2022-06-21T01:06:24.879Z</time>
      </trkpt>
      <trkpt lat="45.26709" lon="3.64568">
        <ele>864</ele>
        <time>2022-06-21T01:06:27.752Z</time>
      </trkpt>
      <trkpt lat="45.26737" lon="3.64587">
        <ele>862</ele>
        <time>2022-06-21T01:06:30.210Z</time>
      </trkpt>
      <trkpt lat="45.26746" lon="3.64591">
        <ele>861</ele>
        <time>2022-06-21T01:06:31.012Z</time>
      </trkpt>
      <trkpt lat="45.26774" lon="3.64594">
        <ele>861</ele>
        <time>2022-06-21T01:06:35.658Z</time>
      </trkpt>
      <trkpt lat="45.26829" lon="3.64597">
        <ele>862</ele>
        <time>2022-06-21T01:06:46.583Z</time>
      </trkpt>
      <trkpt lat="45.26904" lon="3.64615">
        <ele>864</ele>
        <time>2022-06-21T01:07:03.161Z</time>
      </trkpt>
      <trkpt lat="45.26934" lon="3.64615">
        <ele>865</ele>
        <time>2022-06-21T01:07:10.307Z</time>
      </trkpt>
      <trkpt lat="45.27049" lon="3.64601">
        <ele>870</ele>
        <time>2022-06-21T01:07:41.967Z</time>
      </trkpt>
      <trkpt lat="45.27182" lon="3.64601">
        <ele>869</ele>
        <time>2022-06-21T01:08:00.744Z</time>
      </trkpt>
      <trkpt lat="45.27213" lon="3.64597">
        <ele>867</ele>
        <time>2022-06-21T01:08:03.214Z</time>
      </trkpt>
      <trkpt lat="45.27324" lon="3.64544">
        <ele>864</ele>
        <time>2022-06-21T01:08:16.454Z</time>
      </trkpt>
      <trkpt lat="45.27375" lon="3.64523">
        <ele>864</ele>
        <time>2022-06-21T01:08:25.239Z</time>
      </trkpt>
      <trkpt lat="45.27399" lon="3.64508">
        <ele>865</ele>
        <time>2022-06-21T01:08:31.907Z</time>
      </trkpt>
      <trkpt lat="45.27422" lon="3.64486">
        <ele>866</ele>
        <time>2022-06-21T01:08:38.758Z</time>
      </trkpt>
      <trkpt lat="45.27464" lon="3.64425">
        <ele>869</ele>
        <time>2022-06-21T01:08:56.127Z</time>
      </trkpt>
      <trkpt lat="45.27475" lon="3.64412">
        <ele>869</ele>
        <time>2022-06-21T01:08:58.495Z</time>
      </trkpt>
      <trkpt lat="45.27489" lon="3.64401">
        <ele>868</ele>
        <time>2022-06-21T01:08:59.781Z</time>
      </trkpt>
      <trkpt lat="45.27503" lon="3.64396">
        <ele>867</ele>
        <time>2022-06-21T01:09:01.009Z</time>
      </trkpt>
      <trkpt lat="45.27523" lon="3.64395">
        <ele>868</ele>
        <time>2022-06-21T01:09:06.797Z</time>
      </trkpt>
      <trkpt lat="45.27537" lon="3.64391">
        <ele>868</ele>
        <time>2022-06-21T01:09:09.160Z</time>
      </trkpt>
      <trkpt lat="45.27621" lon="3.64365">
        <ele>873</ele>
        <time>2022-06-21T01:09:35.438Z</time>
      </trkpt>
      <trkpt lat="45.27639" lon="3.64364">
        <ele>874</ele>
        <time>2022-06-21T01:09:40.845Z</time>
      </trkpt>
      <trkpt lat="45.27653" lon="3.64369">
        <ele>873</ele>
        <time>2022-06-21T01:09:42.072Z</time>
      </trkpt>
      <trkpt lat="45.27739" lon="3.64437">
        <ele>873</ele>
        <time>2022-06-21T01:09:58.356Z</time>
      </trkpt>
      <trkpt lat="45.27778" lon="3.64463">
        <ele>874</ele>
        <time>2022-06-21T01:10:07.409Z</time>
      </trkpt>
      <trkpt lat="45.27811" lon="3.64477">
        <ele>875</ele>
        <time>2022-06-21T01:10:15.172Z</time>
      </trkpt>
      <trkpt lat="45.27828" lon="3.64479">
        <ele>877</ele>
        <time>2022-06-21T01:10:23.994Z</time>
      </trkpt>
      <trkpt lat="45.27893" lon="3.64476">
        <ele>879</ele>
        <time>2022-06-21T01:10:38.975Z</time>
      </trkpt>
      <trkpt lat="45.2791" lon="3.64478">
        <ele>879</ele>
        <time>2022-06-21T01:10:41.797Z</time>
      </trkpt>
      <trkpt lat="45.2797" lon="3.64488">
        <ele>881</ele>
        <time>2022-06-21T01:10:56.143Z</time>
      </trkpt>
      <trkpt lat="45.2798" lon="3.64493">
        <ele>881</ele>
        <time>2022-06-21T01:10:57.897Z</time>
      </trkpt>
      <trkpt lat="45.27984" lon="3.64497">
        <ele>881</ele>
        <time>2022-06-21T01:10:58.706Z</time>
      </trkpt>
      <trkpt lat="45.2804" lon="3.64591">
        <ele>879</ele>
        <time>2022-06-21T01:11:08.787Z</time>
      </trkpt>
      <trkpt lat="45.28073" lon="3.6467">
        <ele>879</ele>
        <time>2022-06-21T01:11:19.483Z</time>
      </trkpt>
      <trkpt lat="45.28098" lon="3.64722">
        <ele>880</ele>
        <time>2022-06-21T01:11:28.726Z</time>
      </trkpt>
      <trkpt lat="45.28107" lon="3.64738">
        <ele>880</ele>
        <time>2022-06-21T01:11:31.111Z</time>
      </trkpt>
      <trkpt lat="45.28118" lon="3.64748">
        <ele>879</ele>
        <time>2022-06-21T01:11:32.221Z</time>
      </trkpt>
      <trkpt lat="45.28128" lon="3.64753">
        <ele>879</ele>
        <time>2022-06-21T01:11:33.975Z</time>
      </trkpt>
      <trkpt lat="45.28147" lon="3.64756">
        <ele>880</ele>
        <time>2022-06-21T01:11:39.591Z</time>
      </trkpt>
      <trkpt lat="45.28162" lon="3.64752">
        <ele>881</ele>
        <time>2022-06-21T01:11:44.506Z</time>
      </trkpt>
      <trkpt lat="45.28219" lon="3.64731">
        <ele>883</ele>
        <time>2022-06-21T01:11:58.649Z</time>
      </trkpt>
      <trkpt lat="45.28245" lon="3.6473">
        <ele>883</ele>
        <time>2022-06-21T01:12:02.953Z</time>
      </trkpt>
      <trkpt lat="45.28308" lon="3.64737">
        <ele>882</ele>
        <time>2022-06-21T01:12:10.961Z</time>
      </trkpt>
      <trkpt lat="45.28323" lon="3.64743">
        <ele>880</ele>
        <time>2022-06-21T01:12:12.286Z</time>
      </trkpt>
      <trkpt lat="45.28333" lon="3.6475">
        <ele>879</ele>
        <time>2022-06-21T01:12:13.233Z</time>
      </trkpt>
      <trkpt lat="45.28341" lon="3.64761">
        <ele>879</ele>
        <time>2022-06-21T01:12:15.075Z</time>
      </trkpt>
      <trkpt lat="45.28348" lon="3.64778">
        <ele>880</ele>
        <time>2022-06-21T01:12:19.766Z</time>
      </trkpt>
      <trkpt lat="45.28353" lon="3.64795">
        <ele>880</ele>
        <time>2022-06-21T01:12:21.911Z</time>
      </trkpt>
      <trkpt lat="45.28357" lon="3.6481">
        <ele>880</ele>
        <time>2022-06-21T01:12:23.778Z</time>
      </trkpt>
      <trkpt lat="45.28357" lon="3.64826">
        <ele>880</ele>
        <time>2022-06-21T01:12:25.641Z</time>
      </trkpt>
      <trkpt lat="45.28355" lon="3.64842">
        <ele>881</ele>
        <time>2022-06-21T01:12:30.025Z</time>
      </trkpt>
      <trkpt lat="45.2835" lon="3.64857">
        <ele>882</ele>
        <time>2022-06-21T01:12:34.433Z</time>
      </trkpt>
      <trkpt lat="45.28335" lon="3.64896">
        <ele>884</ele>
        <time>2022-06-21T01:12:44.391Z</time>
      </trkpt>
      <trkpt lat="45.28328" lon="3.64924">
        <ele>886</ele>
        <time>2022-06-21T01:12:53.022Z</time>
      </trkpt>
      <trkpt lat="45.28328" lon="3.64932">
        <ele>886</ele>
        <time>2022-06-21T01:12:53.953Z</time>
      </trkpt>
      <trkpt lat="45.28332" lon="3.64951">
        <ele>888</ele>
        <time>2022-06-21T01:13:02.859Z</time>
      </trkpt>
      <trkpt lat="45.2834" lon="3.64971">
        <ele>889</ele>
        <time>2022-06-21T01:13:07.934Z</time>
      </trkpt>
      <trkpt lat="45.28367" lon="3.65012">
        <ele>892</ele>
        <time>2022-06-21T01:13:21.704Z</time>
      </trkpt>
      <trkpt lat="45.28479" lon="3.6516">
        <ele>889</ele>
        <time>2022-06-21T01:13:40.218Z</time>
      </trkpt>
      <trkpt lat="45.285" lon="3.65184">
        <ele>889</ele>
        <time>2022-06-21T01:13:44.677Z</time>
      </trkpt>
      <trkpt lat="45.28513" lon="3.65192">
        <ele>888</ele>
        <time>2022-06-21T01:13:45.881Z</time>
      </trkpt>
      <trkpt lat="45.28529" lon="3.65192">
        <ele>888</ele>
        <time>2022-06-21T01:13:48.528Z</time>
      </trkpt>
      <trkpt lat="45.28549" lon="3.65189">
        <ele>889</ele>
        <time>2022-06-21T01:13:54.336Z</time>
      </trkpt>
      <trkpt lat="45.28608" lon="3.65172">
        <ele>893</ele>
        <time>2022-06-21T01:14:13.857Z</time>
      </trkpt>
      <trkpt lat="45.28625" lon="3.65176">
        <ele>893</ele>
        <time>2022-06-21T01:14:16.708Z</time>
      </trkpt>
      <trkpt lat="45.28633" lon="3.65185">
        <ele>893</ele>
        <time>2022-06-21T01:14:18.396Z</time>
      </trkpt>
      <trkpt lat="45.28639" lon="3.65196">
        <ele>893</ele>
        <time>2022-06-21T01:14:20.016Z</time>
      </trkpt>
      <trkpt lat="45.28644" lon="3.65214">
        <ele>893</ele>
        <time>2022-06-21T01:14:22.269Z</time>
      </trkpt>
      <trkpt lat="45.28651" lon="3.65246">
        <ele>893</ele>
        <time>2022-06-21T01:14:26.170Z</time>
      </trkpt>
      <trkpt lat="45.28657" lon="3.65262">
        <ele>892</ele>
        <time>2022-06-21T01:14:27.255Z</time>
      </trkpt>
      <trkpt lat="45.28665" lon="3.65276">
        <ele>892</ele>
        <time>2022-06-21T01:14:29.354Z</time>
      </trkpt>
      <trkpt lat="45.28678" lon="3.6529">
        <ele>893</ele>
        <time>2022-06-21T01:14:34.451Z</time>
      </trkpt>
      <trkpt lat="45.28692" lon="3.653">
        <ele>895</ele>
        <time>2022-06-21T01:14:43.678Z</time>
      </trkpt>
      <trkpt lat="45.28787" lon="3.65365">
        <ele>900</ele>
        <time>2022-06-21T01:15:13.676Z</time>
      </trkpt>
      <trkpt lat="45.28807" lon="3.65383">
        <ele>900</ele>
        <time>2022-06-21T01:15:17.593Z</time>
      </trkpt>
      <trkpt lat="45.28854" lon="3.65435">
        <ele>900</ele>
        <time>2022-06-21T01:15:27.448Z</time>
      </trkpt>
      <trkpt lat="45.28894" lon="3.65495">
        <ele>898</ele>
        <time>2022-06-21T01:15:33.444Z</time>
      </trkpt>
      <trkpt lat="45.28952" lon="3.65564">
        <ele>905</ele>
        <time>2022-06-21T01:16:03.785Z</time>
      </trkpt>
      <trkpt lat="45.28988" lon="3.65627">
        <ele>908</ele>
        <time>2022-06-21T01:16:20.585Z</time>
      </trkpt>
      <trkpt lat="45.28999" lon="3.65652">
        <ele>908</ele>
        <time>2022-06-21T01:16:24.017Z</time>
      </trkpt>
      <trkpt lat="45.29009" lon="3.65667">
        <ele>908</ele>
        <time>2022-06-21T01:16:26.423Z</time>
      </trkpt>
      <trkpt lat="45.29018" lon="3.65676">
        <ele>909</ele>
        <time>2022-06-21T01:16:30.771Z</time>
      </trkpt>
      <trkpt lat="45.29047" lon="3.65694">
        <ele>913</ele>
        <time>2022-06-21T01:16:49.104Z</time>
      </trkpt>
      <trkpt lat="45.29057" lon="3.65705">
        <ele>914</ele>
        <time>2022-06-21T01:16:53.624Z</time>
      </trkpt>
      <trkpt lat="45.29061" lon="3.65718">
        <ele>914</ele>
        <time>2022-06-21T01:16:55.275Z</time>
      </trkpt>
      <trkpt lat="45.29062" lon="3.65733">
        <ele>912</ele>
        <time>2022-06-21T01:16:56.177Z</time>
      </trkpt>
      <trkpt lat="45.29052" lon="3.65792">
        <ele>905</ele>
        <time>2022-06-21T01:16:59.807Z</time>
      </trkpt>
      <trkpt lat="45.29057" lon="3.65826">
        <ele>904</ele>
        <time>2022-06-21T01:17:02.171Z</time>
      </trkpt>
      <trkpt lat="45.29061" lon="3.65841">
        <ele>903</ele>
        <time>2022-06-21T01:17:03.131Z</time>
      </trkpt>
      <trkpt lat="45.29074" lon="3.65861">
        <ele>901</ele>
        <time>2022-06-21T01:17:04.760Z</time>
      </trkpt>
      <trkpt lat="45.29092" lon="3.65873">
        <ele>902</ele>
        <time>2022-06-21T01:17:10.523Z</time>
      </trkpt>
      <trkpt lat="45.29144" lon="3.65898">
        <ele>910</ele>
        <time>2022-06-21T01:17:45.556Z</time>
      </trkpt>
      <trkpt lat="45.29167" lon="3.65914">
        <ele>914</ele>
        <time>2022-06-21T01:18:01.899Z</time>
      </trkpt>
      <trkpt lat="45.29201" lon="3.65948">
        <ele>915</ele>
        <time>2022-06-21T01:18:10.721Z</time>
      </trkpt>
      <trkpt lat="45.29226" lon="3.65981">
        <ele>915</ele>
        <time>2022-06-21T01:18:16.366Z</time>
      </trkpt>
      <trkpt lat="45.29242" lon="3.65997">
        <ele>916</ele>
        <time>2022-06-21T01:18:22.067Z</time>
      </trkpt>
      <trkpt lat="45.29268" lon="3.66015">
        <ele>917</ele>
        <time>2022-06-21T01:18:29.071Z</time>
      </trkpt>
      <trkpt lat="45.29283" lon="3.6602">
        <ele>916</ele>
        <time>2022-06-21T01:18:30.287Z</time>
      </trkpt>
      <trkpt lat="45.29303" lon="3.6602">
        <ele>916</ele>
        <time>2022-06-21T01:18:33.596Z</time>
      </trkpt>
      <trkpt lat="45.29371" lon="3.66012">
        <ele>916</ele>
        <time>2022-06-21T01:18:44.886Z</time>
      </trkpt>
      <trkpt lat="45.294" lon="3.66001">
        <ele>918</ele>
        <time>2022-06-21T01:18:54.632Z</time>
      </trkpt>
      <trkpt lat="45.29432" lon="3.65991">
        <ele>917</ele>
        <time>2022-06-21T01:18:58.147Z</time>
      </trkpt>
      <trkpt lat="45.29461" lon="3.65986">
        <ele>914</ele>
        <time>2022-06-21T01:19:00.630Z</time>
      </trkpt>
      <trkpt lat="45.29501" lon="3.65985">
        <ele>910</ele>
        <time>2022-06-21T01:19:04.032Z</time>
      </trkpt>
      <trkpt lat="45.29568" lon="3.66004">
        <ele>907</ele>
        <time>2022-06-21T01:19:10.462Z</time>
      </trkpt>
      <trkpt lat="45.29584" lon="3.66004">
        <ele>907</ele>
        <time>2022-06-21T01:19:13.110Z</time>
      </trkpt>
      <trkpt lat="45.296" lon="3.66001">
        <ele>907</ele>
        <time>2022-06-21T01:19:15.780Z</time>
      </trkpt>
      <trkpt lat="45.29632" lon="3.65989">
        <ele>906</ele>
        <time>2022-06-21T01:19:19.342Z</time>
      </trkpt>
      <trkpt lat="45.29652" lon="3.65986">
        <ele>905</ele>
        <time>2022-06-21T01:19:21.139Z</time>
      </trkpt>
      <trkpt lat="45.29671" lon="3.65988">
        <ele>905</ele>
        <time>2022-06-21T01:19:24.291Z</time>
      </trkpt>
      <trkpt lat="45.29687" lon="3.65994">
        <ele>907</ele>
        <time>2022-06-21T01:19:33.228Z</time>
      </trkpt>
      <trkpt lat="45.29707" lon="3.66006">
        <ele>908</ele>
        <time>2022-06-21T01:19:39.351Z</time>
      </trkpt>
      <trkpt lat="45.29726" lon="3.66022">
        <ele>908</ele>
        <time>2022-06-21T01:19:43.005Z</time>
      </trkpt>
      <trkpt lat="45.29815" lon="3.6607">
        <ele>905</ele>
        <time>2022-06-21T01:19:53.112Z</time>
      </trkpt>
      <trkpt lat="45.29834" lon="3.66074">
        <ele>906</ele>
        <time>2022-06-21T01:19:58.745Z</time>
      </trkpt>
      <trkpt lat="45.2988" lon="3.66078">
        <ele>906</ele>
        <time>2022-06-21T01:20:06.370Z</time>
      </trkpt>
      <trkpt lat="45.29912" lon="3.66085">
        <ele>907</ele>
        <time>2022-06-21T01:20:13.841Z</time>
      </trkpt>
      <trkpt lat="45.29962" lon="3.66087">
        <ele>908</ele>
        <time>2022-06-21T01:20:23.973Z</time>
      </trkpt>
      <trkpt lat="45.29973" lon="3.66094">
        <ele>908</ele>
        <time>2022-06-21T01:20:25.967Z</time>
      </trkpt>
      <trkpt lat="45.29981" lon="3.66102">
        <ele>908</ele>
        <time>2022-06-21T01:20:27.585Z</time>
      </trkpt>
      <trkpt lat="45.29988" lon="3.66111">
        <ele>908</ele>
        <time>2022-06-21T01:20:29.147Z</time>
      </trkpt>
      <trkpt lat="45.29993" lon="3.66123">
        <ele>909</ele>
        <time>2022-06-21T01:20:33.449Z</time>
      </trkpt>
      <trkpt lat="45.29994" lon="3.66134">
        <ele>909</ele>
        <time>2022-06-21T01:20:34.740Z</time>
      </trkpt>
      <trkpt lat="45.29993" lon="3.66145">
        <ele>909</ele>
        <time>2022-06-21T01:20:36.031Z</time>
      </trkpt>
      <trkpt lat="45.29981" lon="3.66197">
        <ele>908</ele>
        <time>2022-06-21T01:20:40.366Z</time>
      </trkpt>
      <trkpt lat="45.29979" lon="3.66214">
        <ele>908</ele>
        <time>2022-06-21T01:20:42.372Z</time>
      </trkpt>
      <trkpt lat="45.2998" lon="3.66233">
        <ele>908</ele>
        <time>2022-06-21T01:20:44.590Z</time>
      </trkpt>
      <trkpt lat="45.29984" lon="3.66259">
        <ele>908</ele>
        <time>2022-06-21T01:20:47.687Z</time>
      </trkpt>
      <trkpt lat="45.30033" lon="3.66382">
        <ele>908</ele>
        <time>2022-06-21T01:21:04.139Z</time>
      </trkpt>
      <trkpt lat="45.30051" lon="3.66413">
        <ele>910</ele>
        <time>2022-06-21T01:21:13.605Z</time>
      </trkpt>
      <trkpt lat="45.3007" lon="3.66438">
        <ele>911</ele>
        <time>2022-06-21T01:21:20.234Z</time>
      </trkpt>
      <trkpt lat="45.30103" lon="3.66469">
        <ele>913</ele>
        <time>2022-06-21T01:21:31.720Z</time>
      </trkpt>
      <trkpt lat="45.30118" lon="3.6648">
        <ele>915</ele>
        <time>2022-06-21T01:21:40.579Z</time>
      </trkpt>
      <trkpt lat="45.30126" lon="3.66489">
        <ele>915</ele>
        <time>2022-06-21T01:21:42.267Z</time>
      </trkpt>
      <trkpt lat="45.30132" lon="3.66499">
        <ele>915</ele>
        <time>2022-06-21T01:21:43.797Z</time>
      </trkpt>
      <trkpt lat="45.3015" lon="3.66543">
        <ele>915</ele>
        <time>2022-06-21T01:21:49.721Z</time>
      </trkpt>
      <trkpt lat="45.30186" lon="3.66601">
        <ele>914</ele>
        <time>2022-06-21T01:21:56.405Z</time>
      </trkpt>
      <trkpt lat="45.30204" lon="3.66662">
        <ele>915</ele>
        <time>2022-06-21T01:22:05.991Z</time>
      </trkpt>
      <trkpt lat="45.30212" lon="3.66682">
        <ele>915</ele>
        <time>2022-06-21T01:22:08.668Z</time>
      </trkpt>
      <trkpt lat="45.30223" lon="3.66698">
        <ele>915</ele>
        <time>2022-06-21T01:22:11.272Z</time>
      </trkpt>
      <trkpt lat="45.30258" lon="3.66722">
        <ele>917</ele>
        <time>2022-06-21T01:22:22.624Z</time>
      </trkpt>
      <trkpt lat="45.30276" lon="3.6674">
        <ele>918</ele>
        <time>2022-06-21T01:22:28.806Z</time>
      </trkpt>
      <trkpt lat="45.30285" lon="3.66755">
        <ele>918</ele>
        <time>2022-06-21T01:22:31.101Z</time>
      </trkpt>
      <trkpt lat="45.3031" lon="3.66805">
        <ele>915</ele>
        <time>2022-06-21T01:22:34.769Z</time>
      </trkpt>
      <trkpt lat="45.30316" lon="3.66814">
        <ele>915</ele>
        <time>2022-06-21T01:22:36.212Z</time>
      </trkpt>
      <trkpt lat="45.30342" lon="3.66838">
        <ele>915</ele>
        <time>2022-06-21T01:22:41.341Z</time>
      </trkpt>
      <trkpt lat="45.30373" lon="3.6686">
        <ele>918</ele>
        <time>2022-06-21T01:22:54.526Z</time>
      </trkpt>
      <trkpt lat="45.30387" lon="3.66874">
        <ele>919</ele>
        <time>2022-06-21T01:22:59.768Z</time>
      </trkpt>
      <trkpt lat="45.304" lon="3.66897">
        <ele>920</ele>
        <time>2022-06-21T01:23:05.701Z</time>
      </trkpt>
      <trkpt lat="45.30414" lon="3.6698">
        <ele>918</ele>
        <time>2022-06-21T01:23:11.959Z</time>
      </trkpt>
      <trkpt lat="45.30445" lon="3.67181">
        <ele>908</ele>
        <time>2022-06-21T01:23:24.264Z</time>
      </trkpt>
      <trkpt lat="45.3045" lon="3.67213">
        <ele>908</ele>
        <time>2022-06-21T01:23:28.079Z</time>
      </trkpt>
      <trkpt lat="45.30457" lon="3.67258">
        <ele>909</ele>
        <time>2022-06-21T01:23:35.555Z</time>
      </trkpt>
      <trkpt lat="45.30462" lon="3.67284">
        <ele>911</ele>
        <time>2022-06-21T01:23:44.174Z</time>
      </trkpt>
      <trkpt lat="45.30469" lon="3.67301">
        <ele>912</ele>
        <time>2022-06-21T01:23:48.864Z</time>
      </trkpt>
      <trkpt lat="45.30481" lon="3.67311">
        <ele>914</ele>
        <time>2022-06-21T01:23:57.741Z</time>
      </trkpt>
      <trkpt lat="45.30492" lon="3.67313">
        <ele>915</ele>
        <time>2022-06-21T01:24:02.095Z</time>
      </trkpt>
      <trkpt lat="45.30509" lon="3.67307">
        <ele>915</ele>
        <time>2022-06-21T01:24:04.994Z</time>
      </trkpt>
      <trkpt lat="45.30544" lon="3.67284">
        <ele>914</ele>
        <time>2022-06-21T01:24:09.338Z</time>
      </trkpt>
      <trkpt lat="45.3056" lon="3.6728">
        <ele>915</ele>
        <time>2022-06-21T01:24:14.423Z</time>
      </trkpt>
      <trkpt lat="45.3059" lon="3.67281">
        <ele>916</ele>
        <time>2022-06-21T01:24:21.570Z</time>
      </trkpt>
      <trkpt lat="45.30604" lon="3.67285">
        <ele>916</ele>
        <time>2022-06-21T01:24:23.932Z</time>
      </trkpt>
      <trkpt lat="45.3063" lon="3.67299">
        <ele>918</ele>
        <time>2022-06-21T01:24:33.326Z</time>
      </trkpt>
      <trkpt lat="45.30826" lon="3.67419">
        <ele>926</ele>
        <time>2022-06-21T01:25:27.101Z</time>
      </trkpt>
      <trkpt lat="45.30846" lon="3.67439">
        <ele>927</ele>
        <time>2022-06-21T01:25:33.570Z</time>
      </trkpt>
      <trkpt lat="45.30866" lon="3.67466">
        <ele>928</ele>
        <time>2022-06-21T01:25:40.402Z</time>
      </trkpt>
      <trkpt lat="45.30893" lon="3.67514">
        <ele>930</ele>
        <time>2022-06-21T01:25:52.610Z</time>
      </trkpt>
      <trkpt lat="45.30907" lon="3.67535">
        <ele>931</ele>
        <time>2022-06-21T01:25:58.465Z</time>
      </trkpt>
      <trkpt lat="45.30932" lon="3.67559">
        <ele>932</ele>
        <time>2022-06-21T01:26:05.632Z</time>
      </trkpt>
      <trkpt lat="45.30983" lon="3.67598">
        <ele>937</ele>
        <time>2022-06-21T01:26:27.623Z</time>
      </trkpt>
      <trkpt lat="45.31025" lon="3.67637">
        <ele>942</ele>
        <time>2022-06-21T01:26:49.139Z</time>
      </trkpt>
      <trkpt lat="45.31051" lon="3.67666">
        <ele>944</ele>
        <time>2022-06-21T01:26:59.407Z</time>
      </trkpt>
      <trkpt lat="45.31135" lon="3.67764">
        <ele>947</ele>
        <time>2022-06-21T01:27:23.471Z</time>
      </trkpt>
      <trkpt lat="45.31146" lon="3.67786">
        <ele>947</ele>
        <time>2022-06-21T01:27:26.612Z</time>
      </trkpt>
      <trkpt lat="45.31148" lon="3.67796">
        <ele>948</ele>
        <time>2022-06-21T01:27:31.278Z</time>
      </trkpt>
      <trkpt lat="45.31149" lon="3.67841">
        <ele>953</ele>
        <time>2022-06-21T01:27:51.485Z</time>
      </trkpt>
      <trkpt lat="45.31155" lon="3.67859">
        <ele>954</ele>
        <time>2022-06-21T01:27:56.199Z</time>
      </trkpt>
      <trkpt lat="45.31162" lon="3.67869">
        <ele>954</ele>
        <time>2022-06-21T01:27:57.841Z</time>
      </trkpt>
      <trkpt lat="45.31181" lon="3.67881">
        <ele>954</ele>
        <time>2022-06-21T01:28:01.280Z</time>
      </trkpt>
      <trkpt lat="45.31192" lon="3.67883">
        <ele>954</ele>
        <time>2022-06-21T01:28:03.115Z</time>
      </trkpt>
      <trkpt lat="45.31234" lon="3.6788">
        <ele>954</ele>
        <time>2022-06-21T01:28:10.074Z</time>
      </trkpt>
      <trkpt lat="45.31252" lon="3.67884">
        <ele>955</ele>
        <time>2022-06-21T01:28:15.519Z</time>
      </trkpt>
      <trkpt lat="45.31264" lon="3.67894">
        <ele>956</ele>
        <time>2022-06-21T01:28:20.217Z</time>
      </trkpt>
      <trkpt lat="45.31268" lon="3.679">
        <ele>956</ele>
        <time>2022-06-21T01:28:21.179Z</time>
      </trkpt>
      <trkpt lat="45.31276" lon="3.67918">
        <ele>958</ele>
        <time>2022-06-21T01:28:30.736Z</time>
      </trkpt>
      <trkpt lat="45.31282" lon="3.67943">
        <ele>958</ele>
        <time>2022-06-21T01:28:33.809Z</time>
      </trkpt>
      <trkpt lat="45.31283" lon="3.67994">
        <ele>960</ele>
        <time>2022-06-21T01:28:44.596Z</time>
      </trkpt>
      <trkpt lat="45.3128" lon="3.68041">
        <ele>961</ele>
        <time>2022-06-21T01:28:52.180Z</time>
      </trkpt>
      <trkpt lat="45.31272" lon="3.68082">
        <ele>962</ele>
        <time>2022-06-21T01:28:59.316Z</time>
      </trkpt>
      <trkpt lat="45.31256" lon="3.68136">
        <ele>964</ele>
        <time>2022-06-21T01:29:11.124Z</time>
      </trkpt>
      <trkpt lat="45.31252" lon="3.6816">
        <ele>966</ele>
        <time>2022-06-21T01:29:19.896Z</time>
      </trkpt>
      <trkpt lat="45.31234" lon="3.68295">
        <ele>973</ele>
        <time>2022-06-21T01:29:52.672Z</time>
      </trkpt>
      <trkpt lat="45.31216" lon="3.68401">
        <ele>980</ele>
        <time>2022-06-21T01:30:23.084Z</time>
      </trkpt>
      <trkpt lat="45.31215" lon="3.68466">
        <ele>983</ele>
        <time>2022-06-21T01:30:37.820Z</time>
      </trkpt>
      <trkpt lat="45.31218" lon="3.68567">
        <ele>988</ele>
        <time>2022-06-21T01:31:01.549Z</time>
      </trkpt>
      <trkpt lat="45.31223" lon="3.68598">
        <ele>989</ele>
        <time>2022-06-21T01:31:07.803Z</time>
      </trkpt>
      <trkpt lat="45.31257" lon="3.68725">
        <ele>987</ele>
        <time>2022-06-21T01:31:19.196Z</time>
      </trkpt>
      <trkpt lat="45.31265" lon="3.68745">
        <ele>986</ele>
        <time>2022-06-21T01:31:20.505Z</time>
      </trkpt>
      <trkpt lat="45.31272" lon="3.68754">
        <ele>987</ele>
        <time>2022-06-21T01:31:24.816Z</time>
      </trkpt>
      <trkpt lat="45.31287" lon="3.68767">
        <ele>988</ele>
        <time>2022-06-21T01:31:30.140Z</time>
      </trkpt>
      <trkpt lat="45.313" lon="3.68769">
        <ele>988</ele>
        <time>2022-06-21T01:31:32.304Z</time>
      </trkpt>
      <trkpt lat="45.31312" lon="3.68765">
        <ele>988</ele>
        <time>2022-06-21T01:31:34.343Z</time>
      </trkpt>
      <trkpt lat="45.31322" lon="3.68755">
        <ele>987</ele>
        <time>2022-06-21T01:31:35.382Z</time>
      </trkpt>
      <trkpt lat="45.31548" lon="3.68405">
        <ele>1001</ele>
        <time>2022-06-21T01:33:05.103Z</time>
      </trkpt>
      <trkpt lat="45.3156" lon="3.68388">
        <ele>1001</ele>
        <time>2022-06-21T01:33:07.906Z</time>
      </trkpt>
      <trkpt lat="45.31594" lon="3.68363">
        <ele>1003</ele>
        <time>2022-06-21T01:33:19.145Z</time>
      </trkpt>
      <trkpt lat="45.31639" lon="3.68342">
        <ele>1005</ele>
        <time>2022-06-21T01:33:31.925Z</time>
      </trkpt>
      <trkpt lat="45.31673" lon="3.68334">
        <ele>1006</ele>
        <time>2022-06-21T01:33:39.691Z</time>
      </trkpt>
      <trkpt lat="45.317" lon="3.68333">
        <ele>1006</ele>
        <time>2022-06-21T01:33:44.160Z</time>
      </trkpt>
      <trkpt lat="45.31714" lon="3.68338">
        <ele>1007</ele>
        <time>2022-06-21T01:33:48.940Z</time>
      </trkpt>
      <trkpt lat="45.31728" lon="3.68345">
        <ele>1008</ele>
        <time>2022-06-21T01:33:53.786Z</time>
      </trkpt>
      <trkpt lat="45.31754" lon="3.68365">
        <ele>1010</ele>
        <time>2022-06-21T01:34:03.457Z</time>
      </trkpt>
      <trkpt lat="45.31779" lon="3.68392">
        <ele>1011</ele>
        <time>2022-06-21T01:34:10.791Z</time>
      </trkpt>
      <trkpt lat="45.31796" lon="3.6842">
        <ele>1012</ele>
        <time>2022-06-21T01:34:17.435Z</time>
      </trkpt>
      <trkpt lat="45.31809" lon="3.68455">
        <ele>1013</ele>
        <time>2022-06-21T01:34:24.299Z</time>
      </trkpt>
      <trkpt lat="45.31876" lon="3.68728">
        <ele>1027</ele>
        <time>2022-06-21T01:35:31.416Z</time>
      </trkpt>
      <trkpt lat="45.31879" lon="3.68763">
        <ele>1029</ele>
        <time>2022-06-21T01:35:40.392Z</time>
      </trkpt>
      <trkpt lat="45.31875" lon="3.68801">
        <ele>1030</ele>
        <time>2022-06-21T01:35:47.156Z</time>
      </trkpt>
      <trkpt lat="45.31869" lon="3.68834">
        <ele>1031</ele>
        <time>2022-06-21T01:35:53.575Z</time>
      </trkpt>
      <trkpt lat="45.31853" lon="3.68897">
        <ele>1032</ele>
        <time>2022-06-21T01:36:03.249Z</time>
      </trkpt>
      <trkpt lat="45.3178" lon="3.69149">
        <ele>1041</ele>
        <time>2022-06-21T01:36:57.614Z</time>
      </trkpt>
      <trkpt lat="45.31777" lon="3.69167">
        <ele>1042</ele>
        <time>2022-06-21T01:37:02.182Z</time>
      </trkpt>
      <trkpt lat="45.31774" lon="3.69202">
        <ele>1044</ele>
        <time>2022-06-21T01:37:11.158Z</time>
      </trkpt>
      <trkpt lat="45.31774" lon="3.6922">
        <ele>1045</ele>
        <time>2022-06-21T01:37:15.680Z</time>
      </trkpt>
      <trkpt lat="45.31776" lon="3.6924">
        <ele>1046</ele>
        <time>2022-06-21T01:37:20.423Z</time>
      </trkpt>
      <trkpt lat="45.31786" lon="3.69283">
        <ele>1047</ele>
        <time>2022-06-21T01:37:27.820Z</time>
      </trkpt>
      <trkpt lat="45.31806" lon="3.69363">
        <ele>1049</ele>
        <time>2022-06-21T01:37:42.072Z</time>
      </trkpt>
      <trkpt lat="45.31815" lon="3.69388">
        <ele>1050</ele>
        <time>2022-06-21T01:37:47.810Z</time>
      </trkpt>
      <trkpt lat="45.31834" lon="3.69425">
        <ele>1051</ele>
        <time>2022-06-21T01:37:55.258Z</time>
      </trkpt>
      <trkpt lat="45.31843" lon="3.69441">
        <ele>1052</ele>
        <time>2022-06-21T01:38:00.033Z</time>
      </trkpt>
      <trkpt lat="45.31853" lon="3.69454">
        <ele>1052</ele>
        <time>2022-06-21T01:38:02.275Z</time>
      </trkpt>
      <trkpt lat="45.31918" lon="3.69492">
        <ele>1053</ele>
        <time>2022-06-21T01:38:15.646Z</time>
      </trkpt>
      <trkpt lat="45.31959" lon="3.69507">
        <ele>1055</ele>
        <time>2022-06-21T01:38:27.677Z</time>
      </trkpt>
      <trkpt lat="45.31997" lon="3.69517">
        <ele>1057</ele>
        <time>2022-06-21T01:38:38.988Z</time>
      </trkpt>
      <trkpt lat="45.32032" lon="3.69518">
        <ele>1059</ele>
        <time>2022-06-21T01:38:49.612Z</time>
      </trkpt>
      <trkpt lat="45.32095" lon="3.6951">
        <ele>1061</ele>
        <time>2022-06-21T01:39:04.345Z</time>
      </trkpt>
      <trkpt lat="45.321" lon="3.69512">
        <ele>1061</ele>
        <time>2022-06-21T01:39:05.204Z</time>
      </trkpt>
      <trkpt lat="45.32107" lon="3.69525">
        <ele>1063</ele>
        <time>2022-06-21T01:39:12.552Z</time>
      </trkpt>
      <trkpt lat="45.32109" lon="3.69544">
        <ele>1064</ele>
        <time>2022-06-21T01:39:17.190Z</time>
      </trkpt>
      <trkpt lat="45.32116" lon="3.69544">
        <ele>1064</ele>
        <time>2022-06-21T01:39:18.349Z</time>
      </trkpt>
      <trkpt lat="45.32126" lon="3.69549">
        <ele>1064</ele>
        <time>2022-06-21T01:39:20.103Z</time>
      </trkpt>
      <trkpt lat="45.32141" lon="3.69569">
        <ele>1065</ele>
        <time>2022-06-21T01:39:25.999Z</time>
      </trkpt>
      <trkpt lat="45.32145" lon="3.69577">
        <ele>1066</ele>
        <time>2022-06-21T01:39:30.404Z</time>
      </trkpt>
      <trkpt lat="45.32149" lon="3.69581">
        <ele>1066</ele>
        <time>2022-06-21T01:39:31.213Z</time>
      </trkpt>
      <trkpt lat="45.32182" lon="3.69602">
        <ele>1065</ele>
        <time>2022-06-21T01:39:35.210Z</time>
      </trkpt>
      <trkpt lat="45.32208" lon="3.69624">
        <ele>1064</ele>
        <time>2022-06-21T01:39:38.372Z</time>
      </trkpt>
      <trkpt lat="45.32279" lon="3.69653">
        <ele>1062</ele>
        <time>2022-06-21T01:39:46.593Z</time>
      </trkpt>
      <trkpt lat="45.323" lon="3.69664">
        <ele>1063</ele>
        <time>2022-06-21T01:39:52.850Z</time>
      </trkpt>
      <trkpt lat="45.32419" lon="3.6972">
        <ele>1062</ele>
        <time>2022-06-21T01:40:10.435Z</time>
      </trkpt>
      <trkpt lat="45.32439" lon="3.69728">
        <ele>1062</ele>
        <time>2022-06-21T01:40:13.873Z</time>
      </trkpt>
      <trkpt lat="45.32461" lon="3.69733">
        <ele>1062</ele>
        <time>2022-06-21T01:40:17.559Z</time>
      </trkpt>
      <trkpt lat="45.32484" lon="3.69749">
        <ele>1062</ele>
        <time>2022-06-21T01:40:21.795Z</time>
      </trkpt>
      <trkpt lat="45.32499" lon="3.69764">
        <ele>1062</ele>
        <time>2022-06-21T01:40:24.829Z</time>
      </trkpt>
      <trkpt lat="45.32501" lon="3.69756">
        <ele>1061</ele>
        <time>2022-06-21T01:40:25.337Z</time>
      </trkpt>
      <trkpt lat="45.32515" lon="3.69743">
        <ele>1060</ele>
        <time>2022-06-21T01:40:26.710Z</time>
      </trkpt>
      <trkpt lat="45.32557" lon="3.69726">
        <ele>1057</ele>
        <time>2022-06-21T01:40:30.423Z</time>
      </trkpt>
      <trkpt lat="45.32601" lon="3.69705">
        <ele>1054</ele>
        <time>2022-06-21T01:40:34.094Z</time>
      </trkpt>
      <trkpt lat="45.32618" lon="3.69693">
        <ele>1053</ele>
        <time>2022-06-21T01:40:35.748Z</time>
      </trkpt>
      <trkpt lat="45.32662" lon="3.69654">
        <ele>1050</ele>
        <time>2022-06-21T01:40:40.074Z</time>
      </trkpt>
      <trkpt lat="45.32705" lon="3.69609">
        <ele>1050</ele>
        <time>2022-06-21T01:40:48.907Z</time>
      </trkpt>
      <trkpt lat="45.3276" lon="3.69545">
        <ele>1047</ele>
        <time>2022-06-21T01:40:55.701Z</time>
      </trkpt>
      <trkpt lat="45.32779" lon="3.6952">
        <ele>1046</ele>
        <time>2022-06-21T01:40:58.261Z</time>
      </trkpt>
      <trkpt lat="45.32803" lon="3.69474">
        <ele>1044</ele>
        <time>2022-06-21T01:41:01.862Z</time>
      </trkpt>
      <trkpt lat="45.32815" lon="3.69444">
        <ele>1043</ele>
        <time>2022-06-21T01:41:04.204Z</time>
      </trkpt>
      <trkpt lat="45.32826" lon="3.69406">
        <ele>1041</ele>
        <time>2022-06-21T01:41:06.660Z</time>
      </trkpt>
      <trkpt lat="45.32834" lon="3.69361">
        <ele>1039</ele>
        <time>2022-06-21T01:41:09.310Z</time>
      </trkpt>
      <trkpt lat="45.32836" lon="3.69337">
        <ele>1039</ele>
        <time>2022-06-21T01:41:12.121Z</time>
      </trkpt>
      <trkpt lat="45.32837" lon="3.69314">
        <ele>1037</ele>
        <time>2022-06-21T01:41:13.499Z</time>
      </trkpt>
      <trkpt lat="45.32835" lon="3.69283">
        <ele>1034</ele>
        <time>2022-06-21T01:41:15.359Z</time>
      </trkpt>
      <trkpt lat="45.32828" lon="3.69228">
        <ele>1031</ele>
        <time>2022-06-21T01:41:18.700Z</time>
      </trkpt>
      <trkpt lat="45.32819" lon="3.69194">
        <ele>1031</ele>
        <time>2022-06-21T01:41:22.927Z</time>
      </trkpt>
      <trkpt lat="45.32812" lon="3.69177">
        <ele>1031</ele>
        <time>2022-06-21T01:41:25.218Z</time>
      </trkpt>
      <trkpt lat="45.32798" lon="3.69158">
        <ele>1032</ele>
        <time>2022-06-21T01:41:30.879Z</time>
      </trkpt>
      <trkpt lat="45.32777" lon="3.69143">
        <ele>1035</ele>
        <time>2022-06-21T01:41:44.722Z</time>
      </trkpt>
      <trkpt lat="45.32764" lon="3.69137">
        <ele>1036</ele>
        <time>2022-06-21T01:41:49.384Z</time>
      </trkpt>
      <trkpt lat="45.32712" lon="3.6912">
        <ele>1038</ele>
        <time>2022-06-21T01:42:02.828Z</time>
      </trkpt>
      <trkpt lat="45.32659" lon="3.69107">
        <ele>1035</ele>
        <time>2022-06-21T01:42:07.394Z</time>
      </trkpt>
      <trkpt lat="45.32636" lon="3.69098">
        <ele>1032</ele>
        <time>2022-06-21T01:42:09.422Z</time>
      </trkpt>
      <trkpt lat="45.32622" lon="3.69089">
        <ele>1030</ele>
        <time>2022-06-21T01:42:10.728Z</time>
      </trkpt>
      <trkpt lat="45.32595" lon="3.69062">
        <ele>1027</ele>
        <time>2022-06-21T01:42:13.534Z</time>
      </trkpt>
      <trkpt lat="45.32576" lon="3.69031">
        <ele>1027</ele>
        <time>2022-06-21T01:42:18.319Z</time>
      </trkpt>
      <trkpt lat="45.32568" lon="3.69009">
        <ele>1028</ele>
        <time>2022-06-21T01:42:23.614Z</time>
      </trkpt>
      <trkpt lat="45.32564" lon="3.68986">
        <ele>1028</ele>
        <time>2022-06-21T01:42:26.371Z</time>
      </trkpt>
      <trkpt lat="45.32562" lon="3.68966">
        <ele>1027</ele>
        <time>2022-06-21T01:42:27.578Z</time>
      </trkpt>
      <trkpt lat="45.32563" lon="3.68939">
        <ele>1027</ele>
        <time>2022-06-21T01:42:30.723Z</time>
      </trkpt>
      <trkpt lat="45.32565" lon="3.68921">
        <ele>1026</ele>
        <time>2022-06-21T01:42:31.813Z</time>
      </trkpt>
      <trkpt lat="45.32575" lon="3.6888">
        <ele>1025</ele>
        <time>2022-06-21T01:42:35.011Z</time>
      </trkpt>
      <trkpt lat="45.32595" lon="3.6881">
        <ele>1021</ele>
        <time>2022-06-21T01:42:39.527Z</time>
      </trkpt>
      <trkpt lat="45.32606" lon="3.68787">
        <ele>1020</ele>
        <time>2022-06-21T01:42:41.254Z</time>
      </trkpt>
      <trkpt lat="45.32618" lon="3.68768">
        <ele>1020</ele>
        <time>2022-06-21T01:42:44.225Z</time>
      </trkpt>
      <trkpt lat="45.32632" lon="3.6875">
        <ele>1019</ele>
        <time>2022-06-21T01:42:45.865Z</time>
      </trkpt>
      <trkpt lat="45.32655" lon="3.68728">
        <ele>1018</ele>
        <time>2022-06-21T01:42:48.675Z</time>
      </trkpt>
      <trkpt lat="45.32672" lon="3.68716">
        <ele>1017</ele>
        <time>2022-06-21T01:42:50.329Z</time>
      </trkpt>
      <trkpt lat="45.32688" lon="3.68707">
        <ele>1017</ele>
        <time>2022-06-21T01:42:53.176Z</time>
      </trkpt>
      <trkpt lat="45.32746" lon="3.68689">
        <ele>1017</ele>
        <time>2022-06-21T01:43:02.998Z</time>
      </trkpt>
      <trkpt lat="45.32778" lon="3.68674">
        <ele>1016</ele>
        <time>2022-06-21T01:43:06.645Z</time>
      </trkpt>
      <trkpt lat="45.32804" lon="3.68655">
        <ele>1016</ele>
        <time>2022-06-21T01:43:11.481Z</time>
      </trkpt>
      <trkpt lat="45.32824" lon="3.68636">
        <ele>1016</ele>
        <time>2022-06-21T01:43:15.461Z</time>
      </trkpt>
      <trkpt lat="45.32857" lon="3.68599">
        <ele>1016</ele>
        <time>2022-06-21T01:43:22.413Z</time>
      </trkpt>
      <trkpt lat="45.32882" lon="3.68567">
        <ele>1015</ele>
        <time>2022-06-21T01:43:26.051Z</time>
      </trkpt>
      <trkpt lat="45.32908" lon="3.68525">
        <ele>1012</ele>
        <time>2022-06-21T01:43:29.396Z</time>
      </trkpt>
      <trkpt lat="45.32916" lon="3.68504">
        <ele>1010</ele>
        <time>2022-06-21T01:43:30.824Z</time>
      </trkpt>
      <trkpt lat="45.32921" lon="3.68486">
        <ele>1010</ele>
        <time>2022-06-21T01:43:33.075Z</time>
      </trkpt>
      <trkpt lat="45.32922" lon="3.68453">
        <ele>1009</ele>
        <time>2022-06-21T01:43:35.278Z</time>
      </trkpt>
      <trkpt lat="45.32919" lon="3.68434">
        <ele>1008</ele>
        <time>2022-06-21T01:43:36.442Z</time>
      </trkpt>
      <trkpt lat="45.32915" lon="3.68422">
        <ele>1007</ele>
        <time>2022-06-21T01:43:37.236Z</time>
      </trkpt>
      <trkpt lat="45.32903" lon="3.68398">
        <ele>1008</ele>
        <time>2022-06-21T01:43:43.160Z</time>
      </trkpt>
      <trkpt lat="45.32893" lon="3.68386">
        <ele>1009</ele>
        <time>2022-06-21T01:43:47.738Z</time>
      </trkpt>
      <trkpt lat="45.32872" lon="3.68373">
        <ele>1009</ele>
        <time>2022-06-21T01:43:51.528Z</time>
      </trkpt>
      <trkpt lat="45.32806" lon="3.68356">
        <ele>1007</ele>
        <time>2022-06-21T01:43:58.776Z</time>
      </trkpt>
      <trkpt lat="45.32786" lon="3.68346">
        <ele>1006</ele>
        <time>2022-06-21T01:44:00.714Z</time>
      </trkpt>
      <trkpt lat="45.32766" lon="3.68326">
        <ele>1005</ele>
        <time>2022-06-21T01:44:03.080Z</time>
      </trkpt>
      <trkpt lat="45.32755" lon="3.68311">
        <ele>1005</ele>
        <time>2022-06-21T01:44:05.602Z</time>
      </trkpt>
      <trkpt lat="45.32708" lon="3.68227">
        <ele>1006</ele>
        <time>2022-06-21T01:44:19.815Z</time>
      </trkpt>
      <trkpt lat="45.32673" lon="3.68158">
        <ele>1007</ele>
        <time>2022-06-21T01:44:31.502Z</time>
      </trkpt>
      <trkpt lat="45.32647" lon="3.6812">
        <ele>1010</ele>
        <time>2022-06-21T01:44:44.979Z</time>
      </trkpt>
      <trkpt lat="45.32632" lon="3.68105">
        <ele>1011</ele>
        <time>2022-06-21T01:44:50.446Z</time>
      </trkpt>
      <trkpt lat="45.32619" lon="3.68096">
        <ele>1011</ele>
        <time>2022-06-21T01:44:52.838Z</time>
      </trkpt>
      <trkpt lat="45.3259" lon="3.68081">
        <ele>1009</ele>
        <time>2022-06-21T01:44:55.276Z</time>
      </trkpt>
      <trkpt lat="45.32568" lon="3.68067">
        <ele>1008</ele>
        <time>2022-06-21T01:44:57.596Z</time>
      </trkpt>
      <trkpt lat="45.3254" lon="3.68041">
        <ele>1007</ele>
        <time>2022-06-21T01:45:01.206Z</time>
      </trkpt>
      <trkpt lat="45.32482" lon="3.67978">
        <ele>1002</ele>
        <time>2022-06-21T01:45:07.411Z</time>
      </trkpt>
      <trkpt lat="45.32465" lon="3.67948">
        <ele>1002</ele>
        <time>2022-06-21T01:45:11.894Z</time>
      </trkpt>
      <trkpt lat="45.32416" lon="3.67824">
        <ele>1003</ele>
        <time>2022-06-21T01:45:30.110Z</time>
      </trkpt>
      <trkpt lat="45.32408" lon="3.67798">
        <ele>1001</ele>
        <time>2022-06-21T01:45:31.806Z</time>
      </trkpt>
      <trkpt lat="45.32405" lon="3.67765">
        <ele>1000</ele>
        <time>2022-06-21T01:45:34.032Z</time>
      </trkpt>
      <trkpt lat="45.32407" lon="3.6775">
        <ele>1000</ele>
        <time>2022-06-21T01:45:35.808Z</time>
      </trkpt>
      <trkpt lat="45.32413" lon="3.67735">
        <ele>1000</ele>
        <time>2022-06-21T01:45:37.816Z</time>
      </trkpt>
      <trkpt lat="45.32419" lon="3.67724">
        <ele>1000</ele>
        <time>2022-06-21T01:45:39.436Z</time>
      </trkpt>
      <trkpt lat="45.32431" lon="3.67711">
        <ele>1000</ele>
        <time>2022-06-21T01:45:41.931Z</time>
      </trkpt>
      <trkpt lat="45.32453" lon="3.67694">
        <ele>1002</ele>
        <time>2022-06-21T01:45:50.939Z</time>
      </trkpt>
      <trkpt lat="45.32544" lon="3.67643">
        <ele>1006</ele>
        <time>2022-06-21T01:46:16.816Z</time>
      </trkpt>
      <trkpt lat="45.32557" lon="3.67634">
        <ele>1005</ele>
        <time>2022-06-21T01:46:18.045Z</time>
      </trkpt>
      <trkpt lat="45.32574" lon="3.67615">
        <ele>1003</ele>
        <time>2022-06-21T01:46:19.883Z</time>
      </trkpt>
      <trkpt lat="45.32591" lon="3.67591">
        <ele>1001</ele>
        <time>2022-06-21T01:46:21.920Z</time>
      </trkpt>
      <trkpt lat="45.32637" lon="3.67512">
        <ele>997</ele>
        <time>2022-06-21T01:46:28.058Z</time>
      </trkpt>
      <trkpt lat="45.32663" lon="3.67462">
        <ele>995</ele>
        <time>2022-06-21T01:46:32.105Z</time>
      </trkpt>
      <trkpt lat="45.32671" lon="3.67435">
        <ele>995</ele>
        <time>2022-06-21T01:46:35.514Z</time>
      </trkpt>
      <trkpt lat="45.32676" lon="3.67409">
        <ele>994</ele>
        <time>2022-06-21T01:46:37.164Z</time>
      </trkpt>
      <trkpt lat="45.32677" lon="3.67392">
        <ele>993</ele>
        <time>2022-06-21T01:46:38.183Z</time>
      </trkpt>
      <trkpt lat="45.32675" lon="3.6737">
        <ele>991</ele>
        <time>2022-06-21T01:46:39.509Z</time>
      </trkpt>
      <trkpt lat="45.32673" lon="3.67347">
        <ele>989</ele>
        <time>2022-06-21T01:46:40.895Z</time>
      </trkpt>
      <trkpt lat="45.32647" lon="3.67175">
        <ele>976</ele>
        <time>2022-06-21T01:46:51.411Z</time>
      </trkpt>
      <trkpt lat="45.3264" lon="3.67095">
        <ele>973</ele>
        <time>2022-06-21T01:46:56.339Z</time>
      </trkpt>
      <trkpt lat="45.32639" lon="3.67052">
        <ele>972</ele>
        <time>2022-06-21T01:46:59.500Z</time>
      </trkpt>
      <trkpt lat="45.32641" lon="3.67003">
        <ele>972</ele>
        <time>2022-06-21T01:47:05.210Z</time>
      </trkpt>
      <trkpt lat="45.32647" lon="3.66944">
        <ele>968</ele>
        <time>2022-06-21T01:47:08.773Z</time>
      </trkpt>
      <trkpt lat="45.32657" lon="3.66904">
        <ele>966</ele>
        <time>2022-06-21T01:47:11.311Z</time>
      </trkpt>
      <trkpt lat="45.32667" lon="3.66881">
        <ele>964</ele>
        <time>2022-06-21T01:47:12.927Z</time>
      </trkpt>
      <trkpt lat="45.32678" lon="3.66861">
        <ele>962</ele>
        <time>2022-06-21T01:47:14.445Z</time>
      </trkpt>
      <trkpt lat="45.3271" lon="3.66818">
        <ele>960</ele>
        <time>2022-06-21T01:47:18.532Z</time>
      </trkpt>
      <trkpt lat="45.32761" lon="3.6676">
        <ele>956</ele>
        <time>2022-06-21T01:47:23.835Z</time>
      </trkpt>
      <trkpt lat="45.32786" lon="3.66734">
        <ele>955</ele>
        <time>2022-06-21T01:47:27.097Z</time>
      </trkpt>
      <trkpt lat="45.33001" lon="3.66533">
        <ele>939</ele>
        <time>2022-06-21T01:47:47.840Z</time>
      </trkpt>
      <trkpt lat="45.33011" lon="3.66521">
        <ele>938</ele>
        <time>2022-06-21T01:47:48.952Z</time>
      </trkpt>
      <trkpt lat="45.3302" lon="3.66501">
        <ele>936</ele>
        <time>2022-06-21T01:47:50.372Z</time>
      </trkpt>
      <trkpt lat="45.33024" lon="3.66479">
        <ele>936</ele>
        <time>2022-06-21T01:47:53.015Z</time>
      </trkpt>
      <trkpt lat="45.33025" lon="3.66464">
        <ele>936</ele>
        <time>2022-06-21T01:47:54.768Z</time>
      </trkpt>
      <trkpt lat="45.33024" lon="3.66427">
        <ele>937</ele>
        <time>2022-06-21T01:48:01.413Z</time>
      </trkpt>
      <trkpt lat="45.33019" lon="3.66387">
        <ele>938</ele>
        <time>2022-06-21T01:48:08.370Z</time>
      </trkpt>
      <trkpt lat="45.33013" lon="3.66366">
        <ele>939</ele>
        <time>2022-06-21T01:48:13.401Z</time>
      </trkpt>
      <trkpt lat="45.32863" lon="3.66011">
        <ele>951</ele>
        <time>2022-06-21T01:49:30.796Z</time>
      </trkpt>
      <trkpt lat="45.32883" lon="3.65977">
        <ele>954</ele>
        <time>2022-06-21T01:49:43.734Z</time>
      </trkpt>
      <trkpt lat="45.32889" lon="3.65968">
        <ele>955</ele>
        <time>2022-06-21T01:49:48.113Z</time>
      </trkpt>
      <trkpt lat="45.32911" lon="3.65948">
        <ele>957</ele>
        <time>2022-06-21T01:49:57.261Z</time>
      </trkpt>
      <trkpt lat="45.32943" lon="3.65932">
        <ele>959</ele>
        <time>2022-06-21T01:50:07.687Z</time>
      </trkpt>
      <trkpt lat="45.3297" lon="3.65922">
        <ele>960</ele>
        <time>2022-06-21T01:50:14.560Z</time>
      </trkpt>
      <trkpt lat="45.33024" lon="3.6591">
        <ele>960</ele>
        <time>2022-06-21T01:50:23.603Z</time>
      </trkpt>
      <trkpt lat="45.3304" lon="3.65902">
        <ele>961</ele>
        <time>2022-06-21T01:50:28.816Z</time>
      </trkpt>
      <trkpt lat="45.3306" lon="3.65878">
        <ele>962</ele>
        <time>2022-06-21T01:50:35.477Z</time>
      </trkpt>
      <trkpt lat="45.33089" lon="3.65819">
        <ele>964</ele>
        <time>2022-06-21T01:50:48.602Z</time>
      </trkpt>
      <trkpt lat="45.33107" lon="3.65798">
        <ele>966</ele>
        <time>2022-06-21T01:50:57.410Z</time>
      </trkpt>
      <trkpt lat="45.33128" lon="3.65784">
        <ele>966</ele>
        <time>2022-06-21T01:51:01.247Z</time>
      </trkpt>
      <trkpt lat="45.33158" lon="3.65774">
        <ele>964</ele>
        <time>2022-06-21T01:51:03.680Z</time>
      </trkpt>
      <trkpt lat="45.3317" lon="3.65766">
        <ele>964</ele>
        <time>2022-06-21T01:51:05.872Z</time>
      </trkpt>
      <trkpt lat="45.33181" lon="3.65755">
        <ele>964</ele>
        <time>2022-06-21T01:51:08.097Z</time>
      </trkpt>
      <trkpt lat="45.33203" lon="3.65722">
        <ele>966</ele>
        <time>2022-06-21T01:51:18.176Z</time>
      </trkpt>
      <trkpt lat="45.33235" lon="3.65637">
        <ele>969</ele>
        <time>2022-06-21T01:51:37.039Z</time>
      </trkpt>
      <trkpt lat="45.33242" lon="3.65606">
        <ele>971</ele>
        <time>2022-06-21T01:51:45.809Z</time>
      </trkpt>
      <trkpt lat="45.33266" lon="3.65444">
        <ele>977</ele>
        <time>2022-06-21T01:52:19.827Z</time>
      </trkpt>
      <trkpt lat="45.33273" lon="3.65424">
        <ele>977</ele>
        <time>2022-06-21T01:52:22.426Z</time>
      </trkpt>
      <trkpt lat="45.33288" lon="3.65399">
        <ele>977</ele>
        <time>2022-06-21T01:52:26.249Z</time>
      </trkpt>
      <trkpt lat="45.33286" lon="3.65366">
        <ele>978</ele>
        <time>2022-06-21T01:52:32.600Z</time>
      </trkpt>
      <trkpt lat="45.33291" lon="3.65337">
        <ele>978</ele>
        <time>2022-06-21T01:52:36.073Z</time>
      </trkpt>
      <trkpt lat="45.33302" lon="3.65304">
        <ele>981</ele>
        <time>2022-06-21T01:52:49.290Z</time>
      </trkpt>
      <trkpt lat="45.33314" lon="3.6528">
        <ele>983</ele>
        <time>2022-06-21T01:52:57.913Z</time>
      </trkpt>
      <trkpt lat="45.33326" lon="3.65266">
        <ele>985</ele>
        <time>2022-06-21T01:53:07.205Z</time>
      </trkpt>
      <trkpt lat="45.33338" lon="3.65255">
        <ele>986</ele>
        <time>2022-06-21T01:53:11.960Z</time>
      </trkpt>
      <trkpt lat="45.3339" lon="3.65233">
        <ele>984</ele>
        <time>2022-06-21T01:53:17.418Z</time>
      </trkpt>
      <trkpt lat="45.33402" lon="3.65224">
        <ele>984</ele>
        <time>2022-06-21T01:53:19.663Z</time>
      </trkpt>
      <trkpt lat="45.33434" lon="3.65197">
        <ele>985</ele>
        <time>2022-06-21T01:53:27.829Z</time>
      </trkpt>
      <trkpt lat="45.33476" lon="3.6515">
        <ele>987</ele>
        <time>2022-06-21T01:53:41.284Z</time>
      </trkpt>
      <trkpt lat="45.33494" lon="3.65123">
        <ele>988</ele>
        <time>2022-06-21T01:53:47.944Z</time>
      </trkpt>
      <trkpt lat="45.33514" lon="3.65085">
        <ele>991</ele>
        <time>2022-06-21T01:54:01.016Z</time>
      </trkpt>
      <trkpt lat="45.33525" lon="3.65043">
        <ele>992</ele>
        <time>2022-06-21T01:54:08.366Z</time>
      </trkpt>
      <trkpt lat="45.3353" lon="3.64977">
        <ele>995</ele>
        <time>2022-06-21T01:54:23.261Z</time>
      </trkpt>
      <trkpt lat="45.33533" lon="3.64886">
        <ele>995</ele>
        <time>2022-06-21T01:54:33.857Z</time>
      </trkpt>
      <trkpt lat="45.33528" lon="3.64852">
        <ele>996</ele>
        <time>2022-06-21T01:54:40.323Z</time>
      </trkpt>
      <trkpt lat="45.33499" lon="3.64789">
        <ele>998</ele>
        <time>2022-06-21T01:54:53.717Z</time>
      </trkpt>
      <trkpt lat="45.33481" lon="3.64761">
        <ele>999</ele>
        <time>2022-06-21T01:55:00.439Z</time>
      </trkpt>
      <trkpt lat="45.33424" lon="3.64689">
        <ele>1002</ele>
        <time>2022-06-21T01:55:20.161Z</time>
      </trkpt>
      <trkpt lat="45.33381" lon="3.64617">
        <ele>1004</ele>
        <time>2022-06-21T01:55:35.336Z</time>
      </trkpt>
      <trkpt lat="45.3336" lon="3.6456">
        <ele>1004</ele>
        <time>2022-06-21T01:55:42.821Z</time>
      </trkpt>
      <trkpt lat="45.33332" lon="3.64473">
        <ele>1008</ele>
        <time>2022-06-21T01:56:03.569Z</time>
      </trkpt>
      <trkpt lat="45.33287" lon="3.64373">
        <ele>1009</ele>
        <time>2022-06-21T01:56:19.082Z</time>
      </trkpt>
      <trkpt lat="45.33194" lon="3.64175">
        <ele>1011</ele>
        <time>2022-06-21T01:56:50.184Z</time>
      </trkpt>
      <trkpt lat="45.33174" lon="3.64137">
        <ele>1013</ele>
        <time>2022-06-21T01:57:00.511Z</time>
      </trkpt>
      <trkpt lat="45.33128" lon="3.64083">
        <ele>1019</ele>
        <time>2022-06-21T01:57:26.325Z</time>
      </trkpt>
      <trkpt lat="45.33093" lon="3.64048">
        <ele>1023</ele>
        <time>2022-06-21T01:57:43.636Z</time>
      </trkpt>
      <trkpt lat="45.33063" lon="3.6401">
        <ele>1024</ele>
        <time>2022-06-21T01:57:52.246Z</time>
      </trkpt>
      <trkpt lat="45.3303" lon="3.63963">
        <ele>1026</ele>
        <time>2022-06-21T01:58:04.961Z</time>
      </trkpt>
      <trkpt lat="45.32991" lon="3.63898">
        <ele>1026</ele>
        <time>2022-06-21T01:58:14.901Z</time>
      </trkpt>
      <trkpt lat="45.32982" lon="3.63871">
        <ele>1026</ele>
        <time>2022-06-21T01:58:18.377Z</time>
      </trkpt>
      <trkpt lat="45.32968" lon="3.63808">
        <ele>1024</ele>
        <time>2022-06-21T01:58:22.783Z</time>
      </trkpt>
      <trkpt lat="45.32957" lon="3.63691">
        <ele>1028</ele>
        <time>2022-06-21T01:58:46.513Z</time>
      </trkpt>
      <trkpt lat="45.32958" lon="3.63656">
        <ele>1030</ele>
        <time>2022-06-21T01:58:55.470Z</time>
      </trkpt>
      <trkpt lat="45.32961" lon="3.63632">
        <ele>1031</ele>
        <time>2022-06-21T01:59:00.715Z</time>
      </trkpt>
      <trkpt lat="45.32973" lon="3.63599">
        <ele>1031</ele>
        <time>2022-06-21T01:59:05.037Z</time>
      </trkpt>
      <trkpt lat="45.32993" lon="3.63555">
        <ele>1029</ele>
        <time>2022-06-21T01:59:08.203Z</time>
      </trkpt>
      <trkpt lat="45.33003" lon="3.63521">
        <ele>1027</ele>
        <time>2022-06-21T01:59:10.405Z</time>
      </trkpt>
      <trkpt lat="45.33008" lon="3.63493">
        <ele>1026</ele>
        <time>2022-06-21T01:59:12.228Z</time>
      </trkpt>
      <trkpt lat="45.33013" lon="3.63446">
        <ele>1026</ele>
        <time>2022-06-21T01:59:17.758Z</time>
      </trkpt>
      <trkpt lat="45.33012" lon="3.63409">
        <ele>1025</ele>
        <time>2022-06-21T01:59:20.337Z</time>
      </trkpt>
      <trkpt lat="45.33007" lon="3.63381">
        <ele>1024</ele>
        <time>2022-06-21T01:59:22.160Z</time>
      </trkpt>
      <trkpt lat="45.32999" lon="3.63361">
        <ele>1023</ele>
        <time>2022-06-21T01:59:23.468Z</time>
      </trkpt>
      <trkpt lat="45.32984" lon="3.63339">
        <ele>1023</ele>
        <time>2022-06-21T01:59:27.033Z</time>
      </trkpt>
      <trkpt lat="45.32967" lon="3.63319">
        <ele>1024</ele>
        <time>2022-06-21T01:59:33.226Z</time>
      </trkpt>
      <trkpt lat="45.32924" lon="3.63274">
        <ele>1027</ele>
        <time>2022-06-21T01:59:49.325Z</time>
      </trkpt>
      <trkpt lat="45.32907" lon="3.63241">
        <ele>1028</ele>
        <time>2022-06-21T01:59:56.308Z</time>
      </trkpt>
      <trkpt lat="45.32896" lon="3.63208">
        <ele>1028</ele>
        <time>2022-06-21T02:00:00.556Z</time>
      </trkpt>
      <trkpt lat="45.32886" lon="3.62971">
        <ele>1033</ele>
        <time>2022-06-21T02:00:38.618Z</time>
      </trkpt>
      <trkpt lat="45.32877" lon="3.62809">
        <ele>1037</ele>
        <time>2022-06-21T02:01:06.446Z</time>
      </trkpt>
      <trkpt lat="45.32879" lon="3.62766">
        <ele>1039</ele>
        <time>2022-06-21T02:01:16.239Z</time>
      </trkpt>
      <trkpt lat="45.32888" lon="3.62724">
        <ele>1039</ele>
        <time>2022-06-21T02:01:21.346Z</time>
      </trkpt>
      <trkpt lat="45.32921" lon="3.62619">
        <ele>1038</ele>
        <time>2022-06-21T02:01:32.049Z</time>
      </trkpt>
      <trkpt lat="45.32975" lon="3.62463">
        <ele>1030</ele>
        <time>2022-06-21T02:01:41.660Z</time>
      </trkpt>
      <trkpt lat="45.3315" lon="3.6192">
        <ele>1029</ele>
        <time>2022-06-21T02:02:48.697Z</time>
      </trkpt>
      <trkpt lat="45.33159" lon="3.61901">
        <ele>1028</ele>
        <time>2022-06-21T02:02:49.997Z</time>
      </trkpt>
      <trkpt lat="45.33168" lon="3.61892">
        <ele>1028</ele>
        <time>2022-06-21T02:02:51.817Z</time>
      </trkpt>
      <trkpt lat="45.33185" lon="3.61885">
        <ele>1027</ele>
        <time>2022-06-21T02:02:53.311Z</time>
      </trkpt>
      <trkpt lat="45.33201" lon="3.61892">
        <ele>1027</ele>
        <time>2022-06-21T02:02:56.080Z</time>
      </trkpt>
      <trkpt lat="45.3322" lon="3.6191">
        <ele>1028</ele>
        <time>2022-06-21T02:03:02.389Z</time>
      </trkpt>
      <trkpt lat="45.33251" lon="3.61946">
        <ele>1030</ele>
        <time>2022-06-21T02:03:13.965Z</time>
      </trkpt>
      <trkpt lat="45.33273" lon="3.61958">
        <ele>1031</ele>
        <time>2022-06-21T02:03:20.343Z</time>
      </trkpt>
      <trkpt lat="45.33293" lon="3.6196">
        <ele>1031</ele>
        <time>2022-06-21T02:03:23.661Z</time>
      </trkpt>
      <trkpt lat="45.33311" lon="3.61955">
        <ele>1030</ele>
        <time>2022-06-21T02:03:25.234Z</time>
      </trkpt>
      <trkpt lat="45.33327" lon="3.61944">
        <ele>1030</ele>
        <time>2022-06-21T02:03:28.174Z</time>
      </trkpt>
      <trkpt lat="45.33342" lon="3.61924">
        <ele>1030</ele>
        <time>2022-06-21T02:03:31.576Z</time>
      </trkpt>
      <trkpt lat="45.33352" lon="3.61897">
        <ele>1030</ele>
        <time>2022-06-21T02:03:35.126Z</time>
      </trkpt>
      <trkpt lat="45.33362" lon="3.61852">
        <ele>1029</ele>
        <time>2022-06-21T02:03:38.699Z</time>
      </trkpt>
      <trkpt lat="45.33377" lon="3.6181">
        <ele>1028</ele>
        <time>2022-06-21T02:03:42.264Z</time>
      </trkpt>
      <trkpt lat="45.33399" lon="3.61782">
        <ele>1027</ele>
        <time>2022-06-21T02:03:45.323Z</time>
      </trkpt>
      <trkpt lat="45.33483" lon="3.61721">
        <ele>1029</ele>
        <time>2022-06-21T02:04:04.690Z</time>
      </trkpt>
      <trkpt lat="45.33576" lon="3.61657">
        <ele>1031</ele>
        <time>2022-06-21T02:04:25.469Z</time>
      </trkpt>
      <trkpt lat="45.33602" lon="3.61634">
        <ele>1031</ele>
        <time>2022-06-21T02:04:30.535Z</time>
      </trkpt>
      <trkpt lat="45.3362" lon="3.61608">
        <ele>1031</ele>
        <time>2022-06-21T02:04:34.779Z</time>
      </trkpt>
      <trkpt lat="45.33635" lon="3.6157">
        <ele>1031</ele>
        <time>2022-06-21T02:04:39.848Z</time>
      </trkpt>
      <trkpt lat="45.33695" lon="3.61347">
        <ele>1034</ele>
        <time>2022-06-21T02:05:13.057Z</time>
      </trkpt>
      <trkpt lat="45.33704" lon="3.61323">
        <ele>1034</ele>
        <time>2022-06-21T02:05:16.221Z</time>
      </trkpt>
      <trkpt lat="45.33718" lon="3.61294">
        <ele>1033</ele>
        <time>2022-06-21T02:05:18.625Z</time>
      </trkpt>
      <trkpt lat="45.33733" lon="3.61273">
        <ele>1032</ele>
        <time>2022-06-21T02:05:20.542Z</time>
      </trkpt>
      <trkpt lat="45.33795" lon="3.61212">
        <ele>1032</ele>
        <time>2022-06-21T02:05:33.015Z</time>
      </trkpt>
      <trkpt lat="45.33815" lon="3.61184">
        <ele>1030</ele>
        <time>2022-06-21T02:05:35.401Z</time>
      </trkpt>
      <trkpt lat="45.3383" lon="3.61148">
        <ele>1029</ele>
        <time>2022-06-21T02:05:38.446Z</time>
      </trkpt>
      <trkpt lat="45.33872" lon="3.60916">
        <ele>1033</ele>
        <time>2022-06-21T02:06:14.058Z</time>
      </trkpt>
      <trkpt lat="45.33883" lon="3.60849">
        <ele>1034</ele>
        <time>2022-06-21T02:06:23.929Z</time>
      </trkpt>
      <trkpt lat="45.33888" lon="3.60824">
        <ele>1034</ele>
        <time>2022-06-21T02:06:26.952Z</time>
      </trkpt>
      <trkpt lat="45.33901" lon="3.60748">
        <ele>1036</ele>
        <time>2022-06-21T02:06:40.595Z</time>
      </trkpt>
      <trkpt lat="45.33903" lon="3.60709">
        <ele>1037</ele>
        <time>2022-06-21T02:06:47.416Z</time>
      </trkpt>
      <trkpt lat="45.33898" lon="3.6067">
        <ele>1038</ele>
        <time>2022-06-21T02:06:54.285Z</time>
      </trkpt>
      <trkpt lat="45.3387" lon="3.60515">
        <ele>1033</ele>
        <time>2022-06-21T02:07:04.821Z</time>
      </trkpt>
      <trkpt lat="45.3387" lon="3.60495">
        <ele>1033</ele>
        <time>2022-06-21T02:07:07.147Z</time>
      </trkpt>
      <trkpt lat="45.33876" lon="3.6047">
        <ele>1032</ele>
        <time>2022-06-21T02:07:08.749Z</time>
      </trkpt>
      <trkpt lat="45.33995" lon="3.60127">
        <ele>1014</ele>
        <time>2022-06-21T02:07:31.608Z</time>
      </trkpt>
      <trkpt lat="45.34008" lon="3.60097">
        <ele>1013</ele>
        <time>2022-06-21T02:07:34.018Z</time>
      </trkpt>
      <trkpt lat="45.34031" lon="3.60059">
        <ele>1008</ele>
        <time>2022-06-21T02:07:37.015Z</time>
      </trkpt>
      <trkpt lat="45.34081" lon="3.60017">
        <ele>1006</ele>
        <time>2022-06-21T02:07:42.999Z</time>
      </trkpt>
      <trkpt lat="45.34092" lon="3.59998">
        <ele>1006</ele>
        <time>2022-06-21T02:07:45.861Z</time>
      </trkpt>
      <trkpt lat="45.34093" lon="3.59989">
        <ele>1006</ele>
        <time>2022-06-21T02:07:46.921Z</time>
      </trkpt>
      <trkpt lat="45.34092" lon="3.59979">
        <ele>1006</ele>
        <time>2022-06-21T02:07:48.096Z</time>
      </trkpt>
      <trkpt lat="45.34084" lon="3.59964">
        <ele>1006</ele>
        <time>2022-06-21T02:07:50.286Z</time>
      </trkpt>
      <trkpt lat="45.34051" lon="3.59922">
        <ele>1002</ele>
        <time>2022-06-21T02:07:54.050Z</time>
      </trkpt>
      <trkpt lat="45.33974" lon="3.59828">
        <ele>994</ele>
        <time>2022-06-21T02:08:02.677Z</time>
      </trkpt>
      <trkpt lat="45.3396" lon="3.59804">
        <ele>991</ele>
        <time>2022-06-21T02:08:04.541Z</time>
      </trkpt>
      <trkpt lat="45.33956" lon="3.5977">
        <ele>991</ele>
        <time>2022-06-21T02:08:08.550Z</time>
      </trkpt>
      <trkpt lat="45.33962" lon="3.59744">
        <ele>992</ele>
        <time>2022-06-21T02:08:14.188Z</time>
      </trkpt>
      <trkpt lat="45.33973" lon="3.5972">
        <ele>991</ele>
        <time>2022-06-21T02:08:15.989Z</time>
      </trkpt>
      <trkpt lat="45.33998" lon="3.59684">
        <ele>991</ele>
        <time>2022-06-21T02:08:21.875Z</time>
      </trkpt>
      <trkpt lat="45.34033" lon="3.59577">
        <ele>988</ele>
        <time>2022-06-21T02:08:30.279Z</time>
      </trkpt>
      <trkpt lat="45.34082" lon="3.59467">
        <ele>983</ele>
        <time>2022-06-21T02:08:38.125Z</time>
      </trkpt>
      <trkpt lat="45.34129" lon="3.59379">
        <ele>981</ele>
        <time>2022-06-21T02:08:46.896Z</time>
      </trkpt>
      <trkpt lat="45.34138" lon="3.59363">
        <ele>981</ele>
        <time>2022-06-21T02:08:49.279Z</time>
      </trkpt>
      <trkpt lat="45.34157" lon="3.59338">
        <ele>981</ele>
        <time>2022-06-21T02:08:53.561Z</time>
      </trkpt>
      <trkpt lat="45.3423" lon="3.59253">
        <ele>984</ele>
        <time>2022-06-21T02:09:15.585Z</time>
      </trkpt>
      <trkpt lat="45.34241" lon="3.59228">
        <ele>983</ele>
        <time>2022-06-21T02:09:17.462Z</time>
      </trkpt>
      <trkpt lat="45.34265" lon="3.59101">
        <ele>975</ele>
        <time>2022-06-21T02:09:25.321Z</time>
      </trkpt>
      <trkpt lat="45.34284" lon="3.59031">
        <ele>971</ele>
        <time>2022-06-21T02:09:29.805Z</time>
      </trkpt>
      <trkpt lat="45.34291" lon="3.5901">
        <ele>969</ele>
        <time>2022-06-21T02:09:31.194Z</time>
      </trkpt>
      <trkpt lat="45.34301" lon="3.58991">
        <ele>968</ele>
        <time>2022-06-21T02:09:32.563Z</time>
      </trkpt>
      <trkpt lat="45.34333" lon="3.58955">
        <ele>968</ele>
        <time>2022-06-21T02:09:39.313Z</time>
      </trkpt>
      <trkpt lat="45.34351" lon="3.58944">
        <ele>969</ele>
        <time>2022-06-21T02:09:45.020Z</time>
      </trkpt>
      <trkpt lat="45.34573" lon="3.58836">
        <ele>960</ele>
        <time>2022-06-21T02:10:08.286Z</time>
      </trkpt>
      <trkpt lat="45.34583" lon="3.58833">
        <ele>961</ele>
        <time>2022-06-21T02:10:12.593Z</time>
      </trkpt>
      <trkpt lat="45.34601" lon="3.58837">
        <ele>959</ele>
        <time>2022-06-21T02:10:14.142Z</time>
      </trkpt>
      <trkpt lat="45.34609" lon="3.58843">
        <ele>958</ele>
        <time>2022-06-21T02:10:14.911Z</time>
      </trkpt>
      <trkpt lat="45.34617" lon="3.58855">
        <ele>957</ele>
        <time>2022-06-21T02:10:15.899Z</time>
      </trkpt>
      <trkpt lat="45.34619" lon="3.5887">
        <ele>957</ele>
        <time>2022-06-21T02:10:17.674Z</time>
      </trkpt>
      <trkpt lat="45.3461" lon="3.58942">
        <ele>960</ele>
        <time>2022-06-21T02:10:33.407Z</time>
      </trkpt>
      <trkpt lat="45.34607" lon="3.59006">
        <ele>962</ele>
        <time>2022-06-21T02:10:45.972Z</time>
      </trkpt>
      <trkpt lat="45.3461" lon="3.59038">
        <ele>962</ele>
        <time>2022-06-21T02:10:49.727Z</time>
      </trkpt>
      <trkpt lat="45.34616" lon="3.59067">
        <ele>961</ele>
        <time>2022-06-21T02:10:51.670Z</time>
      </trkpt>
      <trkpt lat="45.34629" lon="3.59099">
        <ele>960</ele>
        <time>2022-06-21T02:10:54.243Z</time>
      </trkpt>
      <trkpt lat="45.34641" lon="3.59121">
        <ele>959</ele>
        <time>2022-06-21T02:10:55.971Z</time>
      </trkpt>
      <trkpt lat="45.34652" lon="3.59131">
        <ele>958</ele>
        <time>2022-06-21T02:10:57.081Z</time>
      </trkpt>
      <trkpt lat="45.34665" lon="3.59135">
        <ele>955</ele>
        <time>2022-06-21T02:10:58.212Z</time>
      </trkpt>
      <trkpt lat="45.34674" lon="3.59133">
        <ele>955</ele>
        <time>2022-06-21T02:10:59.719Z</time>
      </trkpt>
      <trkpt lat="45.34682" lon="3.59125">
        <ele>955</ele>
        <time>2022-06-21T02:11:01.337Z</time>
      </trkpt>
      <trkpt lat="45.34689" lon="3.59112">
        <ele>954</ele>
        <time>2022-06-21T02:11:02.316Z</time>
      </trkpt>
      <trkpt lat="45.34709" lon="3.59058">
        <ele>950</ele>
        <time>2022-06-21T02:11:05.963Z</time>
      </trkpt>
      <trkpt lat="45.34719" lon="3.59038">
        <ele>948</ele>
        <time>2022-06-21T02:11:07.430Z</time>
      </trkpt>
      <trkpt lat="45.34747" lon="3.59">
        <ele>941</ele>
        <time>2022-06-21T02:11:10.720Z</time>
      </trkpt>
      <trkpt lat="45.34818" lon="3.58894">
        <ele>935</ele>
        <time>2022-06-21T02:11:19.278Z</time>
      </trkpt>
      <trkpt lat="45.34831" lon="3.58877">
        <ele>935</ele>
        <time>2022-06-21T02:11:22.199Z</time>
      </trkpt>
      <trkpt lat="45.34841" lon="3.58873">
        <ele>935</ele>
        <time>2022-06-21T02:11:23.918Z</time>
      </trkpt>
      <trkpt lat="45.34851" lon="3.58874">
        <ele>935</ele>
        <time>2022-06-21T02:11:25.576Z</time>
      </trkpt>
      <trkpt lat="45.3486" lon="3.58882">
        <ele>935</ele>
        <time>2022-06-21T02:11:27.332Z</time>
      </trkpt>
      <trkpt lat="45.34866" lon="3.58894">
        <ele>936</ele>
        <time>2022-06-21T02:11:31.644Z</time>
      </trkpt>
      <trkpt lat="45.34877" lon="3.58929">
        <ele>937</ele>
        <time>2022-06-21T02:11:38.398Z</time>
      </trkpt>
      <trkpt lat="45.34885" lon="3.58968">
        <ele>938</ele>
        <time>2022-06-21T02:11:45.354Z</time>
      </trkpt>
      <trkpt lat="45.34892" lon="3.58993">
        <ele>938</ele>
        <time>2022-06-21T02:11:48.483Z</time>
      </trkpt>
      <trkpt lat="45.34907" lon="3.59024">
        <ele>937</ele>
        <time>2022-06-21T02:11:51.120Z</time>
      </trkpt>
      <trkpt lat="45.3493" lon="3.59067">
        <ele>933</ele>
        <time>2022-06-21T02:11:54.349Z</time>
      </trkpt>
      <trkpt lat="45.34938" lon="3.59099">
        <ele>932</ele>
        <time>2022-06-21T02:11:56.638Z</time>
      </trkpt>
      <trkpt lat="45.34955" lon="3.59287">
        <ele>931</ele>
        <time>2022-06-21T02:12:15.448Z</time>
      </trkpt>
      <trkpt lat="45.34963" lon="3.59311">
        <ele>931</ele>
        <time>2022-06-21T02:12:18.537Z</time>
      </trkpt>
      <trkpt lat="45.34972" lon="3.59325">
        <ele>930</ele>
        <time>2022-06-21T02:12:19.671Z</time>
      </trkpt>
      <trkpt lat="45.34984" lon="3.59329">
        <ele>929</ele>
        <time>2022-06-21T02:12:20.719Z</time>
      </trkpt>
      <trkpt lat="45.34995" lon="3.59329">
        <ele>927</ele>
        <time>2022-06-21T02:12:21.654Z</time>
      </trkpt>
      <trkpt lat="45.35005" lon="3.59324">
        <ele>927</ele>
        <time>2022-06-21T02:12:23.408Z</time>
      </trkpt>
      <trkpt lat="45.35017" lon="3.59312">
        <ele>929</ele>
        <time>2022-06-21T02:12:32.768Z</time>
      </trkpt>
      <trkpt lat="45.35024" lon="3.59295">
        <ele>929</ele>
        <time>2022-06-21T02:12:35.059Z</time>
      </trkpt>
      <trkpt lat="45.35034" lon="3.59243">
        <ele>925</ele>
        <time>2022-06-21T02:12:38.280Z</time>
      </trkpt>
      <trkpt lat="45.3504" lon="3.59218">
        <ele>923</ele>
        <time>2022-06-21T02:12:39.859Z</time>
      </trkpt>
      <trkpt lat="45.35049" lon="3.59195">
        <ele>921</ele>
        <time>2022-06-21T02:12:41.432Z</time>
      </trkpt>
      <trkpt lat="45.35099" lon="3.59117">
        <ele>913</ele>
        <time>2022-06-21T02:12:47.740Z</time>
      </trkpt>
      <trkpt lat="45.35121" lon="3.59075">
        <ele>913</ele>
        <time>2022-06-21T02:12:53.831Z</time>
      </trkpt>
      <trkpt lat="45.35145" lon="3.58985">
        <ele>911</ele>
        <time>2022-06-21T02:13:01.161Z</time>
      </trkpt>
      <trkpt lat="45.35193" lon="3.58843">
        <ele>907</ele>
        <time>2022-06-21T02:13:12.385Z</time>
      </trkpt>
      <trkpt lat="45.35208" lon="3.58785">
        <ele>907</ele>
        <time>2022-06-21T02:13:19.571Z</time>
      </trkpt>
      <trkpt lat="45.35218" lon="3.58725">
        <ele>903</ele>
        <time>2022-06-21T02:13:23.255Z</time>
      </trkpt>
      <trkpt lat="45.35233" lon="3.5867">
        <ele>899</ele>
        <time>2022-06-21T02:13:26.780Z</time>
      </trkpt>
      <trkpt lat="45.35245" lon="3.58647">
        <ele>898</ele>
        <time>2022-06-21T02:13:28.580Z</time>
      </trkpt>
      <trkpt lat="45.35259" lon="3.58631">
        <ele>898</ele>
        <time>2022-06-21T02:13:31.551Z</time>
      </trkpt>
      <trkpt lat="45.35279" lon="3.58617">
        <ele>900</ele>
        <time>2022-06-21T02:13:40.269Z</time>
      </trkpt>
      <trkpt lat="45.35312" lon="3.586">
        <ele>903</ele>
        <time>2022-06-21T02:13:53.498Z</time>
      </trkpt>
      <trkpt lat="45.3532" lon="3.58594">
        <ele>904</ele>
        <time>2022-06-21T02:13:57.837Z</time>
      </trkpt>
      <trkpt lat="45.35324" lon="3.58585">
        <ele>903</ele>
        <time>2022-06-21T02:13:58.473Z</time>
      </trkpt>
      <trkpt lat="45.35327" lon="3.58573">
        <ele>904</ele>
        <time>2022-06-21T02:14:02.821Z</time>
      </trkpt>
      <trkpt lat="45.35326" lon="3.58546">
        <ele>906</ele>
        <time>2022-06-21T02:14:11.438Z</time>
      </trkpt>
      <trkpt lat="45.35317" lon="3.58524">
        <ele>904</ele>
        <time>2022-06-21T02:14:12.959Z</time>
      </trkpt>
      <trkpt lat="45.3531" lon="3.58515">
        <ele>902</ele>
        <time>2022-06-21T02:14:13.761Z</time>
      </trkpt>
      <trkpt lat="45.35298" lon="3.58505">
        <ele>898</ele>
        <time>2022-06-21T02:14:14.944Z</time>
      </trkpt>
      <trkpt lat="45.35266" lon="3.58478">
        <ele>889</ele>
        <time>2022-06-21T02:14:18.107Z</time>
      </trkpt>
      <trkpt lat="45.35251" lon="3.58457">
        <ele>887</ele>
        <time>2022-06-21T02:14:19.896Z</time>
      </trkpt>
      <trkpt lat="45.35232" lon="3.58426">
        <ele>886</ele>
        <time>2022-06-21T02:14:22.870Z</time>
      </trkpt>
      <trkpt lat="45.35196" lon="3.58344">
        <ele>883</ele>
        <time>2022-06-21T02:14:29.251Z</time>
      </trkpt>
      <trkpt lat="45.35194" lon="3.5833">
        <ele>883</ele>
        <time>2022-06-21T02:14:30.912Z</time>
      </trkpt>
      <trkpt lat="45.35194" lon="3.58314">
        <ele>883</ele>
        <time>2022-06-21T02:14:32.773Z</time>
      </trkpt>
      <trkpt lat="45.35196" lon="3.58299">
        <ele>883</ele>
        <time>2022-06-21T02:14:34.548Z</time>
      </trkpt>
      <trkpt lat="45.35208" lon="3.58259">
        <ele>886</ele>
        <time>2022-06-21T02:14:47.467Z</time>
      </trkpt>
      <trkpt lat="45.35211" lon="3.58239">
        <ele>885</ele>
        <time>2022-06-21T02:14:48.689Z</time>
      </trkpt>
      <trkpt lat="45.3521" lon="3.58211">
        <ele>884</ele>
        <time>2022-06-21T02:14:50.434Z</time>
      </trkpt>
      <trkpt lat="45.35187" lon="3.58087">
        <ele>870</ele>
        <time>2022-06-21T02:14:58.096Z</time>
      </trkpt>
      <trkpt lat="45.35184" lon="3.58061">
        <ele>868</ele>
        <time>2022-06-21T02:14:59.671Z</time>
      </trkpt>
      <trkpt lat="45.35183" lon="3.58034">
        <ele>866</ele>
        <time>2022-06-21T02:15:01.286Z</time>
      </trkpt>
      <trkpt lat="45.35186" lon="3.5801">
        <ele>866</ele>
        <time>2022-06-21T02:15:04.121Z</time>
      </trkpt>
      <trkpt lat="45.35193" lon="3.5798">
        <ele>866</ele>
        <time>2022-06-21T02:15:07.796Z</time>
      </trkpt>
      <trkpt lat="45.35202" lon="3.5795">
        <ele>866</ele>
        <time>2022-06-21T02:15:11.589Z</time>
      </trkpt>
      <trkpt lat="45.35212" lon="3.57921">
        <ele>865</ele>
        <time>2022-06-21T02:15:13.723Z</time>
      </trkpt>
      <trkpt lat="45.35218" lon="3.57897">
        <ele>867</ele>
        <time>2022-06-21T02:15:22.419Z</time>
      </trkpt>
      <trkpt lat="45.35219" lon="3.57878">
        <ele>868</ele>
        <time>2022-06-21T02:15:27.040Z</time>
      </trkpt>
      <trkpt lat="45.35214" lon="3.5786">
        <ele>869</ele>
        <time>2022-06-21T02:15:31.692Z</time>
      </trkpt>
      <trkpt lat="45.35207" lon="3.57851">
        <ele>868</ele>
        <time>2022-06-21T02:15:32.495Z</time>
      </trkpt>
      <trkpt lat="45.35198" lon="3.57845">
        <ele>867</ele>
        <time>2022-06-21T02:15:33.340Z</time>
      </trkpt>
      <trkpt lat="45.35185" lon="3.5784">
        <ele>866</ele>
        <time>2022-06-21T02:15:34.484Z</time>
      </trkpt>
      <trkpt lat="45.35079" lon="3.57836">
        <ele>857</ele>
        <time>2022-06-21T02:15:43.500Z</time>
      </trkpt>
      <trkpt lat="45.35051" lon="3.57843">
        <ele>856</ele>
        <time>2022-06-21T02:15:46.408Z</time>
      </trkpt>
      <trkpt lat="45.35008" lon="3.57861">
        <ele>853</ele>
        <time>2022-06-21T02:15:50.219Z</time>
      </trkpt>
      <trkpt lat="45.34977" lon="3.57878">
        <ele>850</ele>
        <time>2022-06-21T02:15:53.044Z</time>
      </trkpt>
      <trkpt lat="45.34912" lon="3.57923">
        <ele>849</ele>
        <time>2022-06-21T02:16:02.434Z</time>
      </trkpt>
      <trkpt lat="45.3488" lon="3.57941">
        <ele>847</ele>
        <time>2022-06-21T02:16:05.300Z</time>
      </trkpt>
      <trkpt lat="45.34867" lon="3.57943">
        <ele>846</ele>
        <time>2022-06-21T02:16:06.412Z</time>
      </trkpt>
      <trkpt lat="45.34847" lon="3.57941">
        <ele>846</ele>
        <time>2022-06-21T02:16:09.729Z</time>
      </trkpt>
      <trkpt lat="45.3481" lon="3.57924">
        <ele>848</ele>
        <time>2022-06-21T02:16:21.085Z</time>
      </trkpt>
      <trkpt lat="45.34798" lon="3.57922">
        <ele>848</ele>
        <time>2022-06-21T02:16:23.084Z</time>
      </trkpt>
      <trkpt lat="45.34777" lon="3.57924">
        <ele>847</ele>
        <time>2022-06-21T02:16:25.002Z</time>
      </trkpt>
      <trkpt lat="45.34761" lon="3.57928">
        <ele>846</ele>
        <time>2022-06-21T02:16:26.318Z</time>
      </trkpt>
      <trkpt lat="45.34737" lon="3.57937">
        <ele>844</ele>
        <time>2022-06-21T02:16:28.428Z</time>
      </trkpt>
      <trkpt lat="45.34699" lon="3.57957">
        <ele>838</ele>
        <time>2022-06-21T02:16:31.873Z</time>
      </trkpt>
      <trkpt lat="45.34685" lon="3.57959">
        <ele>837</ele>
        <time>2022-06-21T02:16:33.069Z</time>
      </trkpt>
      <trkpt lat="45.34676" lon="3.57957">
        <ele>837</ele>
        <time>2022-06-21T02:16:34.577Z</time>
      </trkpt>
      <trkpt lat="45.34666" lon="3.5795">
        <ele>836</ele>
        <time>2022-06-21T02:16:35.524Z</time>
      </trkpt>
      <trkpt lat="45.34658" lon="3.5794">
        <ele>835</ele>
        <time>2022-06-21T02:16:36.429Z</time>
      </trkpt>
      <trkpt lat="45.34651" lon="3.57925">
        <ele>835</ele>
        <time>2022-06-21T02:16:38.523Z</time>
      </trkpt>
      <trkpt lat="45.34637" lon="3.5788">
        <ele>837</ele>
        <time>2022-06-21T02:16:49.071Z</time>
      </trkpt>
      <trkpt lat="45.3463" lon="3.57869">
        <ele>836</ele>
        <time>2022-06-21T02:16:49.957Z</time>
      </trkpt>
      <trkpt lat="45.34598" lon="3.57841">
        <ele>833</ele>
        <time>2022-06-21T02:16:53.151Z</time>
      </trkpt>
      <trkpt lat="45.34585" lon="3.57826">
        <ele>832</ele>
        <time>2022-06-21T02:16:54.527Z</time>
      </trkpt>
      <trkpt lat="45.3457" lon="3.57797">
        <ele>830</ele>
        <time>2022-06-21T02:16:56.679Z</time>
      </trkpt>
      <trkpt lat="45.34564" lon="3.57773">
        <ele>830</ele>
        <time>2022-06-21T02:16:59.641Z</time>
      </trkpt>
      <trkpt lat="45.34535" lon="3.57531">
        <ele>820</ele>
        <time>2022-06-21T02:17:14.030Z</time>
      </trkpt>
      <trkpt lat="45.34534" lon="3.57461">
        <ele>817</ele>
        <time>2022-06-21T02:17:18.035Z</time>
      </trkpt>
      <trkpt lat="45.34535" lon="3.57413">
        <ele>814</ele>
        <time>2022-06-21T02:17:20.905Z</time>
      </trkpt>
      <trkpt lat="45.34538" lon="3.57362">
        <ele>811</ele>
        <time>2022-06-21T02:17:23.963Z</time>
      </trkpt>
      <trkpt lat="45.34545" lon="3.57332">
        <ele>810</ele>
        <time>2022-06-21T02:17:26.033Z</time>
      </trkpt>
      <trkpt lat="45.34551" lon="3.57321">
        <ele>810</ele>
        <time>2022-06-21T02:17:27.652Z</time>
      </trkpt>
      <trkpt lat="45.34559" lon="3.5731">
        <ele>810</ele>
        <time>2022-06-21T02:17:29.493Z</time>
      </trkpt>
      <trkpt lat="45.3458" lon="3.57296">
        <ele>812</ele>
        <time>2022-06-21T02:17:38.292Z</time>
      </trkpt>
      <trkpt lat="45.34601" lon="3.57292">
        <ele>810</ele>
        <time>2022-06-21T02:17:40.094Z</time>
      </trkpt>
      <trkpt lat="45.34611" lon="3.57294">
        <ele>810</ele>
        <time>2022-06-21T02:17:41.764Z</time>
      </trkpt>
      <trkpt lat="45.34622" lon="3.57299">
        <ele>810</ele>
        <time>2022-06-21T02:17:43.675Z</time>
      </trkpt>
      <trkpt lat="45.34686" lon="3.57362">
        <ele>813</ele>
        <time>2022-06-21T02:18:03.580Z</time>
      </trkpt>
      <trkpt lat="45.34705" lon="3.57377">
        <ele>811</ele>
        <time>2022-06-21T02:18:05.428Z</time>
      </trkpt>
      <trkpt lat="45.3472" lon="3.57385">
        <ele>809</ele>
        <time>2022-06-21T02:18:06.790Z</time>
      </trkpt>
      <trkpt lat="45.34738" lon="3.5739">
        <ele>806</ele>
        <time>2022-06-21T02:18:08.349Z</time>
      </trkpt>
      <trkpt lat="45.3479" lon="3.57393">
        <ele>805</ele>
        <time>2022-06-21T02:18:14.679Z</time>
      </trkpt>
      <trkpt lat="45.34818" lon="3.57389">
        <ele>804</ele>
        <time>2022-06-21T02:18:17.548Z</time>
      </trkpt>
      <trkpt lat="45.34833" lon="3.57381">
        <ele>803</ele>
        <time>2022-06-21T02:18:18.837Z</time>
      </trkpt>
      <trkpt lat="45.34844" lon="3.57369">
        <ele>803</ele>
        <time>2022-06-21T02:18:21.130Z</time>
      </trkpt>
      <trkpt lat="45.34847" lon="3.57355">
        <ele>802</ele>
        <time>2022-06-21T02:18:22.005Z</time>
      </trkpt>
      <trkpt lat="45.34852" lon="3.57311">
        <ele>799</ele>
        <time>2022-06-21T02:18:24.668Z</time>
      </trkpt>
      <trkpt lat="45.34858" lon="3.5729">
        <ele>799</ele>
        <time>2022-06-21T02:18:27.304Z</time>
      </trkpt>
      <trkpt lat="45.34876" lon="3.57261">
        <ele>801</ele>
        <time>2022-06-21T02:18:36.607Z</time>
      </trkpt>
      <trkpt lat="45.34879" lon="3.57251">
        <ele>801</ele>
        <time>2022-06-21T02:18:37.871Z</time>
      </trkpt>
      <trkpt lat="45.34879" lon="3.57231">
        <ele>801</ele>
        <time>2022-06-21T02:18:40.197Z</time>
      </trkpt>
      <trkpt lat="45.34873" lon="3.57221">
        <ele>800</ele>
        <time>2022-06-21T02:18:40.983Z</time>
      </trkpt>
      <trkpt lat="45.3486" lon="3.57206">
        <ele>798</ele>
        <time>2022-06-21T02:18:42.406Z</time>
      </trkpt>
      <trkpt lat="45.34824" lon="3.57173">
        <ele>794</ele>
        <time>2022-06-21T02:18:46.046Z</time>
      </trkpt>
      <trkpt lat="45.34809" lon="3.57163">
        <ele>794</ele>
        <time>2022-06-21T02:18:48.787Z</time>
      </trkpt>
      <trkpt lat="45.34797" lon="3.57158">
        <ele>793</ele>
        <time>2022-06-21T02:18:49.850Z</time>
      </trkpt>
      <trkpt lat="45.3478" lon="3.57155">
        <ele>792</ele>
        <time>2022-06-21T02:18:51.274Z</time>
      </trkpt>
      <trkpt lat="45.3475" lon="3.57151">
        <ele>790</ele>
        <time>2022-06-21T02:18:53.626Z</time>
      </trkpt>
      <trkpt lat="45.34738" lon="3.57148">
        <ele>789</ele>
        <time>2022-06-21T02:18:54.662Z</time>
      </trkpt>
      <trkpt lat="45.34717" lon="3.57132">
        <ele>786</ele>
        <time>2022-06-21T02:18:56.687Z</time>
      </trkpt>
      <trkpt lat="45.34698" lon="3.57106">
        <ele>783</ele>
        <time>2022-06-21T02:18:58.929Z</time>
      </trkpt>
      <trkpt lat="45.34689" lon="3.57084">
        <ele>781</ele>
        <time>2022-06-21T02:19:00.450Z</time>
      </trkpt>
      <trkpt lat="45.34678" lon="3.57047">
        <ele>783</ele>
        <time>2022-06-21T02:19:09.910Z</time>
      </trkpt>
      <trkpt lat="45.34669" lon="3.57026">
        <ele>783</ele>
        <time>2022-06-21T02:19:12.770Z</time>
      </trkpt>
      <trkpt lat="45.34658" lon="3.5701">
        <ele>782</ele>
        <time>2022-06-21T02:19:14.025Z</time>
      </trkpt>
      <trkpt lat="45.34624" lon="3.56976">
        <ele>775</ele>
        <time>2022-06-21T02:19:17.558Z</time>
      </trkpt>
      <trkpt lat="45.34616" lon="3.56962">
        <ele>775</ele>
        <time>2022-06-21T02:19:19.656Z</time>
      </trkpt>
      <trkpt lat="45.34609" lon="3.56936">
        <ele>776</ele>
        <time>2022-06-21T02:19:25.359Z</time>
      </trkpt>
      <trkpt lat="45.34606" lon="3.569">
        <ele>776</ele>
        <time>2022-06-21T02:19:29.575Z</time>
      </trkpt>
      <trkpt lat="45.34614" lon="3.56828">
        <ele>772</ele>
        <time>2022-06-21T02:19:33.931Z</time>
      </trkpt>
      <trkpt lat="45.3462" lon="3.56804">
        <ele>770</ele>
        <time>2022-06-21T02:19:35.453Z</time>
      </trkpt>
      <trkpt lat="45.34632" lon="3.56782">
        <ele>769</ele>
        <time>2022-06-21T02:19:37.181Z</time>
      </trkpt>
      <trkpt lat="45.34671" lon="3.56744">
        <ele>771</ele>
        <time>2022-06-21T02:19:49.952Z</time>
      </trkpt>
      <trkpt lat="45.34697" lon="3.56728">
        <ele>769</ele>
        <time>2022-06-21T02:19:52.360Z</time>
      </trkpt>
      <trkpt lat="45.3471" lon="3.56727">
        <ele>769</ele>
        <time>2022-06-21T02:19:54.514Z</time>
      </trkpt>
      <trkpt lat="45.34719" lon="3.5673">
        <ele>770</ele>
        <time>2022-06-21T02:19:58.836Z</time>
      </trkpt>
      <trkpt lat="45.34726" lon="3.56736">
        <ele>771</ele>
        <time>2022-06-21T02:20:03.332Z</time>
      </trkpt>
      <trkpt lat="45.34747" lon="3.56763">
        <ele>777</ele>
        <time>2022-06-21T02:20:21.396Z</time>
      </trkpt>
      <trkpt lat="45.34756" lon="3.56771">
        <ele>778</ele>
        <time>2022-06-21T02:20:25.719Z</time>
      </trkpt>
      <trkpt lat="45.34765" lon="3.56776">
        <ele>778</ele>
        <time>2022-06-21T02:20:27.318Z</time>
      </trkpt>
      <trkpt lat="45.3478" lon="3.56778">
        <ele>777</ele>
        <time>2022-06-21T02:20:28.494Z</time>
      </trkpt>
      <trkpt lat="45.34795" lon="3.56776">
        <ele>775</ele>
        <time>2022-06-21T02:20:29.775Z</time>
      </trkpt>
      <trkpt lat="45.34835" lon="3.56762">
        <ele>769</ele>
        <time>2022-06-21T02:20:33.277Z</time>
      </trkpt>
      <trkpt lat="45.34865" lon="3.56748">
        <ele>768</ele>
        <time>2022-06-21T02:20:36.624Z</time>
      </trkpt>
      <trkpt lat="45.34875" lon="3.56738">
        <ele>766</ele>
        <time>2022-06-21T02:20:37.663Z</time>
      </trkpt>
      <trkpt lat="45.34882" lon="3.56727">
        <ele>765</ele>
        <time>2022-06-21T02:20:38.549Z</time>
      </trkpt>
      <trkpt lat="45.34887" lon="3.56716">
        <ele>764</ele>
        <time>2022-06-21T02:20:39.332Z</time>
      </trkpt>
      <trkpt lat="45.34889" lon="3.56699">
        <ele>762</ele>
        <time>2022-06-21T02:20:40.362Z</time>
      </trkpt>
      <trkpt lat="45.34892" lon="3.56588">
        <ele>751</ele>
        <time>2022-06-21T02:20:46.999Z</time>
      </trkpt>
      <trkpt lat="45.34894" lon="3.56563">
        <ele>749</ele>
        <time>2022-06-21T02:20:48.503Z</time>
      </trkpt>
      <trkpt lat="45.34899" lon="3.56539">
        <ele>749</ele>
        <time>2022-06-21T02:20:51.414Z</time>
      </trkpt>
      <trkpt lat="45.34939" lon="3.56385">
        <ele>742</ele>
        <time>2022-06-21T02:21:00.829Z</time>
      </trkpt>
      <trkpt lat="45.34951" lon="3.56352">
        <ele>740</ele>
        <time>2022-06-21T02:21:03.049Z</time>
      </trkpt>
      <trkpt lat="45.34963" lon="3.56336">
        <ele>740</ele>
        <time>2022-06-21T02:21:05.770Z</time>
      </trkpt>
      <trkpt lat="45.34973" lon="3.56326">
        <ele>740</ele>
        <time>2022-06-21T02:21:07.792Z</time>
      </trkpt>
      <trkpt lat="45.35081" lon="3.56281">
        <ele>741</ele>
        <time>2022-06-21T02:21:28.062Z</time>
      </trkpt>
      <trkpt lat="45.35093" lon="3.56273">
        <ele>740</ele>
        <time>2022-06-21T02:21:29.189Z</time>
      </trkpt>
      <trkpt lat="45.35103" lon="3.56252">
        <ele>739</ele>
        <time>2022-06-21T02:21:30.698Z</time>
      </trkpt>
      <trkpt lat="45.35111" lon="3.56213">
        <ele>737</ele>
        <time>2022-06-21T02:21:33.126Z</time>
      </trkpt>
      <trkpt lat="45.35113" lon="3.56193">
        <ele>736</ele>
        <time>2022-06-21T02:21:34.333Z</time>
      </trkpt>
      <trkpt lat="45.35113" lon="3.56171">
        <ele>735</ele>
        <time>2022-06-21T02:21:35.555Z</time>
      </trkpt>
      <trkpt lat="45.35105" lon="3.56101">
        <ele>729</ele>
        <time>2022-06-21T02:21:39.793Z</time>
      </trkpt>
      <trkpt lat="45.35106" lon="3.56084">
        <ele>727</ele>
        <time>2022-06-21T02:21:40.812Z</time>
      </trkpt>
      <trkpt lat="45.35111" lon="3.56073">
        <ele>727</ele>
        <time>2022-06-21T02:21:42.335Z</time>
      </trkpt>
      <trkpt lat="45.35117" lon="3.56065">
        <ele>727</ele>
        <time>2022-06-21T02:21:43.696Z</time>
      </trkpt>
      <trkpt lat="45.35129" lon="3.56058">
        <ele>728</ele>
        <time>2022-06-21T02:21:48.258Z</time>
      </trkpt>
      <trkpt lat="45.35155" lon="3.56051">
        <ele>730</ele>
        <time>2022-06-21T02:21:57.456Z</time>
      </trkpt>
      <trkpt lat="45.35193" lon="3.56052">
        <ele>730</ele>
        <time>2022-06-21T02:22:03.744Z</time>
      </trkpt>
      <trkpt lat="45.35206" lon="3.56059">
        <ele>730</ele>
        <time>2022-06-21T02:22:06.044Z</time>
      </trkpt>
      <trkpt lat="45.35215" lon="3.56067">
        <ele>730</ele>
        <time>2022-06-21T02:22:07.800Z</time>
      </trkpt>
      <trkpt lat="45.3522" lon="3.56076">
        <ele>730</ele>
        <time>2022-06-21T02:22:09.134Z</time>
      </trkpt>
      <trkpt lat="45.35225" lon="3.56087">
        <ele>731</ele>
        <time>2022-06-21T02:22:13.459Z</time>
      </trkpt>
      <trkpt lat="45.35234" lon="3.56126">
        <ele>733</ele>
        <time>2022-06-21T02:22:23.015Z</time>
      </trkpt>
      <trkpt lat="45.35239" lon="3.56135">
        <ele>733</ele>
        <time>2022-06-21T02:22:24.349Z</time>
      </trkpt>
      <trkpt lat="45.35246" lon="3.5614">
        <ele>733</ele>
        <time>2022-06-21T02:22:25.645Z</time>
      </trkpt>
      <trkpt lat="45.35253" lon="3.56142">
        <ele>734</ele>
        <time>2022-06-21T02:22:30.202Z</time>
      </trkpt>
      <trkpt lat="45.35267" lon="3.56135">
        <ele>735</ele>
        <time>2022-06-21T02:22:35.047Z</time>
      </trkpt>
      <trkpt lat="45.35275" lon="3.5611">
        <ele>735</ele>
        <time>2022-06-21T02:22:38.241Z</time>
      </trkpt>
      <trkpt lat="45.35278" lon="3.56095">
        <ele>734</ele>
        <time>2022-06-21T02:22:39.173Z</time>
      </trkpt>
      <trkpt lat="45.35279" lon="3.56077">
        <ele>733</ele>
        <time>2022-06-21T02:22:40.252Z</time>
      </trkpt>
      <trkpt lat="45.35276" lon="3.5606">
        <ele>732</ele>
        <time>2022-06-21T02:22:41.299Z</time>
      </trkpt>
      <trkpt lat="45.35271" lon="3.56041">
        <ele>731</ele>
        <time>2022-06-21T02:22:42.511Z</time>
      </trkpt>
      <trkpt lat="45.3526" lon="3.56017">
        <ele>729</ele>
        <time>2022-06-21T02:22:44.223Z</time>
      </trkpt>
      <trkpt lat="45.3523" lon="3.55969">
        <ele>725</ele>
        <time>2022-06-21T02:22:48.061Z</time>
      </trkpt>
      <trkpt lat="45.35225" lon="3.55949">
        <ele>724</ele>
        <time>2022-06-21T02:22:49.329Z</time>
      </trkpt>
      <trkpt lat="45.35218" lon="3.55899">
        <ele>719</ele>
        <time>2022-06-21T02:22:52.376Z</time>
      </trkpt>
      <trkpt lat="45.35221" lon="3.55855">
        <ele>713</ele>
        <time>2022-06-21T02:22:55.017Z</time>
      </trkpt>
      <trkpt lat="45.35226" lon="3.55836">
        <ele>711</ele>
        <time>2022-06-21T02:22:56.229Z</time>
      </trkpt>
      <trkpt lat="45.35234" lon="3.55823">
        <ele>710</ele>
        <time>2022-06-21T02:22:57.261Z</time>
      </trkpt>
      <trkpt lat="45.35269" lon="3.55796">
        <ele>708</ele>
        <time>2022-06-21T02:23:00.803Z</time>
      </trkpt>
      <trkpt lat="45.35293" lon="3.55789">
        <ele>709</ele>
        <time>2022-06-21T02:23:07.278Z</time>
      </trkpt>
      <trkpt lat="45.35306" lon="3.55782">
        <ele>709</ele>
        <time>2022-06-21T02:23:09.577Z</time>
      </trkpt>
      <trkpt lat="45.3532" lon="3.5577">
        <ele>709</ele>
        <time>2022-06-21T02:23:12.282Z</time>
      </trkpt>
      <trkpt lat="45.35344" lon="3.55744">
        <ele>709</ele>
        <time>2022-06-21T02:23:17.273Z</time>
      </trkpt>
      <trkpt lat="45.35361" lon="3.55719">
        <ele>710</ele>
        <time>2022-06-21T02:23:23.741Z</time>
      </trkpt>
      <trkpt lat="45.35383" lon="3.55681">
        <ele>709</ele>
        <time>2022-06-21T02:23:27.517Z</time>
      </trkpt>
      <trkpt lat="45.35406" lon="3.55635">
        <ele>709</ele>
        <time>2022-06-21T02:23:34.081Z</time>
      </trkpt>
      <trkpt lat="45.35436" lon="3.55596">
        <ele>711</ele>
        <time>2022-06-21T02:23:45.777Z</time>
      </trkpt>
      <trkpt lat="45.3545" lon="3.55574">
        <ele>713</ele>
        <time>2022-06-21T02:23:54.406Z</time>
      </trkpt>
      <trkpt lat="45.35453" lon="3.55558">
        <ele>713</ele>
        <time>2022-06-21T02:23:56.332Z</time>
      </trkpt>
      <trkpt lat="45.35453" lon="3.55545">
        <ele>713</ele>
        <time>2022-06-21T02:23:57.843Z</time>
      </trkpt>
      <trkpt lat="45.3545" lon="3.55534">
        <ele>712</ele>
        <time>2022-06-21T02:23:58.548Z</time>
      </trkpt>
      <trkpt lat="45.35443" lon="3.55526">
        <ele>711</ele>
        <time>2022-06-21T02:23:59.311Z</time>
      </trkpt>
      <trkpt lat="45.35414" lon="3.55502">
        <ele>711</ele>
        <time>2022-06-21T02:24:04.862Z</time>
      </trkpt>
      <trkpt lat="45.35405" lon="3.55495">
        <ele>712</ele>
        <time>2022-06-21T02:24:09.170Z</time>
      </trkpt>
      <trkpt lat="45.35398" lon="3.55493">
        <ele>712</ele>
        <time>2022-06-21T02:24:10.352Z</time>
      </trkpt>
      <trkpt lat="45.35388" lon="3.55492">
        <ele>712</ele>
        <time>2022-06-21T02:24:12.011Z</time>
      </trkpt>
      <trkpt lat="45.35363" lon="3.55502">
        <ele>710</ele>
        <time>2022-06-21T02:24:14.218Z</time>
      </trkpt>
      <trkpt lat="45.35292" lon="3.55492">
        <ele>711</ele>
        <time>2022-06-21T02:24:27.762Z</time>
      </trkpt>
      <trkpt lat="45.35276" lon="3.55493">
        <ele>712</ele>
        <time>2022-06-21T02:24:32.807Z</time>
      </trkpt>
      <trkpt lat="45.35268" lon="3.55498">
        <ele>711</ele>
        <time>2022-06-21T02:24:33.550Z</time>
      </trkpt>
      <trkpt lat="45.35232" lon="3.55531">
        <ele>710</ele>
        <time>2022-06-21T02:24:38.516Z</time>
      </trkpt>
      <trkpt lat="45.35221" lon="3.55535">
        <ele>711</ele>
        <time>2022-06-21T02:24:42.892Z</time>
      </trkpt>
      <trkpt lat="45.35209" lon="3.5553">
        <ele>714</ele>
        <time>2022-06-21T02:24:50.872Z</time>
      </trkpt>
      <trkpt lat="45.352" lon="3.55521">
        <ele>717</ele>
        <time>2022-06-21T02:24:57.893Z</time>
      </trkpt>
      <trkpt lat="45.35196" lon="3.555">
        <ele>721</ele>
        <time>2022-06-21T02:25:07.651Z</time>
      </trkpt>
      <trkpt lat="45.35198" lon="3.55486">
        <ele>722</ele>
        <time>2022-06-21T02:25:11.954Z</time>
      </trkpt>
      <trkpt lat="45.35202" lon="3.55473">
        <ele>723</ele>
        <time>2022-06-21T02:25:16.257Z</time>
      </trkpt>
      <trkpt lat="45.35231" lon="3.55429">
        <ele>723</ele>
        <time>2022-06-21T02:25:23.271Z</time>
      </trkpt>
      <trkpt lat="45.35252" lon="3.55384">
        <ele>725</ele>
        <time>2022-06-21T02:25:34.451Z</time>
      </trkpt>
      <trkpt lat="45.35289" lon="3.55346">
        <ele>729</ele>
        <time>2022-06-21T02:25:51.977Z</time>
      </trkpt>
      <trkpt lat="45.35296" lon="3.55335">
        <ele>730</ele>
        <time>2022-06-21T02:25:56.292Z</time>
      </trkpt>
      <trkpt lat="45.35329" lon="3.5523">
        <ele>748</ele>
        <time>2022-06-21T02:26:47.878Z</time>
      </trkpt>
      <trkpt lat="45.35335" lon="3.55217">
        <ele>751</ele>
        <time>2022-06-21T02:26:54.854Z</time>
      </trkpt>
      <trkpt lat="45.35346" lon="3.55205">
        <ele>755</ele>
        <time>2022-06-21T02:27:03.699Z</time>
      </trkpt>
      <trkpt lat="45.3536" lon="3.55195">
        <ele>758</ele>
        <time>2022-06-21T02:27:13.697Z</time>
      </trkpt>
      <trkpt lat="45.35372" lon="3.55192">
        <ele>759</ele>
        <time>2022-06-21T02:27:18.160Z</time>
      </trkpt>
      <trkpt lat="45.35384" lon="3.55194">
        <ele>759</ele>
        <time>2022-06-21T02:27:20.159Z</time>
      </trkpt>
      <trkpt lat="45.35396" lon="3.55202">
        <ele>758</ele>
        <time>2022-06-21T02:27:21.285Z</time>
      </trkpt>
      <trkpt lat="45.35405" lon="3.55213">
        <ele>756</ele>
        <time>2022-06-21T02:27:22.294Z</time>
      </trkpt>
      <trkpt lat="45.35416" lon="3.55257">
        <ele>749</ele>
        <time>2022-06-21T02:27:25.084Z</time>
      </trkpt>
      <trkpt lat="45.35422" lon="3.55269">
        <ele>747</ele>
        <time>2022-06-21T02:27:25.964Z</time>
      </trkpt>
      <trkpt lat="45.35428" lon="3.55275">
        <ele>746</ele>
        <time>2022-06-21T02:27:26.588Z</time>
      </trkpt>
      <trkpt lat="45.35436" lon="3.55278">
        <ele>745</ele>
        <time>2022-06-21T02:27:27.291Z</time>
      </trkpt>
      <trkpt lat="45.35446" lon="3.55276">
        <ele>746</ele>
        <time>2022-06-21T02:27:31.595Z</time>
      </trkpt>
      <trkpt lat="45.35454" lon="3.5527">
        <ele>747</ele>
        <time>2022-06-21T02:27:35.934Z</time>
      </trkpt>
      <trkpt lat="45.35485" lon="3.55228">
        <ele>756</ele>
        <time>2022-06-21T02:28:03.251Z</time>
      </trkpt>
      <trkpt lat="45.35546" lon="3.55169">
        <ele>765</ele>
        <time>2022-06-21T02:28:43.659Z</time>
      </trkpt>
      <trkpt lat="45.35589" lon="3.55123">
        <ele>774</ele>
        <time>2022-06-21T02:29:17.991Z</time>
      </trkpt>
      <trkpt lat="45.35615" lon="3.551">
        <ele>779</ele>
        <time>2022-06-21T02:29:37.529Z</time>
      </trkpt>
      <trkpt lat="45.35636" lon="3.55086">
        <ele>781</ele>
        <time>2022-06-21T02:29:46.328Z</time>
      </trkpt>
      <trkpt lat="45.3567" lon="3.55069">
        <ele>784</ele>
        <time>2022-06-21T02:29:59.658Z</time>
      </trkpt>
      <trkpt lat="45.35752" lon="3.55036">
        <ele>792</ele>
        <time>2022-06-21T02:30:34.261Z</time>
      </trkpt>
      <trkpt lat="45.35779" lon="3.55023">
        <ele>791</ele>
        <time>2022-06-21T02:30:37.179Z</time>
      </trkpt>
      <trkpt lat="45.35789" lon="3.55015">
        <ele>791</ele>
        <time>2022-06-21T02:30:39.077Z</time>
      </trkpt>
      <trkpt lat="45.35795" lon="3.55003">
        <ele>794</ele>
        <time>2022-06-21T02:30:45.682Z</time>
      </trkpt>
      <trkpt lat="45.358" lon="3.54985">
        <ele>796</ele>
        <time>2022-06-21T02:30:54.362Z</time>
      </trkpt>
      <trkpt lat="45.35802" lon="3.54944">
        <ele>804</ele>
        <time>2022-06-21T02:31:12.793Z</time>
      </trkpt>
      <trkpt lat="45.35805" lon="3.54934">
        <ele>806</ele>
        <time>2022-06-21T02:31:17.669Z</time>
      </trkpt>
      <trkpt lat="45.3581" lon="3.54928">
        <ele>806</ele>
        <time>2022-06-21T02:31:18.751Z</time>
      </trkpt>
      <trkpt lat="45.3582" lon="3.54925">
        <ele>804</ele>
        <time>2022-06-21T02:31:19.620Z</time>
      </trkpt>
      <trkpt lat="45.35864" lon="3.54924">
        <ele>797</ele>
        <time>2022-06-21T02:31:23.362Z</time>
      </trkpt>
      <trkpt lat="45.35879" lon="3.5492">
        <ele>796</ele>
        <time>2022-06-21T02:31:24.561Z</time>
      </trkpt>
      <trkpt lat="45.35892" lon="3.54913">
        <ele>795</ele>
        <time>2022-06-21T02:31:25.742Z</time>
      </trkpt>
      <trkpt lat="45.35901" lon="3.54905">
        <ele>796</ele>
        <time>2022-06-21T02:31:30.065Z</time>
      </trkpt>
      <trkpt lat="45.35908" lon="3.54893">
        <ele>798</ele>
        <time>2022-06-21T02:31:37.059Z</time>
      </trkpt>
      <trkpt lat="45.35941" lon="3.54814">
        <ele>814</ele>
        <time>2022-06-21T02:32:18.274Z</time>
      </trkpt>
      <trkpt lat="45.35958" lon="3.5478">
        <ele>818</ele>
        <time>2022-06-21T02:32:36.987Z</time>
      </trkpt>
      <trkpt lat="45.3597" lon="3.54766">
        <ele>819</ele>
        <time>2022-06-21T02:32:41.946Z</time>
      </trkpt>
      <trkpt lat="45.35982" lon="3.54762">
        <ele>817</ele>
        <time>2022-06-21T02:32:42.993Z</time>
      </trkpt>
      <trkpt lat="45.35992" lon="3.54763">
        <ele>815</ele>
        <time>2022-06-21T02:32:43.846Z</time>
      </trkpt>
      <trkpt lat="45.36" lon="3.5477">
        <ele>812</ele>
        <time>2022-06-21T02:32:44.644Z</time>
      </trkpt>
      <trkpt lat="45.36011" lon="3.54784">
        <ele>812</ele>
        <time>2022-06-21T02:32:47.086Z</time>
      </trkpt>
      <trkpt lat="45.36029" lon="3.54835">
        <ele>807</ele>
        <time>2022-06-21T02:32:50.495Z</time>
      </trkpt>
      <trkpt lat="45.36035" lon="3.54843">
        <ele>807</ele>
        <time>2022-06-21T02:32:51.856Z</time>
      </trkpt>
      <trkpt lat="45.36045" lon="3.5485">
        <ele>808</ele>
        <time>2022-06-21T02:32:56.215Z</time>
      </trkpt>
      <trkpt lat="45.36054" lon="3.54851">
        <ele>810</ele>
        <time>2022-06-21T02:33:01.976Z</time>
      </trkpt>
      <trkpt lat="45.36064" lon="3.54848">
        <ele>812</ele>
        <time>2022-06-21T02:33:08.498Z</time>
      </trkpt>
      <trkpt lat="45.36075" lon="3.54839">
        <ele>816</ele>
        <time>2022-06-21T02:33:16.596Z</time>
      </trkpt>
      <trkpt lat="45.36087" lon="3.54821">
        <ele>820</ele>
        <time>2022-06-21T02:33:27.723Z</time>
      </trkpt>
      <trkpt lat="45.36098" lon="3.54809">
        <ele>823</ele>
        <time>2022-06-21T02:33:36.568Z</time>
      </trkpt>
      <trkpt lat="45.3611" lon="3.54805">
        <ele>824</ele>
        <time>2022-06-21T02:33:41.048Z</time>
      </trkpt>
      <trkpt lat="45.36128" lon="3.54806">
        <ele>824</ele>
        <time>2022-06-21T02:33:44.029Z</time>
      </trkpt>
      <trkpt lat="45.36139" lon="3.54803">
        <ele>824</ele>
        <time>2022-06-21T02:33:45.882Z</time>
      </trkpt>
      <trkpt lat="45.36152" lon="3.54798">
        <ele>826</ele>
        <time>2022-06-21T02:33:54.476Z</time>
      </trkpt>
      <trkpt lat="45.36196" lon="3.54756">
        <ele>837</ele>
        <time>2022-06-21T02:34:28.288Z</time>
      </trkpt>
      <trkpt lat="45.36216" lon="3.54748">
        <ele>839</ele>
        <time>2022-06-21T02:34:36.914Z</time>
      </trkpt>
      <trkpt lat="45.3626" lon="3.54742">
        <ele>839</ele>
        <time>2022-06-21T02:34:44.227Z</time>
      </trkpt>
      <trkpt lat="45.3628" lon="3.54735">
        <ele>837</ele>
        <time>2022-06-21T02:34:45.978Z</time>
      </trkpt>
      <trkpt lat="45.36294" lon="3.54723">
        <ele>837</ele>
        <time>2022-06-21T02:34:48.683Z</time>
      </trkpt>
      <trkpt lat="45.36305" lon="3.54704">
        <ele>838</ele>
        <time>2022-06-21T02:34:53.957Z</time>
      </trkpt>
      <trkpt lat="45.36309" lon="3.5468">
        <ele>841</ele>
        <time>2022-06-21T02:35:05.018Z</time>
      </trkpt>
      <trkpt lat="45.36308" lon="3.54662">
        <ele>843</ele>
        <time>2022-06-21T02:35:13.114Z</time>
      </trkpt>
      <trkpt lat="45.36304" lon="3.54642">
        <ele>844</ele>
        <time>2022-06-21T02:35:17.922Z</time>
      </trkpt>
      <trkpt lat="45.36267" lon="3.54539">
        <ele>854</ele>
        <time>2022-06-21T02:36:03.016Z</time>
      </trkpt>
      <trkpt lat="45.36246" lon="3.54454">
        <ele>860</ele>
        <time>2022-06-21T02:36:28.936Z</time>
      </trkpt>
      <trkpt lat="45.36232" lon="3.54406">
        <ele>863</ele>
        <time>2022-06-21T02:36:42.321Z</time>
      </trkpt>
      <trkpt lat="45.36195" lon="3.54337">
        <ele>871</ele>
        <time>2022-06-21T02:37:20.013Z</time>
      </trkpt>
      <trkpt lat="45.36188" lon="3.54284">
        <ele>870</ele>
        <time>2022-06-21T02:37:24.261Z</time>
      </trkpt>
      <trkpt lat="45.36174" lon="3.5424">
        <ele>872</ele>
        <time>2022-06-21T02:37:34.690Z</time>
      </trkpt>
      <trkpt lat="45.36169" lon="3.5421">
        <ele>875</ele>
        <time>2022-06-21T02:37:48.516Z</time>
      </trkpt>
      <trkpt lat="45.36167" lon="3.54184">
        <ele>876</ele>
        <time>2022-06-21T02:37:53.992Z</time>
      </trkpt>
      <trkpt lat="45.36168" lon="3.54156">
        <ele>877</ele>
        <time>2022-06-21T02:37:59.720Z</time>
      </trkpt>
      <trkpt lat="45.36183" lon="3.54039">
        <ele>880</ele>
        <time>2022-06-21T02:38:20.321Z</time>
      </trkpt>
      <trkpt lat="45.3619" lon="3.54019">
        <ele>879</ele>
        <time>2022-06-21T02:38:21.572Z</time>
      </trkpt>
      <trkpt lat="45.362" lon="3.53997">
        <ele>879</ele>
        <time>2022-06-21T02:38:24.618Z</time>
      </trkpt>
      <trkpt lat="45.36227" lon="3.53956">
        <ele>879</ele>
        <time>2022-06-21T02:38:31.151Z</time>
      </trkpt>
      <trkpt lat="45.36236" lon="3.53964">
        <ele>878</ele>
        <time>2022-06-21T02:38:32.053Z</time>
      </trkpt>
      <trkpt lat="45.36246" lon="3.5396">
        <ele>877</ele>
        <time>2022-06-21T02:38:32.936Z</time>
      </trkpt>
      <trkpt lat="45.36303" lon="3.5387">
        <ele>875</ele>
        <time>2022-06-21T02:38:42.792Z</time>
      </trkpt>
      <trkpt lat="45.36346" lon="3.53807">
        <ele>870</ele>
        <time>2022-06-21T02:38:48.039Z</time>
      </trkpt>
      <trkpt lat="45.36389" lon="3.53717">
        <ele>864</ele>
        <time>2022-06-21T02:38:54.541Z</time>
      </trkpt>
      <trkpt lat="45.36415" lon="3.53654">
        <ele>863</ele>
        <time>2022-06-21T02:39:00.765Z</time>
      </trkpt>
      <trkpt lat="45.36428" lon="3.53604">
        <ele>858</ele>
        <time>2022-06-21T02:39:03.950Z</time>
      </trkpt>
      <trkpt lat="45.36431" lon="3.53549">
        <ele>853</ele>
        <time>2022-06-21T02:39:07.245Z</time>
      </trkpt>
      <trkpt lat="45.36426" lon="3.53493">
        <ele>847</ele>
        <time>2022-06-21T02:39:10.617Z</time>
      </trkpt>
      <trkpt lat="45.36416" lon="3.53444">
        <ele>846</ele>
        <time>2022-06-21T02:39:14.572Z</time>
      </trkpt>
      <trkpt lat="45.36395" lon="3.53401">
        <ele>851</ele>
        <time>2022-06-21T02:39:38.054Z</time>
      </trkpt>
      <trkpt lat="45.36391" lon="3.53379">
        <ele>853</ele>
        <time>2022-06-21T02:39:47.167Z</time>
      </trkpt>
      <trkpt lat="45.36397" lon="3.53363">
        <ele>851</ele>
        <time>2022-06-21T02:39:48.251Z</time>
      </trkpt>
      <trkpt lat="45.36421" lon="3.53337">
        <ele>845</ele>
        <time>2022-06-21T02:39:50.815Z</time>
      </trkpt>
      <trkpt lat="45.36497" lon="3.53278">
        <ele>839</ele>
        <time>2022-06-21T02:39:58.175Z</time>
      </trkpt>
      <trkpt lat="45.36513" lon="3.53246">
        <ele>840</ele>
        <time>2022-06-21T02:40:05.010Z</time>
      </trkpt>
      <trkpt lat="45.3653" lon="3.53229">
        <ele>841</ele>
        <time>2022-06-21T02:40:10.948Z</time>
      </trkpt>
      <trkpt lat="45.36546" lon="3.53231">
        <ele>838</ele>
        <time>2022-06-21T02:40:12.313Z</time>
      </trkpt>
      <trkpt lat="45.36563" lon="3.53242">
        <ele>832</ele>
        <time>2022-06-21T02:40:13.901Z</time>
      </trkpt>
      <trkpt lat="45.36583" lon="3.53272">
        <ele>824</ele>
        <time>2022-06-21T02:40:16.372Z</time>
      </trkpt>
      <trkpt lat="45.36605" lon="3.53286">
        <ele>819</ele>
        <time>2022-06-21T02:40:18.420Z</time>
      </trkpt>
      <trkpt lat="45.36631" lon="3.53281">
        <ele>817</ele>
        <time>2022-06-21T02:40:20.651Z</time>
      </trkpt>
      <trkpt lat="45.36651" lon="3.53265">
        <ele>816</ele>
        <time>2022-06-21T02:40:22.817Z</time>
      </trkpt>
      <trkpt lat="45.36666" lon="3.53239">
        <ele>817</ele>
        <time>2022-06-21T02:40:29.202Z</time>
      </trkpt>
      <trkpt lat="45.36678" lon="3.53221">
        <ele>818</ele>
        <time>2022-06-21T02:40:34.502Z</time>
      </trkpt>
      <trkpt lat="45.36714" lon="3.53198">
        <ele>817</ele>
        <time>2022-06-21T02:40:38.977Z</time>
      </trkpt>
      <trkpt lat="45.36732" lon="3.53195">
        <ele>814</ele>
        <time>2022-06-21T02:40:40.518Z</time>
      </trkpt>
      <trkpt lat="45.36751" lon="3.53201">
        <ele>811</ele>
        <time>2022-06-21T02:40:42.172Z</time>
      </trkpt>
      <trkpt lat="45.36769" lon="3.53219">
        <ele>808</ele>
        <time>2022-06-21T02:40:44.043Z</time>
      </trkpt>
      <trkpt lat="45.36795" lon="3.53227">
        <ele>806</ele>
        <time>2022-06-21T02:40:46.304Z</time>
      </trkpt>
      <trkpt lat="45.36832" lon="3.53248">
        <ele>800</ele>
        <time>2022-06-21T02:40:49.691Z</time>
      </trkpt>
      <trkpt lat="45.36847" lon="3.53253">
        <ele>798</ele>
        <time>2022-06-21T02:40:51.001Z</time>
      </trkpt>
      <trkpt lat="45.36862" lon="3.53249">
        <ele>796</ele>
        <time>2022-06-21T02:40:52.298Z</time>
      </trkpt>
      <trkpt lat="45.36884" lon="3.53223">
        <ele>795</ele>
        <time>2022-06-21T02:40:55.230Z</time>
      </trkpt>
      <trkpt lat="45.36911" lon="3.53183">
        <ele>793</ele>
        <time>2022-06-21T02:40:58.664Z</time>
      </trkpt>
      <trkpt lat="45.36946" lon="3.53101">
        <ele>791</ele>
        <time>2022-06-21T02:41:05.961Z</time>
      </trkpt>
      <trkpt lat="45.36989" lon="3.53047">
        <ele>786</ele>
        <time>2022-06-21T02:41:10.836Z</time>
      </trkpt>
      <trkpt lat="45.37" lon="3.53029">
        <ele>785</ele>
        <time>2022-06-21T02:41:12.214Z</time>
      </trkpt>
      <trkpt lat="45.3702" lon="3.52969">
        <ele>795</ele>
        <time>2022-06-21T02:41:41.990Z</time>
      </trkpt>
      <trkpt lat="45.37029" lon="3.52963">
        <ele>795</ele>
        <time>2022-06-21T02:41:43.635Z</time>
      </trkpt>
      <trkpt lat="45.37042" lon="3.52967">
        <ele>791</ele>
        <time>2022-06-21T02:41:44.766Z</time>
      </trkpt>
      <trkpt lat="45.37059" lon="3.52992">
        <ele>781</ele>
        <time>2022-06-21T02:41:46.844Z</time>
      </trkpt>
      <trkpt lat="45.37078" lon="3.53004">
        <ele>774</ele>
        <time>2022-06-21T02:41:48.611Z</time>
      </trkpt>
      <trkpt lat="45.37097" lon="3.53005">
        <ele>773</ele>
        <time>2022-06-21T02:41:50.269Z</time>
      </trkpt>
      <trkpt lat="45.37124" lon="3.53003">
        <ele>772</ele>
        <time>2022-06-21T02:41:52.986Z</time>
      </trkpt>
      <trkpt lat="45.37135" lon="3.53007">
        <ele>771</ele>
        <time>2022-06-21T02:41:53.951Z</time>
      </trkpt>
      <trkpt lat="45.37144" lon="3.53017">
        <ele>770</ele>
        <time>2022-06-21T02:41:54.922Z</time>
      </trkpt>
      <trkpt lat="45.37149" lon="3.53037">
        <ele>768</ele>
        <time>2022-06-21T02:41:56.190Z</time>
      </trkpt>
      <trkpt lat="45.37146" lon="3.53085">
        <ele>764</ele>
        <time>2022-06-21T02:41:59.068Z</time>
      </trkpt>
      <trkpt lat="45.37144" lon="3.53117">
        <ele>763</ele>
        <time>2022-06-21T02:42:01.184Z</time>
      </trkpt>
      <trkpt lat="45.37142" lon="3.53141">
        <ele>763</ele>
        <time>2022-06-21T02:42:03.994Z</time>
      </trkpt>
      <trkpt lat="45.3715" lon="3.53151">
        <ele>763</ele>
        <time>2022-06-21T02:42:05.755Z</time>
      </trkpt>
      <trkpt lat="45.37162" lon="3.53175">
        <ele>763</ele>
        <time>2022-06-21T02:42:09.179Z</time>
      </trkpt>
      <trkpt lat="45.37169" lon="3.53181">
        <ele>763</ele>
        <time>2022-06-21T02:42:10.531Z</time>
      </trkpt>
      <trkpt lat="45.37178" lon="3.53186">
        <ele>764</ele>
        <time>2022-06-21T02:42:14.835Z</time>
      </trkpt>
      <trkpt lat="45.3732" lon="3.53132">
        <ele>779</ele>
        <time>2022-06-21T02:43:19.370Z</time>
      </trkpt>
      <trkpt lat="45.37341" lon="3.53145">
        <ele>784</ele>
        <time>2022-06-21T02:43:33.985Z</time>
      </trkpt>
      <trkpt lat="45.37361" lon="3.53172">
        <ele>790</ele>
        <time>2022-06-21T02:43:51.576Z</time>
      </trkpt>
      <trkpt lat="45.37373" lon="3.53167">
        <ele>792</ele>
        <time>2022-06-21T02:43:59.556Z</time>
      </trkpt>
      <trkpt lat="45.37391" lon="3.53142">
        <ele>791</ele>
        <time>2022-06-21T02:44:02.016Z</time>
      </trkpt>
      <trkpt lat="45.37456" lon="3.53134">
        <ele>799</ele>
        <time>2022-06-21T02:44:38.026Z</time>
      </trkpt>
      <trkpt lat="45.37559" lon="3.53111">
        <ele>808</ele>
        <time>2022-06-21T02:45:17.611Z</time>
      </trkpt>
      <trkpt lat="45.37627" lon="3.53098">
        <ele>813</ele>
        <time>2022-06-21T02:45:40.961Z</time>
      </trkpt>
      <trkpt lat="45.37665" lon="3.53094">
        <ele>816</ele>
        <time>2022-06-21T02:45:54.542Z</time>
      </trkpt>
      <trkpt lat="45.37681" lon="3.53101">
        <ele>818</ele>
        <time>2022-06-21T02:46:03.432Z</time>
      </trkpt>
      <trkpt lat="45.37752" lon="3.5316">
        <ele>833</ele>
        <time>2022-06-21T02:46:55.900Z</time>
      </trkpt>
      <trkpt lat="45.37796" lon="3.53183">
        <ele>844</ele>
        <time>2022-06-21T02:47:25.814Z</time>
      </trkpt>
      <trkpt lat="45.37878" lon="3.53211">
        <ele>857</ele>
        <time>2022-06-21T02:48:19.631Z</time>
      </trkpt>
      <trkpt lat="45.37937" lon="3.53221">
        <ele>860</ele>
        <time>2022-06-21T02:48:36.877Z</time>
      </trkpt>
      <trkpt lat="45.37993" lon="3.5324">
        <ele>864</ele>
        <time>2022-06-21T02:48:55.970Z</time>
      </trkpt>
      <trkpt lat="45.381" lon="3.53254">
        <ele>878</ele>
        <time>2022-06-21T02:50:01.567Z</time>
      </trkpt>
      <trkpt lat="45.38189" lon="3.53248">
        <ele>887</ele>
        <time>2022-06-21T02:50:40.286Z</time>
      </trkpt>
      <trkpt lat="45.3828" lon="3.53231">
        <ele>892</ele>
        <time>2022-06-21T02:51:07.642Z</time>
      </trkpt>
      <trkpt lat="45.38366" lon="3.53212">
        <ele>892</ele>
        <time>2022-06-21T02:51:22.042Z</time>
      </trkpt>
      <trkpt lat="45.38426" lon="3.53216">
        <ele>895</ele>
        <time>2022-06-21T02:51:39.414Z</time>
      </trkpt>
      <trkpt lat="45.38479" lon="3.53244">
        <ele>898</ele>
        <time>2022-06-21T02:51:56.105Z</time>
      </trkpt>
      <trkpt lat="45.38505" lon="3.53267">
        <ele>902</ele>
        <time>2022-06-21T02:52:14.892Z</time>
      </trkpt>
      <trkpt lat="45.38535" lon="3.53269">
        <ele>905</ele>
        <time>2022-06-21T02:52:27.801Z</time>
      </trkpt>
      <trkpt lat="45.38568" lon="3.53262">
        <ele>906</ele>
        <time>2022-06-21T02:52:35.410Z</time>
      </trkpt>
      <trkpt lat="45.38606" lon="3.53235">
        <ele>902</ele>
        <time>2022-06-21T02:52:39.021Z</time>
      </trkpt>
      <trkpt lat="45.38634" lon="3.53223">
        <ele>901</ele>
        <time>2022-06-21T02:52:42.042Z</time>
      </trkpt>
      <trkpt lat="45.38738" lon="3.53225">
        <ele>906</ele>
        <time>2022-06-21T02:53:11.758Z</time>
      </trkpt>
      <trkpt lat="45.38798" lon="3.53217">
        <ele>902</ele>
        <time>2022-06-21T02:53:16.462Z</time>
      </trkpt>
      <trkpt lat="45.3883" lon="3.53226">
        <ele>903</ele>
        <time>2022-06-21T02:53:23.967Z</time>
      </trkpt>
      <trkpt lat="45.38865" lon="3.53269">
        <ele>908</ele>
        <time>2022-06-21T02:53:45.576Z</time>
      </trkpt>
      <trkpt lat="45.38872" lon="3.53292">
        <ele>912</ele>
        <time>2022-06-21T02:53:56.811Z</time>
      </trkpt>
      <trkpt lat="45.38881" lon="3.53345">
        <ele>923</ele>
        <time>2022-06-21T02:54:21.251Z</time>
      </trkpt>
      <trkpt lat="45.38891" lon="3.5337">
        <ele>927</ele>
        <time>2022-06-21T02:54:34.146Z</time>
      </trkpt>
      <trkpt lat="45.38908" lon="3.53393">
        <ele>930</ele>
        <time>2022-06-21T02:54:48.010Z</time>
      </trkpt>
      <trkpt lat="45.3894" lon="3.53401">
        <ele>930</ele>
        <time>2022-06-21T02:54:53.385Z</time>
      </trkpt>
      <trkpt lat="45.38979" lon="3.53401">
        <ele>930</ele>
        <time>2022-06-21T02:54:59.838Z</time>
      </trkpt>
      <trkpt lat="45.39096" lon="3.53449">
        <ele>938</ele>
        <time>2022-06-21T02:55:39.106Z</time>
      </trkpt>
      <trkpt lat="45.39123" lon="3.5347">
        <ele>938</ele>
        <time>2022-06-21T02:55:44.196Z</time>
      </trkpt>
      <trkpt lat="45.39143" lon="3.53513">
        <ele>940</ele>
        <time>2022-06-21T02:55:55.046Z</time>
      </trkpt>
      <trkpt lat="45.39152" lon="3.53576">
        <ele>946</ele>
        <time>2022-06-21T02:56:23.637Z</time>
      </trkpt>
      <trkpt lat="45.39159" lon="3.53606">
        <ele>949</ele>
        <time>2022-06-21T02:56:37.806Z</time>
      </trkpt>
      <trkpt lat="45.3917" lon="3.5363">
        <ele>951</ele>
        <time>2022-06-21T02:56:46.413Z</time>
      </trkpt>
      <trkpt lat="45.39194" lon="3.53662">
        <ele>956</ele>
        <time>2022-06-21T02:57:07.396Z</time>
      </trkpt>
      <trkpt lat="45.39221" lon="3.53681">
        <ele>959</ele>
        <time>2022-06-21T02:57:20.306Z</time>
      </trkpt>
      <trkpt lat="45.39253" lon="3.53689">
        <ele>960</ele>
        <time>2022-06-21T02:57:27.793Z</time>
      </trkpt>
      <trkpt lat="45.39318" lon="3.53687">
        <ele>965</ele>
        <time>2022-06-21T02:57:50.628Z</time>
      </trkpt>
      <trkpt lat="45.39394" lon="3.53671">
        <ele>966</ele>
        <time>2022-06-21T02:58:05.061Z</time>
      </trkpt>
      <trkpt lat="45.39454" lon="3.53666">
        <ele>970</ele>
        <time>2022-06-21T02:58:24.565Z</time>
      </trkpt>
      <trkpt lat="45.39524" lon="3.53652">
        <ele>977</ele>
        <time>2022-06-21T02:58:54.695Z</time>
      </trkpt>
      <trkpt lat="45.39606" lon="3.53615">
        <ele>980</ele>
        <time>2022-06-21T02:59:15.608Z</time>
      </trkpt>
      <trkpt lat="45.39637" lon="3.53604">
        <ele>981</ele>
        <time>2022-06-21T02:59:23.019Z</time>
      </trkpt>
      <trkpt lat="45.39666" lon="3.53608">
        <ele>984</ele>
        <time>2022-06-21T02:59:35.929Z</time>
      </trkpt>
      <trkpt lat="45.39684" lon="3.53623">
        <ele>985</ele>
        <time>2022-06-21T02:59:41.883Z</time>
      </trkpt>
      <trkpt lat="45.39693" lon="3.53655">
        <ele>988</ele>
        <time>2022-06-21T02:59:55.467Z</time>
      </trkpt>
      <trkpt lat="45.3969" lon="3.53677">
        <ele>990</ele>
        <time>2022-06-21T03:00:04.667Z</time>
      </trkpt>
      <trkpt lat="45.39682" lon="3.53716">
        <ele>994</ele>
        <time>2022-06-21T03:00:22.875Z</time>
      </trkpt>
      <trkpt lat="45.39663" lon="3.53786">
        <ele>999</ele>
        <time>2022-06-21T03:00:44.472Z</time>
      </trkpt>
      <trkpt lat="45.39638" lon="3.53857">
        <ele>1005</ele>
        <time>2022-06-21T03:01:10.384Z</time>
      </trkpt>
      <trkpt lat="45.39624" lon="3.53914">
        <ele>1009</ele>
        <time>2022-06-21T03:01:27.674Z</time>
      </trkpt>
      <trkpt lat="45.39617" lon="3.54001">
        <ele>1016</ele>
        <time>2022-06-21T03:01:58.256Z</time>
      </trkpt>
      <trkpt lat="45.39615" lon="3.54062">
        <ele>1016</ele>
        <time>2022-06-21T03:02:05.351Z</time>
      </trkpt>
      <trkpt lat="45.39617" lon="3.54096">
        <ele>1017</ele>
        <time>2022-06-21T03:02:11.769Z</time>
      </trkpt>
      <trkpt lat="45.39625" lon="3.5412">
        <ele>1019</ele>
        <time>2022-06-21T03:02:20.403Z</time>
      </trkpt>
      <trkpt lat="45.39645" lon="3.54152">
        <ele>1020</ele>
        <time>2022-06-21T03:02:27.559Z</time>
      </trkpt>
      <trkpt lat="45.3967" lon="3.54174">
        <ele>1020</ele>
        <time>2022-06-21T03:02:32.422Z</time>
      </trkpt>
      <trkpt lat="45.39711" lon="3.54196">
        <ele>1020</ele>
        <time>2022-06-21T03:02:39.671Z</time>
      </trkpt>
      <trkpt lat="45.3975" lon="3.54213">
        <ele>1020</ele>
        <time>2022-06-21T03:02:46.420Z</time>
      </trkpt>
      <trkpt lat="45.39772" lon="3.54236">
        <ele>1022</ele>
        <time>2022-06-21T03:02:55.737Z</time>
      </trkpt>
      <trkpt lat="45.39793" lon="3.5429">
        <ele>1027</ele>
        <time>2022-06-21T03:03:17.669Z</time>
      </trkpt>
      <trkpt lat="45.39833" lon="3.54424">
        <ele>1036</ele>
        <time>2022-06-21T03:03:57.065Z</time>
      </trkpt>
      <trkpt lat="45.39837" lon="3.54466">
        <ele>1039</ele>
        <time>2022-06-21T03:04:09.972Z</time>
      </trkpt>
      <trkpt lat="45.39828" lon="3.54535">
        <ele>1043</ele>
        <time>2022-06-21T03:04:27.888Z</time>
      </trkpt>
      <trkpt lat="45.39827" lon="3.54602">
        <ele>1046</ele>
        <time>2022-06-21T03:04:42.851Z</time>
      </trkpt>
      <trkpt lat="45.39831" lon="3.54632">
        <ele>1047</ele>
        <time>2022-06-21T03:04:48.920Z</time>
      </trkpt>
      <trkpt lat="45.39858" lon="3.54705">
        <ele>1050</ele>
        <time>2022-06-21T03:05:05.880Z</time>
      </trkpt>
      <trkpt lat="45.3988" lon="3.54748">
        <ele>1050</ele>
        <time>2022-06-21T03:05:12.061Z</time>
      </trkpt>
      <trkpt lat="45.39903" lon="3.5478">
        <ele>1049</ele>
        <time>2022-06-21T03:05:15.490Z</time>
      </trkpt>
      <trkpt lat="45.39931" lon="3.54812">
        <ele>1047</ele>
        <time>2022-06-21T03:05:18.539Z</time>
      </trkpt>
      <trkpt lat="45.39996" lon="3.54872">
        <ele>1046</ele>
        <time>2022-06-21T03:05:28.721Z</time>
      </trkpt>
      <trkpt lat="45.40016" lon="3.54885">
        <ele>1044</ele>
        <time>2022-06-21T03:05:30.590Z</time>
      </trkpt>
      <trkpt lat="45.40041" lon="3.54895">
        <ele>1041</ele>
        <time>2022-06-21T03:05:32.798Z</time>
      </trkpt>
      <trkpt lat="45.40055" lon="3.54894">
        <ele>1040</ele>
        <time>2022-06-21T03:05:33.990Z</time>
      </trkpt>
      <trkpt lat="45.4008" lon="3.5488">
        <ele>1038</ele>
        <time>2022-06-21T03:05:36.274Z</time>
      </trkpt>
      <trkpt lat="45.40091" lon="3.54876">
        <ele>1039</ele>
        <time>2022-06-21T03:05:40.650Z</time>
      </trkpt>
      <trkpt lat="45.40099" lon="3.5488">
        <ele>1039</ele>
        <time>2022-06-21T03:05:42.053Z</time>
      </trkpt>
      <trkpt lat="45.40107" lon="3.54888">
        <ele>1039</ele>
        <time>2022-06-21T03:05:43.671Z</time>
      </trkpt>
      <trkpt lat="45.4012" lon="3.54909">
        <ele>1039</ele>
        <time>2022-06-21T03:05:46.923Z</time>
      </trkpt>
      <trkpt lat="45.40127" lon="3.54916">
        <ele>1039</ele>
        <time>2022-06-21T03:05:48.338Z</time>
      </trkpt>
      <trkpt lat="45.40142" lon="3.54925">
        <ele>1039</ele>
        <time>2022-06-21T03:05:51.032Z</time>
      </trkpt>
      <trkpt lat="45.40168" lon="3.54933">
        <ele>1040</ele>
        <time>2022-06-21T03:05:57.744Z</time>
      </trkpt>
      <trkpt lat="45.40189" lon="3.54932">
        <ele>1042</ele>
        <time>2022-06-21T03:06:06.380Z</time>
      </trkpt>
      <trkpt lat="45.40211" lon="3.54924">
        <ele>1045</ele>
        <time>2022-06-21T03:06:20.602Z</time>
      </trkpt>
      <trkpt lat="45.40233" lon="3.54904">
        <ele>1050</ele>
        <time>2022-06-21T03:06:37.259Z</time>
      </trkpt>
      <trkpt lat="45.40254" lon="3.54874">
        <ele>1054</ele>
        <time>2022-06-21T03:06:56.242Z</time>
      </trkpt>
      <trkpt lat="45.40282" lon="3.54825">
        <ele>1056</ele>
        <time>2022-06-21T03:07:08.675Z</time>
      </trkpt>
      <trkpt lat="45.40312" lon="3.54787">
        <ele>1056</ele>
        <time>2022-06-21T03:07:15.318Z</time>
      </trkpt>
      <trkpt lat="45.40406" lon="3.54654">
        <ele>1053</ele>
        <time>2022-06-21T03:07:30.806Z</time>
      </trkpt>
      <trkpt lat="45.40451" lon="3.54611">
        <ele>1055</ele>
        <time>2022-06-21T03:07:44.352Z</time>
      </trkpt>
      <trkpt lat="45.40506" lon="3.54571">
        <ele>1054</ele>
        <time>2022-06-21T03:07:52.142Z</time>
      </trkpt>
      <trkpt lat="45.40542" lon="3.54552">
        <ele>1055</ele>
        <time>2022-06-21T03:08:00.485Z</time>
      </trkpt>
      <trkpt lat="45.40577" lon="3.5455">
        <ele>1055</ele>
        <time>2022-06-21T03:08:06.281Z</time>
      </trkpt>
      <trkpt lat="45.40675" lon="3.54557">
        <ele>1052</ele>
        <time>2022-06-21T03:08:16.801Z</time>
      </trkpt>
      <trkpt lat="45.40718" lon="3.54555">
        <ele>1052</ele>
        <time>2022-06-21T03:08:23.920Z</time>
      </trkpt>
      <trkpt lat="45.40753" lon="3.54546">
        <ele>1051</ele>
        <time>2022-06-21T03:08:27.834Z</time>
      </trkpt>
      <trkpt lat="45.4078" lon="3.54524">
        <ele>1047</ele>
        <time>2022-06-21T03:08:30.478Z</time>
      </trkpt>
      <trkpt lat="45.40803" lon="3.54491">
        <ele>1043</ele>
        <time>2022-06-21T03:08:33.254Z</time>
      </trkpt>
      <trkpt lat="45.40833" lon="3.54441">
        <ele>1041</ele>
        <time>2022-06-21T03:08:37.624Z</time>
      </trkpt>
      <trkpt lat="45.40845" lon="3.54428">
        <ele>1041</ele>
        <time>2022-06-21T03:08:40.118Z</time>
      </trkpt>
      <trkpt lat="45.40861" lon="3.54416">
        <ele>1040</ele>
        <time>2022-06-21T03:08:41.659Z</time>
      </trkpt>
      <trkpt lat="45.40879" lon="3.54407">
        <ele>1038</ele>
        <time>2022-06-21T03:08:43.281Z</time>
      </trkpt>
      <trkpt lat="45.40902" lon="3.544">
        <ele>1036</ele>
        <time>2022-06-21T03:08:45.281Z</time>
      </trkpt>
      <trkpt lat="45.40921" lon="3.54399">
        <ele>1035</ele>
        <time>2022-06-21T03:08:46.939Z</time>
      </trkpt>
      <trkpt lat="45.40936" lon="3.54401">
        <ele>1035</ele>
        <time>2022-06-21T03:08:49.431Z</time>
      </trkpt>
      <trkpt lat="45.40949" lon="3.54409">
        <ele>1035</ele>
        <time>2022-06-21T03:08:51.775Z</time>
      </trkpt>
      <trkpt lat="45.40966" lon="3.54432">
        <ele>1035</ele>
        <time>2022-06-21T03:08:55.654Z</time>
      </trkpt>
      <trkpt lat="45.40975" lon="3.54441">
        <ele>1035</ele>
        <time>2022-06-21T03:08:57.473Z</time>
      </trkpt>
      <trkpt lat="45.41005" lon="3.54445">
        <ele>1036</ele>
        <time>2022-06-21T03:09:04.637Z</time>
      </trkpt>
      <trkpt lat="45.41056" lon="3.54461">
        <ele>1039</ele>
        <time>2022-06-21T03:09:20.520Z</time>
      </trkpt>
      <trkpt lat="45.41127" lon="3.54492">
        <ele>1044</ele>
        <time>2022-06-21T03:09:44.757Z</time>
      </trkpt>
      <trkpt lat="45.41148" lon="3.54498">
        <ele>1045</ele>
        <time>2022-06-21T03:09:50.823Z</time>
      </trkpt>
      <trkpt lat="45.41194" lon="3.54518">
        <ele>1048</ele>
        <time>2022-06-21T03:10:05.965Z</time>
      </trkpt>
      <trkpt lat="45.41259" lon="3.5455">
        <ele>1050</ele>
        <time>2022-06-21T03:10:21.476Z</time>
      </trkpt>
      <trkpt lat="45.41317" lon="3.54569">
        <ele>1051</ele>
        <time>2022-06-21T03:10:33.115Z</time>
      </trkpt>
      <trkpt lat="45.41374" lon="3.54601">
        <ele>1052</ele>
        <time>2022-06-21T03:10:45.034Z</time>
      </trkpt>
      <trkpt lat="45.4143" lon="3.54645">
        <ele>1051</ele>
        <time>2022-06-21T03:10:53.157Z</time>
      </trkpt>
      <trkpt lat="45.41466" lon="3.54662">
        <ele>1051</ele>
        <time>2022-06-21T03:10:59.432Z</time>
      </trkpt>
      <trkpt lat="45.41501" lon="3.54674">
        <ele>1051</ele>
        <time>2022-06-21T03:11:05.389Z</time>
      </trkpt>
      <trkpt lat="45.41525" lon="3.54679">
        <ele>1051</ele>
        <time>2022-06-21T03:11:09.402Z</time>
      </trkpt>
      <trkpt lat="45.41549" lon="3.54679">
        <ele>1051</ele>
        <time>2022-06-21T03:11:13.373Z</time>
      </trkpt>
      <trkpt lat="45.41583" lon="3.54674">
        <ele>1052</ele>
        <time>2022-06-21T03:11:21.099Z</time>
      </trkpt>
      <trkpt lat="45.41634" lon="3.54659">
        <ele>1050</ele>
        <time>2022-06-21T03:11:26.261Z</time>
      </trkpt>
      <trkpt lat="45.41647" lon="3.54663">
        <ele>1050</ele>
        <time>2022-06-21T03:11:28.461Z</time>
      </trkpt>
      <trkpt lat="45.41671" lon="3.54602">
        <ele>1050</ele>
        <time>2022-06-21T03:11:36.583Z</time>
      </trkpt>
      <trkpt lat="45.41699" lon="3.54549">
        <ele>1048</ele>
        <time>2022-06-21T03:11:41.005Z</time>
      </trkpt>
      <trkpt lat="45.41715" lon="3.54533">
        <ele>1047</ele>
        <time>2022-06-21T03:11:42.730Z</time>
      </trkpt>
      <trkpt lat="45.41753" lon="3.54536">
        <ele>1045</ele>
        <time>2022-06-21T03:11:46.049Z</time>
      </trkpt>
      <trkpt lat="45.41884" lon="3.54541">
        <ele>1035</ele>
        <time>2022-06-21T03:11:57.191Z</time>
      </trkpt>
      <trkpt lat="45.41943" lon="3.54527">
        <ele>1032</ele>
        <time>2022-06-21T03:12:02.516Z</time>
      </trkpt>
      <trkpt lat="45.41993" lon="3.54509">
        <ele>1029</ele>
        <time>2022-06-21T03:12:06.809Z</time>
      </trkpt>
      <trkpt lat="45.42088" lon="3.5446">
        <ele>1021</ele>
        <time>2022-06-21T03:12:15.399Z</time>
      </trkpt>
      <trkpt lat="45.42185" lon="3.54424">
        <ele>1016</ele>
        <time>2022-06-21T03:12:24.345Z</time>
      </trkpt>
      <trkpt lat="45.42258" lon="3.54359">
        <ele>1009</ele>
        <time>2022-06-21T03:12:31.664Z</time>
      </trkpt>
      <trkpt lat="45.4231" lon="3.54264">
        <ele>999</ele>
        <time>2022-06-21T03:12:38.853Z</time>
      </trkpt>
      <trkpt lat="45.42329" lon="3.54216">
        <ele>995</ele>
        <time>2022-06-21T03:12:42.141Z</time>
      </trkpt>
      <trkpt lat="45.42342" lon="3.54196">
        <ele>994</ele>
        <time>2022-06-21T03:12:43.814Z</time>
      </trkpt>
      <trkpt lat="45.42362" lon="3.54183">
        <ele>991</ele>
        <time>2022-06-21T03:12:45.683Z</time>
      </trkpt>
      <trkpt lat="45.42382" lon="3.54178">
        <ele>989</ele>
        <time>2022-06-21T03:12:47.409Z</time>
      </trkpt>
      <trkpt lat="45.42405" lon="3.54184">
        <ele>988</ele>
        <time>2022-06-21T03:12:49.633Z</time>
      </trkpt>
      <trkpt lat="45.4245" lon="3.54206">
        <ele>986</ele>
        <time>2022-06-21T03:12:54.189Z</time>
      </trkpt>
      <trkpt lat="45.42494" lon="3.54231">
        <ele>985</ele>
        <time>2022-06-21T03:12:59.825Z</time>
      </trkpt>
      <trkpt lat="45.42524" lon="3.54255">
        <ele>989</ele>
        <time>2022-06-21T03:13:17.416Z</time>
      </trkpt>
      <trkpt lat="45.42541" lon="3.5426">
        <ele>990</ele>
        <time>2022-06-21T03:13:22.702Z</time>
      </trkpt>
      <trkpt lat="45.42573" lon="3.54255">
        <ele>990</ele>
        <time>2022-06-21T03:13:28.028Z</time>
      </trkpt>
      <trkpt lat="45.4267" lon="3.54185">
        <ele>980</ele>
        <time>2022-06-21T03:13:37.273Z</time>
      </trkpt>
      <trkpt lat="45.42713" lon="3.5417">
        <ele>978</ele>
        <time>2022-06-21T03:13:41.392Z</time>
      </trkpt>
      <trkpt lat="45.42723" lon="3.54151">
        <ele>977</ele>
        <time>2022-06-21T03:13:42.759Z</time>
      </trkpt>
      <trkpt lat="45.42727" lon="3.54122">
        <ele>976</ele>
        <time>2022-06-21T03:13:44.637Z</time>
      </trkpt>
      <trkpt lat="45.4272" lon="3.54098">
        <ele>975</ele>
        <time>2022-06-21T03:13:46.198Z</time>
      </trkpt>
      <trkpt lat="45.42698" lon="3.54067">
        <ele>972</ele>
        <time>2022-06-21T03:13:48.829Z</time>
      </trkpt>
      <trkpt lat="45.42622" lon="3.53986">
        <ele>965</ele>
        <time>2022-06-21T03:13:56.898Z</time>
      </trkpt>
      <trkpt lat="45.42595" lon="3.53932">
        <ele>960</ele>
        <time>2022-06-21T03:14:00.854Z</time>
      </trkpt>
      <trkpt lat="45.42584" lon="3.53892">
        <ele>958</ele>
        <time>2022-06-21T03:14:03.209Z</time>
      </trkpt>
      <trkpt lat="45.42581" lon="3.53816">
        <ele>960</ele>
        <time>2022-06-21T03:14:16.661Z</time>
      </trkpt>
      <trkpt lat="45.42572" lon="3.53803">
        <ele>961</ele>
        <time>2022-06-21T03:14:21.203Z</time>
      </trkpt>
      <trkpt lat="45.42542" lon="3.53782">
        <ele>960</ele>
        <time>2022-06-21T03:14:24.812Z</time>
      </trkpt>
      <trkpt lat="45.42532" lon="3.53769">
        <ele>960</ele>
        <time>2022-06-21T03:14:27.051Z</time>
      </trkpt>
      <trkpt lat="45.42528" lon="3.53747">
        <ele>962</ele>
        <time>2022-06-21T03:14:36.171Z</time>
      </trkpt>
      <trkpt lat="45.42545" lon="3.53638">
        <ele>965</ele>
        <time>2022-06-21T03:14:56.139Z</time>
      </trkpt>
      <trkpt lat="45.42539" lon="3.53559">
        <ele>964</ele>
        <time>2022-06-21T03:15:03.027Z</time>
      </trkpt>
      <trkpt lat="45.42571" lon="3.53568">
        <ele>966</ele>
        <time>2022-06-21T03:15:13.220Z</time>
      </trkpt>
      <trkpt lat="45.4264" lon="3.53596">
        <ele>974</ele>
        <time>2022-06-21T03:15:47.989Z</time>
      </trkpt>
      <trkpt lat="45.42662" lon="3.53596">
        <ele>976</ele>
        <time>2022-06-21T03:15:56.685Z</time>
      </trkpt>
      <trkpt lat="45.42718" lon="3.53587">
        <ele>980</ele>
        <time>2022-06-21T03:16:15.588Z</time>
      </trkpt>
      <trkpt lat="45.42776" lon="3.53563">
        <ele>984</ele>
        <time>2022-06-21T03:16:35.140Z</time>
      </trkpt>
      <trkpt lat="45.42833" lon="3.53535">
        <ele>987</ele>
        <time>2022-06-21T03:16:52.556Z</time>
      </trkpt>
      <trkpt lat="45.42858" lon="3.5352">
        <ele>990</ele>
        <time>2022-06-21T03:17:05.572Z</time>
      </trkpt>
      <trkpt lat="45.4289" lon="3.53455">
        <ele>991</ele>
        <time>2022-06-21T03:17:16.605Z</time>
      </trkpt>
      <trkpt lat="45.42919" lon="3.53406">
        <ele>989</ele>
        <time>2022-06-21T03:17:20.818Z</time>
      </trkpt>
      <trkpt lat="45.42942" lon="3.53398">
        <ele>991</ele>
        <time>2022-06-21T03:17:29.667Z</time>
      </trkpt>
      <trkpt lat="45.42961" lon="3.53403">
        <ele>993</ele>
        <time>2022-06-21T03:17:38.275Z</time>
      </trkpt>
      <trkpt lat="45.43042" lon="3.53435">
        <ele>1006</ele>
        <time>2022-06-21T03:18:31.920Z</time>
      </trkpt>
      <trkpt lat="45.43081" lon="3.53445">
        <ele>1013</ele>
        <time>2022-06-21T03:18:57.209Z</time>
      </trkpt>
      <trkpt lat="45.43122" lon="3.53425">
        <ele>1016</ele>
        <time>2022-06-21T03:19:11.554Z</time>
      </trkpt>
      <trkpt lat="45.43163" lon="3.53399">
        <ele>1018</ele>
        <time>2022-06-21T03:19:24.092Z</time>
      </trkpt>
      <trkpt lat="45.4319" lon="3.53387">
        <ele>1018</ele>
        <time>2022-06-21T03:19:28.771Z</time>
      </trkpt>
      <trkpt lat="45.43218" lon="3.53385">
        <ele>1020</ele>
        <time>2022-06-21T03:19:38.201Z</time>
      </trkpt>
      <trkpt lat="45.43374" lon="3.53432">
        <ele>1034</ele>
        <time>2022-06-21T03:20:39.520Z</time>
      </trkpt>
      <trkpt lat="45.43424" lon="3.53436">
        <ele>1030</ele>
        <time>2022-06-21T03:20:43.778Z</time>
      </trkpt>
      <trkpt lat="45.43536" lon="3.53457">
        <ele>1033</ele>
        <time>2022-06-21T03:21:08.478Z</time>
      </trkpt>
      <trkpt lat="45.43568" lon="3.53456">
        <ele>1034</ele>
        <time>2022-06-21T03:21:15.897Z</time>
      </trkpt>
      <trkpt lat="45.43663" lon="3.53435">
        <ele>1038</ele>
        <time>2022-06-21T03:21:41.599Z</time>
      </trkpt>
      <trkpt lat="45.43693" lon="3.53437">
        <ele>1039</ele>
        <time>2022-06-21T03:21:48.749Z</time>
      </trkpt>
      <trkpt lat="45.43762" lon="3.53457">
        <ele>1043</ele>
        <time>2022-06-21T03:22:10.072Z</time>
      </trkpt>
      <trkpt lat="45.43817" lon="3.53495">
        <ele>1039</ele>
        <time>2022-06-21T03:22:14.877Z</time>
      </trkpt>
      <trkpt lat="45.43823" lon="3.53501">
        <ele>1039</ele>
        <time>2022-06-21T03:22:16.090Z</time>
      </trkpt>
      <trkpt lat="45.43837" lon="3.53535">
        <ele>1038</ele>
        <time>2022-06-21T03:22:18.893Z</time>
      </trkpt>
      <trkpt lat="45.4384" lon="3.53561">
        <ele>1038</ele>
        <time>2022-06-21T03:22:21.952Z</time>
      </trkpt>
      <trkpt lat="45.43837" lon="3.53597">
        <ele>1038</ele>
        <time>2022-06-21T03:22:26.161Z</time>
      </trkpt>
      <trkpt lat="45.43842" lon="3.53634">
        <ele>1035</ele>
        <time>2022-06-21T03:22:28.409Z</time>
      </trkpt>
      <trkpt lat="45.4385" lon="3.53671">
        <ele>1032</ele>
        <time>2022-06-21T03:22:30.718Z</time>
      </trkpt>
      <trkpt lat="45.43861" lon="3.53697">
        <ele>1031</ele>
        <time>2022-06-21T03:22:32.669Z</time>
      </trkpt>
      <trkpt lat="45.43877" lon="3.53722">
        <ele>1029</ele>
        <time>2022-06-21T03:22:34.688Z</time>
      </trkpt>
      <trkpt lat="45.43955" lon="3.53749">
        <ele>1029</ele>
        <time>2022-06-21T03:22:47.969Z</time>
      </trkpt>
      <trkpt lat="45.44014" lon="3.53762">
        <ele>1035</ele>
        <time>2022-06-21T03:23:13.783Z</time>
      </trkpt>
      <trkpt lat="45.44083" lon="3.53743">
        <ele>1036</ele>
        <time>2022-06-21T03:23:27.154Z</time>
      </trkpt>
      <trkpt lat="45.44144" lon="3.53732">
        <ele>1038</ele>
        <time>2022-06-21T03:23:41.645Z</time>
      </trkpt>
      <trkpt lat="45.44237" lon="3.5375">
        <ele>1041</ele>
        <time>2022-06-21T03:24:03.603Z</time>
      </trkpt>
      <trkpt lat="45.44328" lon="3.53779">
        <ele>1033</ele>
        <time>2022-06-21T03:24:11.531Z</time>
      </trkpt>
      <trkpt lat="45.44427" lon="3.53789">
        <ele>1033</ele>
        <time>2022-06-21T03:24:27.953Z</time>
      </trkpt>
      <trkpt lat="45.44513" lon="3.53794">
        <ele>1036</ele>
        <time>2022-06-21T03:24:48.874Z</time>
      </trkpt>
      <trkpt lat="45.4464" lon="3.53813">
        <ele>1042</ele>
        <time>2022-06-21T03:25:25.103Z</time>
      </trkpt>
      <trkpt lat="45.44677" lon="3.53822">
        <ele>1042</ele>
        <time>2022-06-21T03:25:31.314Z</time>
      </trkpt>
      <trkpt lat="45.44865" lon="3.53935">
        <ele>1035</ele>
        <time>2022-06-21T03:25:52.370Z</time>
      </trkpt>
      <trkpt lat="45.45004" lon="3.53996">
        <ele>1037</ele>
        <time>2022-06-21T03:26:19.902Z</time>
      </trkpt>
      <trkpt lat="45.4504" lon="3.54014">
        <ele>1036</ele>
        <time>2022-06-21T03:26:24.187Z</time>
      </trkpt>
      <trkpt lat="45.45175" lon="3.54095">
        <ele>1029</ele>
        <time>2022-06-21T03:26:37.500Z</time>
      </trkpt>
      <trkpt lat="45.45237" lon="3.54136">
        <ele>1025</ele>
        <time>2022-06-21T03:26:43.174Z</time>
      </trkpt>
      <trkpt lat="45.45391" lon="3.5425">
        <ele>1023</ele>
        <time>2022-06-21T03:27:06.394Z</time>
      </trkpt>
      <trkpt lat="45.45412" lon="3.54252">
        <ele>1019</ele>
        <time>2022-06-21T03:27:08.184Z</time>
      </trkpt>
      <trkpt lat="45.45445" lon="3.54251">
        <ele>1016</ele>
        <time>2022-06-21T03:27:10.990Z</time>
      </trkpt>
      <trkpt lat="45.4551" lon="3.54234">
        <ele>1011</ele>
        <time>2022-06-21T03:27:16.609Z</time>
      </trkpt>
      <trkpt lat="45.45525" lon="3.54239">
        <ele>1011</ele>
        <time>2022-06-21T03:27:19.157Z</time>
      </trkpt>
      <trkpt lat="45.45535" lon="3.54251">
        <ele>1011</ele>
        <time>2022-06-21T03:27:21.320Z</time>
      </trkpt>
      <trkpt lat="45.45548" lon="3.54272">
        <ele>1011</ele>
        <time>2022-06-21T03:27:24.571Z</time>
      </trkpt>
      <trkpt lat="45.45568" lon="3.54297">
        <ele>1010</ele>
        <time>2022-06-21T03:27:27.228Z</time>
      </trkpt>
      <trkpt lat="45.45583" lon="3.54299">
        <ele>1008</ele>
        <time>2022-06-21T03:27:28.509Z</time>
      </trkpt>
      <trkpt lat="45.45591" lon="3.54296">
        <ele>1009</ele>
        <time>2022-06-21T03:27:32.978Z</time>
      </trkpt>
      <trkpt lat="45.45597" lon="3.54292">
        <ele>1010</ele>
        <time>2022-06-21T03:27:37.205Z</time>
      </trkpt>
      <trkpt lat="45.45606" lon="3.54281">
        <ele>1011</ele>
        <time>2022-06-21T03:27:41.631Z</time>
      </trkpt>
      <trkpt lat="45.4561" lon="3.54254">
        <ele>1012</ele>
        <time>2022-06-21T03:27:47.293Z</time>
      </trkpt>
      <trkpt lat="45.45604" lon="3.54194">
        <ele>1010</ele>
        <time>2022-06-21T03:27:51.183Z</time>
      </trkpt>
      <trkpt lat="45.45609" lon="3.54167">
        <ele>1010</ele>
        <time>2022-06-21T03:27:54.424Z</time>
      </trkpt>
      <trkpt lat="45.45621" lon="3.54149">
        <ele>1012</ele>
        <time>2022-06-21T03:28:03.184Z</time>
      </trkpt>
      <trkpt lat="45.45684" lon="3.54129">
        <ele>1018</ele>
        <time>2022-06-21T03:28:29.173Z</time>
      </trkpt>
      <trkpt lat="45.45703" lon="3.54132">
        <ele>1020</ele>
        <time>2022-06-21T03:28:37.787Z</time>
      </trkpt>
      <trkpt lat="45.45751" lon="3.54167">
        <ele>1027</ele>
        <time>2022-06-21T03:29:10.494Z</time>
      </trkpt>
      <trkpt lat="45.4574" lon="3.54187">
        <ele>1026</ele>
        <time>2022-06-21T03:29:12.004Z</time>
      </trkpt>
      <trkpt lat="45.45731" lon="3.54221">
        <ele>1026</ele>
        <time>2022-06-21T03:29:16.221Z</time>
      </trkpt>
      <trkpt lat="45.45735" lon="3.5427">
        <ele>1025</ele>
        <time>2022-06-21T03:29:19.997Z</time>
      </trkpt>
      <trkpt lat="45.45745" lon="3.54303">
        <ele>1024</ele>
        <time>2022-06-21T03:29:22.467Z</time>
      </trkpt>
      <trkpt lat="45.4578" lon="3.54372">
        <ele>1019</ele>
        <time>2022-06-21T03:29:27.545Z</time>
      </trkpt>
      <trkpt lat="45.45792" lon="3.54416">
        <ele>1015</ele>
        <time>2022-06-21T03:29:30.360Z</time>
      </trkpt>
      <trkpt lat="45.45807" lon="3.54453">
        <ele>1013</ele>
        <time>2022-06-21T03:29:32.909Z</time>
      </trkpt>
      <trkpt lat="45.4583" lon="3.545">
        <ele>1013</ele>
        <time>2022-06-21T03:29:39.560Z</time>
      </trkpt>
      <trkpt lat="45.45856" lon="3.54558">
        <ele>1016</ele>
        <time>2022-06-21T03:29:54.735Z</time>
      </trkpt>
      <trkpt lat="45.45876" lon="3.54616">
        <ele>1017</ele>
        <time>2022-06-21T03:30:04.136Z</time>
      </trkpt>
      <trkpt lat="45.45878" lon="3.54619">
        <ele>1017</ele>
        <time>2022-06-21T03:30:04.616Z</time>
      </trkpt>
      <trkpt lat="45.45966" lon="3.5448">
        <ele>1021</ele>
        <time>2022-06-21T03:30:34.755Z</time>
      </trkpt>
      <trkpt lat="45.45996" lon="3.54417">
        <ele>1021</ele>
        <time>2022-06-21T03:30:43.592Z</time>
      </trkpt>
      <trkpt lat="45.46002" lon="3.54399">
        <ele>1021</ele>
        <time>2022-06-21T03:30:45.905Z</time>
      </trkpt>
      <trkpt lat="45.4601" lon="3.54359">
        <ele>1022</ele>
        <time>2022-06-21T03:30:52.942Z</time>
      </trkpt>
      <trkpt lat="45.4603" lon="3.54293">
        <ele>1022</ele>
        <time>2022-06-21T03:31:01.286Z</time>
      </trkpt>
      <trkpt lat="45.46037" lon="3.54252">
        <ele>1022</ele>
        <time>2022-06-21T03:31:06.183Z</time>
      </trkpt>
      <trkpt lat="45.46036" lon="3.54236">
        <ele>1023</ele>
        <time>2022-06-21T03:31:10.552Z</time>
      </trkpt>
      <trkpt lat="45.46032" lon="3.54221">
        <ele>1025</ele>
        <time>2022-06-21T03:31:17.735Z</time>
      </trkpt>
      <trkpt lat="45.46021" lon="3.54201">
        <ele>1027</ele>
        <time>2022-06-21T03:31:26.440Z</time>
      </trkpt>
      <trkpt lat="45.45999" lon="3.54192">
        <ele>1030</ele>
        <time>2022-06-21T03:31:40.565Z</time>
      </trkpt>
      <trkpt lat="45.45956" lon="3.54185">
        <ele>1032</ele>
        <time>2022-06-21T03:31:52.784Z</time>
      </trkpt>
      <trkpt lat="45.45934" lon="3.54161">
        <ele>1034</ele>
        <time>2022-06-21T03:32:02.162Z</time>
      </trkpt>
      <trkpt lat="45.45917" lon="3.54129">
        <ele>1035</ele>
        <time>2022-06-21T03:32:09.067Z</time>
      </trkpt>
      <trkpt lat="45.45894" lon="3.5407">
        <ele>1036</ele>
        <time>2022-06-21T03:32:18.780Z</time>
      </trkpt>
      <trkpt lat="45.45912" lon="3.54032">
        <ele>1039</ele>
        <time>2022-06-21T03:32:31.768Z</time>
      </trkpt>
      <trkpt lat="45.45922" lon="3.54016">
        <ele>1040</ele>
        <time>2022-06-21T03:32:36.645Z</time>
      </trkpt>
      <trkpt lat="45.45952" lon="3.53987">
        <ele>1044</ele>
        <time>2022-06-21T03:32:53.992Z</time>
      </trkpt>
      <trkpt lat="45.45968" lon="3.53966">
        <ele>1046</ele>
        <time>2022-06-21T03:33:02.670Z</time>
      </trkpt>
      <trkpt lat="45.46" lon="3.53919">
        <ele>1052</ele>
        <time>2022-06-21T03:33:30.836Z</time>
      </trkpt>
      <trkpt lat="45.46017" lon="3.53889">
        <ele>1052</ele>
        <time>2022-06-21T03:33:35.312Z</time>
      </trkpt>
      <trkpt lat="45.46039" lon="3.53843">
        <ele>1054</ele>
        <time>2022-06-21T03:33:46.701Z</time>
      </trkpt>
      <trkpt lat="45.46053" lon="3.53822">
        <ele>1055</ele>
        <time>2022-06-21T03:33:52.550Z</time>
      </trkpt>
      <trkpt lat="45.46266" lon="3.53696">
        <ele>1070</ele>
        <time>2022-06-21T03:35:06.565Z</time>
      </trkpt>
      <trkpt lat="45.46314" lon="3.53675">
        <ele>1071</ele>
        <time>2022-06-21T03:35:16.726Z</time>
      </trkpt>
      <trkpt lat="45.46398" lon="3.53645">
        <ele>1076</ele>
        <time>2022-06-21T03:35:43.118Z</time>
      </trkpt>
      <trkpt lat="45.46405" lon="3.53638">
        <ele>1077</ele>
        <time>2022-06-21T03:35:47.526Z</time>
      </trkpt>
      <trkpt lat="45.46408" lon="3.5362">
        <ele>1079</ele>
        <time>2022-06-21T03:35:55.807Z</time>
      </trkpt>
      <trkpt lat="45.46603" lon="3.53611">
        <ele>1090</ele>
        <time>2022-06-21T03:36:54.716Z</time>
      </trkpt>
      <trkpt lat="45.46735" lon="3.53612">
        <ele>1081</ele>
        <time>2022-06-21T03:37:05.939Z</time>
      </trkpt>
      <trkpt lat="45.46779" lon="3.53621">
        <ele>1081</ele>
        <time>2022-06-21T03:37:13.294Z</time>
      </trkpt>
      <trkpt lat="45.46863" lon="3.53633">
        <ele>1080</ele>
        <time>2022-06-21T03:37:24.544Z</time>
      </trkpt>
      <trkpt lat="45.46922" lon="3.53647">
        <ele>1080</ele>
        <time>2022-06-21T03:37:34.440Z</time>
      </trkpt>
      <trkpt lat="45.46953" lon="3.53679">
        <ele>1079</ele>
        <time>2022-06-21T03:37:38.743Z</time>
      </trkpt>
      <trkpt lat="45.46981" lon="3.53716">
        <ele>1076</ele>
        <time>2022-06-21T03:37:41.989Z</time>
      </trkpt>
      <trkpt lat="45.4703" lon="3.53745">
        <ele>1074</ele>
        <time>2022-06-21T03:37:47.283Z</time>
      </trkpt>
      <trkpt lat="45.47068" lon="3.53733">
        <ele>1075</ele>
        <time>2022-06-21T03:37:55.705Z</time>
      </trkpt>
      <trkpt lat="45.47133" lon="3.53696">
        <ele>1074</ele>
        <time>2022-06-21T03:38:04.746Z</time>
      </trkpt>
      <trkpt lat="45.47165" lon="3.53655">
        <ele>1072</ele>
        <time>2022-06-21T03:38:08.701Z</time>
      </trkpt>
      <trkpt lat="45.47166" lon="3.53584">
        <ele>1072</ele>
        <time>2022-06-21T03:38:16.941Z</time>
      </trkpt>
      <trkpt lat="45.47178" lon="3.5352">
        <ele>1074</ele>
        <time>2022-06-21T03:38:29.633Z</time>
      </trkpt>
      <trkpt lat="45.47243" lon="3.53465">
        <ele>1072</ele>
        <time>2022-06-21T03:38:38.100Z</time>
      </trkpt>
      <trkpt lat="45.47307" lon="3.53414">
        <ele>1065</ele>
        <time>2022-06-21T03:38:44.333Z</time>
      </trkpt>
      <trkpt lat="45.47376" lon="3.5338">
        <ele>1062</ele>
        <time>2022-06-21T03:38:51.386Z</time>
      </trkpt>
      <trkpt lat="45.47458" lon="3.53363">
        <ele>1060</ele>
        <time>2022-06-21T03:39:00.910Z</time>
      </trkpt>
      <trkpt lat="45.47525" lon="3.53358">
        <ele>1059</ele>
        <time>2022-06-21T03:39:09.510Z</time>
      </trkpt>
      <trkpt lat="45.47591" lon="3.53376">
        <ele>1063</ele>
        <time>2022-06-21T03:39:30.245Z</time>
      </trkpt>
      <trkpt lat="45.47621" lon="3.53386">
        <ele>1065</ele>
        <time>2022-06-21T03:39:40.124Z</time>
      </trkpt>
      <trkpt lat="45.47658" lon="3.53388">
        <ele>1066</ele>
        <time>2022-06-21T03:39:48.264Z</time>
      </trkpt>
      <trkpt lat="45.47697" lon="3.53369">
        <ele>1065</ele>
        <time>2022-06-21T03:39:52.995Z</time>
      </trkpt>
      <trkpt lat="45.47726" lon="3.53348">
        <ele>1065</ele>
        <time>2022-06-21T03:39:58.376Z</time>
      </trkpt>
      <trkpt lat="45.47789" lon="3.53296">
        <ele>1068</ele>
        <time>2022-06-21T03:40:17.724Z</time>
      </trkpt>
      <trkpt lat="45.47855" lon="3.53203">
        <ele>1068</ele>
        <time>2022-06-21T03:40:33.076Z</time>
      </trkpt>
      <trkpt lat="45.47896" lon="3.53137">
        <ele>1068</ele>
        <time>2022-06-21T03:40:43.306Z</time>
      </trkpt>
      <trkpt lat="45.47929" lon="3.531">
        <ele>1068</ele>
        <time>2022-06-21T03:40:50.251Z</time>
      </trkpt>
      <trkpt lat="45.47973" lon="3.53078">
        <ele>1067</ele>
        <time>2022-06-21T03:40:55.777Z</time>
      </trkpt>
      <trkpt lat="45.48015" lon="3.53072">
        <ele>1066</ele>
        <time>2022-06-21T03:41:00.653Z</time>
      </trkpt>
      <trkpt lat="45.48063" lon="3.53094">
        <ele>1065</ele>
        <time>2022-06-21T03:41:06.741Z</time>
      </trkpt>
      <trkpt lat="45.48078" lon="3.53108">
        <ele>1066</ele>
        <time>2022-06-21T03:41:12.131Z</time>
      </trkpt>
      <trkpt lat="45.481" lon="3.53109">
        <ele>1067</ele>
        <time>2022-06-21T03:41:18.314Z</time>
      </trkpt>
      <trkpt lat="45.48128" lon="3.53074">
        <ele>1068</ele>
        <time>2022-06-21T03:41:26.485Z</time>
      </trkpt>
      <trkpt lat="45.48212" lon="3.52948">
        <ele>1060</ele>
        <time>2022-06-21T03:41:36.055Z</time>
      </trkpt>
      <trkpt lat="45.48288" lon="3.52873">
        <ele>1060</ele>
        <time>2022-06-21T03:41:51.347Z</time>
      </trkpt>
      <trkpt lat="45.48368" lon="3.5279">
        <ele>1057</ele>
        <time>2022-06-21T03:42:01.981Z</time>
      </trkpt>
      <trkpt lat="45.48441" lon="3.5273">
        <ele>1055</ele>
        <time>2022-06-21T03:42:11.709Z</time>
      </trkpt>
      <trkpt lat="45.48535" lon="3.52675">
        <ele>1053</ele>
        <time>2022-06-21T03:42:23.999Z</time>
      </trkpt>
      <trkpt lat="45.4859" lon="3.52631">
        <ele>1050</ele>
        <time>2022-06-21T03:42:29.741Z</time>
      </trkpt>
      <trkpt lat="45.48638" lon="3.52604">
        <ele>1047</ele>
        <time>2022-06-21T03:42:34.038Z</time>
      </trkpt>
      <trkpt lat="45.48699" lon="3.52603">
        <ele>1044</ele>
        <time>2022-06-21T03:42:39.515Z</time>
      </trkpt>
      <trkpt lat="45.48744" lon="3.52614">
        <ele>1044</ele>
        <time>2022-06-21T03:42:47.070Z</time>
      </trkpt>
      <trkpt lat="45.48751" lon="3.52607">
        <ele>1043</ele>
        <time>2022-06-21T03:42:47.796Z</time>
      </trkpt>
      <trkpt lat="45.48759" lon="3.52594">
        <ele>1042</ele>
        <time>2022-06-21T03:42:48.827Z</time>
      </trkpt>
      <trkpt lat="45.48778" lon="3.52536">
        <ele>1042</ele>
        <time>2022-06-21T03:42:56.254Z</time>
      </trkpt>
      <trkpt lat="45.48801" lon="3.52502">
        <ele>1044</ele>
        <time>2022-06-21T03:43:06.536Z</time>
      </trkpt>
      <trkpt lat="45.48828" lon="3.52473">
        <ele>1046</ele>
        <time>2022-06-21T03:43:16.940Z</time>
      </trkpt>
      <trkpt lat="45.48895" lon="3.52408">
        <ele>1046</ele>
        <time>2022-06-21T03:43:30.347Z</time>
      </trkpt>
      <trkpt lat="45.48946" lon="3.52398">
        <ele>1043</ele>
        <time>2022-06-21T03:43:34.629Z</time>
      </trkpt>
      <trkpt lat="45.49035" lon="3.52427">
        <ele>1037</ele>
        <time>2022-06-21T03:43:41.791Z</time>
      </trkpt>
      <trkpt lat="45.49063" lon="3.525">
        <ele>1043</ele>
        <time>2022-06-21T03:44:07.609Z</time>
      </trkpt>
      <trkpt lat="45.49087" lon="3.52548">
        <ele>1044</ele>
        <time>2022-06-21T03:44:16.395Z</time>
      </trkpt>
      <trkpt lat="45.4912" lon="3.52565">
        <ele>1045</ele>
        <time>2022-06-21T03:44:24.251Z</time>
      </trkpt>
      <trkpt lat="45.49128" lon="3.52567">
        <ele>1045</ele>
        <time>2022-06-21T03:44:25.595Z</time>
      </trkpt>
      <trkpt lat="45.49174" lon="3.52575">
        <ele>1046</ele>
        <time>2022-06-21T03:44:35.152Z</time>
      </trkpt>
      <trkpt lat="45.49198" lon="3.52565">
        <ele>1046</ele>
        <time>2022-06-21T03:44:39.289Z</time>
      </trkpt>
      <trkpt lat="45.49283" lon="3.52511">
        <ele>1046</ele>
        <time>2022-06-21T03:44:54.685Z</time>
      </trkpt>
      <trkpt lat="45.49326" lon="3.52498">
        <ele>1048</ele>
        <time>2022-06-21T03:45:07.037Z</time>
      </trkpt>
      <trkpt lat="45.49387" lon="3.52491">
        <ele>1043</ele>
        <time>2022-06-21T03:45:12.240Z</time>
      </trkpt>
      <trkpt lat="45.49411" lon="3.52497">
        <ele>1041</ele>
        <time>2022-06-21T03:45:14.312Z</time>
      </trkpt>
      <trkpt lat="45.49479" lon="3.52554">
        <ele>1041</ele>
        <time>2022-06-21T03:45:27.362Z</time>
      </trkpt>
      <trkpt lat="45.49529" lon="3.52557">
        <ele>1040</ele>
        <time>2022-06-21T03:45:33.394Z</time>
      </trkpt>
      <trkpt lat="45.49563" lon="3.52545">
        <ele>1042</ele>
        <time>2022-06-21T03:45:44.022Z</time>
      </trkpt>
      <trkpt lat="45.49578" lon="3.52557">
        <ele>1043</ele>
        <time>2022-06-21T03:45:49.278Z</time>
      </trkpt>
      <trkpt lat="45.49593" lon="3.52579">
        <ele>1045</ele>
        <time>2022-06-21T03:45:57.941Z</time>
      </trkpt>
      <trkpt lat="45.4961" lon="3.52634">
        <ele>1045</ele>
        <time>2022-06-21T03:46:04.913Z</time>
      </trkpt>
      <trkpt lat="45.49687" lon="3.52718">
        <ele>1046</ele>
        <time>2022-06-21T03:46:22.625Z</time>
      </trkpt>
      <trkpt lat="45.49747" lon="3.52756">
        <ele>1043</ele>
        <time>2022-06-21T03:46:28.704Z</time>
      </trkpt>
      <trkpt lat="45.49822" lon="3.52788">
        <ele>1042</ele>
        <time>2022-06-21T03:46:39.012Z</time>
      </trkpt>
      <trkpt lat="45.49973" lon="3.52844">
        <ele>1042</ele>
        <time>2022-06-21T03:47:04.827Z</time>
      </trkpt>
      <trkpt lat="45.5" lon="3.52862">
        <ele>1042</ele>
        <time>2022-06-21T03:47:09.758Z</time>
      </trkpt>
      <trkpt lat="45.50018" lon="3.52883">
        <ele>1041</ele>
        <time>2022-06-21T03:47:11.965Z</time>
      </trkpt>
      <trkpt lat="45.50039" lon="3.52922">
        <ele>1038</ele>
        <time>2022-06-21T03:47:14.896Z</time>
      </trkpt>
      <trkpt lat="45.50062" lon="3.5297">
        <ele>1035</ele>
        <time>2022-06-21T03:47:18.361Z</time>
      </trkpt>
      <trkpt lat="45.50068" lon="3.52986">
        <ele>1034</ele>
        <time>2022-06-21T03:47:19.442Z</time>
      </trkpt>
      <trkpt lat="45.50071" lon="3.53004">
        <ele>1033</ele>
        <time>2022-06-21T03:47:20.544Z</time>
      </trkpt>
      <trkpt lat="45.50072" lon="3.53019">
        <ele>1033</ele>
        <time>2022-06-21T03:47:22.292Z</time>
      </trkpt>
      <trkpt lat="45.50072" lon="3.5303">
        <ele>1033</ele>
        <time>2022-06-21T03:47:23.568Z</time>
      </trkpt>
      <trkpt lat="45.50057" lon="3.53078">
        <ele>1035</ele>
        <time>2022-06-21T03:47:34.533Z</time>
      </trkpt>
      <trkpt lat="45.50055" lon="3.53096">
        <ele>1037</ele>
        <time>2022-06-21T03:47:42.686Z</time>
      </trkpt>
      <trkpt lat="45.50059" lon="3.53116">
        <ele>1038</ele>
        <time>2022-06-21T03:47:47.489Z</time>
      </trkpt>
      <trkpt lat="45.50064" lon="3.53124">
        <ele>1038</ele>
        <time>2022-06-21T03:47:48.732Z</time>
      </trkpt>
      <trkpt lat="45.50094" lon="3.53156">
        <ele>1034</ele>
        <time>2022-06-21T03:47:51.916Z</time>
      </trkpt>
      <trkpt lat="45.50116" lon="3.53187">
        <ele>1034</ele>
        <time>2022-06-21T03:47:57.032Z</time>
      </trkpt>
      <trkpt lat="45.50135" lon="3.53205">
        <ele>1034</ele>
        <time>2022-06-21T03:48:00.806Z</time>
      </trkpt>
      <trkpt lat="45.50262" lon="3.53266">
        <ele>1022</ele>
        <time>2022-06-21T03:48:12.199Z</time>
      </trkpt>
      <trkpt lat="45.50279" lon="3.53295">
        <ele>1025</ele>
        <time>2022-06-21T03:48:25.286Z</time>
      </trkpt>
      <trkpt lat="45.50302" lon="3.53318">
        <ele>1028</ele>
        <time>2022-06-21T03:48:38.231Z</time>
      </trkpt>
      <trkpt lat="45.50337" lon="3.53325">
        <ele>1027</ele>
        <time>2022-06-21T03:48:42.112Z</time>
      </trkpt>
      <trkpt lat="45.50394" lon="3.53236">
        <ele>1014</ele>
        <time>2022-06-21T03:48:49.296Z</time>
      </trkpt>
      <trkpt lat="45.50502" lon="3.53198">
        <ele>1009</ele>
        <time>2022-06-21T03:48:59.667Z</time>
      </trkpt>
      <trkpt lat="45.50519" lon="3.53164">
        <ele>1005</ele>
        <time>2022-06-21T03:49:02.156Z</time>
      </trkpt>
      <trkpt lat="45.50537" lon="3.53122">
        <ele>1000</ele>
        <time>2022-06-21T03:49:05.089Z</time>
      </trkpt>
      <trkpt lat="45.50556" lon="3.53101">
        <ele>999</ele>
        <time>2022-06-21T03:49:07.400Z</time>
      </trkpt>
      <trkpt lat="45.50577" lon="3.53045">
        <ele>993</ele>
        <time>2022-06-21T03:49:11.185Z</time>
      </trkpt>
      <trkpt lat="45.50589" lon="3.52997">
        <ele>988</ele>
        <time>2022-06-21T03:49:14.221Z</time>
      </trkpt>
      <trkpt lat="45.50597" lon="3.52978">
        <ele>986</ele>
        <time>2022-06-21T03:49:15.542Z</time>
      </trkpt>
      <trkpt lat="45.5066" lon="3.52946">
        <ele>986</ele>
        <time>2022-06-21T03:49:26.607Z</time>
      </trkpt>
      <trkpt lat="45.50804" lon="3.52907">
        <ele>978</ele>
        <time>2022-06-21T03:49:39.174Z</time>
      </trkpt>
      <trkpt lat="45.5082" lon="3.52891">
        <ele>977</ele>
        <time>2022-06-21T03:49:40.898Z</time>
      </trkpt>
      <trkpt lat="45.50821" lon="3.52871">
        <ele>977</ele>
        <time>2022-06-21T03:49:43.223Z</time>
      </trkpt>
      <trkpt lat="45.50797" lon="3.52787">
        <ele>973</ele>
        <time>2022-06-21T03:49:48.320Z</time>
      </trkpt>
      <trkpt lat="45.50794" lon="3.52749">
        <ele>971</ele>
        <time>2022-06-21T03:49:50.598Z</time>
      </trkpt>
      <trkpt lat="45.5083" lon="3.52702">
        <ele>967</ele>
        <time>2022-06-21T03:49:54.747Z</time>
      </trkpt>
      <trkpt lat="45.50857" lon="3.52681">
        <ele>965</ele>
        <time>2022-06-21T03:49:57.172Z</time>
      </trkpt>
      <trkpt lat="45.50989" lon="3.52651">
        <ele>957</ele>
        <time>2022-06-21T03:50:08.149Z</time>
      </trkpt>
      <trkpt lat="45.51017" lon="3.52663">
        <ele>955</ele>
        <time>2022-06-21T03:50:10.635Z</time>
      </trkpt>
      <trkpt lat="45.51068" lon="3.52729">
        <ele>952</ele>
        <time>2022-06-21T03:50:17.135Z</time>
      </trkpt>
      <trkpt lat="45.51075" lon="3.52751">
        <ele>952</ele>
        <time>2022-06-21T03:50:19.937Z</time>
      </trkpt>
      <trkpt lat="45.51081" lon="3.52812">
        <ele>951</ele>
        <time>2022-06-21T03:50:24.953Z</time>
      </trkpt>
      <trkpt lat="45.51088" lon="3.5284">
        <ele>951</ele>
        <time>2022-06-21T03:50:28.400Z</time>
      </trkpt>
      <trkpt lat="45.51103" lon="3.52858">
        <ele>950</ele>
        <time>2022-06-21T03:50:30.132Z</time>
      </trkpt>
      <trkpt lat="45.51142" lon="3.52876">
        <ele>947</ele>
        <time>2022-06-21T03:50:33.617Z</time>
      </trkpt>
      <trkpt lat="45.51158" lon="3.52889">
        <ele>947</ele>
        <time>2022-06-21T03:50:36.663Z</time>
      </trkpt>
      <trkpt lat="45.51173" lon="3.52896">
        <ele>947</ele>
        <time>2022-06-21T03:50:39.274Z</time>
      </trkpt>
      <trkpt lat="45.51188" lon="3.52893">
        <ele>947</ele>
        <time>2022-06-21T03:50:41.780Z</time>
      </trkpt>
      <trkpt lat="45.51199" lon="3.52887">
        <ele>947</ele>
        <time>2022-06-21T03:50:43.729Z</time>
      </trkpt>
      <trkpt lat="45.51208" lon="3.5287">
        <ele>946</ele>
        <time>2022-06-21T03:50:44.998Z</time>
      </trkpt>
      <trkpt lat="45.51212" lon="3.52836">
        <ele>942</ele>
        <time>2022-06-21T03:50:47.052Z</time>
      </trkpt>
      <trkpt lat="45.51224" lon="3.52812">
        <ele>940</ele>
        <time>2022-06-21T03:50:48.809Z</time>
      </trkpt>
      <trkpt lat="45.51252" lon="3.52787">
        <ele>938</ele>
        <time>2022-06-21T03:50:51.506Z</time>
      </trkpt>
      <trkpt lat="45.51318" lon="3.52745">
        <ele>936</ele>
        <time>2022-06-21T03:50:59.496Z</time>
      </trkpt>
      <trkpt lat="45.51379" lon="3.52693">
        <ele>933</ele>
        <time>2022-06-21T03:51:06.289Z</time>
      </trkpt>
      <trkpt lat="45.51404" lon="3.52678">
        <ele>931</ele>
        <time>2022-06-21T03:51:08.595Z</time>
      </trkpt>
      <trkpt lat="45.51446" lon="3.52664">
        <ele>931</ele>
        <time>2022-06-21T03:51:15.731Z</time>
      </trkpt>
      <trkpt lat="45.5149" lon="3.52629">
        <ele>929</ele>
        <time>2022-06-21T03:51:20.663Z</time>
      </trkpt>
      <trkpt lat="45.51528" lon="3.52608">
        <ele>927</ele>
        <time>2022-06-21T03:51:24.325Z</time>
      </trkpt>
      <trkpt lat="45.51558" lon="3.52606">
        <ele>926</ele>
        <time>2022-06-21T03:51:27.456Z</time>
      </trkpt>
      <trkpt lat="45.5159" lon="3.52612">
        <ele>927</ele>
        <time>2022-06-21T03:51:34.912Z</time>
      </trkpt>
      <trkpt lat="45.51608" lon="3.52625">
        <ele>928</ele>
        <time>2022-06-21T03:51:40.732Z</time>
      </trkpt>
      <trkpt lat="45.51641" lon="3.52659">
        <ele>933</ele>
        <time>2022-06-21T03:52:03.261Z</time>
      </trkpt>
      <trkpt lat="45.51674" lon="3.52668">
        <ele>935</ele>
        <time>2022-06-21T03:52:13.628Z</time>
      </trkpt>
      <trkpt lat="45.51708" lon="3.52655">
        <ele>936</ele>
        <time>2022-06-21T03:52:21.501Z</time>
      </trkpt>
      <trkpt lat="45.51718" lon="3.52642">
        <ele>935</ele>
        <time>2022-06-21T03:52:22.651Z</time>
      </trkpt>
      <trkpt lat="45.51722" lon="3.52613">
        <ele>933</ele>
        <time>2022-06-21T03:52:24.412Z</time>
      </trkpt>
      <trkpt lat="45.51708" lon="3.52575">
        <ele>927</ele>
        <time>2022-06-21T03:52:26.970Z</time>
      </trkpt>
      <trkpt lat="45.51709" lon="3.5253">
        <ele>924</ele>
        <time>2022-06-21T03:52:29.652Z</time>
      </trkpt>
      <trkpt lat="45.51717" lon="3.52519">
        <ele>925</ele>
        <time>2022-06-21T03:52:34.008Z</time>
      </trkpt>
      <trkpt lat="45.51756" lon="3.52482">
        <ele>929</ele>
        <time>2022-06-21T03:52:51.651Z</time>
      </trkpt>
      <trkpt lat="45.5176" lon="3.52451">
        <ele>929</ele>
        <time>2022-06-21T03:52:55.305Z</time>
      </trkpt>
      <trkpt lat="45.51752" lon="3.52426">
        <ele>927</ele>
        <time>2022-06-21T03:52:56.943Z</time>
      </trkpt>
      <trkpt lat="45.5172" lon="3.52405">
        <ele>926</ele>
        <time>2022-06-21T03:53:00.807Z</time>
      </trkpt>
      <trkpt lat="45.51675" lon="3.52336">
        <ele>928</ele>
        <time>2022-06-21T03:53:15.930Z</time>
      </trkpt>
      <trkpt lat="45.51656" lon="3.52286">
        <ele>930</ele>
        <time>2022-06-21T03:53:27.475Z</time>
      </trkpt>
      <trkpt lat="45.51641" lon="3.52173">
        <ele>934</ele>
        <time>2022-06-21T03:53:50.735Z</time>
      </trkpt>
      <trkpt lat="45.5164" lon="3.52128">
        <ele>934</ele>
        <time>2022-06-21T03:53:55.954Z</time>
      </trkpt>
      <trkpt lat="45.51689" lon="3.52128">
        <ele>938</ele>
        <time>2022-06-21T03:54:13.838Z</time>
      </trkpt>
      <trkpt lat="45.51707" lon="3.52121">
        <ele>939</ele>
        <time>2022-06-21T03:54:19.366Z</time>
      </trkpt>
      <trkpt lat="45.51715" lon="3.52114">
        <ele>939</ele>
        <time>2022-06-21T03:54:20.918Z</time>
      </trkpt>
      <trkpt lat="45.51735" lon="3.52057">
        <ele>939</ele>
        <time>2022-06-21T03:54:28.309Z</time>
      </trkpt>
      <trkpt lat="45.51755" lon="3.52015">
        <ele>939</ele>
        <time>2022-06-21T03:54:34.196Z</time>
      </trkpt>
      <trkpt lat="45.51785" lon="3.51957">
        <ele>938</ele>
        <time>2022-06-21T03:54:40.299Z</time>
      </trkpt>
      <trkpt lat="45.51833" lon="3.51882">
        <ele>935</ele>
        <time>2022-06-21T03:54:47.107Z</time>
      </trkpt>
      <trkpt lat="45.51902" lon="3.51791">
        <ele>929</ele>
        <time>2022-06-21T03:54:54.584Z</time>
      </trkpt>
      <trkpt lat="45.51934" lon="3.51769">
        <ele>926</ele>
        <time>2022-06-21T03:54:57.603Z</time>
      </trkpt>
      <trkpt lat="45.51967" lon="3.51767">
        <ele>925</ele>
        <time>2022-06-21T03:55:01.156Z</time>
      </trkpt>
      <trkpt lat="45.52016" lon="3.51771">
        <ele>925</ele>
        <time>2022-06-21T03:55:09.277Z</time>
      </trkpt>
      <trkpt lat="45.52042" lon="3.51754">
        <ele>926</ele>
        <time>2022-06-21T03:55:16.238Z</time>
      </trkpt>
      <trkpt lat="45.5218" lon="3.51635">
        <ele>915</ele>
        <time>2022-06-21T03:55:29.947Z</time>
      </trkpt>
      <trkpt lat="45.52262" lon="3.51585">
        <ele>905</ele>
        <time>2022-06-21T03:55:37.528Z</time>
      </trkpt>
      <trkpt lat="45.52306" lon="3.51578">
        <ele>903</ele>
        <time>2022-06-21T03:55:41.647Z</time>
      </trkpt>
      <trkpt lat="45.52431" lon="3.51586">
        <ele>899</ele>
        <time>2022-06-21T03:55:54.871Z</time>
      </trkpt>
      <trkpt lat="45.52483" lon="3.51604">
        <ele>899</ele>
        <time>2022-06-21T03:56:03.724Z</time>
      </trkpt>
      <trkpt lat="45.52513" lon="3.51623">
        <ele>899</ele>
        <time>2022-06-21T03:56:09.155Z</time>
      </trkpt>
      <trkpt lat="45.52556" lon="3.51663">
        <ele>900</ele>
        <time>2022-06-21T03:56:19.492Z</time>
      </trkpt>
      <trkpt lat="45.52623" lon="3.51755">
        <ele>900</ele>
        <time>2022-06-21T03:56:34.875Z</time>
      </trkpt>
      <trkpt lat="45.5266" lon="3.51823">
        <ele>901</ele>
        <time>2022-06-21T03:56:46.642Z</time>
      </trkpt>
      <trkpt lat="45.52697" lon="3.51867">
        <ele>900</ele>
        <time>2022-06-21T03:56:52.394Z</time>
      </trkpt>
      <trkpt lat="45.52799" lon="3.51974">
        <ele>894</ele>
        <time>2022-06-21T03:57:03.940Z</time>
      </trkpt>
      <trkpt lat="45.52842" lon="3.51994">
        <ele>892</ele>
        <time>2022-06-21T03:57:08.184Z</time>
      </trkpt>
      <trkpt lat="45.5287" lon="3.52005">
        <ele>889</ele>
        <time>2022-06-21T03:57:10.653Z</time>
      </trkpt>
      <trkpt lat="45.52899" lon="3.52029">
        <ele>888</ele>
        <time>2022-06-21T03:57:14.275Z</time>
      </trkpt>
      <trkpt lat="45.52916" lon="3.52044">
        <ele>887</ele>
        <time>2022-06-21T03:57:16.057Z</time>
      </trkpt>
      <trkpt lat="45.5297" lon="3.52058">
        <ele>887</ele>
        <time>2022-06-21T03:57:25.138Z</time>
      </trkpt>
      <trkpt lat="45.53058" lon="3.52054">
        <ele>884</ele>
        <time>2022-06-21T03:57:34.245Z</time>
      </trkpt>
      <trkpt lat="45.53114" lon="3.52068">
        <ele>882</ele>
        <time>2022-06-21T03:57:40.061Z</time>
      </trkpt>
      <trkpt lat="45.53183" lon="3.52093">
        <ele>880</ele>
        <time>2022-06-21T03:57:47.897Z</time>
      </trkpt>
      <trkpt lat="45.53202" lon="3.52095">
        <ele>880</ele>
        <time>2022-06-21T03:57:51.049Z</time>
      </trkpt>
      <trkpt lat="45.53255" lon="3.52086">
        <ele>877</ele>
        <time>2022-06-21T03:57:55.564Z</time>
      </trkpt>
      <trkpt lat="45.53309" lon="3.52094">
        <ele>877</ele>
        <time>2022-06-21T03:58:04.547Z</time>
      </trkpt>
      <trkpt lat="45.53327" lon="3.52101">
        <ele>877</ele>
        <time>2022-06-21T03:58:07.634Z</time>
      </trkpt>
      <trkpt lat="45.53351" lon="3.52093">
        <ele>878</ele>
        <time>2022-06-21T03:58:14.124Z</time>
      </trkpt>
      <trkpt lat="45.53369" lon="3.5208">
        <ele>880</ele>
        <time>2022-06-21T03:58:22.732Z</time>
      </trkpt>
      <trkpt lat="45.53376" lon="3.52057">
        <ele>879</ele>
        <time>2022-06-21T03:58:24.209Z</time>
      </trkpt>
      <trkpt lat="45.53422" lon="3.51848">
        <ele>865</ele>
        <time>2022-06-21T03:58:37.256Z</time>
      </trkpt>
      <trkpt lat="45.5346" lon="3.5169">
        <ele>862</ele>
        <time>2022-06-21T03:58:50.484Z</time>
      </trkpt>
      <trkpt lat="45.5352" lon="3.51599">
        <ele>865</ele>
        <time>2022-06-21T03:59:11.596Z</time>
      </trkpt>
      <trkpt lat="45.53547" lon="3.51578">
        <ele>865</ele>
        <time>2022-06-21T03:59:16.683Z</time>
      </trkpt>
      <trkpt lat="45.53651" lon="3.51523">
        <ele>864</ele>
        <time>2022-06-21T03:59:32.025Z</time>
      </trkpt>
      <trkpt lat="45.53673" lon="3.51516">
        <ele>864</ele>
        <time>2022-06-21T03:59:35.755Z</time>
      </trkpt>
      <trkpt lat="45.5377" lon="3.515">
        <ele>861</ele>
        <time>2022-06-21T03:59:46.208Z</time>
      </trkpt>
      <trkpt lat="45.53796" lon="3.5149">
        <ele>859</ele>
        <time>2022-06-21T03:59:48.497Z</time>
      </trkpt>
      <trkpt lat="45.53821" lon="3.51466">
        <ele>857</ele>
        <time>2022-06-21T03:59:50.849Z</time>
      </trkpt>
      <trkpt lat="45.53923" lon="3.5128">
        <ele>852</ele>
        <time>2022-06-21T04:00:08.655Z</time>
      </trkpt>
      <trkpt lat="45.5394" lon="3.51251">
        <ele>851</ele>
        <time>2022-06-21T04:00:11.297Z</time>
      </trkpt>
      <trkpt lat="45.53959" lon="3.51248">
        <ele>848</ele>
        <time>2022-06-21T04:00:12.922Z</time>
      </trkpt>
      <trkpt lat="45.53978" lon="3.51257">
        <ele>844</ele>
        <time>2022-06-21T04:00:14.624Z</time>
      </trkpt>
      <trkpt lat="45.54029" lon="3.51316">
        <ele>839</ele>
        <time>2022-06-21T04:00:20.205Z</time>
      </trkpt>
      <trkpt lat="45.54052" lon="3.51328">
        <ele>838</ele>
        <time>2022-06-21T04:00:22.577Z</time>
      </trkpt>
      <trkpt lat="45.5411" lon="3.51303">
        <ele>834</ele>
        <time>2022-06-21T04:00:27.319Z</time>
      </trkpt>
      <trkpt lat="45.54135" lon="3.51306">
        <ele>833</ele>
        <time>2022-06-21T04:00:29.771Z</time>
      </trkpt>
      <trkpt lat="45.54238" lon="3.51351">
        <ele>824</ele>
        <time>2022-06-21T04:00:38.929Z</time>
      </trkpt>
      <trkpt lat="45.54263" lon="3.51347">
        <ele>822</ele>
        <time>2022-06-21T04:00:41.068Z</time>
      </trkpt>
      <trkpt lat="45.54359" lon="3.51322">
        <ele>816</ele>
        <time>2022-06-21T04:00:48.979Z</time>
      </trkpt>
      <trkpt lat="45.54479" lon="3.51383">
        <ele>808</ele>
        <time>2022-06-21T04:00:59.199Z</time>
      </trkpt>
      <trkpt lat="45.54533" lon="3.51394">
        <ele>807</ele>
        <time>2022-06-21T04:01:05.904Z</time>
      </trkpt>
      <trkpt lat="45.54538" lon="3.51395">
        <ele>807</ele>
        <time>2022-06-21T04:01:06.740Z</time>
      </trkpt>
      <trkpt lat="45.54606" lon="3.51408">
        <ele>809</ele>
        <time>2022-06-21T04:01:22.227Z</time>
      </trkpt>
      <trkpt lat="45.5463" lon="3.5141">
        <ele>810</ele>
        <time>2022-06-21T04:01:28.653Z</time>
      </trkpt>
      <trkpt lat="45.54694" lon="3.51368">
        <ele>811</ele>
        <time>2022-06-21T04:01:42.049Z</time>
      </trkpt>
      <trkpt lat="45.5473" lon="3.51366">
        <ele>813</ele>
        <time>2022-06-21T04:01:52.863Z</time>
      </trkpt>
      <trkpt lat="45.54786" lon="3.51387">
        <ele>817</ele>
        <time>2022-06-21T04:02:12.009Z</time>
      </trkpt>
      <trkpt lat="45.54807" lon="3.51408">
        <ele>819</ele>
        <time>2022-06-21T04:02:21.094Z</time>
      </trkpt>
      <trkpt lat="45.54823" lon="3.51433">
        <ele>822</ele>
        <time>2022-06-21T04:02:34.849Z</time>
      </trkpt>
      <trkpt lat="45.54792" lon="3.51471">
        <ele>823</ele>
        <time>2022-06-21T04:02:43.563Z</time>
      </trkpt>
      <trkpt lat="45.54764" lon="3.51544">
        <ele>827</ele>
        <time>2022-06-21T04:03:02.771Z</time>
      </trkpt>
      <trkpt lat="45.54755" lon="3.51564">
        <ele>827</ele>
        <time>2022-06-21T04:03:05.525Z</time>
      </trkpt>
      <trkpt lat="45.54705" lon="3.51684">
        <ele>831</ele>
        <time>2022-06-21T04:03:31.400Z</time>
      </trkpt>
      <trkpt lat="45.54682" lon="3.51749">
        <ele>831</ele>
        <time>2022-06-21T04:03:39.839Z</time>
      </trkpt>
      <trkpt lat="45.5467" lon="3.51788">
        <ele>832</ele>
        <time>2022-06-21T04:03:46.962Z</time>
      </trkpt>
      <trkpt lat="45.54666" lon="3.51803">
        <ele>832</ele>
        <time>2022-06-21T04:03:48.822Z</time>
      </trkpt>
      <trkpt lat="45.54663" lon="3.51837">
        <ele>833</ele>
        <time>2022-06-21T04:03:55.244Z</time>
      </trkpt>
      <trkpt lat="45.54664" lon="3.51871">
        <ele>833</ele>
        <time>2022-06-21T04:03:59.188Z</time>
      </trkpt>
      <trkpt lat="45.54666" lon="3.51898">
        <ele>834</ele>
        <time>2022-06-21T04:04:04.784Z</time>
      </trkpt>
      <trkpt lat="45.54669" lon="3.51918">
        <ele>834</ele>
        <time>2022-06-21T04:04:07.154Z</time>
      </trkpt>
      <trkpt lat="45.54677" lon="3.51936">
        <ele>835</ele>
        <time>2022-06-21T04:04:12.014Z</time>
      </trkpt>
      <trkpt lat="45.54685" lon="3.51951">
        <ele>835</ele>
        <time>2022-06-21T04:04:14.199Z</time>
      </trkpt>
      <trkpt lat="45.54696" lon="3.51963">
        <ele>835</ele>
        <time>2022-06-21T04:04:16.489Z</time>
      </trkpt>
      <trkpt lat="45.54721" lon="3.51984">
        <ele>837</ele>
        <time>2022-06-21T04:04:26.071Z</time>
      </trkpt>
      <trkpt lat="45.54755" lon="3.52002">
        <ele>838</ele>
        <time>2022-06-21T04:04:34.099Z</time>
      </trkpt>
      <trkpt lat="45.54802" lon="3.52009">
        <ele>843</ele>
        <time>2022-06-21T04:04:55.652Z</time>
      </trkpt>
      <trkpt lat="45.54814" lon="3.52019">
        <ele>843</ele>
        <time>2022-06-21T04:04:57.950Z</time>
      </trkpt>
      <trkpt lat="45.54818" lon="3.52029">
        <ele>843</ele>
        <time>2022-06-21T04:04:59.285Z</time>
      </trkpt>
      <trkpt lat="45.5482" lon="3.5204">
        <ele>842</ele>
        <time>2022-06-21T04:04:59.962Z</time>
      </trkpt>
      <trkpt lat="45.54818" lon="3.52079">
        <ele>840</ele>
        <time>2022-06-21T04:05:02.290Z</time>
      </trkpt>
      <trkpt lat="45.54819" lon="3.521">
        <ele>838</ele>
        <time>2022-06-21T04:05:03.543Z</time>
      </trkpt>
      <trkpt lat="45.54822" lon="3.52115">
        <ele>838</ele>
        <time>2022-06-21T04:05:05.351Z</time>
      </trkpt>
      <trkpt lat="45.54828" lon="3.5213">
        <ele>837</ele>
        <time>2022-06-21T04:05:06.379Z</time>
      </trkpt>
      <trkpt lat="45.54842" lon="3.52156">
        <ele>835</ele>
        <time>2022-06-21T04:05:08.332Z</time>
      </trkpt>
      <trkpt lat="45.54845" lon="3.52167">
        <ele>835</ele>
        <time>2022-06-21T04:05:09.700Z</time>
      </trkpt>
      <trkpt lat="45.54845" lon="3.52176">
        <ele>835</ele>
        <time>2022-06-21T04:05:10.743Z</time>
      </trkpt>
      <trkpt lat="45.54843" lon="3.52192">
        <ele>837</ele>
        <time>2022-06-21T04:05:18.007Z</time>
      </trkpt>
      <trkpt lat="45.54837" lon="3.52202">
        <ele>838</ele>
        <time>2022-06-21T04:05:22.330Z</time>
      </trkpt>
      <trkpt lat="45.54833" lon="3.52208">
        <ele>838</ele>
        <time>2022-06-21T04:05:23.290Z</time>
      </trkpt>
      <trkpt lat="45.54827" lon="3.52217">
        <ele>840</ele>
        <time>2022-06-21T04:05:28.844Z</time>
      </trkpt>
      <trkpt lat="45.54813" lon="3.52228">
        <ele>842</ele>
        <time>2022-06-21T04:05:37.953Z</time>
      </trkpt>
      <trkpt lat="45.548" lon="3.5223">
        <ele>844</ele>
        <time>2022-06-21T04:05:46.298Z</time>
      </trkpt>
      <trkpt lat="45.54793" lon="3.52227">
        <ele>844</ele>
        <time>2022-06-21T04:05:47.507Z</time>
      </trkpt>
      <trkpt lat="45.54772" lon="3.52198">
        <ele>842</ele>
        <time>2022-06-21T04:05:49.991Z</time>
      </trkpt>
      <trkpt lat="45.54749" lon="3.52175">
        <ele>839</ele>
        <time>2022-06-21T04:05:52.378Z</time>
      </trkpt>
      <trkpt lat="45.5473" lon="3.52167">
        <ele>839</ele>
        <time>2022-06-21T04:05:55.656Z</time>
      </trkpt>
      <trkpt lat="45.5471" lon="3.52163">
        <ele>841</ele>
        <time>2022-06-21T04:06:04.264Z</time>
      </trkpt>
      <trkpt lat="45.5465" lon="3.52158">
        <ele>843</ele>
        <time>2022-06-21T04:06:18.569Z</time>
      </trkpt>
      <trkpt lat="45.54635" lon="3.52162">
        <ele>843</ele>
        <time>2022-06-21T04:06:21.094Z</time>
      </trkpt>
      <trkpt lat="45.54623" lon="3.5217">
        <ele>843</ele>
        <time>2022-06-21T04:06:23.285Z</time>
      </trkpt>
      <trkpt lat="45.54615" lon="3.5218">
        <ele>844</ele>
        <time>2022-06-21T04:06:27.609Z</time>
      </trkpt>
      <trkpt lat="45.54609" lon="3.52192">
        <ele>846</ele>
        <time>2022-06-21T04:06:34.199Z</time>
      </trkpt>
      <trkpt lat="45.54603" lon="3.52211">
        <ele>848</ele>
        <time>2022-06-21T04:06:43.515Z</time>
      </trkpt>
      <trkpt lat="45.54592" lon="3.52277">
        <ele>855</ele>
        <time>2022-06-21T04:07:13.838Z</time>
      </trkpt>
      <trkpt lat="45.5458" lon="3.52322">
        <ele>858</ele>
        <time>2022-06-21T04:07:26.939Z</time>
      </trkpt>
      <trkpt lat="45.54559" lon="3.52375">
        <ele>860</ele>
        <time>2022-06-21T04:07:39.032Z</time>
      </trkpt>
      <trkpt lat="45.54531" lon="3.5243">
        <ele>861</ele>
        <time>2022-06-21T04:07:48.788Z</time>
      </trkpt>
      <trkpt lat="45.54525" lon="3.52446">
        <ele>861</ele>
        <time>2022-06-21T04:07:50.891Z</time>
      </trkpt>
      <trkpt lat="45.5452" lon="3.52481">
        <ele>862</ele>
        <time>2022-06-21T04:07:57.421Z</time>
      </trkpt>
      <trkpt lat="45.54517" lon="3.52526">
        <ele>863</ele>
        <time>2022-06-21T04:08:04.792Z</time>
      </trkpt>
      <trkpt lat="45.54519" lon="3.52561">
        <ele>865</ele>
        <time>2022-06-21T04:08:13.745Z</time>
      </trkpt>
      <trkpt lat="45.54518" lon="3.52581">
        <ele>866</ele>
        <time>2022-06-21T04:08:18.463Z</time>
      </trkpt>
      <trkpt lat="45.54514" lon="3.52596">
        <ele>867</ele>
        <time>2022-06-21T04:08:22.830Z</time>
      </trkpt>
      <trkpt lat="45.54499" lon="3.52612">
        <ele>867</ele>
        <time>2022-06-21T04:08:25.928Z</time>
      </trkpt>
      <trkpt lat="45.54492" lon="3.52615">
        <ele>867</ele>
        <time>2022-06-21T04:08:27.137Z</time>
      </trkpt>
      <trkpt lat="45.54453" lon="3.52617">
        <ele>865</ele>
        <time>2022-06-21T04:08:30.579Z</time>
      </trkpt>
      <trkpt lat="45.54439" lon="3.52622">
        <ele>864</ele>
        <time>2022-06-21T04:08:31.806Z</time>
      </trkpt>
      <trkpt lat="45.54424" lon="3.52633">
        <ele>864</ele>
        <time>2022-06-21T04:08:34.596Z</time>
      </trkpt>
      <trkpt lat="45.54414" lon="3.52645">
        <ele>865</ele>
        <time>2022-06-21T04:08:39.171Z</time>
      </trkpt>
      <trkpt lat="45.5436" lon="3.52767">
        <ele>876</ele>
        <time>2022-06-21T04:09:26.756Z</time>
      </trkpt>
      <trkpt lat="45.54347" lon="3.5281">
        <ele>878</ele>
        <time>2022-06-21T04:09:36.982Z</time>
      </trkpt>
      <trkpt lat="45.54327" lon="3.52889">
        <ele>882</ele>
        <time>2022-06-21T04:09:56.277Z</time>
      </trkpt>
      <trkpt lat="45.54312" lon="3.52934">
        <ele>883</ele>
        <time>2022-06-21T04:10:04.107Z</time>
      </trkpt>
      <trkpt lat="45.5431" lon="3.52949">
        <ele>884</ele>
        <time>2022-06-21T04:10:08.435Z</time>
      </trkpt>
      <trkpt lat="45.54311" lon="3.52962">
        <ele>885</ele>
        <time>2022-06-21T04:10:12.763Z</time>
      </trkpt>
      <trkpt lat="45.54316" lon="3.52977">
        <ele>886</ele>
        <time>2022-06-21T04:10:17.167Z</time>
      </trkpt>
      <trkpt lat="45.54327" lon="3.52996">
        <ele>888</ele>
        <time>2022-06-21T04:10:25.952Z</time>
      </trkpt>
      <trkpt lat="45.54363" lon="3.53031">
        <ele>890</ele>
        <time>2022-06-21T04:10:38.224Z</time>
      </trkpt>
      <trkpt lat="45.54371" lon="3.53043">
        <ele>890</ele>
        <time>2022-06-21T04:10:40.144Z</time>
      </trkpt>
      <trkpt lat="45.54409" lon="3.53131">
        <ele>890</ele>
        <time>2022-06-21T04:10:52.124Z</time>
      </trkpt>
      <trkpt lat="45.54417" lon="3.53162">
        <ele>890</ele>
        <time>2022-06-21T04:10:55.953Z</time>
      </trkpt>
      <trkpt lat="45.5442" lon="3.53177">
        <ele>890</ele>
        <time>2022-06-21T04:10:57.761Z</time>
      </trkpt>
      <trkpt lat="45.54428" lon="3.53253">
        <ele>892</ele>
        <time>2022-06-21T04:11:11.262Z</time>
      </trkpt>
      <trkpt lat="45.54431" lon="3.53266">
        <ele>892</ele>
        <time>2022-06-21T04:11:12.848Z</time>
      </trkpt>
      <trkpt lat="45.54461" lon="3.53323">
        <ele>893</ele>
        <time>2022-06-21T04:11:22.966Z</time>
      </trkpt>
      <trkpt lat="45.54473" lon="3.53349">
        <ele>893</ele>
        <time>2022-06-21T04:11:26.575Z</time>
      </trkpt>
      <trkpt lat="45.5449" lon="3.53416">
        <ele>894</ele>
        <time>2022-06-21T04:11:36.689Z</time>
      </trkpt>
      <trkpt lat="45.54531" lon="3.53537">
        <ele>898</ele>
        <time>2022-06-21T04:12:02.190Z</time>
      </trkpt>
      <trkpt lat="45.5454" lon="3.53549">
        <ele>899</ele>
        <time>2022-06-21T04:12:06.669Z</time>
      </trkpt>
      <trkpt lat="45.54564" lon="3.53565">
        <ele>900</ele>
        <time>2022-06-21T04:12:13.368Z</time>
      </trkpt>
      <trkpt lat="45.54637" lon="3.53576">
        <ele>903</ele>
        <time>2022-06-21T04:12:32.781Z</time>
      </trkpt>
      <trkpt lat="45.5465" lon="3.53583">
        <ele>904</ele>
        <time>2022-06-21T04:12:37.477Z</time>
      </trkpt>
      <trkpt lat="45.54672" lon="3.53606">
        <ele>906</ele>
        <time>2022-06-21T04:12:46.790Z</time>
      </trkpt>
      <trkpt lat="45.54687" lon="3.53636">
        <ele>907</ele>
        <time>2022-06-21T04:12:53.411Z</time>
      </trkpt>
      <trkpt lat="45.54695" lon="3.53667">
        <ele>908</ele>
        <time>2022-06-21T04:12:59.748Z</time>
      </trkpt>
      <trkpt lat="45.54695" lon="3.53683">
        <ele>909</ele>
        <time>2022-06-21T04:13:04.112Z</time>
      </trkpt>
      <trkpt lat="45.54686" lon="3.53714">
        <ele>909</ele>
        <time>2022-06-21T04:13:08.001Z</time>
      </trkpt>
      <trkpt lat="45.54641" lon="3.53783">
        <ele>912</ele>
        <time>2022-06-21T04:13:26.549Z</time>
      </trkpt>
      <trkpt lat="45.54611" lon="3.5382">
        <ele>914</ele>
        <time>2022-06-21T04:13:38.053Z</time>
      </trkpt>
      <trkpt lat="45.54593" lon="3.53827">
        <ele>915</ele>
        <time>2022-06-21T04:13:43.580Z</time>
      </trkpt>
      <trkpt lat="45.54515" lon="3.53839">
        <ele>919</ele>
        <time>2022-06-21T04:14:06.426Z</time>
      </trkpt>
      <trkpt lat="45.54461" lon="3.53863">
        <ele>921</ele>
        <time>2022-06-21T04:14:20.267Z</time>
      </trkpt>
      <trkpt lat="45.544" lon="3.53909">
        <ele>926</ele>
        <time>2022-06-21T04:14:43.673Z</time>
      </trkpt>
      <trkpt lat="45.54367" lon="3.53955">
        <ele>927</ele>
        <time>2022-06-21T04:14:53.195Z</time>
      </trkpt>
      <trkpt lat="45.54348" lon="3.54002">
        <ele>929</ele>
        <time>2022-06-21T04:15:04.383Z</time>
      </trkpt>
      <trkpt lat="45.54346" lon="3.54014">
        <ele>929</ele>
        <time>2022-06-21T04:15:05.813Z</time>
      </trkpt>
      <trkpt lat="45.54348" lon="3.54037">
        <ele>930</ele>
        <time>2022-06-21T04:15:10.895Z</time>
      </trkpt>
      <trkpt lat="45.54369" lon="3.54071">
        <ele>932</ele>
        <time>2022-06-21T04:15:20.936Z</time>
      </trkpt>
      <trkpt lat="45.54388" lon="3.54106">
        <ele>934</ele>
        <time>2022-06-21T04:15:30.850Z</time>
      </trkpt>
      <trkpt lat="45.544" lon="3.54139">
        <ele>934</ele>
        <time>2022-06-21T04:15:35.159Z</time>
      </trkpt>
      <trkpt lat="45.54407" lon="3.54184">
        <ele>936</ele>
        <time>2022-06-21T04:15:45.292Z</time>
      </trkpt>
      <trkpt lat="45.54406" lon="3.54222">
        <ele>937</ele>
        <time>2022-06-21T04:15:52.009Z</time>
      </trkpt>
      <trkpt lat="45.54396" lon="3.54259">
        <ele>939</ele>
        <time>2022-06-21T04:16:01.399Z</time>
      </trkpt>
      <trkpt lat="45.54378" lon="3.543">
        <ele>942</ele>
        <time>2022-06-21T04:16:14.514Z</time>
      </trkpt>
      <trkpt lat="45.54355" lon="3.54338">
        <ele>945</ele>
        <time>2022-06-21T04:16:27.752Z</time>
      </trkpt>
      <trkpt lat="45.54312" lon="3.54388">
        <ele>948</ele>
        <time>2022-06-21T04:16:44.239Z</time>
      </trkpt>
      <trkpt lat="45.54289" lon="3.54426">
        <ele>951</ele>
        <time>2022-06-21T04:16:57.476Z</time>
      </trkpt>
      <trkpt lat="45.54271" lon="3.54461">
        <ele>955</ele>
        <time>2022-06-21T04:17:16.365Z</time>
      </trkpt>
      <trkpt lat="45.54261" lon="3.54495">
        <ele>958</ele>
        <time>2022-06-21T04:17:29.554Z</time>
      </trkpt>
      <trkpt lat="45.5426" lon="3.54513">
        <ele>959</ele>
        <time>2022-06-21T04:17:34.074Z</time>
      </trkpt>
      <trkpt lat="45.54263" lon="3.5454">
        <ele>960</ele>
        <time>2022-06-21T04:17:39.695Z</time>
      </trkpt>
      <trkpt lat="45.54285" lon="3.5458">
        <ele>962</ele>
        <time>2022-06-21T04:17:50.434Z</time>
      </trkpt>
      <trkpt lat="45.5431" lon="3.54635">
        <ele>966</ele>
        <time>2022-06-21T04:18:07.987Z</time>
      </trkpt>
      <trkpt lat="45.54318" lon="3.54674">
        <ele>969</ele>
        <time>2022-06-21T04:18:20.915Z</time>
      </trkpt>
      <trkpt lat="45.54317" lon="3.54714">
        <ele>971</ele>
        <time>2022-06-21T04:18:30.344Z</time>
      </trkpt>
      <trkpt lat="45.54311" lon="3.54752">
        <ele>972</ele>
        <time>2022-06-21T04:18:37.139Z</time>
      </trkpt>
      <trkpt lat="45.5429" lon="3.54798">
        <ele>973</ele>
        <time>2022-06-21T04:18:45.492Z</time>
      </trkpt>
      <trkpt lat="45.54287" lon="3.54824">
        <ele>974</ele>
        <time>2022-06-21T04:18:50.982Z</time>
      </trkpt>
      <trkpt lat="45.54288" lon="3.5489">
        <ele>976</ele>
        <time>2022-06-21T04:19:03.652Z</time>
      </trkpt>
      <trkpt lat="45.54286" lon="3.54906">
        <ele>976</ele>
        <time>2022-06-21T04:19:05.536Z</time>
      </trkpt>
      <trkpt lat="45.5428" lon="3.54923">
        <ele>976</ele>
        <time>2022-06-21T04:19:07.742Z</time>
      </trkpt>
      <trkpt lat="45.54271" lon="3.54933">
        <ele>976</ele>
        <time>2022-06-21T04:19:09.629Z</time>
      </trkpt>
      <trkpt lat="45.54225" lon="3.54961">
        <ele>978</ele>
        <time>2022-06-21T04:19:22.687Z</time>
      </trkpt>
      <trkpt lat="45.54211" lon="3.54984">
        <ele>982</ele>
        <time>2022-06-21T04:19:36.307Z</time>
      </trkpt>
      <trkpt lat="45.54208" lon="3.55011">
        <ele>986</ele>
        <time>2022-06-21T04:19:48.527Z</time>
      </trkpt>
      <trkpt lat="45.54215" lon="3.55038">
        <ele>990</ele>
        <time>2022-06-21T04:20:01.396Z</time>
      </trkpt>
      <trkpt lat="45.54228" lon="3.5505">
        <ele>991</ele>
        <time>2022-06-21T04:20:06.348Z</time>
      </trkpt>
      <trkpt lat="45.54242" lon="3.55059">
        <ele>992</ele>
        <time>2022-06-21T04:20:11.279Z</time>
      </trkpt>
      <trkpt lat="45.54261" lon="3.55061">
        <ele>992</ele>
        <time>2022-06-21T04:20:14.432Z</time>
      </trkpt>
      <trkpt lat="45.54503" lon="3.54904">
        <ele>1001</ele>
        <time>2022-06-21T04:21:18.185Z</time>
      </trkpt>
      <trkpt lat="45.54561" lon="3.54901">
        <ele>1006</ele>
        <time>2022-06-21T04:21:40.188Z</time>
      </trkpt>
      <trkpt lat="45.54563" lon="3.5491">
        <ele>1007</ele>
        <time>2022-06-21T04:21:44.409Z</time>
      </trkpt>
      <trkpt lat="45.54572" lon="3.54927">
        <ele>1009</ele>
        <time>2022-06-21T04:21:53.934Z</time>
      </trkpt>
      <trkpt lat="45.54577" lon="3.54945">
        <ele>1011</ele>
        <time>2022-06-21T04:22:02.589Z</time>
      </trkpt>
      <trkpt lat="45.54574" lon="3.54965">
        <ele>1012</ele>
        <time>2022-06-21T04:22:07.351Z</time>
      </trkpt>
      <trkpt lat="45.54543" lon="3.55081">
        <ele>1018</ele>
        <time>2022-06-21T04:22:36.086Z</time>
      </trkpt>
      <trkpt lat="45.54517" lon="3.55202">
        <ele>1032</ele>
        <time>2022-06-21T04:23:32.657Z</time>
      </trkpt>
      <trkpt lat="45.54507" lon="3.55229">
        <ele>1035</ele>
        <time>2022-06-21T04:23:46.309Z</time>
      </trkpt>
      <trkpt lat="45.54486" lon="3.5525">
        <ele>1037</ele>
        <time>2022-06-21T04:23:55.394Z</time>
      </trkpt>
      <trkpt lat="45.54473" lon="3.55273">
        <ele>1038</ele>
        <time>2022-06-21T04:24:01.317Z</time>
      </trkpt>
      <trkpt lat="45.5446" lon="3.55302">
        <ele>1041</ele>
        <time>2022-06-21T04:24:14.931Z</time>
      </trkpt>
      <trkpt lat="45.5443" lon="3.55325">
        <ele>1042</ele>
        <time>2022-06-21T04:24:22.638Z</time>
      </trkpt>
      <trkpt lat="45.54412" lon="3.55342">
        <ele>1043</ele>
        <time>2022-06-21T04:24:28.736Z</time>
      </trkpt>
      <trkpt lat="45.54351" lon="3.55413">
        <ele>1053</ele>
        <time>2022-06-21T04:25:14.729Z</time>
      </trkpt>
      <trkpt lat="45.54244" lon="3.55502">
        <ele>1053</ele>
        <time>2022-06-21T04:25:35.218Z</time>
      </trkpt>
      <trkpt lat="45.54213" lon="3.55531">
        <ele>1058</ele>
        <time>2022-06-21T04:25:58.871Z</time>
      </trkpt>
      <trkpt lat="45.54165" lon="3.55564">
        <ele>1062</ele>
        <time>2022-06-21T04:26:17.315Z</time>
      </trkpt>
      <trkpt lat="45.54143" lon="3.55619">
        <ele>1067</ele>
        <time>2022-06-21T04:26:39.102Z</time>
      </trkpt>
      <trkpt lat="45.5411" lon="3.55645">
        <ele>1067</ele>
        <time>2022-06-21T04:26:45.338Z</time>
      </trkpt>
      <trkpt lat="45.54106" lon="3.55656">
        <ele>1068</ele>
        <time>2022-06-21T04:26:49.723Z</time>
      </trkpt>
      <trkpt lat="45.54105" lon="3.55668">
        <ele>1069</ele>
        <time>2022-06-21T04:26:54.147Z</time>
      </trkpt>
      <trkpt lat="45.54108" lon="3.55706">
        <ele>1072</ele>
        <time>2022-06-21T04:27:07.199Z</time>
      </trkpt>
      <trkpt lat="45.54106" lon="3.55742">
        <ele>1074</ele>
        <time>2022-06-21T04:27:16.238Z</time>
      </trkpt>
      <trkpt lat="45.5409" lon="3.55934">
        <ele>1075</ele>
        <time>2022-06-21T04:27:40.271Z</time>
      </trkpt>
      <trkpt lat="45.54096" lon="3.55976">
        <ele>1075</ele>
        <time>2022-06-21T04:27:45.239Z</time>
      </trkpt>
      <trkpt lat="45.54121" lon="3.56099">
        <ele>1078</ele>
        <time>2022-06-21T04:28:06.636Z</time>
      </trkpt>
      <trkpt lat="45.54148" lon="3.56221">
        <ele>1080</ele>
        <time>2022-06-21T04:28:25.273Z</time>
      </trkpt>
      <trkpt lat="45.54149" lon="3.56246">
        <ele>1079</ele>
        <time>2022-06-21T04:28:26.747Z</time>
      </trkpt>
      <trkpt lat="45.54139" lon="3.56293">
        <ele>1079</ele>
        <time>2022-06-21T04:28:32.440Z</time>
      </trkpt>
      <trkpt lat="45.54123" lon="3.56341">
        <ele>1080</ele>
        <time>2022-06-21T04:28:40.610Z</time>
      </trkpt>
      <trkpt lat="45.54101" lon="3.56388">
        <ele>1081</ele>
        <time>2022-06-21T04:28:49.133Z</time>
      </trkpt>
      <trkpt lat="45.54073" lon="3.56415">
        <ele>1082</ele>
        <time>2022-06-21T04:28:56.803Z</time>
      </trkpt>
      <trkpt lat="45.54022" lon="3.56444">
        <ele>1085</ele>
        <time>2022-06-21T04:29:13.184Z</time>
      </trkpt>
      <trkpt lat="45.5386" lon="3.56516">
        <ele>1089</ele>
        <time>2022-06-21T04:29:48.990Z</time>
      </trkpt>
      <trkpt lat="45.53824" lon="3.56517">
        <ele>1089</ele>
        <time>2022-06-21T04:29:54.948Z</time>
      </trkpt>
      <trkpt lat="45.5374" lon="3.56511">
        <ele>1090</ele>
        <time>2022-06-21T04:30:10.565Z</time>
      </trkpt>
      <trkpt lat="45.53695" lon="3.56509">
        <ele>1089</ele>
        <time>2022-06-21T04:30:15.853Z</time>
      </trkpt>
      <trkpt lat="45.53679" lon="3.56515">
        <ele>1089</ele>
        <time>2022-06-21T04:30:18.590Z</time>
      </trkpt>
      <trkpt lat="45.5363" lon="3.56548">
        <ele>1087</ele>
        <time>2022-06-21T04:30:24.039Z</time>
      </trkpt>
      <trkpt lat="45.53577" lon="3.56589">
        <ele>1085</ele>
        <time>2022-06-21T04:30:30.331Z</time>
      </trkpt>
      <trkpt lat="45.53529" lon="3.56621">
        <ele>1083</ele>
        <time>2022-06-21T04:30:35.615Z</time>
      </trkpt>
      <trkpt lat="45.53469" lon="3.56657">
        <ele>1081</ele>
        <time>2022-06-21T04:30:42.582Z</time>
      </trkpt>
      <trkpt lat="45.53402" lon="3.5671">
        <ele>1084</ele>
        <time>2022-06-21T04:31:02.347Z</time>
      </trkpt>
      <trkpt lat="45.53347" lon="3.56747">
        <ele>1086</ele>
        <time>2022-06-21T04:31:16.745Z</time>
      </trkpt>
      <trkpt lat="45.53277" lon="3.56776">
        <ele>1089</ele>
        <time>2022-06-21T04:31:36.104Z</time>
      </trkpt>
      <trkpt lat="45.53097" lon="3.56841">
        <ele>1088</ele>
        <time>2022-06-21T04:32:04.483Z</time>
      </trkpt>
      <trkpt lat="45.53053" lon="3.5686">
        <ele>1087</ele>
        <time>2022-06-21T04:32:09.911Z</time>
      </trkpt>
      <trkpt lat="45.52993" lon="3.56889">
        <ele>1085</ele>
        <time>2022-06-21T04:32:16.633Z</time>
      </trkpt>
      <trkpt lat="45.52947" lon="3.56915">
        <ele>1083</ele>
        <time>2022-06-21T04:32:21.443Z</time>
      </trkpt>
      <trkpt lat="45.52878" lon="3.56944">
        <ele>1079</ele>
        <time>2022-06-21T04:32:27.558Z</time>
      </trkpt>
      <trkpt lat="45.52845" lon="3.56972">
        <ele>1076</ele>
        <time>2022-06-21T04:32:30.822Z</time>
      </trkpt>
      <trkpt lat="45.52804" lon="3.57021">
        <ele>1071</ele>
        <time>2022-06-21T04:32:35.368Z</time>
      </trkpt>
      <trkpt lat="45.52798" lon="3.57026">
        <ele>1071</ele>
        <time>2022-06-21T04:32:36.518Z</time>
      </trkpt>
      <trkpt lat="45.52781" lon="3.57036">
        <ele>1070</ele>
        <time>2022-06-21T04:32:38.097Z</time>
      </trkpt>
      <trkpt lat="45.52726" lon="3.57059">
        <ele>1068</ele>
        <time>2022-06-21T04:32:43.977Z</time>
      </trkpt>
      <trkpt lat="45.52684" lon="3.57082">
        <ele>1066</ele>
        <time>2022-06-21T04:32:48.189Z</time>
      </trkpt>
      <trkpt lat="45.52678" lon="3.57084">
        <ele>1065</ele>
        <time>2022-06-21T04:32:48.713Z</time>
      </trkpt>
      <trkpt lat="45.52666" lon="3.57081">
        <ele>1065</ele>
        <time>2022-06-21T04:32:50.729Z</time>
      </trkpt>
      <trkpt lat="45.52654" lon="3.57075">
        <ele>1067</ele>
        <time>2022-06-21T04:32:58.844Z</time>
      </trkpt>
      <trkpt lat="45.52604" lon="3.57032">
        <ele>1075</ele>
        <time>2022-06-21T04:33:36.098Z</time>
      </trkpt>
      <trkpt lat="45.52598" lon="3.57031">
        <ele>1076</ele>
        <time>2022-06-21T04:33:39.954Z</time>
      </trkpt>
      <trkpt lat="45.52584" lon="3.57038">
        <ele>1075</ele>
        <time>2022-06-21T04:33:41.215Z</time>
      </trkpt>
      <trkpt lat="45.52525" lon="3.57121">
        <ele>1067</ele>
        <time>2022-06-21T04:33:48.258Z</time>
      </trkpt>
      <trkpt lat="45.52467" lon="3.57155">
        <ele>1068</ele>
        <time>2022-06-21T04:34:00.407Z</time>
      </trkpt>
      <trkpt lat="45.52269" lon="3.57344">
        <ele>1066</ele>
        <time>2022-06-21T04:34:33.636Z</time>
      </trkpt>
      <trkpt lat="45.5225" lon="3.57356">
        <ele>1067</ele>
        <time>2022-06-21T04:34:39.574Z</time>
      </trkpt>
      <trkpt lat="45.52211" lon="3.57366">
        <ele>1064</ele>
        <time>2022-06-21T04:34:42.943Z</time>
      </trkpt>
      <trkpt lat="45.52155" lon="3.57376">
        <ele>1061</ele>
        <time>2022-06-21T04:34:47.840Z</time>
      </trkpt>
      <trkpt lat="45.52114" lon="3.57398">
        <ele>1058</ele>
        <time>2022-06-21T04:34:51.564Z</time>
      </trkpt>
      <trkpt lat="45.51961" lon="3.57535">
        <ele>1048</ele>
        <time>2022-06-21T04:35:06.950Z</time>
      </trkpt>
      <trkpt lat="45.5195" lon="3.57534">
        <ele>1048</ele>
        <time>2022-06-21T04:35:08.774Z</time>
      </trkpt>
      <trkpt lat="45.51929" lon="3.57604">
        <ele>1047</ele>
        <time>2022-06-21T04:35:15.300Z</time>
      </trkpt>
      <trkpt lat="45.51927" lon="3.57624">
        <ele>1047</ele>
        <time>2022-06-21T04:35:17.642Z</time>
      </trkpt>
      <trkpt lat="45.51928" lon="3.57777">
        <ele>1045</ele>
        <time>2022-06-21T04:35:30.769Z</time>
      </trkpt>
      <trkpt lat="45.51946" lon="3.57872">
        <ele>1042</ele>
        <time>2022-06-21T04:35:37.284Z</time>
      </trkpt>
      <trkpt lat="45.51956" lon="3.57971">
        <ele>1036</ele>
        <time>2022-06-21T04:35:43.242Z</time>
      </trkpt>
      <trkpt lat="45.51966" lon="3.58022">
        <ele>1033</ele>
        <time>2022-06-21T04:35:46.397Z</time>
      </trkpt>
      <trkpt lat="45.51981" lon="3.58088">
        <ele>1033</ele>
        <time>2022-06-21T04:35:54.441Z</time>
      </trkpt>
      <trkpt lat="45.51993" lon="3.58125">
        <ele>1032</ele>
        <time>2022-06-21T04:35:57.369Z</time>
      </trkpt>
      <trkpt lat="45.52049" lon="3.58193">
        <ele>1025</ele>
        <time>2022-06-21T04:36:03.620Z</time>
      </trkpt>
      <trkpt lat="45.52059" lon="3.58221">
        <ele>1023</ele>
        <time>2022-06-21T04:36:05.492Z</time>
      </trkpt>
      <trkpt lat="45.52059" lon="3.58248">
        <ele>1022</ele>
        <time>2022-06-21T04:36:07.138Z</time>
      </trkpt>
      <trkpt lat="45.52048" lon="3.58268">
        <ele>1021</ele>
        <time>2022-06-21T04:36:08.646Z</time>
      </trkpt>
      <trkpt lat="45.52017" lon="3.58308">
        <ele>1021</ele>
        <time>2022-06-21T04:36:15.560Z</time>
      </trkpt>
      <trkpt lat="45.52002" lon="3.58337">
        <ele>1020</ele>
        <time>2022-06-21T04:36:18.035Z</time>
      </trkpt>
      <trkpt lat="45.51969" lon="3.58417">
        <ele>1016</ele>
        <time>2022-06-21T04:36:23.308Z</time>
      </trkpt>
      <trkpt lat="45.51935" lon="3.58488">
        <ele>1014</ele>
        <time>2022-06-21T04:36:29.597Z</time>
      </trkpt>
      <trkpt lat="45.51894" lon="3.58593">
        <ele>1012</ele>
        <time>2022-06-21T04:36:39.320Z</time>
      </trkpt>
      <trkpt lat="45.51829" lon="3.58701">
        <ele>1011</ele>
        <time>2022-06-21T04:36:52.935Z</time>
      </trkpt>
      <trkpt lat="45.51824" lon="3.5872">
        <ele>1011</ele>
        <time>2022-06-21T04:36:55.288Z</time>
      </trkpt>
      <trkpt lat="45.51824" lon="3.58741">
        <ele>1012</ele>
        <time>2022-06-21T04:37:00.113Z</time>
      </trkpt>
      <trkpt lat="45.51832" lon="3.58778">
        <ele>1013</ele>
        <time>2022-06-21T04:37:06.890Z</time>
      </trkpt>
      <trkpt lat="45.51835" lon="3.5878">
        <ele>1013</ele>
        <time>2022-06-21T04:37:07.438Z</time>
      </trkpt>
      <trkpt lat="45.51878" lon="3.58788">
        <ele>1011</ele>
        <time>2022-06-21T04:37:11.439Z</time>
      </trkpt>
      <trkpt lat="45.51901" lon="3.58796">
        <ele>1010</ele>
        <time>2022-06-21T04:37:13.702Z</time>
      </trkpt>
      <trkpt lat="45.51921" lon="3.58814">
        <ele>1008</ele>
        <time>2022-06-21T04:37:15.712Z</time>
      </trkpt>
      <trkpt lat="45.51949" lon="3.58849">
        <ele>1005</ele>
        <time>2022-06-21T04:37:18.876Z</time>
      </trkpt>
      <trkpt lat="45.51964" lon="3.58856">
        <ele>1003</ele>
        <time>2022-06-21T04:37:20.218Z</time>
      </trkpt>
      <trkpt lat="45.51988" lon="3.58855">
        <ele>1001</ele>
        <time>2022-06-21T04:37:22.260Z</time>
      </trkpt>
      <trkpt lat="45.52009" lon="3.58848">
        <ele>1000</ele>
        <time>2022-06-21T04:37:24.245Z</time>
      </trkpt>
      <trkpt lat="45.52029" lon="3.58837">
        <ele>1000</ele>
        <time>2022-06-21T04:37:27.791Z</time>
      </trkpt>
      <trkpt lat="45.52083" lon="3.58786">
        <ele>998</ele>
        <time>2022-06-21T04:37:34.711Z</time>
      </trkpt>
      <trkpt lat="45.52131" lon="3.58772">
        <ele>995</ele>
        <time>2022-06-21T04:37:38.691Z</time>
      </trkpt>
      <trkpt lat="45.52174" lon="3.5877">
        <ele>992</ele>
        <time>2022-06-21T04:37:42.349Z</time>
      </trkpt>
      <trkpt lat="45.522" lon="3.58754">
        <ele>991</ele>
        <time>2022-06-21T04:37:45.241Z</time>
      </trkpt>
      <trkpt lat="45.52251" lon="3.58709">
        <ele>991</ele>
        <time>2022-06-21T04:37:55.162Z</time>
      </trkpt>
      <trkpt lat="45.52275" lon="3.58695">
        <ele>989</ele>
        <time>2022-06-21T04:37:57.366Z</time>
      </trkpt>
      <trkpt lat="45.5235" lon="3.58666">
        <ele>982</ele>
        <time>2022-06-21T04:38:03.973Z</time>
      </trkpt>
      <trkpt lat="45.52374" lon="3.5866">
        <ele>981</ele>
        <time>2022-06-21T04:38:06.328Z</time>
      </trkpt>
      <trkpt lat="45.52472" lon="3.58686">
        <ele>983</ele>
        <time>2022-06-21T04:38:26.535Z</time>
      </trkpt>
      <trkpt lat="45.52505" lon="3.58688">
        <ele>985</ele>
        <time>2022-06-21T04:38:36.800Z</time>
      </trkpt>
      <trkpt lat="45.52631" lon="3.5868">
        <ele>988</ele>
        <time>2022-06-21T04:39:03.482Z</time>
      </trkpt>
      <trkpt lat="45.52661" lon="3.58681">
        <ele>988</ele>
        <time>2022-06-21T04:39:08.448Z</time>
      </trkpt>
      <trkpt lat="45.52696" lon="3.58688">
        <ele>990</ele>
        <time>2022-06-21T04:39:19.134Z</time>
      </trkpt>
      <trkpt lat="45.52901" lon="3.58742">
        <ele>997</ele>
        <time>2022-06-21T04:40:08.948Z</time>
      </trkpt>
      <trkpt lat="45.52926" lon="3.58743">
        <ele>997</ele>
        <time>2022-06-21T04:40:13.086Z</time>
      </trkpt>
      <trkpt lat="45.52964" lon="3.58733">
        <ele>998</ele>
        <time>2022-06-21T04:40:21.466Z</time>
      </trkpt>
      <trkpt lat="45.52971" lon="3.58739">
        <ele>998</ele>
        <time>2022-06-21T04:40:22.817Z</time>
      </trkpt>
      <trkpt lat="45.52999" lon="3.58732">
        <ele>999</ele>
        <time>2022-06-21T04:40:29.757Z</time>
      </trkpt>
      <trkpt lat="45.53087" lon="3.58676">
        <ele>1000</ele>
        <time>2022-06-21T04:40:47.373Z</time>
      </trkpt>
      <trkpt lat="45.53146" lon="3.58632">
        <ele>998</ele>
        <time>2022-06-21T04:40:54.550Z</time>
      </trkpt>
      <trkpt lat="45.53179" lon="3.58625">
        <ele>996</ele>
        <time>2022-06-21T04:40:57.288Z</time>
      </trkpt>
      <trkpt lat="45.53209" lon="3.58633">
        <ele>994</ele>
        <time>2022-06-21T04:40:59.686Z</time>
      </trkpt>
      <trkpt lat="45.53285" lon="3.58683">
        <ele>986</ele>
        <time>2022-06-21T04:41:06.800Z</time>
      </trkpt>
      <trkpt lat="45.53403" lon="3.58764">
        <ele>976</ele>
        <time>2022-06-21T04:41:17.932Z</time>
      </trkpt>
      <trkpt lat="45.53607" lon="3.58911">
        <ele>1001</ele>
        <time>2022-06-21T04:43:06.175Z</time>
      </trkpt>
      <trkpt lat="45.53688" lon="3.58963">
        <ele>1008</ele>
        <time>2022-06-21T04:43:37.851Z</time>
      </trkpt>
      <trkpt lat="45.53742" lon="3.58988">
        <ele>1011</ele>
        <time>2022-06-21T04:43:54.587Z</time>
      </trkpt>
      <trkpt lat="45.53806" lon="3.59013">
        <ele>1012</ele>
        <time>2022-06-21T04:44:07.324Z</time>
      </trkpt>
      <trkpt lat="45.53977" lon="3.59123">
        <ele>1014</ele>
        <time>2022-06-21T04:44:41.717Z</time>
      </trkpt>
      <trkpt lat="45.5401" lon="3.59159">
        <ele>1012</ele>
        <time>2022-06-21T04:44:45.479Z</time>
      </trkpt>
      <trkpt lat="45.54078" lon="3.59289">
        <ele>1018</ele>
        <time>2022-06-21T04:45:18.972Z</time>
      </trkpt>
      <trkpt lat="45.54093" lon="3.59349">
        <ele>1021</ele>
        <time>2022-06-21T04:45:33.525Z</time>
      </trkpt>
      <trkpt lat="45.54093" lon="3.59496">
        <ele>1027</ele>
        <time>2022-06-21T04:46:05.021Z</time>
      </trkpt>
      <trkpt lat="45.54096" lon="3.59667">
        <ele>1035</ele>
        <time>2022-06-21T04:46:43.963Z</time>
      </trkpt>
      <trkpt lat="45.54129" lon="3.59835">
        <ele>1049</ele>
        <time>2022-06-21T04:47:45.240Z</time>
      </trkpt>
      <trkpt lat="45.54147" lon="3.60004">
        <ele>1054</ele>
        <time>2022-06-21T04:48:17.322Z</time>
      </trkpt>
      <trkpt lat="45.54206" lon="3.60206">
        <ele>1062</ele>
        <time>2022-06-21T04:49:02.317Z</time>
      </trkpt>
      <trkpt lat="45.54248" lon="3.60346">
        <ele>1068</ele>
        <time>2022-06-21T04:49:34.496Z</time>
      </trkpt>
      <trkpt lat="45.54297" lon="3.60489">
        <ele>1067</ele>
        <time>2022-06-21T04:49:49.930Z</time>
      </trkpt>
      <trkpt lat="45.54305" lon="3.6052">
        <ele>1066</ele>
        <time>2022-06-21T04:49:52.122Z</time>
      </trkpt>
      <trkpt lat="45.54308" lon="3.60525">
        <ele>1066</ele>
        <time>2022-06-21T04:49:52.885Z</time>
      </trkpt>
      <trkpt lat="45.54302" lon="3.6055">
        <ele>1064</ele>
        <time>2022-06-21T04:49:54.458Z</time>
      </trkpt>
      <trkpt lat="45.5429" lon="3.60632">
        <ele>1060</ele>
        <time>2022-06-21T04:49:59.446Z</time>
      </trkpt>
      <trkpt lat="45.54272" lon="3.60775">
        <ele>1058</ele>
        <time>2022-06-21T04:50:11.760Z</time>
      </trkpt>
      <trkpt lat="45.54219" lon="3.60962">
        <ele>1058</ele>
        <time>2022-06-21T04:50:35.138Z</time>
      </trkpt>
      <trkpt lat="45.54209" lon="3.61">
        <ele>1058</ele>
        <time>2022-06-21T04:50:39.842Z</time>
      </trkpt>
      <trkpt lat="45.54213" lon="3.61136">
        <ele>1055</ele>
        <time>2022-06-21T04:50:49.969Z</time>
      </trkpt>
      <trkpt lat="45.54214" lon="3.61259">
        <ele>1057</ele>
        <time>2022-06-21T04:51:08.074Z</time>
      </trkpt>
      <trkpt lat="45.54218" lon="3.61363">
        <ele>1057</ele>
        <time>2022-06-21T04:51:20.144Z</time>
      </trkpt>
      <trkpt lat="45.54216" lon="3.61399">
        <ele>1058</ele>
        <time>2022-06-21T04:51:26.705Z</time>
      </trkpt>
      <trkpt lat="45.54272" lon="3.61435">
        <ele>1057</ele>
        <time>2022-06-21T04:51:34.444Z</time>
      </trkpt>
      <trkpt lat="45.543" lon="3.61441">
        <ele>1056</ele>
        <time>2022-06-21T04:51:37.337Z</time>
      </trkpt>
      <trkpt lat="45.54332" lon="3.61432">
        <ele>1054</ele>
        <time>2022-06-21T04:51:39.984Z</time>
      </trkpt>
      <trkpt lat="45.5438" lon="3.6141">
        <ele>1056</ele>
        <time>2022-06-21T04:51:53.087Z</time>
      </trkpt>
      <trkpt lat="45.54423" lon="3.61377">
        <ele>1054</ele>
        <time>2022-06-21T04:51:57.809Z</time>
      </trkpt>
      <trkpt lat="45.54464" lon="3.6134">
        <ele>1050</ele>
        <time>2022-06-21T04:52:01.933Z</time>
      </trkpt>
      <trkpt lat="45.54502" lon="3.61323">
        <ele>1050</ele>
        <time>2022-06-21T04:52:08.522Z</time>
      </trkpt>
      <trkpt lat="45.54548" lon="3.61313">
        <ele>1046</ele>
        <time>2022-06-21T04:52:12.478Z</time>
      </trkpt>
      <trkpt lat="45.54607" lon="3.61328">
        <ele>1044</ele>
        <time>2022-06-21T04:52:18.721Z</time>
      </trkpt>
      <trkpt lat="45.547" lon="3.61386">
        <ele>1044</ele>
        <time>2022-06-21T04:52:35.512Z</time>
      </trkpt>
      <trkpt lat="45.54781" lon="3.61442">
        <ele>1039</ele>
        <time>2022-06-21T04:52:43.166Z</time>
      </trkpt>
      <trkpt lat="45.54808" lon="3.61473">
        <ele>1038</ele>
        <time>2022-06-21T04:52:46.948Z</time>
      </trkpt>
      <trkpt lat="45.54826" lon="3.61504">
        <ele>1038</ele>
        <time>2022-06-21T04:52:51.615Z</time>
      </trkpt>
      <trkpt lat="45.54922" lon="3.61726">
        <ele>1020</ele>
        <time>2022-06-21T04:53:07.149Z</time>
      </trkpt>
      <trkpt lat="45.54942" lon="3.61744">
        <ele>1020</ele>
        <time>2022-06-21T04:53:11.061Z</time>
      </trkpt>
      <trkpt lat="45.54966" lon="3.61752">
        <ele>1020</ele>
        <time>2022-06-21T04:53:15.139Z</time>
      </trkpt>
      <trkpt lat="45.55003" lon="3.61754">
        <ele>1018</ele>
        <time>2022-06-21T04:53:18.329Z</time>
      </trkpt>
      <trkpt lat="45.55488" lon="3.61708">
        <ele>1009</ele>
        <time>2022-06-21T04:54:17.945Z</time>
      </trkpt>
      <trkpt lat="45.55606" lon="3.61698">
        <ele>1010</ele>
        <time>2022-06-21T04:54:39.147Z</time>
      </trkpt>
      <trkpt lat="45.55663" lon="3.61721">
        <ele>1009</ele>
        <time>2022-06-21T04:54:46.556Z</time>
      </trkpt>
      <trkpt lat="45.55735" lon="3.61776">
        <ele>1007</ele>
        <time>2022-06-21T04:54:55.904Z</time>
      </trkpt>
      <trkpt lat="45.55856" lon="3.6186">
        <ele>1002</ele>
        <time>2022-06-21T04:55:09.401Z</time>
      </trkpt>
      <trkpt lat="45.55913" lon="3.61917">
        <ele>998</ele>
        <time>2022-06-21T04:55:15.226Z</time>
      </trkpt>
      <trkpt lat="45.55938" lon="3.61955">
        <ele>998</ele>
        <time>2022-06-21T04:55:21.266Z</time>
      </trkpt>
      <trkpt lat="45.55947" lon="3.61993">
        <ele>1000</ele>
        <time>2022-06-21T04:55:30.704Z</time>
      </trkpt>
      <trkpt lat="45.56026" lon="3.62229">
        <ele>1001</ele>
        <time>2022-06-21T04:56:02.604Z</time>
      </trkpt>
      <trkpt lat="45.56118" lon="3.62413">
        <ele>998</ele>
        <time>2022-06-21T04:56:21.920Z</time>
      </trkpt>
      <trkpt lat="45.56162" lon="3.62635">
        <ele>996</ele>
        <time>2022-06-21T04:56:43.298Z</time>
      </trkpt>
      <trkpt lat="45.56207" lon="3.62786">
        <ele>994</ele>
        <time>2022-06-21T04:56:57.580Z</time>
      </trkpt>
      <trkpt lat="45.56248" lon="3.62931">
        <ele>986</ele>
        <time>2022-06-21T04:57:06.889Z</time>
      </trkpt>
      <trkpt lat="45.56347" lon="3.63131">
        <ele>970</ele>
        <time>2022-06-21T04:57:21.469Z</time>
      </trkpt>
      <trkpt lat="45.56373" lon="3.63207">
        <ele>971</ele>
        <time>2022-06-21T04:57:33.060Z</time>
      </trkpt>
      <trkpt lat="45.56397" lon="3.63297">
        <ele>972</ele>
        <time>2022-06-21T04:57:45.971Z</time>
      </trkpt>
      <trkpt lat="45.56408" lon="3.63326">
        <ele>973</ele>
        <time>2022-06-21T04:57:52.303Z</time>
      </trkpt>
      <trkpt lat="45.56419" lon="3.63347">
        <ele>973</ele>
        <time>2022-06-21T04:57:55.341Z</time>
      </trkpt>
      <trkpt lat="45.56437" lon="3.63369">
        <ele>974</ele>
        <time>2022-06-21T04:58:01.732Z</time>
      </trkpt>
      <trkpt lat="45.56474" lon="3.63405">
        <ele>978</ele>
        <time>2022-06-21T04:58:19.184Z</time>
      </trkpt>
      <trkpt lat="45.56587" lon="3.63501">
        <ele>975</ele>
        <time>2022-06-21T04:58:34.522Z</time>
      </trkpt>
      <trkpt lat="45.56646" lon="3.63524">
        <ele>973</ele>
        <time>2022-06-21T04:58:40.937Z</time>
      </trkpt>
      <trkpt lat="45.56695" lon="3.63547">
        <ele>971</ele>
        <time>2022-06-21T04:58:46.031Z</time>
      </trkpt>
      <trkpt lat="45.56733" lon="3.63578">
        <ele>971</ele>
        <time>2022-06-21T04:58:53.272Z</time>
      </trkpt>
      <trkpt lat="45.56759" lon="3.63606">
        <ele>973</ele>
        <time>2022-06-21T04:59:03.454Z</time>
      </trkpt>
      <trkpt lat="45.56776" lon="3.63636">
        <ele>974</ele>
        <time>2022-06-21T04:59:10.218Z</time>
      </trkpt>
      <trkpt lat="45.56782" lon="3.63633">
        <ele>975</ele>
        <time>2022-06-21T04:59:14.275Z</time>
      </trkpt>
      <trkpt lat="45.56792" lon="3.6359">
        <ele>974</ele>
        <time>2022-06-21T04:59:17.643Z</time>
      </trkpt>
      <trkpt lat="45.56817" lon="3.63536">
        <ele>971</ele>
        <time>2022-06-21T04:59:21.185Z</time>
      </trkpt>
      <trkpt lat="45.569" lon="3.63397">
        <ele>959</ele>
        <time>2022-06-21T04:59:32.059Z</time>
      </trkpt>
      <trkpt lat="45.56912" lon="3.63376">
        <ele>956</ele>
        <time>2022-06-21T04:59:33.673Z</time>
      </trkpt>
      <trkpt lat="45.56926" lon="3.63341">
        <ele>953</ele>
        <time>2022-06-21T04:59:36.072Z</time>
      </trkpt>
      <trkpt lat="45.56933" lon="3.63318">
        <ele>952</ele>
        <time>2022-06-21T04:59:37.548Z</time>
      </trkpt>
      <trkpt lat="45.56935" lon="3.63281">
        <ele>950</ele>
        <time>2022-06-21T04:59:39.757Z</time>
      </trkpt>
      <trkpt lat="45.56931" lon="3.6325">
        <ele>949</ele>
        <time>2022-06-21T04:59:41.807Z</time>
      </trkpt>
      <trkpt lat="45.56919" lon="3.63212">
        <ele>949</ele>
        <time>2022-06-21T04:59:46.636Z</time>
      </trkpt>
      <trkpt lat="45.56917" lon="3.63192">
        <ele>949</ele>
        <time>2022-06-21T04:59:48.976Z</time>
      </trkpt>
      <trkpt lat="45.56918" lon="3.6317">
        <ele>949</ele>
        <time>2022-06-21T04:59:51.530Z</time>
      </trkpt>
      <trkpt lat="45.56927" lon="3.63148">
        <ele>947</ele>
        <time>2022-06-21T04:59:53.046Z</time>
      </trkpt>
      <trkpt lat="45.5694" lon="3.63122">
        <ele>944</ele>
        <time>2022-06-21T04:59:54.948Z</time>
      </trkpt>
      <trkpt lat="45.56968" lon="3.6308">
        <ele>940</ele>
        <time>2022-06-21T04:59:58.400Z</time>
      </trkpt>
      <trkpt lat="45.5699" lon="3.63059">
        <ele>938</ele>
        <time>2022-06-21T05:00:00.650Z</time>
      </trkpt>
      <trkpt lat="45.57025" lon="3.63034">
        <ele>934</ele>
        <time>2022-06-21T05:00:03.977Z</time>
      </trkpt>
      <trkpt lat="45.57045" lon="3.63027">
        <ele>932</ele>
        <time>2022-06-21T05:00:05.727Z</time>
      </trkpt>
      <trkpt lat="45.57108" lon="3.63016">
        <ele>928</ele>
        <time>2022-06-21T05:00:10.811Z</time>
      </trkpt>
      <trkpt lat="45.57294" lon="3.63025">
        <ele>920</ele>
        <time>2022-06-21T05:00:28.478Z</time>
      </trkpt>
      <trkpt lat="45.57365" lon="3.63024">
        <ele>911</ele>
        <time>2022-06-21T05:00:34.514Z</time>
      </trkpt>
      <trkpt lat="45.57407" lon="3.63031">
        <ele>906</ele>
        <time>2022-06-21T05:00:38.109Z</time>
      </trkpt>
      <trkpt lat="45.57409" lon="3.63045">
        <ele>908</ele>
        <time>2022-06-21T05:00:44.493Z</time>
      </trkpt>
      <trkpt lat="45.57463" lon="3.63099">
        <ele>910</ele>
        <time>2022-06-21T05:00:59.597Z</time>
      </trkpt>
      <trkpt lat="45.57477" lon="3.6311">
        <ele>910</ele>
        <time>2022-06-21T05:01:02.241Z</time>
      </trkpt>
      <trkpt lat="45.57495" lon="3.63129">
        <ele>909</ele>
        <time>2022-06-21T05:01:04.332Z</time>
      </trkpt>
      <trkpt lat="45.57508" lon="3.63147">
        <ele>909</ele>
        <time>2022-06-21T05:01:07.328Z</time>
      </trkpt>
      <trkpt lat="45.57529" lon="3.6315">
        <ele>909</ele>
        <time>2022-06-21T05:01:10.820Z</time>
      </trkpt>
      <trkpt lat="45.57533" lon="3.63152">
        <ele>909</ele>
        <time>2022-06-21T05:01:11.521Z</time>
      </trkpt>
      <trkpt lat="45.5753" lon="3.63179">
        <ele>909</ele>
        <time>2022-06-21T05:01:14.687Z</time>
      </trkpt>
      <trkpt lat="45.57525" lon="3.63191">
        <ele>908</ele>
        <time>2022-06-21T05:01:15.518Z</time>
      </trkpt>
      <trkpt lat="45.57509" lon="3.63207">
        <ele>908</ele>
        <time>2022-06-21T05:01:18.750Z</time>
      </trkpt>
      <trkpt lat="45.57504" lon="3.63219">
        <ele>907</ele>
        <time>2022-06-21T05:01:19.581Z</time>
      </trkpt>
      <trkpt lat="45.57494" lon="3.63255">
        <ele>906</ele>
        <time>2022-06-21T05:01:22.308Z</time>
      </trkpt>
      <trkpt lat="45.57499" lon="3.63278">
        <ele>906</ele>
        <time>2022-06-21T05:01:25.097Z</time>
      </trkpt>
      <trkpt lat="45.57553" lon="3.63366">
        <ele>905</ele>
        <time>2022-06-21T05:01:35.962Z</time>
      </trkpt>
      <trkpt lat="45.57567" lon="3.63384">
        <ele>904</ele>
        <time>2022-06-21T05:01:37.598Z</time>
      </trkpt>
      <trkpt lat="45.57585" lon="3.63398">
        <ele>904</ele>
        <time>2022-06-21T05:01:40.989Z</time>
      </trkpt>
      <trkpt lat="45.57611" lon="3.63409">
        <ele>903</ele>
        <time>2022-06-21T05:01:43.717Z</time>
      </trkpt>
      <trkpt lat="45.57634" lon="3.63427">
        <ele>904</ele>
        <time>2022-06-21T05:01:50.385Z</time>
      </trkpt>
      <trkpt lat="45.57661" lon="3.63454">
        <ele>907</ele>
        <time>2022-06-21T05:02:03.426Z</time>
      </trkpt>
      <trkpt lat="45.57698" lon="3.63498">
        <ele>905</ele>
        <time>2022-06-21T05:02:08.057Z</time>
      </trkpt>
      <trkpt lat="45.57708" lon="3.63536">
        <ele>905</ele>
        <time>2022-06-21T05:02:12.759Z</time>
      </trkpt>
      <trkpt lat="45.57713" lon="3.63581">
        <ele>907</ele>
        <time>2022-06-21T05:02:22.824Z</time>
      </trkpt>
      <trkpt lat="45.57721" lon="3.63604">
        <ele>906</ele>
        <time>2022-06-21T05:02:24.352Z</time>
      </trkpt>
      <trkpt lat="45.57789" lon="3.63682">
        <ele>893</ele>
        <time>2022-06-21T05:02:31.766Z</time>
      </trkpt>
      <trkpt lat="45.57869" lon="3.63749">
        <ele>888</ele>
        <time>2022-06-21T05:02:39.761Z</time>
      </trkpt>
      <trkpt lat="45.57891" lon="3.63774">
        <ele>887</ele>
        <time>2022-06-21T05:02:42.626Z</time>
      </trkpt>
      <trkpt lat="45.57909" lon="3.63797">
        <ele>886</ele>
        <time>2022-06-21T05:02:44.952Z</time>
      </trkpt>
      <trkpt lat="45.57919" lon="3.63817">
        <ele>886</ele>
        <time>2022-06-21T05:02:47.799Z</time>
      </trkpt>
      <trkpt lat="45.57948" lon="3.63967">
        <ele>886</ele>
        <time>2022-06-21T05:03:05.821Z</time>
      </trkpt>
      <trkpt lat="45.57959" lon="3.63989">
        <ele>887</ele>
        <time>2022-06-21T05:03:11.399Z</time>
      </trkpt>
      <trkpt lat="45.57982" lon="3.64006">
        <ele>886</ele>
        <time>2022-06-21T05:03:13.961Z</time>
      </trkpt>
      <trkpt lat="45.58" lon="3.6401">
        <ele>885</ele>
        <time>2022-06-21T05:03:15.519Z</time>
      </trkpt>
      <trkpt lat="45.58018" lon="3.64003">
        <ele>884</ele>
        <time>2022-06-21T05:03:17.131Z</time>
      </trkpt>
      <trkpt lat="45.58145" lon="3.63908">
        <ele>873</ele>
        <time>2022-06-21T05:03:29.319Z</time>
      </trkpt>
      <trkpt lat="45.58179" lon="3.63877">
        <ele>870</ele>
        <time>2022-06-21T05:03:32.749Z</time>
      </trkpt>
      <trkpt lat="45.58222" lon="3.63843">
        <ele>866</ele>
        <time>2022-06-21T05:03:36.927Z</time>
      </trkpt>
      <trkpt lat="45.58231" lon="3.63839">
        <ele>866</ele>
        <time>2022-06-21T05:03:38.486Z</time>
      </trkpt>
      <trkpt lat="45.58241" lon="3.63835">
        <ele>865</ele>
        <time>2022-06-21T05:03:39.369Z</time>
      </trkpt>
      <trkpt lat="45.58359" lon="3.63829">
        <ele>856</ele>
        <time>2022-06-21T05:03:49.408Z</time>
      </trkpt>
      <trkpt lat="45.58397" lon="3.63834">
        <ele>853</ele>
        <time>2022-06-21T05:03:52.653Z</time>
      </trkpt>
      <trkpt lat="45.58435" lon="3.63836">
        <ele>850</ele>
        <time>2022-06-21T05:03:55.886Z</time>
      </trkpt>
      <trkpt lat="45.58458" lon="3.63843">
        <ele>849</ele>
        <time>2022-06-21T05:03:58.127Z</time>
      </trkpt>
      <trkpt lat="45.58492" lon="3.63865">
        <ele>848</ele>
        <time>2022-06-21T05:04:02.294Z</time>
      </trkpt>
      <trkpt lat="45.58549" lon="3.63927">
        <ele>845</ele>
        <time>2022-06-21T05:04:09.164Z</time>
      </trkpt>
      <trkpt lat="45.58564" lon="3.63936">
        <ele>843</ele>
        <time>2022-06-21T05:04:10.547Z</time>
      </trkpt>
      <trkpt lat="45.58578" lon="3.63938">
        <ele>841</ele>
        <time>2022-06-21T05:04:11.743Z</time>
      </trkpt>
      <trkpt lat="45.5859" lon="3.63937">
        <ele>840</ele>
        <time>2022-06-21T05:04:12.765Z</time>
      </trkpt>
      <trkpt lat="45.58603" lon="3.63932">
        <ele>839</ele>
        <time>2022-06-21T05:04:13.910Z</time>
      </trkpt>
      <trkpt lat="45.58629" lon="3.63928">
        <ele>838</ele>
        <time>2022-06-21T05:04:16.506Z</time>
      </trkpt>
      <trkpt lat="45.58658" lon="3.63937">
        <ele>836</ele>
        <time>2022-06-21T05:04:19.029Z</time>
      </trkpt>
      <trkpt lat="45.58759" lon="3.63997">
        <ele>833</ele>
        <time>2022-06-21T05:04:31.155Z</time>
      </trkpt>
      <trkpt lat="45.58777" lon="3.64012">
        <ele>832</ele>
        <time>2022-06-21T05:04:33.046Z</time>
      </trkpt>
      <trkpt lat="45.58808" lon="3.64054">
        <ele>830</ele>
        <time>2022-06-21T05:04:36.962Z</time>
      </trkpt>
      <trkpt lat="45.58842" lon="3.64093">
        <ele>828</ele>
        <time>2022-06-21T05:04:40.993Z</time>
      </trkpt>
      <trkpt lat="45.58859" lon="3.64106">
        <ele>827</ele>
        <time>2022-06-21T05:04:42.685Z</time>
      </trkpt>
      <trkpt lat="45.58876" lon="3.64116">
        <ele>827</ele>
        <time>2022-06-21T05:04:45.727Z</time>
      </trkpt>
      <trkpt lat="45.58896" lon="3.64122">
        <ele>828</ele>
        <time>2022-06-21T05:04:51.598Z</time>
      </trkpt>
      <trkpt lat="45.58991" lon="3.64135">
        <ele>828</ele>
        <time>2022-06-21T05:05:07.389Z</time>
      </trkpt>
      <trkpt lat="45.59008" lon="3.64134">
        <ele>828</ele>
        <time>2022-06-21T05:05:10.204Z</time>
      </trkpt>
      <trkpt lat="45.59025" lon="3.64127">
        <ele>829</ele>
        <time>2022-06-21T05:05:15.551Z</time>
      </trkpt>
      <trkpt lat="45.59045" lon="3.64111">
        <ele>830</ele>
        <time>2022-06-21T05:05:21.868Z</time>
      </trkpt>
      <trkpt lat="45.59061" lon="3.64092">
        <ele>831</ele>
        <time>2022-06-21T05:05:27.812Z</time>
      </trkpt>
      <trkpt lat="45.59095" lon="3.64014">
        <ele>828</ele>
        <time>2022-06-21T05:05:33.716Z</time>
      </trkpt>
      <trkpt lat="45.59108" lon="3.64002">
        <ele>825</ele>
        <time>2022-06-21T05:05:35.032Z</time>
      </trkpt>
      <trkpt lat="45.59125" lon="3.63994">
        <ele>823</ele>
        <time>2022-06-21T05:05:36.554Z</time>
      </trkpt>
      <trkpt lat="45.5914" lon="3.63994">
        <ele>821</ele>
        <time>2022-06-21T05:05:37.829Z</time>
      </trkpt>
      <trkpt lat="45.59174" lon="3.63999">
        <ele>817</ele>
        <time>2022-06-21T05:05:40.735Z</time>
      </trkpt>
      <trkpt lat="45.59229" lon="3.64009">
        <ele>819</ele>
        <time>2022-06-21T05:05:54.436Z</time>
      </trkpt>
      <trkpt lat="45.59246" lon="3.64015">
        <ele>819</ele>
        <time>2022-06-21T05:05:57.333Z</time>
      </trkpt>
      <trkpt lat="45.59257" lon="3.64022">
        <ele>820</ele>
        <time>2022-06-21T05:06:01.780Z</time>
      </trkpt>
      <trkpt lat="45.59299" lon="3.64072">
        <ele>820</ele>
        <time>2022-06-21T05:06:10.824Z</time>
      </trkpt>
      <trkpt lat="45.59329" lon="3.64142">
        <ele>814</ele>
        <time>2022-06-21T05:06:15.708Z</time>
      </trkpt>
      <trkpt lat="45.59335" lon="3.64173">
        <ele>811</ele>
        <time>2022-06-21T05:06:17.621Z</time>
      </trkpt>
      <trkpt lat="45.59329" lon="3.64268">
        <ele>803</ele>
        <time>2022-06-21T05:06:23.296Z</time>
      </trkpt>
      <trkpt lat="45.59329" lon="3.64298">
        <ele>802</ele>
        <time>2022-06-21T05:06:25.207Z</time>
      </trkpt>
      <trkpt lat="45.59333" lon="3.64326">
        <ele>801</ele>
        <time>2022-06-21T05:06:26.989Z</time>
      </trkpt>
      <trkpt lat="45.59344" lon="3.64347">
        <ele>801</ele>
        <time>2022-06-21T05:06:30.027Z</time>
      </trkpt>
      <trkpt lat="45.59358" lon="3.64367">
        <ele>801</ele>
        <time>2022-06-21T05:06:33.302Z</time>
      </trkpt>
      <trkpt lat="45.5938" lon="3.64392">
        <ele>802</ele>
        <time>2022-06-21T05:06:40.201Z</time>
      </trkpt>
      <trkpt lat="45.59405" lon="3.64411">
        <ele>804</ele>
        <time>2022-06-21T05:06:49.674Z</time>
      </trkpt>
      <trkpt lat="45.59418" lon="3.64415">
        <ele>805</ele>
        <time>2022-06-21T05:06:54.282Z</time>
      </trkpt>
      <trkpt lat="45.59432" lon="3.64416">
        <ele>804</ele>
        <time>2022-06-21T05:06:55.474Z</time>
      </trkpt>
      <trkpt lat="45.59464" lon="3.64407">
        <ele>802</ele>
        <time>2022-06-21T05:06:58.121Z</time>
      </trkpt>
      <trkpt lat="45.59485" lon="3.64395">
        <ele>801</ele>
        <time>2022-06-21T05:07:00.244Z</time>
      </trkpt>
      <trkpt lat="45.59491" lon="3.64387">
        <ele>801</ele>
        <time>2022-06-21T05:07:01.602Z</time>
      </trkpt>
      <trkpt lat="45.59496" lon="3.64376">
        <ele>801</ele>
        <time>2022-06-21T05:07:03.120Z</time>
      </trkpt>
      <trkpt lat="45.59502" lon="3.64341">
        <ele>801</ele>
        <time>2022-06-21T05:07:07.292Z</time>
      </trkpt>
      <trkpt lat="45.59502" lon="3.64277">
        <ele>806</ele>
        <time>2022-06-21T05:07:29.029Z</time>
      </trkpt>
      <trkpt lat="45.59507" lon="3.64259">
        <ele>807</ele>
        <time>2022-06-21T05:07:33.674Z</time>
      </trkpt>
      <trkpt lat="45.59514" lon="3.6425">
        <ele>807</ele>
        <time>2022-06-21T05:07:35.232Z</time>
      </trkpt>
      <trkpt lat="45.59522" lon="3.64244">
        <ele>806</ele>
        <time>2022-06-21T05:07:36.000Z</time>
      </trkpt>
      <trkpt lat="45.59541" lon="3.64237">
        <ele>804</ele>
        <time>2022-06-21T05:07:37.668Z</time>
      </trkpt>
      <trkpt lat="45.59564" lon="3.64232">
        <ele>801</ele>
        <time>2022-06-21T05:07:39.646Z</time>
      </trkpt>
      <trkpt lat="45.59583" lon="3.64233">
        <ele>797</ele>
        <time>2022-06-21T05:07:41.263Z</time>
      </trkpt>
      <trkpt lat="45.59602" lon="3.64243">
        <ele>796</ele>
        <time>2022-06-21T05:07:43.077Z</time>
      </trkpt>
      <trkpt lat="45.59612" lon="3.64258">
        <ele>795</ele>
        <time>2022-06-21T05:07:44.310Z</time>
      </trkpt>
      <trkpt lat="45.59657" lon="3.64368">
        <ele>789</ele>
        <time>2022-06-21T05:07:51.890Z</time>
      </trkpt>
      <trkpt lat="45.597" lon="3.64471">
        <ele>786</ele>
        <time>2022-06-21T05:08:00.427Z</time>
      </trkpt>
      <trkpt lat="45.59716" lon="3.64569">
        <ele>785</ele>
        <time>2022-06-21T05:08:09.532Z</time>
      </trkpt>
      <trkpt lat="45.59725" lon="3.64603">
        <ele>784</ele>
        <time>2022-06-21T05:08:12.032Z</time>
      </trkpt>
      <trkpt lat="45.59741" lon="3.64636">
        <ele>784</ele>
        <time>2022-06-21T05:08:16.680Z</time>
      </trkpt>
      <trkpt lat="45.59871" lon="3.6485">
        <ele>777</ele>
        <time>2022-06-21T05:08:36.941Z</time>
      </trkpt>
      <trkpt lat="45.59916" lon="3.64927">
        <ele>777</ele>
        <time>2022-06-21T05:08:48.556Z</time>
      </trkpt>
      <trkpt lat="45.59933" lon="3.64948">
        <ele>777</ele>
        <time>2022-06-21T05:08:52.274Z</time>
      </trkpt>
      <trkpt lat="45.59988" lon="3.65009">
        <ele>776</ele>
        <time>2022-06-21T05:09:01.257Z</time>
      </trkpt>
      <trkpt lat="45.60049" lon="3.65095">
        <ele>774</ele>
        <time>2022-06-21T05:09:11.194Z</time>
      </trkpt>
      <trkpt lat="45.60077" lon="3.65139">
        <ele>769</ele>
        <time>2022-06-21T05:09:14.732Z</time>
      </trkpt>
      <trkpt lat="45.60102" lon="3.65171">
        <ele>767</ele>
        <time>2022-06-21T05:09:17.494Z</time>
      </trkpt>
      <trkpt lat="45.60128" lon="3.65199">
        <ele>769</ele>
        <time>2022-06-21T05:09:27.675Z</time>
      </trkpt>
      <trkpt lat="45.60155" lon="3.65218">
        <ele>770</ele>
        <time>2022-06-21T05:09:34.834Z</time>
      </trkpt>
      <trkpt lat="45.60236" lon="3.65271">
        <ele>771</ele>
        <time>2022-06-21T05:09:51.263Z</time>
      </trkpt>
      <trkpt lat="45.60262" lon="3.65292">
        <ele>772</ele>
        <time>2022-06-21T05:09:58.390Z</time>
      </trkpt>
      <trkpt lat="45.60289" lon="3.65323">
        <ele>773</ele>
        <time>2022-06-21T05:10:06.181Z</time>
      </trkpt>
      <trkpt lat="45.60345" lon="3.65399">
        <ele>780</ele>
        <time>2022-06-21T05:10:36.633Z</time>
      </trkpt>
      <trkpt lat="45.60369" lon="3.65442">
        <ele>781</ele>
        <time>2022-06-21T05:10:44.990Z</time>
      </trkpt>
      <trkpt lat="45.60376" lon="3.65463">
        <ele>782</ele>
        <time>2022-06-21T05:10:50.080Z</time>
      </trkpt>
      <trkpt lat="45.60379" lon="3.65487">
        <ele>783</ele>
        <time>2022-06-21T05:10:55.310Z</time>
      </trkpt>
      <trkpt lat="45.60381" lon="3.65532">
        <ele>785</ele>
        <time>2022-06-21T05:11:05.316Z</time>
      </trkpt>
      <trkpt lat="45.60385" lon="3.6555">
        <ele>785</ele>
        <time>2022-06-21T05:11:07.502Z</time>
      </trkpt>
      <trkpt lat="45.60396" lon="3.65566">
        <ele>784</ele>
        <time>2022-06-21T05:11:08.752Z</time>
      </trkpt>
      <trkpt lat="45.60416" lon="3.65581">
        <ele>780</ele>
        <time>2022-06-21T05:11:10.673Z</time>
      </trkpt>
      <trkpt lat="45.60543" lon="3.65621">
        <ele>775</ele>
        <time>2022-06-21T05:11:23.557Z</time>
      </trkpt>
      <trkpt lat="45.60572" lon="3.65628">
        <ele>776</ele>
        <time>2022-06-21T05:11:30.625Z</time>
      </trkpt>
      <trkpt lat="45.60605" lon="3.65626">
        <ele>777</ele>
        <time>2022-06-21T05:11:38.187Z</time>
      </trkpt>
      <trkpt lat="45.60678" lon="3.65616">
        <ele>780</ele>
        <time>2022-06-21T05:11:57.593Z</time>
      </trkpt>
      <trkpt lat="45.6072" lon="3.65618">
        <ele>780</ele>
        <time>2022-06-21T05:12:04.546Z</time>
      </trkpt>
      <trkpt lat="45.60791" lon="3.65624">
        <ele>780</ele>
        <time>2022-06-21T05:12:16.314Z</time>
      </trkpt>
      <trkpt lat="45.60844" lon="3.65622">
        <ele>780</ele>
        <time>2022-06-21T05:12:25.087Z</time>
      </trkpt>
      <trkpt lat="45.60902" lon="3.65606">
        <ele>780</ele>
        <time>2022-06-21T05:12:34.860Z</time>
      </trkpt>
      <trkpt lat="45.61025" lon="3.65563">
        <ele>778</ele>
        <time>2022-06-21T05:12:50.912Z</time>
      </trkpt>
      <trkpt lat="45.61041" lon="3.65561">
        <ele>778</ele>
        <time>2022-06-21T05:12:53.570Z</time>
      </trkpt>
      <trkpt lat="45.61112" lon="3.65574">
        <ele>773</ele>
        <time>2022-06-21T05:12:59.656Z</time>
      </trkpt>
      <trkpt lat="45.61126" lon="3.65586">
        <ele>771</ele>
        <time>2022-06-21T05:13:01.043Z</time>
      </trkpt>
      <trkpt lat="45.61136" lon="3.65608">
        <ele>769</ele>
        <time>2022-06-21T05:13:02.604Z</time>
      </trkpt>
      <trkpt lat="45.61137" lon="3.6563">
        <ele>769</ele>
        <time>2022-06-21T05:13:05.156Z</time>
      </trkpt>
      <trkpt lat="45.61128" lon="3.65695">
        <ele>767</ele>
        <time>2022-06-21T05:13:09.549Z</time>
      </trkpt>
      <trkpt lat="45.61117" lon="3.65743">
        <ele>765</ele>
        <time>2022-06-21T05:13:12.528Z</time>
      </trkpt>
      <trkpt lat="45.61056" lon="3.65955">
        <ele>756</ele>
        <time>2022-06-21T05:13:26.102Z</time>
      </trkpt>
      <trkpt lat="45.61046" lon="3.65988">
        <ele>755</ele>
        <time>2022-06-21T05:13:28.564Z</time>
      </trkpt>
      <trkpt lat="45.61035" lon="3.66013">
        <ele>755</ele>
        <time>2022-06-21T05:13:31.982Z</time>
      </trkpt>
      <trkpt lat="45.61021" lon="3.66032">
        <ele>756</ele>
        <time>2022-06-21T05:13:37.634Z</time>
      </trkpt>
      <trkpt lat="45.60989" lon="3.66063">
        <ele>756</ele>
        <time>2022-06-21T05:13:44.030Z</time>
      </trkpt>
      <trkpt lat="45.60979" lon="3.6608">
        <ele>755</ele>
        <time>2022-06-21T05:13:45.262Z</time>
      </trkpt>
      <trkpt lat="45.60977" lon="3.66098">
        <ele>755</ele>
        <time>2022-06-21T05:13:47.372Z</time>
      </trkpt>
      <trkpt lat="45.60981" lon="3.66116">
        <ele>756</ele>
        <time>2022-06-21T05:13:51.968Z</time>
      </trkpt>
      <trkpt lat="45.60989" lon="3.6613">
        <ele>755</ele>
        <time>2022-06-21T05:13:53.043Z</time>
      </trkpt>
      <trkpt lat="45.61011" lon="3.66153">
        <ele>754</ele>
        <time>2022-06-21T05:13:55.790Z</time>
      </trkpt>
      <trkpt lat="45.61021" lon="3.66166">
        <ele>753</ele>
        <time>2022-06-21T05:13:56.939Z</time>
      </trkpt>
      <trkpt lat="45.61028" lon="3.6618">
        <ele>754</ele>
        <time>2022-06-21T05:14:01.385Z</time>
      </trkpt>
      <trkpt lat="45.61035" lon="3.66201">
        <ele>754</ele>
        <time>2022-06-21T05:14:04.078Z</time>
      </trkpt>
      <trkpt lat="45.61038" lon="3.66224">
        <ele>756</ele>
        <time>2022-06-21T05:14:13.064Z</time>
      </trkpt>
      <trkpt lat="45.6104" lon="3.663">
        <ele>757</ele>
        <time>2022-06-21T05:14:23.698Z</time>
      </trkpt>
      <trkpt lat="45.6104" lon="3.66329">
        <ele>757</ele>
        <time>2022-06-21T05:14:27.054Z</time>
      </trkpt>
      <trkpt lat="45.61038" lon="3.66354">
        <ele>757</ele>
        <time>2022-06-21T05:14:29.967Z</time>
      </trkpt>
      <trkpt lat="45.61033" lon="3.66377">
        <ele>756</ele>
        <time>2022-06-21T05:14:31.356Z</time>
      </trkpt>
      <trkpt lat="45.61025" lon="3.66397">
        <ele>757</ele>
        <time>2022-06-21T05:14:36.418Z</time>
      </trkpt>
      <trkpt lat="45.60989" lon="3.66466">
        <ele>762</ele>
        <time>2022-06-21T05:14:58.652Z</time>
      </trkpt>
      <trkpt lat="45.60981" lon="3.66492">
        <ele>765</ele>
        <time>2022-06-21T05:15:11.333Z</time>
      </trkpt>
      <trkpt lat="45.6098" lon="3.66522">
        <ele>766</ele>
        <time>2022-06-21T05:15:17.318Z</time>
      </trkpt>
      <trkpt lat="45.60981" lon="3.66544">
        <ele>766</ele>
        <time>2022-06-21T05:15:19.869Z</time>
      </trkpt>
      <trkpt lat="45.60984" lon="3.66561">
        <ele>766</ele>
        <time>2022-06-21T05:15:21.899Z</time>
      </trkpt>
      <trkpt lat="45.6099" lon="3.66572">
        <ele>765</ele>
        <time>2022-06-21T05:15:22.728Z</time>
      </trkpt>
      <trkpt lat="45.60998" lon="3.66581">
        <ele>763</ele>
        <time>2022-06-21T05:15:23.594Z</time>
      </trkpt>
      <trkpt lat="45.61005" lon="3.66584">
        <ele>763</ele>
        <time>2022-06-21T05:15:24.803Z</time>
      </trkpt>
      <trkpt lat="45.61071" lon="3.6659">
        <ele>762</ele>
        <time>2022-06-21T05:15:33.257Z</time>
      </trkpt>
      <trkpt lat="45.61226" lon="3.66617">
        <ele>767</ele>
        <time>2022-06-21T05:16:09.816Z</time>
      </trkpt>
      <trkpt lat="45.61255" lon="3.66624">
        <ele>768</ele>
        <time>2022-06-21T05:16:16.884Z</time>
      </trkpt>
      <trkpt lat="45.61267" lon="3.6663">
        <ele>768</ele>
        <time>2022-06-21T05:16:18.987Z</time>
      </trkpt>
      <trkpt lat="45.61283" lon="3.66644">
        <ele>768</ele>
        <time>2022-06-21T05:16:22.091Z</time>
      </trkpt>
      <trkpt lat="45.61296" lon="3.66663">
        <ele>769</ele>
        <time>2022-06-21T05:16:27.607Z</time>
      </trkpt>
      <trkpt lat="45.61325" lon="3.66725">
        <ele>774</ele>
        <time>2022-06-21T05:16:49.180Z</time>
      </trkpt>
      <trkpt lat="45.61363" lon="3.66811">
        <ele>775</ele>
        <time>2022-06-21T05:17:02.693Z</time>
      </trkpt>
      <trkpt lat="45.61379" lon="3.66836">
        <ele>774</ele>
        <time>2022-06-21T05:17:04.959Z</time>
      </trkpt>
      <trkpt lat="45.61416" lon="3.66877">
        <ele>771</ele>
        <time>2022-06-21T05:17:08.678Z</time>
      </trkpt>
      <trkpt lat="45.61469" lon="3.66943">
        <ele>770</ele>
        <time>2022-06-21T05:17:17.764Z</time>
      </trkpt>
      <trkpt lat="45.61512" lon="3.6701">
        <ele>768</ele>
        <time>2022-06-21T05:17:24.522Z</time>
      </trkpt>
      <trkpt lat="45.61533" lon="3.67049">
        <ele>769</ele>
        <time>2022-06-21T05:17:32.283Z</time>
      </trkpt>
      <trkpt lat="45.61539" lon="3.67075">
        <ele>770</ele>
        <time>2022-06-21T05:17:37.906Z</time>
      </trkpt>
      <trkpt lat="45.61541" lon="3.67106">
        <ele>771</ele>
        <time>2022-06-21T05:17:44.042Z</time>
      </trkpt>
      <trkpt lat="45.61536" lon="3.67134">
        <ele>771</ele>
        <time>2022-06-21T05:17:47.386Z</time>
      </trkpt>
      <trkpt lat="45.61509" lon="3.6727">
        <ele>772</ele>
        <time>2022-06-21T05:18:05.418Z</time>
      </trkpt>
      <trkpt lat="45.61508" lon="3.67289">
        <ele>772</ele>
        <time>2022-06-21T05:18:07.624Z</time>
      </trkpt>
      <trkpt lat="45.6151" lon="3.67309">
        <ele>772</ele>
        <time>2022-06-21T05:18:09.962Z</time>
      </trkpt>
      <trkpt lat="45.61519" lon="3.6735">
        <ele>768</ele>
        <time>2022-06-21T05:18:12.517Z</time>
      </trkpt>
      <trkpt lat="45.61524" lon="3.67393">
        <ele>762</ele>
        <time>2022-06-21T05:18:15.110Z</time>
      </trkpt>
      <trkpt lat="45.61525" lon="3.67433">
        <ele>758</ele>
        <time>2022-06-21T05:18:17.490Z</time>
      </trkpt>
      <trkpt lat="45.6152" lon="3.67489">
        <ele>752</ele>
        <time>2022-06-21T05:18:20.847Z</time>
      </trkpt>
      <trkpt lat="45.61511" lon="3.6755">
        <ele>748</ele>
        <time>2022-06-21T05:18:24.555Z</time>
      </trkpt>
      <trkpt lat="45.61495" lon="3.67594">
        <ele>747</ele>
        <time>2022-06-21T05:18:28.343Z</time>
      </trkpt>
      <trkpt lat="45.61484" lon="3.67609">
        <ele>749</ele>
        <time>2022-06-21T05:18:37.790Z</time>
      </trkpt>
      <trkpt lat="45.61464" lon="3.67628">
        <ele>752</ele>
        <time>2022-06-21T05:18:51.438Z</time>
      </trkpt>
      <trkpt lat="45.61455" lon="3.67643">
        <ele>754</ele>
        <time>2022-06-21T05:19:00.260Z</time>
      </trkpt>
      <trkpt lat="45.61451" lon="3.67668">
        <ele>756</ele>
        <time>2022-06-21T05:19:08.952Z</time>
      </trkpt>
      <trkpt lat="45.61453" lon="3.67683">
        <ele>756</ele>
        <time>2022-06-21T05:19:10.719Z</time>
      </trkpt>
      <trkpt lat="45.61458" lon="3.67696">
        <ele>755</ele>
        <time>2022-06-21T05:19:11.601Z</time>
      </trkpt>
      <trkpt lat="45.61477" lon="3.67715">
        <ele>753</ele>
        <time>2022-06-21T05:19:13.573Z</time>
      </trkpt>
      <trkpt lat="45.61504" lon="3.67731">
        <ele>750</ele>
        <time>2022-06-21T05:19:16.058Z</time>
      </trkpt>
      <trkpt lat="45.61569" lon="3.67774">
        <ele>746</ele>
        <time>2022-06-21T05:19:22.134Z</time>
      </trkpt>
      <trkpt lat="45.61582" lon="3.67789">
        <ele>746</ele>
        <time>2022-06-21T05:19:24.899Z</time>
      </trkpt>
      <trkpt lat="45.61616" lon="3.67843">
        <ele>749</ele>
        <time>2022-06-21T05:19:40.527Z</time>
      </trkpt>
      <trkpt lat="45.61637" lon="3.67883">
        <ele>750</ele>
        <time>2022-06-21T05:19:48.368Z</time>
      </trkpt>
      <trkpt lat="45.61642" lon="3.6791">
        <ele>751</ele>
        <time>2022-06-21T05:19:54.064Z</time>
      </trkpt>
      <trkpt lat="45.61649" lon="3.68">
        <ele>754</ele>
        <time>2022-06-21T05:20:12.078Z</time>
      </trkpt>
      <trkpt lat="45.61657" lon="3.68026">
        <ele>754</ele>
        <time>2022-06-21T05:20:15.366Z</time>
      </trkpt>
      <trkpt lat="45.61666" lon="3.6804">
        <ele>753</ele>
        <time>2022-06-21T05:20:16.497Z</time>
      </trkpt>
      <trkpt lat="45.6168" lon="3.68053">
        <ele>754</ele>
        <time>2022-06-21T05:20:21.662Z</time>
      </trkpt>
      <trkpt lat="45.61691" lon="3.68059">
        <ele>754</ele>
        <time>2022-06-21T05:20:23.610Z</time>
      </trkpt>
      <trkpt lat="45.61723" lon="3.68065">
        <ele>755</ele>
        <time>2022-06-21T05:20:31.066Z</time>
      </trkpt>
      <trkpt lat="45.61772" lon="3.68068">
        <ele>755</ele>
        <time>2022-06-21T05:20:39.181Z</time>
      </trkpt>
      <trkpt lat="45.61808" lon="3.6808">
        <ele>757</ele>
        <time>2022-06-21T05:20:50.171Z</time>
      </trkpt>
      <trkpt lat="45.61792" lon="3.68094">
        <ele>757</ele>
        <time>2022-06-21T05:20:53.275Z</time>
      </trkpt>
      <trkpt lat="45.61711" lon="3.68175">
        <ele>761</ele>
        <time>2022-06-21T05:21:19.263Z</time>
      </trkpt>
      <trkpt lat="45.61687" lon="3.68194">
        <ele>762</ele>
        <time>2022-06-21T05:21:26.078Z</time>
      </trkpt>
      <trkpt lat="45.61644" lon="3.68222">
        <ele>765</ele>
        <time>2022-06-21T05:21:41.074Z</time>
      </trkpt>
      <trkpt lat="45.61599" lon="3.68237">
        <ele>768</ele>
        <time>2022-06-21T05:21:55.891Z</time>
      </trkpt>
      <trkpt lat="45.61541" lon="3.68248">
        <ele>771</ele>
        <time>2022-06-21T05:22:12.961Z</time>
      </trkpt>
      <trkpt lat="45.61441" lon="3.68242">
        <ele>777</ele>
        <time>2022-06-21T05:22:43.937Z</time>
      </trkpt>
      <trkpt lat="45.61413" lon="3.68246">
        <ele>779</ele>
        <time>2022-06-21T05:22:53.383Z</time>
      </trkpt>
      <trkpt lat="45.61399" lon="3.68258">
        <ele>780</ele>
        <time>2022-06-21T05:22:58.482Z</time>
      </trkpt>
      <trkpt lat="45.61283" lon="3.68319">
        <ele>780</ele>
        <time>2022-06-21T05:23:18.933Z</time>
      </trkpt>
      <trkpt lat="45.61235" lon="3.68339">
        <ele>776</ele>
        <time>2022-06-21T05:23:23.183Z</time>
      </trkpt>
      <trkpt lat="45.61207" lon="3.68338">
        <ele>774</ele>
        <time>2022-06-21T05:23:25.565Z</time>
      </trkpt>
      <trkpt lat="45.61186" lon="3.6833">
        <ele>774</ele>
        <time>2022-06-21T05:23:29.161Z</time>
      </trkpt>
      <trkpt lat="45.61156" lon="3.68336">
        <ele>773</ele>
        <time>2022-06-21T05:23:32.328Z</time>
      </trkpt>
      <trkpt lat="45.61123" lon="3.68352">
        <ele>771</ele>
        <time>2022-06-21T05:23:35.247Z</time>
      </trkpt>
      <trkpt lat="45.61099" lon="3.68354">
        <ele>771</ele>
        <time>2022-06-21T05:23:39.225Z</time>
      </trkpt>
      <trkpt lat="45.61056" lon="3.68341">
        <ele>776</ele>
        <time>2022-06-21T05:24:01.065Z</time>
      </trkpt>
      <trkpt lat="45.61008" lon="3.68346">
        <ele>781</ele>
        <time>2022-06-21T05:24:22.590Z</time>
      </trkpt>
      <trkpt lat="45.60987" lon="3.68353">
        <ele>783</ele>
        <time>2022-06-21T05:24:31.256Z</time>
      </trkpt>
      <trkpt lat="45.60952" lon="3.68376">
        <ele>785</ele>
        <time>2022-06-21T05:24:42.543Z</time>
      </trkpt>
      <trkpt lat="45.60939" lon="3.68398">
        <ele>785</ele>
        <time>2022-06-21T05:24:45.876Z</time>
      </trkpt>
      <trkpt lat="45.60931" lon="3.68415">
        <ele>785</ele>
        <time>2022-06-21T05:24:48.248Z</time>
      </trkpt>
      <trkpt lat="45.60918" lon="3.68491">
        <ele>786</ele>
        <time>2022-06-21T05:24:59.124Z</time>
      </trkpt>
      <trkpt lat="45.6091" lon="3.68518">
        <ele>783</ele>
        <time>2022-06-21T05:25:00.868Z</time>
      </trkpt>
      <trkpt lat="45.60862" lon="3.68593">
        <ele>777</ele>
        <time>2022-06-21T05:25:06.914Z</time>
      </trkpt>
      <trkpt lat="45.60837" lon="3.6862">
        <ele>776</ele>
        <time>2022-06-21T05:25:10.227Z</time>
      </trkpt>
      <trkpt lat="45.60803" lon="3.68642">
        <ele>771</ele>
        <time>2022-06-21T05:25:13.400Z</time>
      </trkpt>
      <trkpt lat="45.60784" lon="3.6865">
        <ele>768</ele>
        <time>2022-06-21T05:25:15.084Z</time>
      </trkpt>
      <trkpt lat="45.60764" lon="3.68652">
        <ele>767</ele>
        <time>2022-06-21T05:25:16.873Z</time>
      </trkpt>
      <trkpt lat="45.60743" lon="3.68647">
        <ele>766</ele>
        <time>2022-06-21T05:25:18.822Z</time>
      </trkpt>
      <trkpt lat="45.60724" lon="3.68634">
        <ele>764</ele>
        <time>2022-06-21T05:25:20.613Z</time>
      </trkpt>
      <trkpt lat="45.60713" lon="3.68621">
        <ele>764</ele>
        <time>2022-06-21T05:25:22.975Z</time>
      </trkpt>
      <trkpt lat="45.60703" lon="3.68606">
        <ele>765</ele>
        <time>2022-06-21T05:25:27.764Z</time>
      </trkpt>
      <trkpt lat="45.60692" lon="3.68564">
        <ele>771</ele>
        <time>2022-06-21T05:25:47.787Z</time>
      </trkpt>
      <trkpt lat="45.60685" lon="3.68548">
        <ele>773</ele>
        <time>2022-06-21T05:25:56.213Z</time>
      </trkpt>
      <trkpt lat="45.60675" lon="3.68538">
        <ele>774</ele>
        <time>2022-06-21T05:26:00.678Z</time>
      </trkpt>
      <trkpt lat="45.60665" lon="3.68534">
        <ele>774</ele>
        <time>2022-06-21T05:26:02.396Z</time>
      </trkpt>
      <trkpt lat="45.60642" lon="3.68535">
        <ele>778</ele>
        <time>2022-06-21T05:26:17.082Z</time>
      </trkpt>
      <trkpt lat="45.60629" lon="3.68541">
        <ele>779</ele>
        <time>2022-06-21T05:26:21.743Z</time>
      </trkpt>
      <trkpt lat="45.60608" lon="3.68564">
        <ele>778</ele>
        <time>2022-06-21T05:26:24.380Z</time>
      </trkpt>
      <trkpt lat="45.60592" lon="3.6859">
        <ele>775</ele>
        <time>2022-06-21T05:26:26.440Z</time>
      </trkpt>
      <trkpt lat="45.60572" lon="3.68638">
        <ele>767</ele>
        <time>2022-06-21T05:26:29.763Z</time>
      </trkpt>
      <trkpt lat="45.60515" lon="3.68714">
        <ele>768</ele>
        <time>2022-06-21T05:26:44.378Z</time>
      </trkpt>
      <trkpt lat="45.60491" lon="3.68777">
        <ele>760</ele>
        <time>2022-06-21T05:26:48.645Z</time>
      </trkpt>
      <trkpt lat="45.60473" lon="3.6881">
        <ele>759</ele>
        <time>2022-06-21T05:26:51.670Z</time>
      </trkpt>
      <trkpt lat="45.60461" lon="3.68828">
        <ele>758</ele>
        <time>2022-06-21T05:26:53.127Z</time>
      </trkpt>
      <trkpt lat="45.60443" lon="3.68844">
        <ele>760</ele>
        <time>2022-06-21T05:27:01.771Z</time>
      </trkpt>
      <trkpt lat="45.60405" lon="3.68861">
        <ele>764</ele>
        <time>2022-06-21T05:27:18.981Z</time>
      </trkpt>
      <trkpt lat="45.6036" lon="3.68874">
        <ele>764</ele>
        <time>2022-06-21T05:27:26.577Z</time>
      </trkpt>
      <trkpt lat="45.60343" lon="3.68885">
        <ele>762</ele>
        <time>2022-06-21T05:27:28.164Z</time>
      </trkpt>
      <trkpt lat="45.60331" lon="3.68899">
        <ele>759</ele>
        <time>2022-06-21T05:27:29.481Z</time>
      </trkpt>
      <trkpt lat="45.60321" lon="3.68925">
        <ele>754</ele>
        <time>2022-06-21T05:27:31.246Z</time>
      </trkpt>
      <trkpt lat="45.60311" lon="3.68955">
        <ele>751</ele>
        <time>2022-06-21T05:27:33.222Z</time>
      </trkpt>
      <trkpt lat="45.603" lon="3.68978">
        <ele>748</ele>
        <time>2022-06-21T05:27:34.880Z</time>
      </trkpt>
      <trkpt lat="45.60282" lon="3.69003">
        <ele>746</ele>
        <time>2022-06-21T05:27:37.013Z</time>
      </trkpt>
      <trkpt lat="45.60264" lon="3.69019">
        <ele>745</ele>
        <time>2022-06-21T05:27:38.951Z</time>
      </trkpt>
      <trkpt lat="45.60247" lon="3.69027">
        <ele>744</ele>
        <time>2022-06-21T05:27:40.469Z</time>
      </trkpt>
      <trkpt lat="45.60198" lon="3.69035">
        <ele>744</ele>
        <time>2022-06-21T05:27:48.629Z</time>
      </trkpt>
      <trkpt lat="45.60114" lon="3.6907">
        <ele>741</ele>
        <time>2022-06-21T05:27:57.661Z</time>
      </trkpt>
      <trkpt lat="45.60098" lon="3.69068">
        <ele>741</ele>
        <time>2022-06-21T05:28:00.318Z</time>
      </trkpt>
      <trkpt lat="45.60083" lon="3.69059">
        <ele>741</ele>
        <time>2022-06-21T05:28:03.010Z</time>
      </trkpt>
      <trkpt lat="45.60076" lon="3.69051">
        <ele>740</ele>
        <time>2022-06-21T05:28:03.772Z</time>
      </trkpt>
      <trkpt lat="45.60072" lon="3.69046">
        <ele>740</ele>
        <time>2022-06-21T05:28:04.651Z</time>
      </trkpt>
      <trkpt lat="45.60064" lon="3.69025">
        <ele>739</ele>
        <time>2022-06-21T05:28:06.026Z</time>
      </trkpt>
      <trkpt lat="45.6006" lon="3.69003">
        <ele>739</ele>
        <time>2022-06-21T05:28:08.657Z</time>
      </trkpt>
      <trkpt lat="45.60061" lon="3.68986">
        <ele>738</ele>
        <time>2022-06-21T05:28:09.672Z</time>
      </trkpt>
      <trkpt lat="45.60065" lon="3.68965">
        <ele>738</ele>
        <time>2022-06-21T05:28:12.192Z</time>
      </trkpt>
      <trkpt lat="45.60088" lon="3.6891">
        <ele>739</ele>
        <time>2022-06-21T05:28:21.514Z</time>
      </trkpt>
      <trkpt lat="45.60096" lon="3.68872">
        <ele>739</ele>
        <time>2022-06-21T05:28:26.108Z</time>
      </trkpt>
      <trkpt lat="45.60102" lon="3.68832">
        <ele>740</ele>
        <time>2022-06-21T05:28:33.073Z</time>
      </trkpt>
      <trkpt lat="45.60102" lon="3.68763">
        <ele>740</ele>
        <time>2022-06-21T05:28:41.061Z</time>
      </trkpt>
      <trkpt lat="45.60099" lon="3.68735">
        <ele>741</ele>
        <time>2022-06-21T05:28:46.812Z</time>
      </trkpt>
      <trkpt lat="45.6009" lon="3.68711">
        <ele>740</ele>
        <time>2022-06-21T05:28:48.474Z</time>
      </trkpt>
      <trkpt lat="45.60082" lon="3.687">
        <ele>739</ele>
        <time>2022-06-21T05:28:49.418Z</time>
      </trkpt>
      <trkpt lat="45.60068" lon="3.6869">
        <ele>739</ele>
        <time>2022-06-21T05:28:52.008Z</time>
      </trkpt>
      <trkpt lat="45.59995" lon="3.68691">
        <ele>733</ele>
        <time>2022-06-21T05:28:58.214Z</time>
      </trkpt>
      <trkpt lat="45.59983" lon="3.68686">
        <ele>732</ele>
        <time>2022-06-21T05:28:59.277Z</time>
      </trkpt>
      <trkpt lat="45.59972" lon="3.68676">
        <ele>731</ele>
        <time>2022-06-21T05:29:00.385Z</time>
      </trkpt>
      <trkpt lat="45.5996" lon="3.68648">
        <ele>731</ele>
        <time>2022-06-21T05:29:04.187Z</time>
      </trkpt>
      <trkpt lat="45.59951" lon="3.6861">
        <ele>731</ele>
        <time>2022-06-21T05:29:08.831Z</time>
      </trkpt>
      <trkpt lat="45.59949" lon="3.68582">
        <ele>731</ele>
        <time>2022-06-21T05:29:12.089Z</time>
      </trkpt>
      <trkpt lat="45.59952" lon="3.68487">
        <ele>735</ele>
        <time>2022-06-21T05:29:32.706Z</time>
      </trkpt>
      <trkpt lat="45.59948" lon="3.68455">
        <ele>738</ele>
        <time>2022-06-21T05:29:46.908Z</time>
      </trkpt>
      <trkpt lat="45.59939" lon="3.68432">
        <ele>739</ele>
        <time>2022-06-21T05:29:52.394Z</time>
      </trkpt>
      <trkpt lat="45.59922" lon="3.68409">
        <ele>740</ele>
        <time>2022-06-21T05:29:58.757Z</time>
      </trkpt>
      <trkpt lat="45.5991" lon="3.68402">
        <ele>741</ele>
        <time>2022-06-21T05:30:03.319Z</time>
      </trkpt>
      <trkpt lat="45.59891" lon="3.68397">
        <ele>742</ele>
        <time>2022-06-21T05:30:08.973Z</time>
      </trkpt>
      <trkpt lat="45.5987" lon="3.68402">
        <ele>741</ele>
        <time>2022-06-21T05:30:10.923Z</time>
      </trkpt>
      <trkpt lat="45.59852" lon="3.68416">
        <ele>740</ele>
        <time>2022-06-21T05:30:12.769Z</time>
      </trkpt>
      <trkpt lat="45.59815" lon="3.68452">
        <ele>738</ele>
        <time>2022-06-21T05:30:16.952Z</time>
      </trkpt>
      <trkpt lat="45.59795" lon="3.68486">
        <ele>737</ele>
        <time>2022-06-21T05:30:20.230Z</time>
      </trkpt>
      <trkpt lat="45.59776" lon="3.68525">
        <ele>736</ele>
        <time>2022-06-21T05:30:23.814Z</time>
      </trkpt>
      <trkpt lat="45.59762" lon="3.68553">
        <ele>734</ele>
        <time>2022-06-21T05:30:25.861Z</time>
      </trkpt>
      <trkpt lat="45.59737" lon="3.68594">
        <ele>731</ele>
        <time>2022-06-21T05:30:29.096Z</time>
      </trkpt>
      <trkpt lat="45.59725" lon="3.68607">
        <ele>731</ele>
        <time>2022-06-21T05:30:31.587Z</time>
      </trkpt>
      <trkpt lat="45.597" lon="3.68623">
        <ele>731</ele>
        <time>2022-06-21T05:30:36.120Z</time>
      </trkpt>
      <trkpt lat="45.59661" lon="3.68644">
        <ele>732</ele>
        <time>2022-06-21T05:30:44.958Z</time>
      </trkpt>
      <trkpt lat="45.59636" lon="3.6867">
        <ele>733</ele>
        <time>2022-06-21T05:30:52.228Z</time>
      </trkpt>
      <trkpt lat="45.5962" lon="3.68714">
        <ele>728</ele>
        <time>2022-06-21T05:30:55.177Z</time>
      </trkpt>
      <trkpt lat="45.59596" lon="3.6874">
        <ele>727</ele>
        <time>2022-06-21T05:30:58.320Z</time>
      </trkpt>
      <trkpt lat="45.59559" lon="3.68756">
        <ele>730</ele>
        <time>2022-06-21T05:31:11.974Z</time>
      </trkpt>
      <trkpt lat="45.59513" lon="3.68833">
        <ele>728</ele>
        <time>2022-06-21T05:31:19.760Z</time>
      </trkpt>
      <trkpt lat="45.59503" lon="3.68862">
        <ele>725</ele>
        <time>2022-06-21T05:31:21.684Z</time>
      </trkpt>
      <trkpt lat="45.5949" lon="3.6889">
        <ele>721</ele>
        <time>2022-06-21T05:31:23.683Z</time>
      </trkpt>
      <trkpt lat="45.59473" lon="3.68904">
        <ele>720</ele>
        <time>2022-06-21T05:31:25.417Z</time>
      </trkpt>
      <trkpt lat="45.59439" lon="3.68914">
        <ele>722</ele>
        <time>2022-06-21T05:31:35.988Z</time>
      </trkpt>
      <trkpt lat="45.59418" lon="3.68924">
        <ele>724</ele>
        <time>2022-06-21T05:31:44.694Z</time>
      </trkpt>
      <trkpt lat="45.59392" lon="3.68944">
        <ele>723</ele>
        <time>2022-06-21T05:31:47.754Z</time>
      </trkpt>
      <trkpt lat="45.59365" lon="3.68955">
        <ele>723</ele>
        <time>2022-06-21T05:31:52.400Z</time>
      </trkpt>
      <trkpt lat="45.59324" lon="3.68961">
        <ele>727</ele>
        <time>2022-06-21T05:32:09.639Z</time>
      </trkpt>
      <trkpt lat="45.5931" lon="3.68968">
        <ele>730</ele>
        <time>2022-06-21T05:32:19.105Z</time>
      </trkpt>
      <trkpt lat="45.59298" lon="3.68986">
        <ele>731</ele>
        <time>2022-06-21T05:32:24.397Z</time>
      </trkpt>
      <trkpt lat="45.59293" lon="3.69008">
        <ele>731</ele>
        <time>2022-06-21T05:32:27.075Z</time>
      </trkpt>
      <trkpt lat="45.59295" lon="3.69027">
        <ele>732</ele>
        <time>2022-06-21T05:32:31.705Z</time>
      </trkpt>
      <trkpt lat="45.59326" lon="3.69119">
        <ele>729</ele>
        <time>2022-06-21T05:32:38.551Z</time>
      </trkpt>
      <trkpt lat="45.5933" lon="3.69179">
        <ele>734</ele>
        <time>2022-06-21T05:33:00.703Z</time>
      </trkpt>
      <trkpt lat="45.59328" lon="3.69253">
        <ele>736</ele>
        <time>2022-06-21T05:33:13.966Z</time>
      </trkpt>
      <trkpt lat="45.59319" lon="3.69326">
        <ele>732</ele>
        <time>2022-06-21T05:33:18.375Z</time>
      </trkpt>
      <trkpt lat="45.59294" lon="3.69414">
        <ele>733</ele>
        <time>2022-06-21T05:33:31.130Z</time>
      </trkpt>
      <trkpt lat="45.59247" lon="3.69534">
        <ele>730</ele>
        <time>2022-06-21T05:33:41.383Z</time>
      </trkpt>
      <trkpt lat="45.59231" lon="3.69564">
        <ele>727</ele>
        <time>2022-06-21T05:33:43.627Z</time>
      </trkpt>
      <trkpt lat="45.59171" lon="3.69607">
        <ele>732</ele>
        <time>2022-06-21T05:34:06.759Z</time>
      </trkpt>
      <trkpt lat="45.59162" lon="3.6962">
        <ele>733</ele>
        <time>2022-06-21T05:34:11.298Z</time>
      </trkpt>
      <trkpt lat="45.59157" lon="3.69635">
        <ele>733</ele>
        <time>2022-06-21T05:34:13.222Z</time>
      </trkpt>
      <trkpt lat="45.59157" lon="3.69658">
        <ele>732</ele>
        <time>2022-06-21T05:34:14.520Z</time>
      </trkpt>
      <trkpt lat="45.59163" lon="3.69713">
        <ele>728</ele>
        <time>2022-06-21T05:34:17.832Z</time>
      </trkpt>
      <trkpt lat="45.59159" lon="3.69732">
        <ele>727</ele>
        <time>2022-06-21T05:34:19.012Z</time>
      </trkpt>
      <trkpt lat="45.59146" lon="3.6975">
        <ele>728</ele>
        <time>2022-06-21T05:34:24.436Z</time>
      </trkpt>
      <trkpt lat="45.59111" lon="3.69777">
        <ele>730</ele>
        <time>2022-06-21T05:34:35.964Z</time>
      </trkpt>
      <trkpt lat="45.59063" lon="3.69808">
        <ele>733</ele>
        <time>2022-06-21T05:34:51.932Z</time>
      </trkpt>
      <trkpt lat="45.59047" lon="3.69842">
        <ele>734</ele>
        <time>2022-06-21T05:34:58.903Z</time>
      </trkpt>
      <trkpt lat="45.59027" lon="3.69908">
        <ele>734</ele>
        <time>2022-06-21T05:35:07.230Z</time>
      </trkpt>
      <trkpt lat="45.59009" lon="3.69937">
        <ele>731</ele>
        <time>2022-06-21T05:35:09.537Z</time>
      </trkpt>
      <trkpt lat="45.58969" lon="3.69951">
        <ele>730</ele>
        <time>2022-06-21T05:35:14.262Z</time>
      </trkpt>
      <trkpt lat="45.58931" lon="3.6996">
        <ele>728</ele>
        <time>2022-06-21T05:35:17.640Z</time>
      </trkpt>
      <trkpt lat="45.589" lon="3.69972">
        <ele>727</ele>
        <time>2022-06-21T05:35:21.064Z</time>
      </trkpt>
      <trkpt lat="45.58845" lon="3.70011">
        <ele>721</ele>
        <time>2022-06-21T05:35:26.284Z</time>
      </trkpt>
      <trkpt lat="45.58833" lon="3.70015">
        <ele>720</ele>
        <time>2022-06-21T05:35:27.331Z</time>
      </trkpt>
      <trkpt lat="45.58821" lon="3.70014">
        <ele>721</ele>
        <time>2022-06-21T05:35:31.776Z</time>
      </trkpt>
      <trkpt lat="45.58808" lon="3.70006">
        <ele>723</ele>
        <time>2022-06-21T05:35:40.809Z</time>
      </trkpt>
      <trkpt lat="45.5879" lon="3.69988">
        <ele>726</ele>
        <time>2022-06-21T05:35:54.830Z</time>
      </trkpt>
      <trkpt lat="45.5878" lon="3.69984">
        <ele>727</ele>
        <time>2022-06-21T05:35:59.143Z</time>
      </trkpt>
      <trkpt lat="45.5877" lon="3.69986">
        <ele>727</ele>
        <time>2022-06-21T05:36:00.814Z</time>
      </trkpt>
      <trkpt lat="45.58758" lon="3.69995">
        <ele>725</ele>
        <time>2022-06-21T05:36:01.966Z</time>
      </trkpt>
      <trkpt lat="45.5875" lon="3.7001">
        <ele>724</ele>
        <time>2022-06-21T05:36:03.088Z</time>
      </trkpt>
      <trkpt lat="45.58747" lon="3.70029">
        <ele>724</ele>
        <time>2022-06-21T05:36:05.343Z</time>
      </trkpt>
      <trkpt lat="45.5875" lon="3.70047">
        <ele>723</ele>
        <time>2022-06-21T05:36:06.444Z</time>
      </trkpt>
      <trkpt lat="45.58765" lon="3.70076">
        <ele>721</ele>
        <time>2022-06-21T05:36:08.590Z</time>
      </trkpt>
      <trkpt lat="45.58774" lon="3.70113">
        <ele>717</ele>
        <time>2022-06-21T05:36:10.921Z</time>
      </trkpt>
      <trkpt lat="45.58772" lon="3.70143">
        <ele>716</ele>
        <time>2022-06-21T05:36:12.844Z</time>
      </trkpt>
      <trkpt lat="45.5876" lon="3.70162">
        <ele>716</ele>
        <time>2022-06-21T05:36:15.807Z</time>
      </trkpt>
      <trkpt lat="45.58691" lon="3.70229">
        <ele>716</ele>
        <time>2022-06-21T05:36:29.611Z</time>
      </trkpt>
      <trkpt lat="45.58672" lon="3.70244">
        <ele>718</ele>
        <time>2022-06-21T05:36:38.286Z</time>
      </trkpt>
      <trkpt lat="45.5866" lon="3.70267">
        <ele>718</ele>
        <time>2022-06-21T05:36:41.608Z</time>
      </trkpt>
      <trkpt lat="45.58645" lon="3.70337">
        <ele>714</ele>
        <time>2022-06-21T05:36:45.964Z</time>
      </trkpt>
      <trkpt lat="45.58633" lon="3.70363">
        <ele>714</ele>
        <time>2022-06-21T05:36:49.570Z</time>
      </trkpt>
      <trkpt lat="45.58611" lon="3.70402">
        <ele>716</ele>
        <time>2022-06-21T05:37:00.204Z</time>
      </trkpt>
      <trkpt lat="45.58603" lon="3.7043">
        <ele>716</ele>
        <time>2022-06-21T05:37:03.706Z</time>
      </trkpt>
      <trkpt lat="45.58603" lon="3.70496">
        <ele>711</ele>
        <time>2022-06-21T05:37:07.633Z</time>
      </trkpt>
      <trkpt lat="45.58599" lon="3.70548">
        <ele>708</ele>
        <time>2022-06-21T05:37:10.746Z</time>
      </trkpt>
      <trkpt lat="45.58594" lon="3.70573">
        <ele>707</ele>
        <time>2022-06-21T05:37:12.301Z</time>
      </trkpt>
      <trkpt lat="45.58584" lon="3.70599">
        <ele>706</ele>
        <time>2022-06-21T05:37:14.182Z</time>
      </trkpt>
      <trkpt lat="45.58546" lon="3.70661">
        <ele>699</ele>
        <time>2022-06-21T05:37:19.086Z</time>
      </trkpt>
      <trkpt lat="45.58538" lon="3.70684">
        <ele>697</ele>
        <time>2022-06-21T05:37:20.614Z</time>
      </trkpt>
      <trkpt lat="45.58531" lon="3.70722">
        <ele>694</ele>
        <time>2022-06-21T05:37:22.952Z</time>
      </trkpt>
      <trkpt lat="45.5852" lon="3.70749">
        <ele>693</ele>
        <time>2022-06-21T05:37:24.976Z</time>
      </trkpt>
      <trkpt lat="45.58497" lon="3.70776">
        <ele>690</ele>
        <time>2022-06-21T05:37:27.507Z</time>
      </trkpt>
      <trkpt lat="45.58473" lon="3.70796">
        <ele>690</ele>
        <time>2022-06-21T05:37:32.104Z</time>
      </trkpt>
      <trkpt lat="45.58448" lon="3.70808">
        <ele>690</ele>
        <time>2022-06-21T05:37:36.468Z</time>
      </trkpt>
      <trkpt lat="45.58424" lon="3.70817">
        <ele>691</ele>
        <time>2022-06-21T05:37:42.976Z</time>
      </trkpt>
      <trkpt lat="45.58354" lon="3.70826">
        <ele>693</ele>
        <time>2022-06-21T05:37:58.705Z</time>
      </trkpt>
      <trkpt lat="45.58313" lon="3.70825">
        <ele>691</ele>
        <time>2022-06-21T05:38:02.400Z</time>
      </trkpt>
      <trkpt lat="45.58295" lon="3.70822">
        <ele>688</ele>
        <time>2022-06-21T05:38:03.940Z</time>
      </trkpt>
      <trkpt lat="45.58276" lon="3.70806">
        <ele>686</ele>
        <time>2022-06-21T05:38:05.815Z</time>
      </trkpt>
      <trkpt lat="45.5827" lon="3.70794">
        <ele>685</ele>
        <time>2022-06-21T05:38:06.693Z</time>
      </trkpt>
      <trkpt lat="45.58266" lon="3.70781">
        <ele>684</ele>
        <time>2022-06-21T05:38:07.538Z</time>
      </trkpt>
      <trkpt lat="45.58265" lon="3.70763">
        <ele>684</ele>
        <time>2022-06-21T05:38:09.629Z</time>
      </trkpt>
      <trkpt lat="45.58268" lon="3.70737">
        <ele>684</ele>
        <time>2022-06-21T05:38:12.681Z</time>
      </trkpt>
      <trkpt lat="45.58276" lon="3.70712">
        <ele>685</ele>
        <time>2022-06-21T05:38:18.320Z</time>
      </trkpt>
      <trkpt lat="45.5829" lon="3.70691">
        <ele>687</ele>
        <time>2022-06-21T05:38:26.931Z</time>
      </trkpt>
      <trkpt lat="45.58344" lon="3.70616">
        <ele>690</ele>
        <time>2022-06-21T05:38:46.550Z</time>
      </trkpt>
      <trkpt lat="45.58353" lon="3.7059">
        <ele>689</ele>
        <time>2022-06-21T05:38:48.372Z</time>
      </trkpt>
      <trkpt lat="45.58357" lon="3.70561">
        <ele>689</ele>
        <time>2022-06-21T05:38:51.794Z</time>
      </trkpt>
      <trkpt lat="45.58354" lon="3.70534">
        <ele>689</ele>
        <time>2022-06-21T05:38:54.960Z</time>
      </trkpt>
      <trkpt lat="45.58346" lon="3.7051">
        <ele>689</ele>
        <time>2022-06-21T05:38:58.038Z</time>
      </trkpt>
      <trkpt lat="45.58329" lon="3.70485">
        <ele>691</ele>
        <time>2022-06-21T05:39:06.968Z</time>
      </trkpt>
      <trkpt lat="45.58306" lon="3.70481">
        <ele>692</ele>
        <time>2022-06-21T05:39:13.308Z</time>
      </trkpt>
      <trkpt lat="45.58196" lon="3.70513">
        <ele>675</ele>
        <time>2022-06-21T05:39:22.852Z</time>
      </trkpt>
      <trkpt lat="45.58179" lon="3.70513">
        <ele>672</ele>
        <time>2022-06-21T05:39:24.297Z</time>
      </trkpt>
      <trkpt lat="45.58169" lon="3.70507">
        <ele>671</ele>
        <time>2022-06-21T05:39:25.219Z</time>
      </trkpt>
      <trkpt lat="45.5816" lon="3.7049">
        <ele>671</ele>
        <time>2022-06-21T05:39:27.688Z</time>
      </trkpt>
      <trkpt lat="45.58156" lon="3.7046">
        <ele>673</ele>
        <time>2022-06-21T05:39:36.343Z</time>
      </trkpt>
      <trkpt lat="45.58155" lon="3.70428">
        <ele>675</ele>
        <time>2022-06-21T05:39:45.071Z</time>
      </trkpt>
      <trkpt lat="45.58157" lon="3.70397">
        <ele>679</ele>
        <time>2022-06-21T05:39:58.977Z</time>
      </trkpt>
      <trkpt lat="45.58151" lon="3.70374">
        <ele>681</ele>
        <time>2022-06-21T05:40:07.777Z</time>
      </trkpt>
      <trkpt lat="45.58138" lon="3.70355">
        <ele>682</ele>
        <time>2022-06-21T05:40:13.294Z</time>
      </trkpt>
      <trkpt lat="45.58126" lon="3.70346">
        <ele>681</ele>
        <time>2022-06-21T05:40:14.446Z</time>
      </trkpt>
      <trkpt lat="45.58109" lon="3.70355">
        <ele>677</ele>
        <time>2022-06-21T05:40:15.987Z</time>
      </trkpt>
      <trkpt lat="45.58097" lon="3.70363">
        <ele>674</ele>
        <time>2022-06-21T05:40:17.113Z</time>
      </trkpt>
      <trkpt lat="45.58046" lon="3.70395">
        <ele>672</ele>
        <time>2022-06-21T05:40:22.771Z</time>
      </trkpt>
      <trkpt lat="45.58005" lon="3.70419">
        <ele>671</ele>
        <time>2022-06-21T05:40:27.954Z</time>
      </trkpt>
      <trkpt lat="45.57979" lon="3.70432">
        <ele>669</ele>
        <time>2022-06-21T05:40:30.296Z</time>
      </trkpt>
      <trkpt lat="45.57952" lon="3.70441">
        <ele>668</ele>
        <time>2022-06-21T05:40:33.108Z</time>
      </trkpt>
      <trkpt lat="45.57933" lon="3.70442">
        <ele>668</ele>
        <time>2022-06-21T05:40:36.254Z</time>
      </trkpt>
      <trkpt lat="45.57912" lon="3.70435">
        <ele>670</ele>
        <time>2022-06-21T05:40:44.920Z</time>
      </trkpt>
      <trkpt lat="45.57882" lon="3.70411">
        <ele>674</ele>
        <time>2022-06-21T05:41:02.515Z</time>
      </trkpt>
      <trkpt lat="45.57867" lon="3.70404">
        <ele>675</ele>
        <time>2022-06-21T05:41:07.519Z</time>
      </trkpt>
      <trkpt lat="45.57853" lon="3.70405">
        <ele>675</ele>
        <time>2022-06-21T05:41:09.838Z</time>
      </trkpt>
      <trkpt lat="45.57837" lon="3.70414">
        <ele>675</ele>
        <time>2022-06-21T05:41:12.683Z</time>
      </trkpt>
      <trkpt lat="45.57827" lon="3.7043">
        <ele>675</ele>
        <time>2022-06-21T05:41:15.168Z</time>
      </trkpt>
      <trkpt lat="45.5782" lon="3.70453">
        <ele>675</ele>
        <time>2022-06-21T05:41:18.072Z</time>
      </trkpt>
      <trkpt lat="45.57822" lon="3.70481">
        <ele>674</ele>
        <time>2022-06-21T05:41:19.817Z</time>
      </trkpt>
      <trkpt lat="45.57832" lon="3.70518">
        <ele>670</ele>
        <time>2022-06-21T05:41:22.177Z</time>
      </trkpt>
      <trkpt lat="45.57834" lon="3.70547">
        <ele>667</ele>
        <time>2022-06-21T05:41:23.911Z</time>
      </trkpt>
      <trkpt lat="45.57825" lon="3.70594">
        <ele>665</ele>
        <time>2022-06-21T05:41:26.740Z</time>
      </trkpt>
      <trkpt lat="45.57798" lon="3.70654">
        <ele>666</ele>
        <time>2022-06-21T05:41:36.857Z</time>
      </trkpt>
      <trkpt lat="45.57775" lon="3.70694">
        <ele>669</ele>
        <time>2022-06-21T05:41:50.209Z</time>
      </trkpt>
      <trkpt lat="45.57756" lon="3.70721">
        <ele>671</ele>
        <time>2022-06-21T05:41:59.454Z</time>
      </trkpt>
      <trkpt lat="45.57748" lon="3.70744">
        <ele>670</ele>
        <time>2022-06-21T05:42:00.982Z</time>
      </trkpt>
      <trkpt lat="45.57745" lon="3.70797">
        <ele>666</ele>
        <time>2022-06-21T05:42:04.147Z</time>
      </trkpt>
      <trkpt lat="45.57741" lon="3.70818">
        <ele>665</ele>
        <time>2022-06-21T05:42:05.342Z</time>
      </trkpt>
      <trkpt lat="45.57738" lon="3.70832">
        <ele>665</ele>
        <time>2022-06-21T05:42:07.038Z</time>
      </trkpt>
      <trkpt lat="45.57723" lon="3.70872">
        <ele>661</ele>
        <time>2022-06-21T05:42:09.739Z</time>
      </trkpt>
      <trkpt lat="45.57705" lon="3.70914">
        <ele>657</ele>
        <time>2022-06-21T05:42:12.669Z</time>
      </trkpt>
      <trkpt lat="45.57688" lon="3.70943">
        <ele>656</ele>
        <time>2022-06-21T05:42:15.310Z</time>
      </trkpt>
      <trkpt lat="45.57674" lon="3.70955">
        <ele>656</ele>
        <time>2022-06-21T05:42:18.011Z</time>
      </trkpt>
      <trkpt lat="45.57656" lon="3.70964">
        <ele>657</ele>
        <time>2022-06-21T05:42:23.618Z</time>
      </trkpt>
      <trkpt lat="45.57616" lon="3.70967">
        <ele>660</ele>
        <time>2022-06-21T05:42:37.466Z</time>
      </trkpt>
      <trkpt lat="45.57602" lon="3.70971">
        <ele>661</ele>
        <time>2022-06-21T05:42:42.221Z</time>
      </trkpt>
      <trkpt lat="45.5759" lon="3.70989">
        <ele>660</ele>
        <time>2022-06-21T05:42:43.678Z</time>
      </trkpt>
      <trkpt lat="45.57585" lon="3.71009">
        <ele>659</ele>
        <time>2022-06-21T05:42:44.942Z</time>
      </trkpt>
      <trkpt lat="45.57578" lon="3.71061">
        <ele>658</ele>
        <time>2022-06-21T05:42:49.070Z</time>
      </trkpt>
      <trkpt lat="45.57558" lon="3.71114">
        <ele>656</ele>
        <time>2022-06-21T05:42:52.913Z</time>
      </trkpt>
      <trkpt lat="45.57551" lon="3.71142">
        <ele>654</ele>
        <time>2022-06-21T05:42:54.682Z</time>
      </trkpt>
      <trkpt lat="45.57547" lon="3.71194">
        <ele>651</ele>
        <time>2022-06-21T05:42:57.795Z</time>
      </trkpt>
      <trkpt lat="45.5754" lon="3.71212">
        <ele>650</ele>
        <time>2022-06-21T05:42:59.021Z</time>
      </trkpt>
      <trkpt lat="45.57532" lon="3.71221">
        <ele>649</ele>
        <time>2022-06-21T05:42:59.886Z</time>
      </trkpt>
      <trkpt lat="45.57524" lon="3.71227">
        <ele>649</ele>
        <time>2022-06-21T05:43:01.381Z</time>
      </trkpt>
      <trkpt lat="45.57503" lon="3.71228">
        <ele>648</ele>
        <time>2022-06-21T05:43:03.295Z</time>
      </trkpt>
      <trkpt lat="45.5748" lon="3.71222">
        <ele>648</ele>
        <time>2022-06-21T05:43:07.163Z</time>
      </trkpt>
      <trkpt lat="45.57465" lon="3.71222">
        <ele>649</ele>
        <time>2022-06-21T05:43:12.035Z</time>
      </trkpt>
      <trkpt lat="45.5745" lon="3.71227">
        <ele>649</ele>
        <time>2022-06-21T05:43:14.584Z</time>
      </trkpt>
      <trkpt lat="45.57439" lon="3.71235">
        <ele>648</ele>
        <time>2022-06-21T05:43:15.633Z</time>
      </trkpt>
      <trkpt lat="45.57411" lon="3.71264">
        <ele>645</ele>
        <time>2022-06-21T05:43:18.573Z</time>
      </trkpt>
      <trkpt lat="45.57385" lon="3.71287">
        <ele>643</ele>
        <time>2022-06-21T05:43:20.978Z</time>
      </trkpt>
      <trkpt lat="45.57367" lon="3.71293">
        <ele>642</ele>
        <time>2022-06-21T05:43:22.569Z</time>
      </trkpt>
      <trkpt lat="45.57346" lon="3.71297">
        <ele>642</ele>
        <time>2022-06-21T05:43:26.075Z</time>
      </trkpt>
      <trkpt lat="45.57307" lon="3.71297">
        <ele>642</ele>
        <time>2022-06-21T05:43:32.528Z</time>
      </trkpt>
      <trkpt lat="45.57285" lon="3.71304">
        <ele>641</ele>
        <time>2022-06-21T05:43:34.640Z</time>
      </trkpt>
      <trkpt lat="45.57251" lon="3.71319">
        <ele>639</ele>
        <time>2022-06-21T05:43:37.651Z</time>
      </trkpt>
      <trkpt lat="45.57234" lon="3.71325">
        <ele>638</ele>
        <time>2022-06-21T05:43:39.121Z</time>
      </trkpt>
      <trkpt lat="45.57185" lon="3.71331">
        <ele>638</ele>
        <time>2022-06-21T05:43:47.259Z</time>
      </trkpt>
      <trkpt lat="45.57172" lon="3.7134">
        <ele>637</ele>
        <time>2022-06-21T05:43:48.487Z</time>
      </trkpt>
      <trkpt lat="45.57159" lon="3.71355">
        <ele>636</ele>
        <time>2022-06-21T05:43:49.859Z</time>
      </trkpt>
      <trkpt lat="45.57111" lon="3.71436">
        <ele>632</ele>
        <time>2022-06-21T05:43:56.269Z</time>
      </trkpt>
      <trkpt lat="45.57098" lon="3.71452">
        <ele>631</ele>
        <time>2022-06-21T05:43:57.696Z</time>
      </trkpt>
      <trkpt lat="45.57087" lon="3.71458">
        <ele>631</ele>
        <time>2022-06-21T05:43:59.644Z</time>
      </trkpt>
      <trkpt lat="45.57076" lon="3.7146">
        <ele>630</ele>
        <time>2022-06-21T05:44:00.587Z</time>
      </trkpt>
      <trkpt lat="45.57039" lon="3.71454">
        <ele>628</ele>
        <time>2022-06-21T05:44:03.803Z</time>
      </trkpt>
      <trkpt lat="45.57014" lon="3.71453">
        <ele>626</ele>
        <time>2022-06-21T05:44:05.930Z</time>
      </trkpt>
      <trkpt lat="45.56978" lon="3.71459">
        <ele>623</ele>
        <time>2022-06-21T05:44:09.011Z</time>
      </trkpt>
      <trkpt lat="45.56955" lon="3.71461">
        <ele>622</ele>
        <time>2022-06-21T05:44:11.190Z</time>
      </trkpt>
      <trkpt lat="45.56933" lon="3.71455">
        <ele>621</ele>
        <time>2022-06-21T05:44:13.284Z</time>
      </trkpt>
      <trkpt lat="45.56919" lon="3.71447">
        <ele>621</ele>
        <time>2022-06-21T05:44:15.779Z</time>
      </trkpt>
      <trkpt lat="45.56893" lon="3.71408">
        <ele>623</ele>
        <time>2022-06-21T05:44:26.909Z</time>
      </trkpt>
      <trkpt lat="45.56885" lon="3.71403">
        <ele>623</ele>
        <time>2022-06-21T05:44:28.354Z</time>
      </trkpt>
      <trkpt lat="45.56873" lon="3.714">
        <ele>623</ele>
        <time>2022-06-21T05:44:30.369Z</time>
      </trkpt>
      <trkpt lat="45.56856" lon="3.71403">
        <ele>622</ele>
        <time>2022-06-21T05:44:31.793Z</time>
      </trkpt>
      <trkpt lat="45.5684" lon="3.71402">
        <ele>622</ele>
        <time>2022-06-21T05:44:34.443Z</time>
      </trkpt>
      <trkpt lat="45.56813" lon="3.71388">
        <ele>624</ele>
        <time>2022-06-21T05:44:43.980Z</time>
      </trkpt>
      <trkpt lat="45.56798" lon="3.71388">
        <ele>625</ele>
        <time>2022-06-21T05:44:48.852Z</time>
      </trkpt>
      <trkpt lat="45.56788" lon="3.71394">
        <ele>624</ele>
        <time>2022-06-21T05:44:49.774Z</time>
      </trkpt>
      <trkpt lat="45.56778" lon="3.71409">
        <ele>623</ele>
        <time>2022-06-21T05:44:51.007Z</time>
      </trkpt>
      <trkpt lat="45.56773" lon="3.71436">
        <ele>620</ele>
        <time>2022-06-21T05:44:52.669Z</time>
      </trkpt>
      <trkpt lat="45.56764" lon="3.71455">
        <ele>617</ele>
        <time>2022-06-21T05:44:54.034Z</time>
      </trkpt>
      <trkpt lat="45.56708" lon="3.71496">
        <ele>613</ele>
        <time>2022-06-21T05:44:59.054Z</time>
      </trkpt>
      <trkpt lat="45.56681" lon="3.71522">
        <ele>612</ele>
        <time>2022-06-21T05:45:02.540Z</time>
      </trkpt>
      <trkpt lat="45.56657" lon="3.71549">
        <ele>611</ele>
        <time>2022-06-21T05:45:05.743Z</time>
      </trkpt>
      <trkpt lat="45.56644" lon="3.71572">
        <ele>608</ele>
        <time>2022-06-21T05:45:07.503Z</time>
      </trkpt>
      <trkpt lat="45.56632" lon="3.71598">
        <ele>606</ele>
        <time>2022-06-21T05:45:09.356Z</time>
      </trkpt>
      <trkpt lat="45.56569" lon="3.71786">
        <ele>598</ele>
        <time>2022-06-21T05:45:21.842Z</time>
      </trkpt>
      <trkpt lat="45.56551" lon="3.71828">
        <ele>596</ele>
        <time>2022-06-21T05:45:24.716Z</time>
      </trkpt>
      <trkpt lat="45.56516" lon="3.71875">
        <ele>597</ele>
        <time>2022-06-21T05:45:34.537Z</time>
      </trkpt>
      <trkpt lat="45.56498" lon="3.71888">
        <ele>599</ele>
        <time>2022-06-21T05:45:43.145Z</time>
      </trkpt>
      <trkpt lat="45.56478" lon="3.71895">
        <ele>600</ele>
        <time>2022-06-21T05:45:49.047Z</time>
      </trkpt>
      <trkpt lat="45.56452" lon="3.71893">
        <ele>599</ele>
        <time>2022-06-21T05:45:51.628Z</time>
      </trkpt>
      <trkpt lat="45.56422" lon="3.71887">
        <ele>596</ele>
        <time>2022-06-21T05:45:54.203Z</time>
      </trkpt>
      <trkpt lat="45.5639" lon="3.71884">
        <ele>596</ele>
        <time>2022-06-21T05:45:59.510Z</time>
      </trkpt>
      <trkpt lat="45.56355" lon="3.71888">
        <ele>597</ele>
        <time>2022-06-21T05:46:07.370Z</time>
      </trkpt>
      <trkpt lat="45.56313" lon="3.71897">
        <ele>598</ele>
        <time>2022-06-21T05:46:16.329Z</time>
      </trkpt>
      <trkpt lat="45.56284" lon="3.71899">
        <ele>595</ele>
        <time>2022-06-21T05:46:18.798Z</time>
      </trkpt>
      <trkpt lat="45.56196" lon="3.71894">
        <ele>585</ele>
        <time>2022-06-21T05:46:26.285Z</time>
      </trkpt>
      <trkpt lat="45.5618" lon="3.71897">
        <ele>585</ele>
        <time>2022-06-21T05:46:28.956Z</time>
      </trkpt>
      <trkpt lat="45.56097" lon="3.71927">
        <ele>581</ele>
        <time>2022-06-21T05:46:36.812Z</time>
      </trkpt>
      <trkpt lat="45.56067" lon="3.71943">
        <ele>577</ele>
        <time>2022-06-21T05:46:39.534Z</time>
      </trkpt>
      <trkpt lat="45.56048" lon="3.71959">
        <ele>575</ele>
        <time>2022-06-21T05:46:41.410Z</time>
      </trkpt>
      <trkpt lat="45.5604" lon="3.71982">
        <ele>574</ele>
        <time>2022-06-21T05:46:42.938Z</time>
      </trkpt>
      <trkpt lat="45.56045" lon="3.72042">
        <ele>577</ele>
        <time>2022-06-21T05:46:57.121Z</time>
      </trkpt>
      <trkpt lat="45.56041" lon="3.72065">
        <ele>576</ele>
        <time>2022-06-21T05:46:58.480Z</time>
      </trkpt>
      <trkpt lat="45.56034" lon="3.7209">
        <ele>575</ele>
        <time>2022-06-21T05:47:00.117Z</time>
      </trkpt>
      <trkpt lat="45.56021" lon="3.72118">
        <ele>574</ele>
        <time>2022-06-21T05:47:02.360Z</time>
      </trkpt>
      <trkpt lat="45.55975" lon="3.72188">
        <ele>571</ele>
        <time>2022-06-21T05:47:08.645Z</time>
      </trkpt>
      <trkpt lat="45.55944" lon="3.72232">
        <ele>567</ele>
        <time>2022-06-21T05:47:12.361Z</time>
      </trkpt>
      <trkpt lat="45.55923" lon="3.72268">
        <ele>564</ele>
        <time>2022-06-21T05:47:15.150Z</time>
      </trkpt>
      <trkpt lat="45.559" lon="3.72328">
        <ele>567</ele>
        <time>2022-06-21T05:47:30.258Z</time>
      </trkpt>
      <trkpt lat="45.55893" lon="3.72372">
        <ele>565</ele>
        <time>2022-06-21T05:47:32.783Z</time>
      </trkpt>
      <trkpt lat="45.55888" lon="3.72429">
        <ele>562</ele>
        <time>2022-06-21T05:47:36.203Z</time>
      </trkpt>
      <trkpt lat="45.55882" lon="3.72451">
        <ele>560</ele>
        <time>2022-06-21T05:47:37.608Z</time>
      </trkpt>
      <trkpt lat="45.55865" lon="3.72491">
        <ele>554</ele>
        <time>2022-06-21T05:47:40.394Z</time>
      </trkpt>
      <trkpt lat="45.55858" lon="3.72536">
        <ele>551</ele>
        <time>2022-06-21T05:47:43.138Z</time>
      </trkpt>
      <trkpt lat="45.55848" lon="3.72669">
        <ele>548</ele>
        <time>2022-06-21T05:47:53.029Z</time>
      </trkpt>
      <trkpt lat="45.55841" lon="3.72696">
        <ele>547</ele>
        <time>2022-06-21T05:47:54.833Z</time>
      </trkpt>
      <trkpt lat="45.55837" lon="3.72707">
        <ele>546</ele>
        <time>2022-06-21T05:47:55.571Z</time>
      </trkpt>
      <trkpt lat="45.55823" lon="3.72728">
        <ele>545</ele>
        <time>2022-06-21T05:47:57.392Z</time>
      </trkpt>
      <trkpt lat="45.55807" lon="3.72744">
        <ele>544</ele>
        <time>2022-06-21T05:47:59.116Z</time>
      </trkpt>
      <trkpt lat="45.55764" lon="3.7278">
        <ele>539</ele>
        <time>2022-06-21T05:48:03.354Z</time>
      </trkpt>
      <trkpt lat="45.55747" lon="3.72801">
        <ele>538</ele>
        <time>2022-06-21T05:48:05.458Z</time>
      </trkpt>
      <trkpt lat="45.5572" lon="3.72853">
        <ele>538</ele>
        <time>2022-06-21T05:48:12.958Z</time>
      </trkpt>
      <trkpt lat="45.55691" lon="3.72916">
        <ele>534</ele>
        <time>2022-06-21T05:48:17.446Z</time>
      </trkpt>
      <trkpt lat="45.55664" lon="3.72948">
        <ele>531</ele>
        <time>2022-06-21T05:48:20.430Z</time>
      </trkpt>
      <trkpt lat="45.55653" lon="3.72956">
        <ele>531</ele>
        <time>2022-06-21T05:48:22.472Z</time>
      </trkpt>
      <trkpt lat="45.55648" lon="3.72959">
        <ele>531</ele>
        <time>2022-06-21T05:48:23.369Z</time>
      </trkpt>
      <trkpt lat="45.55624" lon="3.72979">
        <ele>530</ele>
        <time>2022-06-21T05:48:26.189Z</time>
      </trkpt>
      <trkpt lat="45.556" lon="3.72993">
        <ele>530</ele>
        <time>2022-06-21T05:48:30.479Z</time>
      </trkpt>
      <trkpt lat="45.55541" lon="3.73015">
        <ele>531</ele>
        <time>2022-06-21T05:48:42.352Z</time>
      </trkpt>
      <trkpt lat="45.55506" lon="3.73026">
        <ele>533</ele>
        <time>2022-06-21T05:48:53.130Z</time>
      </trkpt>
      <trkpt lat="45.55465" lon="3.73031">
        <ele>532</ele>
        <time>2022-06-21T05:48:57.851Z</time>
      </trkpt>
      <trkpt lat="45.5534" lon="3.73036">
        <ele>533</ele>
        <time>2022-06-21T05:49:20.177Z</time>
      </trkpt>
      <trkpt lat="45.55295" lon="3.73035">
        <ele>534</ele>
        <time>2022-06-21T05:49:29.527Z</time>
      </trkpt>
      <trkpt lat="45.55134" lon="3.73013">
        <ele>540</ele>
        <time>2022-06-21T05:50:10.062Z</time>
      </trkpt>
      <trkpt lat="45.55096" lon="3.73009">
        <ele>540</ele>
        <time>2022-06-21T05:50:16.366Z</time>
      </trkpt>
      <trkpt lat="45.55069" lon="3.7301">
        <ele>538</ele>
        <time>2022-06-21T05:50:18.663Z</time>
      </trkpt>
      <trkpt lat="45.55051" lon="3.73018">
        <ele>536</ele>
        <time>2022-06-21T05:50:20.266Z</time>
      </trkpt>
      <trkpt lat="45.55055" lon="3.73033">
        <ele>533</ele>
        <time>2022-06-21T05:50:21.221Z</time>
      </trkpt>
      <trkpt lat="45.55054" lon="3.73101">
        <ele>524</ele>
        <time>2022-06-21T05:50:25.271Z</time>
      </trkpt>
      <trkpt lat="45.55055" lon="3.7351">
        <ele>528</ele>
        <time>2022-06-21T05:51:19.613Z</time>
      </trkpt>
      <trkpt lat="45.54967" lon="3.73517">
        <ele>528</ele>
        <time>2022-06-21T05:51:34.196Z</time>
      </trkpt>
      <trkpt lat="45.54938" lon="3.73518">
        <ele>527</ele>
        <time>2022-06-21T05:51:37.185Z</time>
      </trkpt>
      <trkpt lat="45.54933" lon="3.73524">
        <ele>527</ele>
        <time>2022-06-21T05:51:38.265Z</time>
      </trkpt>
      <trkpt lat="45.5493" lon="3.73535">
        <ele>527</ele>
        <time>2022-06-21T05:51:39.633Z</time>
      </trkpt>
      <trkpt lat="45.54711" lon="3.73549">
        <ele>528</ele>
        <time>2022-06-21T05:52:17.487Z</time>
      </trkpt>
    </trkseg>
  </trk>
</gpx>